<?xml version="1.0" encoding="UTF-8" standalone="no" ?>
<gpx xmlns="http://www.topografix.com/GPX/1/1" xmlns:xsi="http://www.w3.org/2001/XMLSchema-instance" xsi:schemaLocation="http://www.topografix.com/GPX/1/1 http://www.topografix.com/GPX/1/1/gpx.xsd" version="1.1" creator="VisuGPX - https://www.visugpx.com">
  <metadata>
    <name>vaiiee du louron 16.04.2017</name>
    <desc><![CDATA[parapente vol dans des conditions fortes ..belle journee avec beaucoup de parapentiste]]></desc>
  </metadata>
  <trk>
    <name><![CDATA[TRK185]]></name>
    <trkseg>
      <trkpt lat="42.80767" lon="0.37683">
        <ele>1563</ele>
        <time>2017-04-16T10:34:30Z</time>
      </trkpt>
      <trkpt lat="42.80767" lon="0.37684">
        <ele>1563.7</ele>
        <time>2017-04-16T10:34:33Z</time>
      </trkpt>
      <trkpt lat="42.80767" lon="0.37684">
        <ele>1564</ele>
        <time>2017-04-16T10:34:36Z</time>
      </trkpt>
      <trkpt lat="42.80767" lon="0.37684">
        <ele>1564</ele>
        <time>2017-04-16T10:34:39Z</time>
      </trkpt>
      <trkpt lat="42.80767" lon="0.37684">
        <ele>1564</ele>
        <time>2017-04-16T10:34:42Z</time>
      </trkpt>
      <trkpt lat="42.80767" lon="0.37684">
        <ele>1563.5</ele>
        <time>2017-04-16T10:34:45Z</time>
      </trkpt>
      <trkpt lat="42.80767" lon="0.37684">
        <ele>1562.5</ele>
        <time>2017-04-16T10:34:48Z</time>
      </trkpt>
      <trkpt lat="42.80767" lon="0.37685">
        <ele>1563.5</ele>
        <time>2017-04-16T10:34:51Z</time>
      </trkpt>
      <trkpt lat="42.80767" lon="0.37685">
        <ele>1563.5</ele>
        <time>2017-04-16T10:34:54Z</time>
      </trkpt>
      <trkpt lat="42.80767" lon="0.37685">
        <ele>1563.5</ele>
        <time>2017-04-16T10:34:57Z</time>
      </trkpt>
      <trkpt lat="42.80767" lon="0.37685">
        <ele>1564.7</ele>
        <time>2017-04-16T10:35:00Z</time>
      </trkpt>
      <trkpt lat="42.80767" lon="0.37685">
        <ele>1564</ele>
        <time>2017-04-16T10:35:03Z</time>
      </trkpt>
      <trkpt lat="42.80767" lon="0.37685">
        <ele>1564.5</ele>
        <time>2017-04-16T10:35:06Z</time>
      </trkpt>
      <trkpt lat="42.80767" lon="0.37685">
        <ele>1565</ele>
        <time>2017-04-16T10:35:09Z</time>
      </trkpt>
      <trkpt lat="42.80767" lon="0.37685">
        <ele>1563.5</ele>
        <time>2017-04-16T10:35:12Z</time>
      </trkpt>
      <trkpt lat="42.80767" lon="0.37685">
        <ele>1563</ele>
        <time>2017-04-16T10:35:15Z</time>
      </trkpt>
      <trkpt lat="42.80768" lon="0.37685">
        <ele>1563.5</ele>
        <time>2017-04-16T10:35:18Z</time>
      </trkpt>
      <trkpt lat="42.80768" lon="0.37685">
        <ele>1563.7</ele>
        <time>2017-04-16T10:35:21Z</time>
      </trkpt>
      <trkpt lat="42.80768" lon="0.37685">
        <ele>1564.7</ele>
        <time>2017-04-16T10:35:24Z</time>
      </trkpt>
      <trkpt lat="42.80768" lon="0.37686">
        <ele>1564</ele>
        <time>2017-04-16T10:35:27Z</time>
      </trkpt>
      <trkpt lat="42.80768" lon="0.37686">
        <ele>1564.2</ele>
        <time>2017-04-16T10:35:30Z</time>
      </trkpt>
      <trkpt lat="42.80768" lon="0.37686">
        <ele>1564</ele>
        <time>2017-04-16T10:35:33Z</time>
      </trkpt>
      <trkpt lat="42.80768" lon="0.37687">
        <ele>1565</ele>
        <time>2017-04-16T10:35:36Z</time>
      </trkpt>
      <trkpt lat="42.80769" lon="0.37687">
        <ele>1564.5</ele>
        <time>2017-04-16T10:35:39Z</time>
      </trkpt>
      <trkpt lat="42.80769" lon="0.37687">
        <ele>1566.2</ele>
        <time>2017-04-16T10:35:42Z</time>
      </trkpt>
      <trkpt lat="42.80769" lon="0.37687">
        <ele>1564.7</ele>
        <time>2017-04-16T10:35:45Z</time>
      </trkpt>
      <trkpt lat="42.80769" lon="0.37686">
        <ele>1564</ele>
        <time>2017-04-16T10:35:48Z</time>
      </trkpt>
      <trkpt lat="42.80769" lon="0.37686">
        <ele>1565</ele>
        <time>2017-04-16T10:35:51Z</time>
      </trkpt>
      <trkpt lat="42.80768" lon="0.37686">
        <ele>1564.2</ele>
        <time>2017-04-16T10:35:54Z</time>
      </trkpt>
      <trkpt lat="42.80768" lon="0.37686">
        <ele>1565.5</ele>
        <time>2017-04-16T10:35:57Z</time>
      </trkpt>
      <trkpt lat="42.80768" lon="0.37686">
        <ele>1564.5</ele>
        <time>2017-04-16T10:36:00Z</time>
      </trkpt>
      <trkpt lat="42.80768" lon="0.37686">
        <ele>1563.5</ele>
        <time>2017-04-16T10:36:03Z</time>
      </trkpt>
      <trkpt lat="42.80768" lon="0.37686">
        <ele>1563</ele>
        <time>2017-04-16T10:36:06Z</time>
      </trkpt>
      <trkpt lat="42.80769" lon="0.37686">
        <ele>1563</ele>
        <time>2017-04-16T10:36:09Z</time>
      </trkpt>
      <trkpt lat="42.80769" lon="0.37686">
        <ele>1564</ele>
        <time>2017-04-16T10:36:12Z</time>
      </trkpt>
      <trkpt lat="42.80769" lon="0.37685">
        <ele>1565</ele>
        <time>2017-04-16T10:36:15Z</time>
      </trkpt>
      <trkpt lat="42.80768" lon="0.37685">
        <ele>1564.2</ele>
        <time>2017-04-16T10:36:18Z</time>
      </trkpt>
      <trkpt lat="42.80768" lon="0.37685">
        <ele>1563.2</ele>
        <time>2017-04-16T10:36:21Z</time>
      </trkpt>
      <trkpt lat="42.80768" lon="0.37685">
        <ele>1564</ele>
        <time>2017-04-16T10:36:24Z</time>
      </trkpt>
      <trkpt lat="42.80768" lon="0.37685">
        <ele>1564.5</ele>
        <time>2017-04-16T10:36:27Z</time>
      </trkpt>
      <trkpt lat="42.80768" lon="0.37685">
        <ele>1564.2</ele>
        <time>2017-04-16T10:36:30Z</time>
      </trkpt>
      <trkpt lat="42.80768" lon="0.37685">
        <ele>1564.7</ele>
        <time>2017-04-16T10:36:33Z</time>
      </trkpt>
      <trkpt lat="42.80768" lon="0.37685">
        <ele>1564.2</ele>
        <time>2017-04-16T10:36:36Z</time>
      </trkpt>
      <trkpt lat="42.80768" lon="0.37685">
        <ele>1564.5</ele>
        <time>2017-04-16T10:36:39Z</time>
      </trkpt>
      <trkpt lat="42.80768" lon="0.37685">
        <ele>1564.2</ele>
        <time>2017-04-16T10:36:42Z</time>
      </trkpt>
      <trkpt lat="42.80768" lon="0.37685">
        <ele>1562.5</ele>
        <time>2017-04-16T10:36:45Z</time>
      </trkpt>
      <trkpt lat="42.80768" lon="0.37685">
        <ele>1564.5</ele>
        <time>2017-04-16T10:36:48Z</time>
      </trkpt>
      <trkpt lat="42.80768" lon="0.37685">
        <ele>1564</ele>
        <time>2017-04-16T10:36:51Z</time>
      </trkpt>
      <trkpt lat="42.80768" lon="0.37685">
        <ele>1564.7</ele>
        <time>2017-04-16T10:36:54Z</time>
      </trkpt>
      <trkpt lat="42.80768" lon="0.37685">
        <ele>1564</ele>
        <time>2017-04-16T10:36:57Z</time>
      </trkpt>
      <trkpt lat="42.80768" lon="0.37685">
        <ele>1642.9</ele>
        <time>2017-04-16T10:36:59Z</time>
      </trkpt>
      <trkpt lat="42.80768" lon="0.37685">
        <ele>1680.9</ele>
        <time>2017-04-16T10:37:00Z</time>
      </trkpt>
      <trkpt lat="42.80768" lon="0.37685">
        <ele>1719</ele>
        <time>2017-04-16T10:37:01Z</time>
      </trkpt>
      <trkpt lat="42.80768" lon="0.37685">
        <ele>1719</ele>
        <time>2017-04-16T10:37:04Z</time>
      </trkpt>
      <trkpt lat="42.80768" lon="0.37685">
        <ele>1718.5</ele>
        <time>2017-04-16T10:37:07Z</time>
      </trkpt>
      <trkpt lat="42.80768" lon="0.37684">
        <ele>1718.5</ele>
        <time>2017-04-16T10:37:10Z</time>
      </trkpt>
      <trkpt lat="42.80768" lon="0.37684">
        <ele>1719</ele>
        <time>2017-04-16T10:37:13Z</time>
      </trkpt>
      <trkpt lat="42.80768" lon="0.37684">
        <ele>1718.5</ele>
        <time>2017-04-16T10:37:16Z</time>
      </trkpt>
      <trkpt lat="42.80768" lon="0.37685">
        <ele>1718.5</ele>
        <time>2017-04-16T10:37:19Z</time>
      </trkpt>
      <trkpt lat="42.80768" lon="0.37685">
        <ele>1717.5</ele>
        <time>2017-04-16T10:37:22Z</time>
      </trkpt>
      <trkpt lat="42.80768" lon="0.37685">
        <ele>1718.5</ele>
        <time>2017-04-16T10:37:25Z</time>
      </trkpt>
      <trkpt lat="42.80768" lon="0.37685">
        <ele>1719</ele>
        <time>2017-04-16T10:37:28Z</time>
      </trkpt>
      <trkpt lat="42.80768" lon="0.37685">
        <ele>1719</ele>
        <time>2017-04-16T10:37:31Z</time>
      </trkpt>
      <trkpt lat="42.80768" lon="0.37684">
        <ele>1717.5</ele>
        <time>2017-04-16T10:37:34Z</time>
      </trkpt>
      <trkpt lat="42.80768" lon="0.37684">
        <ele>1717.7</ele>
        <time>2017-04-16T10:37:37Z</time>
      </trkpt>
      <trkpt lat="42.80768" lon="0.37684">
        <ele>1719</ele>
        <time>2017-04-16T10:37:40Z</time>
      </trkpt>
      <trkpt lat="42.80768" lon="0.37684">
        <ele>1718.5</ele>
        <time>2017-04-16T10:37:43Z</time>
      </trkpt>
      <trkpt lat="42.80768" lon="0.37684">
        <ele>1718.7</ele>
        <time>2017-04-16T10:37:46Z</time>
      </trkpt>
      <trkpt lat="42.80768" lon="0.37684">
        <ele>1718.2</ele>
        <time>2017-04-16T10:37:49Z</time>
      </trkpt>
      <trkpt lat="42.80768" lon="0.37684">
        <ele>1718</ele>
        <time>2017-04-16T10:37:52Z</time>
      </trkpt>
      <trkpt lat="42.80768" lon="0.37684">
        <ele>1720</ele>
        <time>2017-04-16T10:37:55Z</time>
      </trkpt>
      <trkpt lat="42.80768" lon="0.37684">
        <ele>1718.7</ele>
        <time>2017-04-16T10:37:58Z</time>
      </trkpt>
      <trkpt lat="42.80768" lon="0.37684">
        <ele>1719.5</ele>
        <time>2017-04-16T10:38:01Z</time>
      </trkpt>
      <trkpt lat="42.80768" lon="0.37684">
        <ele>1719</ele>
        <time>2017-04-16T10:38:04Z</time>
      </trkpt>
      <trkpt lat="42.80768" lon="0.37684">
        <ele>1718</ele>
        <time>2017-04-16T10:38:07Z</time>
      </trkpt>
      <trkpt lat="42.80768" lon="0.37684">
        <ele>1719.5</ele>
        <time>2017-04-16T10:38:10Z</time>
      </trkpt>
      <trkpt lat="42.80768" lon="0.37684">
        <ele>1719</ele>
        <time>2017-04-16T10:38:13Z</time>
      </trkpt>
      <trkpt lat="42.80768" lon="0.37684">
        <ele>1719</ele>
        <time>2017-04-16T10:38:16Z</time>
      </trkpt>
      <trkpt lat="42.80769" lon="0.37684">
        <ele>1718.5</ele>
        <time>2017-04-16T10:38:19Z</time>
      </trkpt>
      <trkpt lat="42.80768" lon="0.37684">
        <ele>1718.7</ele>
        <time>2017-04-16T10:38:22Z</time>
      </trkpt>
      <trkpt lat="42.80768" lon="0.37684">
        <ele>1718</ele>
        <time>2017-04-16T10:38:25Z</time>
      </trkpt>
      <trkpt lat="42.80768" lon="0.37684">
        <ele>1717.5</ele>
        <time>2017-04-16T10:38:28Z</time>
      </trkpt>
      <trkpt lat="42.80768" lon="0.37684">
        <ele>1718</ele>
        <time>2017-04-16T10:38:31Z</time>
      </trkpt>
      <trkpt lat="42.80768" lon="0.37684">
        <ele>1719</ele>
        <time>2017-04-16T10:38:34Z</time>
      </trkpt>
      <trkpt lat="42.80768" lon="0.37684">
        <ele>1719</ele>
        <time>2017-04-16T10:38:37Z</time>
      </trkpt>
      <trkpt lat="42.80768" lon="0.37684">
        <ele>1719</ele>
        <time>2017-04-16T10:38:40Z</time>
      </trkpt>
      <trkpt lat="42.80768" lon="0.37684">
        <ele>1717</ele>
        <time>2017-04-16T10:38:43Z</time>
      </trkpt>
      <trkpt lat="42.80768" lon="0.37684">
        <ele>1718.5</ele>
        <time>2017-04-16T10:38:46Z</time>
      </trkpt>
      <trkpt lat="42.80768" lon="0.37684">
        <ele>1719</ele>
        <time>2017-04-16T10:38:49Z</time>
      </trkpt>
      <trkpt lat="42.80768" lon="0.37684">
        <ele>1718.5</ele>
        <time>2017-04-16T10:38:52Z</time>
      </trkpt>
      <trkpt lat="42.80768" lon="0.37684">
        <ele>1718.7</ele>
        <time>2017-04-16T10:38:55Z</time>
      </trkpt>
      <trkpt lat="42.80768" lon="0.37684">
        <ele>1718</ele>
        <time>2017-04-16T10:38:58Z</time>
      </trkpt>
      <trkpt lat="42.80768" lon="0.37684">
        <ele>1718</ele>
        <time>2017-04-16T10:39:01Z</time>
      </trkpt>
      <trkpt lat="42.80768" lon="0.37684">
        <ele>1718</ele>
        <time>2017-04-16T10:39:04Z</time>
      </trkpt>
      <trkpt lat="42.80768" lon="0.37684">
        <ele>1718</ele>
        <time>2017-04-16T10:39:07Z</time>
      </trkpt>
      <trkpt lat="42.80768" lon="0.37684">
        <ele>1718</ele>
        <time>2017-04-16T10:39:10Z</time>
      </trkpt>
      <trkpt lat="42.80768" lon="0.37684">
        <ele>1718.5</ele>
        <time>2017-04-16T10:39:13Z</time>
      </trkpt>
      <trkpt lat="42.80768" lon="0.37684">
        <ele>1717.7</ele>
        <time>2017-04-16T10:39:16Z</time>
      </trkpt>
      <trkpt lat="42.80768" lon="0.37684">
        <ele>1718</ele>
        <time>2017-04-16T10:39:19Z</time>
      </trkpt>
      <trkpt lat="42.80768" lon="0.37684">
        <ele>1724</ele>
        <time>2017-04-16T10:39:22Z</time>
      </trkpt>
      <trkpt lat="42.80768" lon="0.37684">
        <ele>1720</ele>
        <time>2017-04-16T10:39:25Z</time>
      </trkpt>
      <trkpt lat="42.80768" lon="0.37684">
        <ele>1722.2</ele>
        <time>2017-04-16T10:39:28Z</time>
      </trkpt>
      <trkpt lat="42.80768" lon="0.37684">
        <ele>1720</ele>
        <time>2017-04-16T10:39:31Z</time>
      </trkpt>
      <trkpt lat="42.80768" lon="0.37683">
        <ele>1719</ele>
        <time>2017-04-16T10:39:34Z</time>
      </trkpt>
      <trkpt lat="42.80768" lon="0.37683">
        <ele>1719.5</ele>
        <time>2017-04-16T10:39:37Z</time>
      </trkpt>
      <trkpt lat="42.80768" lon="0.37683">
        <ele>1718.2</ele>
        <time>2017-04-16T10:39:40Z</time>
      </trkpt>
      <trkpt lat="42.80768" lon="0.37683">
        <ele>1718</ele>
        <time>2017-04-16T10:39:43Z</time>
      </trkpt>
      <trkpt lat="42.80768" lon="0.37683">
        <ele>1718</ele>
        <time>2017-04-16T10:39:46Z</time>
      </trkpt>
      <trkpt lat="42.80768" lon="0.37683">
        <ele>1719.5</ele>
        <time>2017-04-16T10:39:49Z</time>
      </trkpt>
      <trkpt lat="42.80767" lon="0.37683">
        <ele>1720</ele>
        <time>2017-04-16T10:39:52Z</time>
      </trkpt>
      <trkpt lat="42.80767" lon="0.37683">
        <ele>1721.5</ele>
        <time>2017-04-16T10:39:55Z</time>
      </trkpt>
      <trkpt lat="42.80767" lon="0.37683">
        <ele>1720.5</ele>
        <time>2017-04-16T10:39:58Z</time>
      </trkpt>
      <trkpt lat="42.80767" lon="0.37683">
        <ele>1720</ele>
        <time>2017-04-16T10:40:01Z</time>
      </trkpt>
      <trkpt lat="42.80767" lon="0.37683">
        <ele>1720</ele>
        <time>2017-04-16T10:40:04Z</time>
      </trkpt>
      <trkpt lat="42.80767" lon="0.37683">
        <ele>1720</ele>
        <time>2017-04-16T10:40:07Z</time>
      </trkpt>
      <trkpt lat="42.80767" lon="0.37683">
        <ele>1718</ele>
        <time>2017-04-16T10:40:10Z</time>
      </trkpt>
      <trkpt lat="42.80767" lon="0.37683">
        <ele>1717.2</ele>
        <time>2017-04-16T10:40:13Z</time>
      </trkpt>
      <trkpt lat="42.80767" lon="0.37683">
        <ele>1720</ele>
        <time>2017-04-16T10:40:16Z</time>
      </trkpt>
      <trkpt lat="42.80767" lon="0.37683">
        <ele>1721.5</ele>
        <time>2017-04-16T10:40:19Z</time>
      </trkpt>
      <trkpt lat="42.80767" lon="0.37683">
        <ele>1721</ele>
        <time>2017-04-16T10:40:22Z</time>
      </trkpt>
      <trkpt lat="42.80767" lon="0.37682">
        <ele>1720</ele>
        <time>2017-04-16T10:40:25Z</time>
      </trkpt>
      <trkpt lat="42.80767" lon="0.37682">
        <ele>1719.2</ele>
        <time>2017-04-16T10:40:28Z</time>
      </trkpt>
      <trkpt lat="42.80767" lon="0.37682">
        <ele>1720.2</ele>
        <time>2017-04-16T10:40:31Z</time>
      </trkpt>
      <trkpt lat="42.80767" lon="0.37682">
        <ele>1719.5</ele>
        <time>2017-04-16T10:40:34Z</time>
      </trkpt>
      <trkpt lat="42.80767" lon="0.37682">
        <ele>1718.2</ele>
        <time>2017-04-16T10:40:37Z</time>
      </trkpt>
      <trkpt lat="42.80767" lon="0.37682">
        <ele>1719.5</ele>
        <time>2017-04-16T10:40:40Z</time>
      </trkpt>
      <trkpt lat="42.80767" lon="0.37682">
        <ele>1721.5</ele>
        <time>2017-04-16T10:40:43Z</time>
      </trkpt>
      <trkpt lat="42.80767" lon="0.37682">
        <ele>1720.5</ele>
        <time>2017-04-16T10:40:46Z</time>
      </trkpt>
      <trkpt lat="42.80767" lon="0.37682">
        <ele>1718.2</ele>
        <time>2017-04-16T10:40:49Z</time>
      </trkpt>
      <trkpt lat="42.80767" lon="0.37682">
        <ele>1720</ele>
        <time>2017-04-16T10:40:52Z</time>
      </trkpt>
      <trkpt lat="42.80767" lon="0.37682">
        <ele>1721</ele>
        <time>2017-04-16T10:40:55Z</time>
      </trkpt>
      <trkpt lat="42.80766" lon="0.37682">
        <ele>1720</ele>
        <time>2017-04-16T10:40:58Z</time>
      </trkpt>
      <trkpt lat="42.80766" lon="0.37682">
        <ele>1720</ele>
        <time>2017-04-16T10:41:01Z</time>
      </trkpt>
      <trkpt lat="42.80766" lon="0.37682">
        <ele>1720</ele>
        <time>2017-04-16T10:41:04Z</time>
      </trkpt>
      <trkpt lat="42.80766" lon="0.37682">
        <ele>1720.5</ele>
        <time>2017-04-16T10:41:07Z</time>
      </trkpt>
      <trkpt lat="42.80766" lon="0.37682">
        <ele>1721</ele>
        <time>2017-04-16T10:41:10Z</time>
      </trkpt>
      <trkpt lat="42.80766" lon="0.37682">
        <ele>1719.5</ele>
        <time>2017-04-16T10:41:13Z</time>
      </trkpt>
      <trkpt lat="42.80766" lon="0.37682">
        <ele>1720</ele>
        <time>2017-04-16T10:41:16Z</time>
      </trkpt>
      <trkpt lat="42.80766" lon="0.37683">
        <ele>1719.5</ele>
        <time>2017-04-16T10:41:19Z</time>
      </trkpt>
      <trkpt lat="42.80766" lon="0.37683">
        <ele>1719.7</ele>
        <time>2017-04-16T10:41:22Z</time>
      </trkpt>
      <trkpt lat="42.80766" lon="0.37683">
        <ele>1719.2</ele>
        <time>2017-04-16T10:41:25Z</time>
      </trkpt>
      <trkpt lat="42.80766" lon="0.37683">
        <ele>1719</ele>
        <time>2017-04-16T10:41:28Z</time>
      </trkpt>
      <trkpt lat="42.80766" lon="0.37683">
        <ele>1720</ele>
        <time>2017-04-16T10:41:31Z</time>
      </trkpt>
      <trkpt lat="42.80766" lon="0.37683">
        <ele>1719</ele>
        <time>2017-04-16T10:41:34Z</time>
      </trkpt>
      <trkpt lat="42.80766" lon="0.37683">
        <ele>1719</ele>
        <time>2017-04-16T10:41:37Z</time>
      </trkpt>
      <trkpt lat="42.80766" lon="0.37683">
        <ele>1718.2</ele>
        <time>2017-04-16T10:41:40Z</time>
      </trkpt>
      <trkpt lat="42.80766" lon="0.37683">
        <ele>1719.5</ele>
        <time>2017-04-16T10:41:43Z</time>
      </trkpt>
      <trkpt lat="42.80766" lon="0.37683">
        <ele>1720</ele>
        <time>2017-04-16T10:41:46Z</time>
      </trkpt>
      <trkpt lat="42.80766" lon="0.37683">
        <ele>1720</ele>
        <time>2017-04-16T10:41:49Z</time>
      </trkpt>
      <trkpt lat="42.80766" lon="0.37683">
        <ele>1718</ele>
        <time>2017-04-16T10:41:52Z</time>
      </trkpt>
      <trkpt lat="42.80765" lon="0.37683">
        <ele>1719.5</ele>
        <time>2017-04-16T10:41:55Z</time>
      </trkpt>
      <trkpt lat="42.80765" lon="0.37683">
        <ele>1719.2</ele>
        <time>2017-04-16T10:41:58Z</time>
      </trkpt>
      <trkpt lat="42.80765" lon="0.37683">
        <ele>1719</ele>
        <time>2017-04-16T10:42:01Z</time>
      </trkpt>
      <trkpt lat="42.80765" lon="0.37683">
        <ele>1720</ele>
        <time>2017-04-16T10:42:04Z</time>
      </trkpt>
      <trkpt lat="42.80765" lon="0.37683">
        <ele>1720</ele>
        <time>2017-04-16T10:42:07Z</time>
      </trkpt>
      <trkpt lat="42.80765" lon="0.37683">
        <ele>1721.7</ele>
        <time>2017-04-16T10:42:10Z</time>
      </trkpt>
      <trkpt lat="42.80765" lon="0.37683">
        <ele>1719</ele>
        <time>2017-04-16T10:42:13Z</time>
      </trkpt>
      <trkpt lat="42.80765" lon="0.37683">
        <ele>1718.5</ele>
        <time>2017-04-16T10:42:16Z</time>
      </trkpt>
      <trkpt lat="42.80765" lon="0.37683">
        <ele>1719</ele>
        <time>2017-04-16T10:42:19Z</time>
      </trkpt>
      <trkpt lat="42.80765" lon="0.37683">
        <ele>1719</ele>
        <time>2017-04-16T10:42:22Z</time>
      </trkpt>
      <trkpt lat="42.80765" lon="0.37683">
        <ele>1720.5</ele>
        <time>2017-04-16T10:42:25Z</time>
      </trkpt>
      <trkpt lat="42.80765" lon="0.37683">
        <ele>1721.5</ele>
        <time>2017-04-16T10:42:28Z</time>
      </trkpt>
      <trkpt lat="42.80765" lon="0.37683">
        <ele>1719</ele>
        <time>2017-04-16T10:42:31Z</time>
      </trkpt>
      <trkpt lat="42.80765" lon="0.37683">
        <ele>1719</ele>
        <time>2017-04-16T10:42:34Z</time>
      </trkpt>
      <trkpt lat="42.80765" lon="0.37683">
        <ele>1719.5</ele>
        <time>2017-04-16T10:42:37Z</time>
      </trkpt>
      <trkpt lat="42.80765" lon="0.37683">
        <ele>1719</ele>
        <time>2017-04-16T10:42:40Z</time>
      </trkpt>
      <trkpt lat="42.80765" lon="0.37683">
        <ele>1719.5</ele>
        <time>2017-04-16T10:42:43Z</time>
      </trkpt>
      <trkpt lat="42.80765" lon="0.37683">
        <ele>1720</ele>
        <time>2017-04-16T10:42:46Z</time>
      </trkpt>
      <trkpt lat="42.80765" lon="0.37683">
        <ele>1721</ele>
        <time>2017-04-16T10:42:49Z</time>
      </trkpt>
      <trkpt lat="42.80765" lon="0.37683">
        <ele>1720.5</ele>
        <time>2017-04-16T10:42:52Z</time>
      </trkpt>
      <trkpt lat="42.80765" lon="0.37683">
        <ele>1719.5</ele>
        <time>2017-04-16T10:42:55Z</time>
      </trkpt>
      <trkpt lat="42.80766" lon="0.37683">
        <ele>1717.8</ele>
        <time>2017-04-16T10:42:58Z</time>
      </trkpt>
      <trkpt lat="42.80766" lon="0.37683">
        <ele>1718.5</ele>
        <time>2017-04-16T10:43:01Z</time>
      </trkpt>
      <trkpt lat="42.80766" lon="0.37683">
        <ele>1718.5</ele>
        <time>2017-04-16T10:43:04Z</time>
      </trkpt>
      <trkpt lat="42.80766" lon="0.37683">
        <ele>1719.5</ele>
        <time>2017-04-16T10:43:07Z</time>
      </trkpt>
      <trkpt lat="42.80766" lon="0.37682">
        <ele>1719</ele>
        <time>2017-04-16T10:43:10Z</time>
      </trkpt>
      <trkpt lat="42.80765" lon="0.37683">
        <ele>1719</ele>
        <time>2017-04-16T10:43:13Z</time>
      </trkpt>
      <trkpt lat="42.80765" lon="0.37682">
        <ele>1717.5</ele>
        <time>2017-04-16T10:43:16Z</time>
      </trkpt>
      <trkpt lat="42.80765" lon="0.37682">
        <ele>1718.5</ele>
        <time>2017-04-16T10:43:19Z</time>
      </trkpt>
      <trkpt lat="42.80765" lon="0.37682">
        <ele>1718</ele>
        <time>2017-04-16T10:43:22Z</time>
      </trkpt>
      <trkpt lat="42.80765" lon="0.37682">
        <ele>1719</ele>
        <time>2017-04-16T10:43:25Z</time>
      </trkpt>
      <trkpt lat="42.80765" lon="0.37682">
        <ele>1719</ele>
        <time>2017-04-16T10:43:28Z</time>
      </trkpt>
      <trkpt lat="42.80765" lon="0.37682">
        <ele>1719</ele>
        <time>2017-04-16T10:43:31Z</time>
      </trkpt>
      <trkpt lat="42.80765" lon="0.37682">
        <ele>1718.5</ele>
        <time>2017-04-16T10:43:34Z</time>
      </trkpt>
      <trkpt lat="42.80765" lon="0.37682">
        <ele>1719</ele>
        <time>2017-04-16T10:43:37Z</time>
      </trkpt>
      <trkpt lat="42.80765" lon="0.37682">
        <ele>1717.7</ele>
        <time>2017-04-16T10:43:40Z</time>
      </trkpt>
      <trkpt lat="42.80765" lon="0.37682">
        <ele>1716.5</ele>
        <time>2017-04-16T10:43:43Z</time>
      </trkpt>
      <trkpt lat="42.80765" lon="0.37682">
        <ele>1716.5</ele>
        <time>2017-04-16T10:43:46Z</time>
      </trkpt>
      <trkpt lat="42.80765" lon="0.37682">
        <ele>1715.5</ele>
        <time>2017-04-16T10:43:49Z</time>
      </trkpt>
      <trkpt lat="42.80765" lon="0.37682">
        <ele>1716.5</ele>
        <time>2017-04-16T10:43:52Z</time>
      </trkpt>
      <trkpt lat="42.80765" lon="0.37683">
        <ele>1718</ele>
        <time>2017-04-16T10:43:55Z</time>
      </trkpt>
      <trkpt lat="42.80765" lon="0.37683">
        <ele>1716.7</ele>
        <time>2017-04-16T10:43:58Z</time>
      </trkpt>
      <trkpt lat="42.80765" lon="0.37683">
        <ele>1717.5</ele>
        <time>2017-04-16T10:44:01Z</time>
      </trkpt>
      <trkpt lat="42.80765" lon="0.37683">
        <ele>1715.7</ele>
        <time>2017-04-16T10:44:04Z</time>
      </trkpt>
      <trkpt lat="42.80765" lon="0.37683">
        <ele>1716</ele>
        <time>2017-04-16T10:44:07Z</time>
      </trkpt>
      <trkpt lat="42.80765" lon="0.37683">
        <ele>1716.5</ele>
        <time>2017-04-16T10:44:10Z</time>
      </trkpt>
      <trkpt lat="42.80765" lon="0.37684">
        <ele>1716</ele>
        <time>2017-04-16T10:44:13Z</time>
      </trkpt>
      <trkpt lat="42.80766" lon="0.37685">
        <ele>1716</ele>
        <time>2017-04-16T10:44:16Z</time>
      </trkpt>
      <trkpt lat="42.80766" lon="0.37684">
        <ele>1715.5</ele>
        <time>2017-04-16T10:44:19Z</time>
      </trkpt>
      <trkpt lat="42.80766" lon="0.37685">
        <ele>1715.5</ele>
        <time>2017-04-16T10:44:22Z</time>
      </trkpt>
      <trkpt lat="42.80766" lon="0.37684">
        <ele>1716.7</ele>
        <time>2017-04-16T10:44:25Z</time>
      </trkpt>
      <trkpt lat="42.80767" lon="0.37686">
        <ele>1717.7</ele>
        <time>2017-04-16T10:44:28Z</time>
      </trkpt>
      <trkpt lat="42.80768" lon="0.37687">
        <ele>1716</ele>
        <time>2017-04-16T10:44:31Z</time>
      </trkpt>
      <trkpt lat="42.80768" lon="0.37687">
        <ele>1717</ele>
        <time>2017-04-16T10:44:34Z</time>
      </trkpt>
      <trkpt lat="42.80768" lon="0.37688">
        <ele>1715</ele>
        <time>2017-04-16T10:44:37Z</time>
      </trkpt>
      <trkpt lat="42.80768" lon="0.37688">
        <ele>1718</ele>
        <time>2017-04-16T10:44:40Z</time>
      </trkpt>
      <trkpt lat="42.80768" lon="0.37688">
        <ele>1716.5</ele>
        <time>2017-04-16T10:44:43Z</time>
      </trkpt>
      <trkpt lat="42.80768" lon="0.37689">
        <ele>1715.5</ele>
        <time>2017-04-16T10:44:46Z</time>
      </trkpt>
      <trkpt lat="42.80768" lon="0.37689">
        <ele>1717</ele>
        <time>2017-04-16T10:44:49Z</time>
      </trkpt>
      <trkpt lat="42.80768" lon="0.37689">
        <ele>1718</ele>
        <time>2017-04-16T10:44:52Z</time>
      </trkpt>
      <trkpt lat="42.80768" lon="0.37689">
        <ele>1716.5</ele>
        <time>2017-04-16T10:44:55Z</time>
      </trkpt>
      <trkpt lat="42.80768" lon="0.37689">
        <ele>1716</ele>
        <time>2017-04-16T10:44:58Z</time>
      </trkpt>
      <trkpt lat="42.80767" lon="0.37689">
        <ele>1717.2</ele>
        <time>2017-04-16T10:45:01Z</time>
      </trkpt>
      <trkpt lat="42.80767" lon="0.37689">
        <ele>1717</ele>
        <time>2017-04-16T10:45:04Z</time>
      </trkpt>
      <trkpt lat="42.80767" lon="0.37689">
        <ele>1717.5</ele>
        <time>2017-04-16T10:45:07Z</time>
      </trkpt>
      <trkpt lat="42.80767" lon="0.37689">
        <ele>1716.2</ele>
        <time>2017-04-16T10:45:10Z</time>
      </trkpt>
      <trkpt lat="42.80767" lon="0.3769">
        <ele>1716</ele>
        <time>2017-04-16T10:45:13Z</time>
      </trkpt>
      <trkpt lat="42.80767" lon="0.3769">
        <ele>1717</ele>
        <time>2017-04-16T10:45:16Z</time>
      </trkpt>
      <trkpt lat="42.80767" lon="0.3769">
        <ele>1716.5</ele>
        <time>2017-04-16T10:45:19Z</time>
      </trkpt>
      <trkpt lat="42.80767" lon="0.3769">
        <ele>1719</ele>
        <time>2017-04-16T10:45:22Z</time>
      </trkpt>
      <trkpt lat="42.80767" lon="0.3769">
        <ele>1717</ele>
        <time>2017-04-16T10:45:25Z</time>
      </trkpt>
      <trkpt lat="42.80767" lon="0.3769">
        <ele>1717.2</ele>
        <time>2017-04-16T10:45:28Z</time>
      </trkpt>
      <trkpt lat="42.80767" lon="0.3769">
        <ele>1718</ele>
        <time>2017-04-16T10:45:31Z</time>
      </trkpt>
      <trkpt lat="42.80767" lon="0.3769">
        <ele>1716</ele>
        <time>2017-04-16T10:45:34Z</time>
      </trkpt>
      <trkpt lat="42.80767" lon="0.3769">
        <ele>1716</ele>
        <time>2017-04-16T10:45:37Z</time>
      </trkpt>
      <trkpt lat="42.80767" lon="0.3769">
        <ele>1716.5</ele>
        <time>2017-04-16T10:45:40Z</time>
      </trkpt>
      <trkpt lat="42.80767" lon="0.3769">
        <ele>1717</ele>
        <time>2017-04-16T10:45:43Z</time>
      </trkpt>
      <trkpt lat="42.80766" lon="0.3769">
        <ele>1718</ele>
        <time>2017-04-16T10:45:46Z</time>
      </trkpt>
      <trkpt lat="42.80766" lon="0.3769">
        <ele>1716.5</ele>
        <time>2017-04-16T10:45:49Z</time>
      </trkpt>
      <trkpt lat="42.80766" lon="0.3769">
        <ele>1717</ele>
        <time>2017-04-16T10:45:52Z</time>
      </trkpt>
      <trkpt lat="42.80766" lon="0.3769">
        <ele>1716.2</ele>
        <time>2017-04-16T10:45:55Z</time>
      </trkpt>
      <trkpt lat="42.80767" lon="0.37689">
        <ele>1718.2</ele>
        <time>2017-04-16T10:45:58Z</time>
      </trkpt>
      <trkpt lat="42.80767" lon="0.37689">
        <ele>1717</ele>
        <time>2017-04-16T10:46:01Z</time>
      </trkpt>
      <trkpt lat="42.80767" lon="0.3769">
        <ele>1717</ele>
        <time>2017-04-16T10:46:04Z</time>
      </trkpt>
      <trkpt lat="42.80767" lon="0.37691">
        <ele>1717.5</ele>
        <time>2017-04-16T10:46:07Z</time>
      </trkpt>
      <trkpt lat="42.80768" lon="0.37693">
        <ele>1716.5</ele>
        <time>2017-04-16T10:46:10Z</time>
      </trkpt>
      <trkpt lat="42.80768" lon="0.377">
        <ele>1715.5</ele>
        <time>2017-04-16T10:46:13Z</time>
      </trkpt>
      <trkpt lat="42.80768" lon="0.37712">
        <ele>1714</ele>
        <time>2017-04-16T10:46:16Z</time>
      </trkpt>
      <trkpt lat="42.80766" lon="0.37728">
        <ele>1713</ele>
        <time>2017-04-16T10:46:18Z</time>
      </trkpt>
      <trkpt lat="42.80764" lon="0.37748">
        <ele>1709.5</ele>
        <time>2017-04-16T10:46:20Z</time>
      </trkpt>
      <trkpt lat="42.80768" lon="0.37767">
        <ele>1711</ele>
        <time>2017-04-16T10:46:22Z</time>
      </trkpt>
      <trkpt lat="42.80773" lon="0.37781">
        <ele>1712</ele>
        <time>2017-04-16T10:46:24Z</time>
      </trkpt>
      <trkpt lat="42.80773" lon="0.37799">
        <ele>1710</ele>
        <time>2017-04-16T10:46:26Z</time>
      </trkpt>
      <trkpt lat="42.80768" lon="0.37819">
        <ele>1709.5</ele>
        <time>2017-04-16T10:46:28Z</time>
      </trkpt>
      <trkpt lat="42.80764" lon="0.37838">
        <ele>1707</ele>
        <time>2017-04-16T10:46:30Z</time>
      </trkpt>
      <trkpt lat="42.80761" lon="0.37858">
        <ele>1704.2</ele>
        <time>2017-04-16T10:46:32Z</time>
      </trkpt>
      <trkpt lat="42.80758" lon="0.37878">
        <ele>1704</ele>
        <time>2017-04-16T10:46:34Z</time>
      </trkpt>
      <trkpt lat="42.80754" lon="0.37898">
        <ele>1701.7</ele>
        <time>2017-04-16T10:46:36Z</time>
      </trkpt>
      <trkpt lat="42.80752" lon="0.3792">
        <ele>1702</ele>
        <time>2017-04-16T10:46:38Z</time>
      </trkpt>
      <trkpt lat="42.80749" lon="0.37939">
        <ele>1700</ele>
        <time>2017-04-16T10:46:40Z</time>
      </trkpt>
      <trkpt lat="42.80745" lon="0.37953">
        <ele>1700.2</ele>
        <time>2017-04-16T10:46:42Z</time>
      </trkpt>
      <trkpt lat="42.8074" lon="0.37968">
        <ele>1699</ele>
        <time>2017-04-16T10:46:44Z</time>
      </trkpt>
      <trkpt lat="42.80734" lon="0.37981">
        <ele>1697</ele>
        <time>2017-04-16T10:46:46Z</time>
      </trkpt>
      <trkpt lat="42.8073" lon="0.37997">
        <ele>1699.2</ele>
        <time>2017-04-16T10:46:48Z</time>
      </trkpt>
      <trkpt lat="42.80733" lon="0.38015">
        <ele>1698.5</ele>
        <time>2017-04-16T10:46:50Z</time>
      </trkpt>
      <trkpt lat="42.80741" lon="0.38032">
        <ele>1698</ele>
        <time>2017-04-16T10:46:52Z</time>
      </trkpt>
      <trkpt lat="42.80746" lon="0.38049">
        <ele>1695</ele>
        <time>2017-04-16T10:46:54Z</time>
      </trkpt>
      <trkpt lat="42.80753" lon="0.38065">
        <ele>1693.2</ele>
        <time>2017-04-16T10:46:56Z</time>
      </trkpt>
      <trkpt lat="42.80762" lon="0.38077">
        <ele>1693</ele>
        <time>2017-04-16T10:46:58Z</time>
      </trkpt>
      <trkpt lat="42.80765" lon="0.38091">
        <ele>1693.7</ele>
        <time>2017-04-16T10:47:00Z</time>
      </trkpt>
      <trkpt lat="42.80766" lon="0.38108">
        <ele>1692.5</ele>
        <time>2017-04-16T10:47:02Z</time>
      </trkpt>
      <trkpt lat="42.8077" lon="0.38119">
        <ele>1691</ele>
        <time>2017-04-16T10:47:04Z</time>
      </trkpt>
      <trkpt lat="42.80774" lon="0.3813">
        <ele>1688.5</ele>
        <time>2017-04-16T10:47:06Z</time>
      </trkpt>
      <trkpt lat="42.80776" lon="0.38147">
        <ele>1683.5</ele>
        <time>2017-04-16T10:47:08Z</time>
      </trkpt>
      <trkpt lat="42.80778" lon="0.38163">
        <ele>1678.5</ele>
        <time>2017-04-16T10:47:10Z</time>
      </trkpt>
      <trkpt lat="42.80781" lon="0.38178">
        <ele>1676</ele>
        <time>2017-04-16T10:47:12Z</time>
      </trkpt>
      <trkpt lat="42.80784" lon="0.38194">
        <ele>1675.5</ele>
        <time>2017-04-16T10:47:14Z</time>
      </trkpt>
      <trkpt lat="42.80788" lon="0.38208">
        <ele>1670.5</ele>
        <time>2017-04-16T10:47:16Z</time>
      </trkpt>
      <trkpt lat="42.80793" lon="0.38222">
        <ele>1670</ele>
        <time>2017-04-16T10:47:18Z</time>
      </trkpt>
      <trkpt lat="42.80796" lon="0.38236">
        <ele>1670.5</ele>
        <time>2017-04-16T10:47:20Z</time>
      </trkpt>
      <trkpt lat="42.808" lon="0.38251">
        <ele>1675</ele>
        <time>2017-04-16T10:47:23Z</time>
      </trkpt>
      <trkpt lat="42.80804" lon="0.38263">
        <ele>1677.2</ele>
        <time>2017-04-16T10:47:25Z</time>
      </trkpt>
      <trkpt lat="42.80808" lon="0.38275">
        <ele>1678</ele>
        <time>2017-04-16T10:47:27Z</time>
      </trkpt>
      <trkpt lat="42.80815" lon="0.38289">
        <ele>1678.7</ele>
        <time>2017-04-16T10:47:29Z</time>
      </trkpt>
      <trkpt lat="42.80822" lon="0.38303">
        <ele>1679</ele>
        <time>2017-04-16T10:47:31Z</time>
      </trkpt>
      <trkpt lat="42.8083" lon="0.38316">
        <ele>1680</ele>
        <time>2017-04-16T10:47:33Z</time>
      </trkpt>
      <trkpt lat="42.80838" lon="0.38327">
        <ele>1679</ele>
        <time>2017-04-16T10:47:35Z</time>
      </trkpt>
      <trkpt lat="42.80848" lon="0.38334">
        <ele>1681.5</ele>
        <time>2017-04-16T10:47:37Z</time>
      </trkpt>
      <trkpt lat="42.80856" lon="0.38338">
        <ele>1684</ele>
        <time>2017-04-16T10:47:39Z</time>
      </trkpt>
      <trkpt lat="42.80864" lon="0.38344">
        <ele>1686.5</ele>
        <time>2017-04-16T10:47:41Z</time>
      </trkpt>
      <trkpt lat="42.80874" lon="0.38352">
        <ele>1689</ele>
        <time>2017-04-16T10:47:43Z</time>
      </trkpt>
      <trkpt lat="42.80883" lon="0.38362">
        <ele>1692.5</ele>
        <time>2017-04-16T10:47:46Z</time>
      </trkpt>
      <trkpt lat="42.80891" lon="0.38372">
        <ele>1693.5</ele>
        <time>2017-04-16T10:47:48Z</time>
      </trkpt>
      <trkpt lat="42.809" lon="0.38387">
        <ele>1690.5</ele>
        <time>2017-04-16T10:47:50Z</time>
      </trkpt>
      <trkpt lat="42.80908" lon="0.38395">
        <ele>1689.7</ele>
        <time>2017-04-16T10:47:52Z</time>
      </trkpt>
      <trkpt lat="42.80918" lon="0.38406">
        <ele>1683.2</ele>
        <time>2017-04-16T10:47:55Z</time>
      </trkpt>
      <trkpt lat="42.80912" lon="0.38417">
        <ele>1682</ele>
        <time>2017-04-16T10:47:57Z</time>
      </trkpt>
      <trkpt lat="42.80903" lon="0.38416">
        <ele>1680</ele>
        <time>2017-04-16T10:47:58Z</time>
      </trkpt>
      <trkpt lat="42.80892" lon="0.38407">
        <ele>1679</ele>
        <time>2017-04-16T10:47:59Z</time>
      </trkpt>
      <trkpt lat="42.80885" lon="0.38392">
        <ele>1672.7</ele>
        <time>2017-04-16T10:48:00Z</time>
      </trkpt>
      <trkpt lat="42.80882" lon="0.38374">
        <ele>1672.7</ele>
        <time>2017-04-16T10:48:01Z</time>
      </trkpt>
      <trkpt lat="42.80879" lon="0.38357">
        <ele>1671</ele>
        <time>2017-04-16T10:48:02Z</time>
      </trkpt>
      <trkpt lat="42.80877" lon="0.38341">
        <ele>1668.5</ele>
        <time>2017-04-16T10:48:03Z</time>
      </trkpt>
      <trkpt lat="42.80873" lon="0.38326">
        <ele>1664.5</ele>
        <time>2017-04-16T10:48:04Z</time>
      </trkpt>
      <trkpt lat="42.80866" lon="0.3831">
        <ele>1664.5</ele>
        <time>2017-04-16T10:48:05Z</time>
      </trkpt>
      <trkpt lat="42.80856" lon="0.38295">
        <ele>1663.7</ele>
        <time>2017-04-16T10:48:06Z</time>
      </trkpt>
      <trkpt lat="42.80846" lon="0.38282">
        <ele>1661.5</ele>
        <time>2017-04-16T10:48:07Z</time>
      </trkpt>
      <trkpt lat="42.80836" lon="0.38274">
        <ele>1660.7</ele>
        <time>2017-04-16T10:48:08Z</time>
      </trkpt>
      <trkpt lat="42.80824" lon="0.38275">
        <ele>1662</ele>
        <time>2017-04-16T10:48:10Z</time>
      </trkpt>
      <trkpt lat="42.80822" lon="0.38288">
        <ele>1665</ele>
        <time>2017-04-16T10:48:12Z</time>
      </trkpt>
      <trkpt lat="42.80824" lon="0.38304">
        <ele>1668</ele>
        <time>2017-04-16T10:48:14Z</time>
      </trkpt>
      <trkpt lat="42.80835" lon="0.38311">
        <ele>1672.5</ele>
        <time>2017-04-16T10:48:17Z</time>
      </trkpt>
      <trkpt lat="42.80847" lon="0.38313">
        <ele>1674</ele>
        <time>2017-04-16T10:48:19Z</time>
      </trkpt>
      <trkpt lat="42.80853" lon="0.38324">
        <ele>1673</ele>
        <time>2017-04-16T10:48:21Z</time>
      </trkpt>
      <trkpt lat="42.80849" lon="0.38339">
        <ele>1667</ele>
        <time>2017-04-16T10:48:23Z</time>
      </trkpt>
      <trkpt lat="42.80847" lon="0.38354">
        <ele>1662.7</ele>
        <time>2017-04-16T10:48:25Z</time>
      </trkpt>
      <trkpt lat="42.80849" lon="0.3837">
        <ele>1661</ele>
        <time>2017-04-16T10:48:27Z</time>
      </trkpt>
      <trkpt lat="42.80849" lon="0.38391">
        <ele>1660.5</ele>
        <time>2017-04-16T10:48:29Z</time>
      </trkpt>
      <trkpt lat="42.80853" lon="0.38403">
        <ele>1661.5</ele>
        <time>2017-04-16T10:48:31Z</time>
      </trkpt>
      <trkpt lat="42.80866" lon="0.3841">
        <ele>1662.2</ele>
        <time>2017-04-16T10:48:34Z</time>
      </trkpt>
      <trkpt lat="42.80875" lon="0.3842">
        <ele>1663</ele>
        <time>2017-04-16T10:48:36Z</time>
      </trkpt>
      <trkpt lat="42.80883" lon="0.38428">
        <ele>1661.5</ele>
        <time>2017-04-16T10:48:38Z</time>
      </trkpt>
      <trkpt lat="42.80886" lon="0.38447">
        <ele>1655.5</ele>
        <time>2017-04-16T10:48:41Z</time>
      </trkpt>
      <trkpt lat="42.80885" lon="0.38457">
        <ele>1648.5</ele>
        <time>2017-04-16T10:48:42Z</time>
      </trkpt>
      <trkpt lat="42.80885" lon="0.38475">
        <ele>1646.7</ele>
        <time>2017-04-16T10:48:44Z</time>
      </trkpt>
      <trkpt lat="42.80887" lon="0.38494">
        <ele>1647</ele>
        <time>2017-04-16T10:48:47Z</time>
      </trkpt>
      <trkpt lat="42.80889" lon="0.38513">
        <ele>1646</ele>
        <time>2017-04-16T10:48:49Z</time>
      </trkpt>
      <trkpt lat="42.8089" lon="0.38525">
        <ele>1643.5</ele>
        <time>2017-04-16T10:48:50Z</time>
      </trkpt>
      <trkpt lat="42.80891" lon="0.38537">
        <ele>1642.7</ele>
        <time>2017-04-16T10:48:51Z</time>
      </trkpt>
      <trkpt lat="42.80896" lon="0.38559">
        <ele>1641.2</ele>
        <time>2017-04-16T10:48:53Z</time>
      </trkpt>
      <trkpt lat="42.80905" lon="0.38573">
        <ele>1643.5</ele>
        <time>2017-04-16T10:48:55Z</time>
      </trkpt>
      <trkpt lat="42.80914" lon="0.38581">
        <ele>1649</ele>
        <time>2017-04-16T10:48:57Z</time>
      </trkpt>
      <trkpt lat="42.80925" lon="0.38589">
        <ele>1652</ele>
        <time>2017-04-16T10:48:59Z</time>
      </trkpt>
      <trkpt lat="42.80935" lon="0.38599">
        <ele>1652.7</ele>
        <time>2017-04-16T10:49:01Z</time>
      </trkpt>
      <trkpt lat="42.80943" lon="0.38608">
        <ele>1653</ele>
        <time>2017-04-16T10:49:03Z</time>
      </trkpt>
      <trkpt lat="42.80952" lon="0.38621">
        <ele>1650</ele>
        <time>2017-04-16T10:49:05Z</time>
      </trkpt>
      <trkpt lat="42.8096" lon="0.38632">
        <ele>1648</ele>
        <time>2017-04-16T10:49:07Z</time>
      </trkpt>
      <trkpt lat="42.80968" lon="0.38645">
        <ele>1647</ele>
        <time>2017-04-16T10:49:09Z</time>
      </trkpt>
      <trkpt lat="42.80975" lon="0.3866">
        <ele>1646.5</ele>
        <time>2017-04-16T10:49:11Z</time>
      </trkpt>
      <trkpt lat="42.80981" lon="0.38676">
        <ele>1646.2</ele>
        <time>2017-04-16T10:49:13Z</time>
      </trkpt>
      <trkpt lat="42.8099" lon="0.38691">
        <ele>1646</ele>
        <time>2017-04-16T10:49:15Z</time>
      </trkpt>
      <trkpt lat="42.80999" lon="0.38706">
        <ele>1649</ele>
        <time>2017-04-16T10:49:17Z</time>
      </trkpt>
      <trkpt lat="42.81009" lon="0.38718">
        <ele>1651.5</ele>
        <time>2017-04-16T10:49:19Z</time>
      </trkpt>
      <trkpt lat="42.81022" lon="0.38729">
        <ele>1653</ele>
        <time>2017-04-16T10:49:21Z</time>
      </trkpt>
      <trkpt lat="42.81029" lon="0.38742">
        <ele>1657</ele>
        <time>2017-04-16T10:49:23Z</time>
      </trkpt>
      <trkpt lat="42.81026" lon="0.38756">
        <ele>1660</ele>
        <time>2017-04-16T10:49:25Z</time>
      </trkpt>
      <trkpt lat="42.81009" lon="0.38758">
        <ele>1659.2</ele>
        <time>2017-04-16T10:49:27Z</time>
      </trkpt>
      <trkpt lat="42.81001" lon="0.38748">
        <ele>1660.5</ele>
        <time>2017-04-16T10:49:28Z</time>
      </trkpt>
      <trkpt lat="42.80997" lon="0.38731">
        <ele>1660.5</ele>
        <time>2017-04-16T10:49:29Z</time>
      </trkpt>
      <trkpt lat="42.80996" lon="0.38713">
        <ele>1661.5</ele>
        <time>2017-04-16T10:49:30Z</time>
      </trkpt>
      <trkpt lat="42.80996" lon="0.38695">
        <ele>1661.7</ele>
        <time>2017-04-16T10:49:31Z</time>
      </trkpt>
      <trkpt lat="42.80995" lon="0.3868">
        <ele>1662</ele>
        <time>2017-04-16T10:49:32Z</time>
      </trkpt>
      <trkpt lat="42.8099" lon="0.38666">
        <ele>1665</ele>
        <time>2017-04-16T10:49:33Z</time>
      </trkpt>
      <trkpt lat="42.80985" lon="0.38653">
        <ele>1669</ele>
        <time>2017-04-16T10:49:34Z</time>
      </trkpt>
      <trkpt lat="42.8098" lon="0.38639">
        <ele>1669</ele>
        <time>2017-04-16T10:49:35Z</time>
      </trkpt>
      <trkpt lat="42.80978" lon="0.38624">
        <ele>1669.5</ele>
        <time>2017-04-16T10:49:36Z</time>
      </trkpt>
      <trkpt lat="42.80976" lon="0.38608">
        <ele>1670</ele>
        <time>2017-04-16T10:49:37Z</time>
      </trkpt>
      <trkpt lat="42.80973" lon="0.38594">
        <ele>1673.5</ele>
        <time>2017-04-16T10:49:38Z</time>
      </trkpt>
      <trkpt lat="42.80968" lon="0.38581">
        <ele>1675.2</ele>
        <time>2017-04-16T10:49:39Z</time>
      </trkpt>
      <trkpt lat="42.80961" lon="0.38571">
        <ele>1678</ele>
        <time>2017-04-16T10:49:40Z</time>
      </trkpt>
      <trkpt lat="42.80954" lon="0.38561">
        <ele>1678.5</ele>
        <time>2017-04-16T10:49:41Z</time>
      </trkpt>
      <trkpt lat="42.80948" lon="0.3855">
        <ele>1678</ele>
        <time>2017-04-16T10:49:42Z</time>
      </trkpt>
      <trkpt lat="42.80943" lon="0.38537">
        <ele>1677.5</ele>
        <time>2017-04-16T10:49:43Z</time>
      </trkpt>
      <trkpt lat="42.80941" lon="0.38524">
        <ele>1677</ele>
        <time>2017-04-16T10:49:44Z</time>
      </trkpt>
      <trkpt lat="42.8094" lon="0.38509">
        <ele>1674.7</ele>
        <time>2017-04-16T10:49:45Z</time>
      </trkpt>
      <trkpt lat="42.8094" lon="0.38497">
        <ele>1674.7</ele>
        <time>2017-04-16T10:49:46Z</time>
      </trkpt>
      <trkpt lat="42.80933" lon="0.38476">
        <ele>1675.5</ele>
        <time>2017-04-16T10:49:48Z</time>
      </trkpt>
      <trkpt lat="42.80926" lon="0.38469">
        <ele>1674.5</ele>
        <time>2017-04-16T10:49:49Z</time>
      </trkpt>
      <trkpt lat="42.8091" lon="0.38469">
        <ele>1673</ele>
        <time>2017-04-16T10:49:51Z</time>
      </trkpt>
      <trkpt lat="42.80909" lon="0.38487">
        <ele>1670</ele>
        <time>2017-04-16T10:49:53Z</time>
      </trkpt>
      <trkpt lat="42.80923" lon="0.38499">
        <ele>1670</ele>
        <time>2017-04-16T10:49:55Z</time>
      </trkpt>
      <trkpt lat="42.80933" lon="0.38502">
        <ele>1674.5</ele>
        <time>2017-04-16T10:49:57Z</time>
      </trkpt>
      <trkpt lat="42.8094" lon="0.38505">
        <ele>1680</ele>
        <time>2017-04-16T10:49:59Z</time>
      </trkpt>
      <trkpt lat="42.80956" lon="0.38515">
        <ele>1678</ele>
        <time>2017-04-16T10:50:01Z</time>
      </trkpt>
      <trkpt lat="42.80965" lon="0.38521">
        <ele>1676.5</ele>
        <time>2017-04-16T10:50:02Z</time>
      </trkpt>
      <trkpt lat="42.80973" lon="0.38527">
        <ele>1675</ele>
        <time>2017-04-16T10:50:03Z</time>
      </trkpt>
      <trkpt lat="42.80987" lon="0.38535">
        <ele>1676.5</ele>
        <time>2017-04-16T10:50:05Z</time>
      </trkpt>
      <trkpt lat="42.80997" lon="0.38546">
        <ele>1677</ele>
        <time>2017-04-16T10:50:07Z</time>
      </trkpt>
      <trkpt lat="42.81006" lon="0.38561">
        <ele>1679.5</ele>
        <time>2017-04-16T10:50:09Z</time>
      </trkpt>
      <trkpt lat="42.81012" lon="0.38574">
        <ele>1682.7</ele>
        <time>2017-04-16T10:50:11Z</time>
      </trkpt>
      <trkpt lat="42.81021" lon="0.38585">
        <ele>1684</ele>
        <time>2017-04-16T10:50:13Z</time>
      </trkpt>
      <trkpt lat="42.81032" lon="0.38595">
        <ele>1685</ele>
        <time>2017-04-16T10:50:15Z</time>
      </trkpt>
      <trkpt lat="42.81044" lon="0.38609">
        <ele>1686.5</ele>
        <time>2017-04-16T10:50:17Z</time>
      </trkpt>
      <trkpt lat="42.81054" lon="0.38623">
        <ele>1686.7</ele>
        <time>2017-04-16T10:50:19Z</time>
      </trkpt>
      <trkpt lat="42.81064" lon="0.38633">
        <ele>1690.7</ele>
        <time>2017-04-16T10:50:21Z</time>
      </trkpt>
      <trkpt lat="42.81075" lon="0.38641">
        <ele>1695</ele>
        <time>2017-04-16T10:50:23Z</time>
      </trkpt>
      <trkpt lat="42.81085" lon="0.38651">
        <ele>1701</ele>
        <time>2017-04-16T10:50:25Z</time>
      </trkpt>
      <trkpt lat="42.81098" lon="0.38663">
        <ele>1704</ele>
        <time>2017-04-16T10:50:27Z</time>
      </trkpt>
      <trkpt lat="42.81112" lon="0.38673">
        <ele>1705</ele>
        <time>2017-04-16T10:50:29Z</time>
      </trkpt>
      <trkpt lat="42.81123" lon="0.38686">
        <ele>1707.5</ele>
        <time>2017-04-16T10:50:31Z</time>
      </trkpt>
      <trkpt lat="42.81127" lon="0.38706">
        <ele>1711</ele>
        <time>2017-04-16T10:50:33Z</time>
      </trkpt>
      <trkpt lat="42.81124" lon="0.38722">
        <ele>1715</ele>
        <time>2017-04-16T10:50:35Z</time>
      </trkpt>
      <trkpt lat="42.81113" lon="0.38728">
        <ele>1720.2</ele>
        <time>2017-04-16T10:50:37Z</time>
      </trkpt>
      <trkpt lat="42.81097" lon="0.38726">
        <ele>1721</ele>
        <time>2017-04-16T10:50:39Z</time>
      </trkpt>
      <trkpt lat="42.81089" lon="0.3872">
        <ele>1721</ele>
        <time>2017-04-16T10:50:40Z</time>
      </trkpt>
      <trkpt lat="42.81081" lon="0.38712">
        <ele>1721</ele>
        <time>2017-04-16T10:50:41Z</time>
      </trkpt>
      <trkpt lat="42.81074" lon="0.387">
        <ele>1720.5</ele>
        <time>2017-04-16T10:50:42Z</time>
      </trkpt>
      <trkpt lat="42.81068" lon="0.38686">
        <ele>1720</ele>
        <time>2017-04-16T10:50:43Z</time>
      </trkpt>
      <trkpt lat="42.81063" lon="0.38671">
        <ele>1720</ele>
        <time>2017-04-16T10:50:44Z</time>
      </trkpt>
      <trkpt lat="42.81059" lon="0.38655">
        <ele>1720</ele>
        <time>2017-04-16T10:50:45Z</time>
      </trkpt>
      <trkpt lat="42.81055" lon="0.38639">
        <ele>1720</ele>
        <time>2017-04-16T10:50:46Z</time>
      </trkpt>
      <trkpt lat="42.81051" lon="0.38622">
        <ele>1720</ele>
        <time>2017-04-16T10:50:47Z</time>
      </trkpt>
      <trkpt lat="42.81047" lon="0.38604">
        <ele>1722.5</ele>
        <time>2017-04-16T10:50:48Z</time>
      </trkpt>
      <trkpt lat="42.81043" lon="0.38587">
        <ele>1723.7</ele>
        <time>2017-04-16T10:50:49Z</time>
      </trkpt>
      <trkpt lat="42.8104" lon="0.38571">
        <ele>1723.7</ele>
        <time>2017-04-16T10:50:50Z</time>
      </trkpt>
      <trkpt lat="42.81037" lon="0.38555">
        <ele>1726.5</ele>
        <time>2017-04-16T10:50:51Z</time>
      </trkpt>
      <trkpt lat="42.81034" lon="0.38538">
        <ele>1727.2</ele>
        <time>2017-04-16T10:50:52Z</time>
      </trkpt>
      <trkpt lat="42.81031" lon="0.38522">
        <ele>1728</ele>
        <time>2017-04-16T10:50:53Z</time>
      </trkpt>
      <trkpt lat="42.81029" lon="0.38506">
        <ele>1732.5</ele>
        <time>2017-04-16T10:50:54Z</time>
      </trkpt>
      <trkpt lat="42.81029" lon="0.38491">
        <ele>1732.5</ele>
        <time>2017-04-16T10:50:55Z</time>
      </trkpt>
      <trkpt lat="42.81028" lon="0.38475">
        <ele>1734.5</ele>
        <time>2017-04-16T10:50:56Z</time>
      </trkpt>
      <trkpt lat="42.81027" lon="0.3846">
        <ele>1734.7</ele>
        <time>2017-04-16T10:50:57Z</time>
      </trkpt>
      <trkpt lat="42.81027" lon="0.38445">
        <ele>1736.5</ele>
        <time>2017-04-16T10:50:58Z</time>
      </trkpt>
      <trkpt lat="42.81027" lon="0.3843">
        <ele>1737</ele>
        <time>2017-04-16T10:50:59Z</time>
      </trkpt>
      <trkpt lat="42.81029" lon="0.38416">
        <ele>1737</ele>
        <time>2017-04-16T10:51:00Z</time>
      </trkpt>
      <trkpt lat="42.8103" lon="0.38401">
        <ele>1737</ele>
        <time>2017-04-16T10:51:01Z</time>
      </trkpt>
      <trkpt lat="42.8103" lon="0.38387">
        <ele>1737</ele>
        <time>2017-04-16T10:51:02Z</time>
      </trkpt>
      <trkpt lat="42.81029" lon="0.38373">
        <ele>1739.2</ele>
        <time>2017-04-16T10:51:03Z</time>
      </trkpt>
      <trkpt lat="42.81027" lon="0.38359">
        <ele>1739.2</ele>
        <time>2017-04-16T10:51:04Z</time>
      </trkpt>
      <trkpt lat="42.81025" lon="0.38345">
        <ele>1740</ele>
        <time>2017-04-16T10:51:05Z</time>
      </trkpt>
      <trkpt lat="42.81021" lon="0.38333">
        <ele>1741.5</ele>
        <time>2017-04-16T10:51:06Z</time>
      </trkpt>
      <trkpt lat="42.81011" lon="0.38317">
        <ele>1743</ele>
        <time>2017-04-16T10:51:08Z</time>
      </trkpt>
      <trkpt lat="42.81" lon="0.38322">
        <ele>1742.2</ele>
        <time>2017-04-16T10:51:10Z</time>
      </trkpt>
      <trkpt lat="42.80997" lon="0.38342">
        <ele>1742</ele>
        <time>2017-04-16T10:51:12Z</time>
      </trkpt>
      <trkpt lat="42.81006" lon="0.38357">
        <ele>1744.2</ele>
        <time>2017-04-16T10:51:14Z</time>
      </trkpt>
      <trkpt lat="42.81014" lon="0.38363">
        <ele>1747.2</ele>
        <time>2017-04-16T10:51:15Z</time>
      </trkpt>
      <trkpt lat="42.81023" lon="0.38367">
        <ele>1747.2</ele>
        <time>2017-04-16T10:51:16Z</time>
      </trkpt>
      <trkpt lat="42.81033" lon="0.3837">
        <ele>1746.5</ele>
        <time>2017-04-16T10:51:17Z</time>
      </trkpt>
      <trkpt lat="42.81042" lon="0.38366">
        <ele>1745.7</ele>
        <time>2017-04-16T10:51:18Z</time>
      </trkpt>
      <trkpt lat="42.81051" lon="0.38358">
        <ele>1746</ele>
        <time>2017-04-16T10:51:19Z</time>
      </trkpt>
      <trkpt lat="42.81059" lon="0.38343">
        <ele>1746</ele>
        <time>2017-04-16T10:51:20Z</time>
      </trkpt>
      <trkpt lat="42.81062" lon="0.38326">
        <ele>1746.5</ele>
        <time>2017-04-16T10:51:21Z</time>
      </trkpt>
      <trkpt lat="42.8106" lon="0.3831">
        <ele>1746.5</ele>
        <time>2017-04-16T10:51:22Z</time>
      </trkpt>
      <trkpt lat="42.81055" lon="0.38298">
        <ele>1746.2</ele>
        <time>2017-04-16T10:51:23Z</time>
      </trkpt>
      <trkpt lat="42.81043" lon="0.38287">
        <ele>1748.2</ele>
        <time>2017-04-16T10:51:25Z</time>
      </trkpt>
      <trkpt lat="42.81033" lon="0.38282">
        <ele>1751.5</ele>
        <time>2017-04-16T10:51:27Z</time>
      </trkpt>
      <trkpt lat="42.81023" lon="0.38281">
        <ele>1756.2</ele>
        <time>2017-04-16T10:51:29Z</time>
      </trkpt>
      <trkpt lat="42.81012" lon="0.38288">
        <ele>1757</ele>
        <time>2017-04-16T10:51:31Z</time>
      </trkpt>
      <trkpt lat="42.81005" lon="0.38303">
        <ele>1759.2</ele>
        <time>2017-04-16T10:51:33Z</time>
      </trkpt>
      <trkpt lat="42.81007" lon="0.3832">
        <ele>1760.7</ele>
        <time>2017-04-16T10:51:35Z</time>
      </trkpt>
      <trkpt lat="42.8102" lon="0.38334">
        <ele>1761.7</ele>
        <time>2017-04-16T10:51:37Z</time>
      </trkpt>
      <trkpt lat="42.8103" lon="0.38337">
        <ele>1762.5</ele>
        <time>2017-04-16T10:51:38Z</time>
      </trkpt>
      <trkpt lat="42.8104" lon="0.38336">
        <ele>1762.7</ele>
        <time>2017-04-16T10:51:39Z</time>
      </trkpt>
      <trkpt lat="42.81049" lon="0.3833">
        <ele>1762.7</ele>
        <time>2017-04-16T10:51:40Z</time>
      </trkpt>
      <trkpt lat="42.81056" lon="0.3832">
        <ele>1763</ele>
        <time>2017-04-16T10:51:41Z</time>
      </trkpt>
      <trkpt lat="42.8106" lon="0.38306">
        <ele>1763</ele>
        <time>2017-04-16T10:51:42Z</time>
      </trkpt>
      <trkpt lat="42.81061" lon="0.38291">
        <ele>1762.5</ele>
        <time>2017-04-16T10:51:43Z</time>
      </trkpt>
      <trkpt lat="42.8106" lon="0.38275">
        <ele>1762.2</ele>
        <time>2017-04-16T10:51:44Z</time>
      </trkpt>
      <trkpt lat="42.81057" lon="0.38261">
        <ele>1762.2</ele>
        <time>2017-04-16T10:51:45Z</time>
      </trkpt>
      <trkpt lat="42.81053" lon="0.38249">
        <ele>1763</ele>
        <time>2017-04-16T10:51:46Z</time>
      </trkpt>
      <trkpt lat="42.81047" lon="0.38237">
        <ele>1763.5</ele>
        <time>2017-04-16T10:51:47Z</time>
      </trkpt>
      <trkpt lat="42.81042" lon="0.38225">
        <ele>1767</ele>
        <time>2017-04-16T10:51:48Z</time>
      </trkpt>
      <trkpt lat="42.81039" lon="0.38212">
        <ele>1770</ele>
        <time>2017-04-16T10:51:49Z</time>
      </trkpt>
      <trkpt lat="42.81035" lon="0.38191">
        <ele>1772</ele>
        <time>2017-04-16T10:51:51Z</time>
      </trkpt>
      <trkpt lat="42.81027" lon="0.38169">
        <ele>1774</ele>
        <time>2017-04-16T10:51:53Z</time>
      </trkpt>
      <trkpt lat="42.81021" lon="0.38159">
        <ele>1774</ele>
        <time>2017-04-16T10:51:54Z</time>
      </trkpt>
      <trkpt lat="42.81014" lon="0.3815">
        <ele>1774</ele>
        <time>2017-04-16T10:51:55Z</time>
      </trkpt>
      <trkpt lat="42.81001" lon="0.38146">
        <ele>1774</ele>
        <time>2017-04-16T10:51:57Z</time>
      </trkpt>
      <trkpt lat="42.80993" lon="0.38158">
        <ele>1773</ele>
        <time>2017-04-16T10:51:59Z</time>
      </trkpt>
      <trkpt lat="42.80993" lon="0.38175">
        <ele>1773</ele>
        <time>2017-04-16T10:52:01Z</time>
      </trkpt>
      <trkpt lat="42.81002" lon="0.38192">
        <ele>1770.7</ele>
        <time>2017-04-16T10:52:03Z</time>
      </trkpt>
      <trkpt lat="42.81018" lon="0.38199">
        <ele>1773.7</ele>
        <time>2017-04-16T10:52:05Z</time>
      </trkpt>
      <trkpt lat="42.81027" lon="0.38196">
        <ele>1773.7</ele>
        <time>2017-04-16T10:52:06Z</time>
      </trkpt>
      <trkpt lat="42.81036" lon="0.38188">
        <ele>1776</ele>
        <time>2017-04-16T10:52:07Z</time>
      </trkpt>
      <trkpt lat="42.81044" lon="0.38177">
        <ele>1776.5</ele>
        <time>2017-04-16T10:52:08Z</time>
      </trkpt>
      <trkpt lat="42.8105" lon="0.38165">
        <ele>1777</ele>
        <time>2017-04-16T10:52:09Z</time>
      </trkpt>
      <trkpt lat="42.81055" lon="0.38152">
        <ele>1776.2</ele>
        <time>2017-04-16T10:52:10Z</time>
      </trkpt>
      <trkpt lat="42.81057" lon="0.38138">
        <ele>1776.2</ele>
        <time>2017-04-16T10:52:11Z</time>
      </trkpt>
      <trkpt lat="42.81056" lon="0.38123">
        <ele>1776</ele>
        <time>2017-04-16T10:52:12Z</time>
      </trkpt>
      <trkpt lat="42.81051" lon="0.3811">
        <ele>1775.5</ele>
        <time>2017-04-16T10:52:13Z</time>
      </trkpt>
      <trkpt lat="42.81045" lon="0.38099">
        <ele>1775.2</ele>
        <time>2017-04-16T10:52:14Z</time>
      </trkpt>
      <trkpt lat="42.81031" lon="0.38085">
        <ele>1775</ele>
        <time>2017-04-16T10:52:16Z</time>
      </trkpt>
      <trkpt lat="42.8102" lon="0.3807">
        <ele>1774.2</ele>
        <time>2017-04-16T10:52:18Z</time>
      </trkpt>
      <trkpt lat="42.81008" lon="0.38053">
        <ele>1774</ele>
        <time>2017-04-16T10:52:20Z</time>
      </trkpt>
      <trkpt lat="42.80994" lon="0.38044">
        <ele>1774</ele>
        <time>2017-04-16T10:52:22Z</time>
      </trkpt>
      <trkpt lat="42.8098" lon="0.38053">
        <ele>1770.5</ele>
        <time>2017-04-16T10:52:24Z</time>
      </trkpt>
      <trkpt lat="42.80976" lon="0.38068">
        <ele>1766</ele>
        <time>2017-04-16T10:52:26Z</time>
      </trkpt>
      <trkpt lat="42.80981" lon="0.38082">
        <ele>1765</ele>
        <time>2017-04-16T10:52:28Z</time>
      </trkpt>
      <trkpt lat="42.80985" lon="0.38099">
        <ele>1762</ele>
        <time>2017-04-16T10:52:30Z</time>
      </trkpt>
      <trkpt lat="42.80984" lon="0.38122">
        <ele>1758</ele>
        <time>2017-04-16T10:52:32Z</time>
      </trkpt>
      <trkpt lat="42.80984" lon="0.38141">
        <ele>1756.2</ele>
        <time>2017-04-16T10:52:34Z</time>
      </trkpt>
      <trkpt lat="42.80991" lon="0.38152">
        <ele>1760.5</ele>
        <time>2017-04-16T10:52:36Z</time>
      </trkpt>
      <trkpt lat="42.81002" lon="0.38159">
        <ele>1761</ele>
        <time>2017-04-16T10:52:38Z</time>
      </trkpt>
      <trkpt lat="42.81013" lon="0.38173">
        <ele>1757.5</ele>
        <time>2017-04-16T10:52:40Z</time>
      </trkpt>
      <trkpt lat="42.81017" lon="0.38194">
        <ele>1755</ele>
        <time>2017-04-16T10:52:42Z</time>
      </trkpt>
      <trkpt lat="42.8101" lon="0.38209">
        <ele>1755</ele>
        <time>2017-04-16T10:52:44Z</time>
      </trkpt>
      <trkpt lat="42.81002" lon="0.38214">
        <ele>1759</ele>
        <time>2017-04-16T10:52:46Z</time>
      </trkpt>
      <trkpt lat="42.80992" lon="0.38222">
        <ele>1761.2</ele>
        <time>2017-04-16T10:52:49Z</time>
      </trkpt>
      <trkpt lat="42.80983" lon="0.3823">
        <ele>1762</ele>
        <time>2017-04-16T10:52:51Z</time>
      </trkpt>
      <trkpt lat="42.80973" lon="0.38237">
        <ele>1762.7</ele>
        <time>2017-04-16T10:52:53Z</time>
      </trkpt>
      <trkpt lat="42.80963" lon="0.38243">
        <ele>1760.7</ele>
        <time>2017-04-16T10:52:55Z</time>
      </trkpt>
      <trkpt lat="42.80951" lon="0.3825">
        <ele>1759.5</ele>
        <time>2017-04-16T10:52:57Z</time>
      </trkpt>
      <trkpt lat="42.80935" lon="0.38241">
        <ele>1759</ele>
        <time>2017-04-16T10:52:59Z</time>
      </trkpt>
      <trkpt lat="42.80929" lon="0.38228">
        <ele>1759</ele>
        <time>2017-04-16T10:53:00Z</time>
      </trkpt>
      <trkpt lat="42.80926" lon="0.38212">
        <ele>1759</ele>
        <time>2017-04-16T10:53:01Z</time>
      </trkpt>
      <trkpt lat="42.80928" lon="0.38195">
        <ele>1756.5</ele>
        <time>2017-04-16T10:53:02Z</time>
      </trkpt>
      <trkpt lat="42.80933" lon="0.3818">
        <ele>1754.5</ele>
        <time>2017-04-16T10:53:03Z</time>
      </trkpt>
      <trkpt lat="42.8094" lon="0.3817">
        <ele>1754.5</ele>
        <time>2017-04-16T10:53:04Z</time>
      </trkpt>
      <trkpt lat="42.80947" lon="0.38159">
        <ele>1754.7</ele>
        <time>2017-04-16T10:53:05Z</time>
      </trkpt>
      <trkpt lat="42.80954" lon="0.38147">
        <ele>1755</ele>
        <time>2017-04-16T10:53:06Z</time>
      </trkpt>
      <trkpt lat="42.80958" lon="0.38131">
        <ele>1756</ele>
        <time>2017-04-16T10:53:07Z</time>
      </trkpt>
      <trkpt lat="42.8096" lon="0.38114">
        <ele>1756.5</ele>
        <time>2017-04-16T10:53:08Z</time>
      </trkpt>
      <trkpt lat="42.80959" lon="0.38099">
        <ele>1756.5</ele>
        <time>2017-04-16T10:53:09Z</time>
      </trkpt>
      <trkpt lat="42.80956" lon="0.38085">
        <ele>1756.2</ele>
        <time>2017-04-16T10:53:10Z</time>
      </trkpt>
      <trkpt lat="42.8095" lon="0.38075">
        <ele>1756</ele>
        <time>2017-04-16T10:53:11Z</time>
      </trkpt>
      <trkpt lat="42.80942" lon="0.38067">
        <ele>1756</ele>
        <time>2017-04-16T10:53:12Z</time>
      </trkpt>
      <trkpt lat="42.80934" lon="0.38062">
        <ele>1756</ele>
        <time>2017-04-16T10:53:13Z</time>
      </trkpt>
      <trkpt lat="42.80918" lon="0.38052">
        <ele>1754.5</ele>
        <time>2017-04-16T10:53:15Z</time>
      </trkpt>
      <trkpt lat="42.80911" lon="0.38044">
        <ele>1754.5</ele>
        <time>2017-04-16T10:53:16Z</time>
      </trkpt>
      <trkpt lat="42.80903" lon="0.38035">
        <ele>1754.7</ele>
        <time>2017-04-16T10:53:17Z</time>
      </trkpt>
      <trkpt lat="42.8089" lon="0.38025">
        <ele>1754.5</ele>
        <time>2017-04-16T10:53:19Z</time>
      </trkpt>
      <trkpt lat="42.80879" lon="0.38028">
        <ele>1753</ele>
        <time>2017-04-16T10:53:21Z</time>
      </trkpt>
      <trkpt lat="42.80872" lon="0.38037">
        <ele>1748.5</ele>
        <time>2017-04-16T10:53:23Z</time>
      </trkpt>
      <trkpt lat="42.80873" lon="0.3805">
        <ele>1743.5</ele>
        <time>2017-04-16T10:53:25Z</time>
      </trkpt>
      <trkpt lat="42.80876" lon="0.38065">
        <ele>1742.7</ele>
        <time>2017-04-16T10:53:27Z</time>
      </trkpt>
      <trkpt lat="42.80878" lon="0.38078">
        <ele>1739</ele>
        <time>2017-04-16T10:53:29Z</time>
      </trkpt>
      <trkpt lat="42.80878" lon="0.38092">
        <ele>1735.7</ele>
        <time>2017-04-16T10:53:31Z</time>
      </trkpt>
      <trkpt lat="42.80878" lon="0.38106">
        <ele>1731.5</ele>
        <time>2017-04-16T10:53:33Z</time>
      </trkpt>
      <trkpt lat="42.80879" lon="0.38126">
        <ele>1724.2</ele>
        <time>2017-04-16T10:53:35Z</time>
      </trkpt>
      <trkpt lat="42.80881" lon="0.38147">
        <ele>1724</ele>
        <time>2017-04-16T10:53:37Z</time>
      </trkpt>
      <trkpt lat="42.80882" lon="0.38163">
        <ele>1725</ele>
        <time>2017-04-16T10:53:39Z</time>
      </trkpt>
      <trkpt lat="42.80882" lon="0.38176">
        <ele>1732.5</ele>
        <time>2017-04-16T10:53:41Z</time>
      </trkpt>
      <trkpt lat="42.80881" lon="0.3819">
        <ele>1733.7</ele>
        <time>2017-04-16T10:53:43Z</time>
      </trkpt>
      <trkpt lat="42.80881" lon="0.38205">
        <ele>1732.5</ele>
        <time>2017-04-16T10:53:45Z</time>
      </trkpt>
      <trkpt lat="42.80878" lon="0.38221">
        <ele>1730</ele>
        <time>2017-04-16T10:53:47Z</time>
      </trkpt>
      <trkpt lat="42.80872" lon="0.38232">
        <ele>1729.2</ele>
        <time>2017-04-16T10:53:49Z</time>
      </trkpt>
      <trkpt lat="42.80871" lon="0.38246">
        <ele>1730</ele>
        <time>2017-04-16T10:53:51Z</time>
      </trkpt>
      <trkpt lat="42.80878" lon="0.38265">
        <ele>1730</ele>
        <time>2017-04-16T10:53:53Z</time>
      </trkpt>
      <trkpt lat="42.80883" lon="0.38282">
        <ele>1731</ele>
        <time>2017-04-16T10:53:55Z</time>
      </trkpt>
      <trkpt lat="42.80888" lon="0.38297">
        <ele>1731.5</ele>
        <time>2017-04-16T10:53:57Z</time>
      </trkpt>
      <trkpt lat="42.80897" lon="0.38314">
        <ele>1730.5</ele>
        <time>2017-04-16T10:53:59Z</time>
      </trkpt>
      <trkpt lat="42.80905" lon="0.38333">
        <ele>1726.7</ele>
        <time>2017-04-16T10:54:01Z</time>
      </trkpt>
      <trkpt lat="42.80911" lon="0.38352">
        <ele>1726</ele>
        <time>2017-04-16T10:54:03Z</time>
      </trkpt>
      <trkpt lat="42.80918" lon="0.38368">
        <ele>1724.5</ele>
        <time>2017-04-16T10:54:05Z</time>
      </trkpt>
      <trkpt lat="42.80928" lon="0.38379">
        <ele>1726.2</ele>
        <time>2017-04-16T10:54:07Z</time>
      </trkpt>
      <trkpt lat="42.80937" lon="0.38388">
        <ele>1727.7</ele>
        <time>2017-04-16T10:54:09Z</time>
      </trkpt>
      <trkpt lat="42.80945" lon="0.38404">
        <ele>1728.5</ele>
        <time>2017-04-16T10:54:11Z</time>
      </trkpt>
      <trkpt lat="42.80951" lon="0.38419">
        <ele>1732</ele>
        <time>2017-04-16T10:54:13Z</time>
      </trkpt>
      <trkpt lat="42.80959" lon="0.3843">
        <ele>1735</ele>
        <time>2017-04-16T10:54:15Z</time>
      </trkpt>
      <trkpt lat="42.80968" lon="0.38443">
        <ele>1738.7</ele>
        <time>2017-04-16T10:54:17Z</time>
      </trkpt>
      <trkpt lat="42.80975" lon="0.38459">
        <ele>1740.5</ele>
        <time>2017-04-16T10:54:19Z</time>
      </trkpt>
      <trkpt lat="42.8098" lon="0.38471">
        <ele>1740.7</ele>
        <time>2017-04-16T10:54:21Z</time>
      </trkpt>
      <trkpt lat="42.80988" lon="0.3848">
        <ele>1741.5</ele>
        <time>2017-04-16T10:54:23Z</time>
      </trkpt>
      <trkpt lat="42.81" lon="0.38489">
        <ele>1742.5</ele>
        <time>2017-04-16T10:54:25Z</time>
      </trkpt>
      <trkpt lat="42.81013" lon="0.38499">
        <ele>1743.5</ele>
        <time>2017-04-16T10:54:27Z</time>
      </trkpt>
      <trkpt lat="42.81025" lon="0.38508">
        <ele>1747.5</ele>
        <time>2017-04-16T10:54:29Z</time>
      </trkpt>
      <trkpt lat="42.81037" lon="0.38515">
        <ele>1749.2</ele>
        <time>2017-04-16T10:54:31Z</time>
      </trkpt>
      <trkpt lat="42.81049" lon="0.38524">
        <ele>1754</ele>
        <time>2017-04-16T10:54:33Z</time>
      </trkpt>
      <trkpt lat="42.81055" lon="0.38529">
        <ele>1760.2</ele>
        <time>2017-04-16T10:54:34Z</time>
      </trkpt>
      <trkpt lat="42.81067" lon="0.38537">
        <ele>1762</ele>
        <time>2017-04-16T10:54:36Z</time>
      </trkpt>
      <trkpt lat="42.8108" lon="0.38536">
        <ele>1767.2</ele>
        <time>2017-04-16T10:54:38Z</time>
      </trkpt>
      <trkpt lat="42.81087" lon="0.38532">
        <ele>1772</ele>
        <time>2017-04-16T10:54:39Z</time>
      </trkpt>
      <trkpt lat="42.81095" lon="0.38526">
        <ele>1773</ele>
        <time>2017-04-16T10:54:40Z</time>
      </trkpt>
      <trkpt lat="42.81101" lon="0.38518">
        <ele>1773</ele>
        <time>2017-04-16T10:54:41Z</time>
      </trkpt>
      <trkpt lat="42.81104" lon="0.38506">
        <ele>1774.5</ele>
        <time>2017-04-16T10:54:42Z</time>
      </trkpt>
      <trkpt lat="42.81102" lon="0.38493">
        <ele>1775.2</ele>
        <time>2017-04-16T10:54:43Z</time>
      </trkpt>
      <trkpt lat="42.81094" lon="0.38483">
        <ele>1776.7</ele>
        <time>2017-04-16T10:54:44Z</time>
      </trkpt>
      <trkpt lat="42.81083" lon="0.3848">
        <ele>1777.5</ele>
        <time>2017-04-16T10:54:45Z</time>
      </trkpt>
      <trkpt lat="42.81072" lon="0.38486">
        <ele>1777.5</ele>
        <time>2017-04-16T10:54:46Z</time>
      </trkpt>
      <trkpt lat="42.81064" lon="0.38496">
        <ele>1777.7</ele>
        <time>2017-04-16T10:54:47Z</time>
      </trkpt>
      <trkpt lat="42.81061" lon="0.38511">
        <ele>1787</ele>
        <time>2017-04-16T10:54:49Z</time>
      </trkpt>
      <trkpt lat="42.81061" lon="0.38518">
        <ele>1797.5</ele>
        <time>2017-04-16T10:54:51Z</time>
      </trkpt>
      <trkpt lat="42.81061" lon="0.38532">
        <ele>1800</ele>
        <time>2017-04-16T10:54:53Z</time>
      </trkpt>
      <trkpt lat="42.81062" lon="0.3855">
        <ele>1800</ele>
        <time>2017-04-16T10:54:55Z</time>
      </trkpt>
      <trkpt lat="42.81067" lon="0.38564">
        <ele>1810.5</ele>
        <time>2017-04-16T10:54:57Z</time>
      </trkpt>
      <trkpt lat="42.8108" lon="0.38573">
        <ele>1813.7</ele>
        <time>2017-04-16T10:54:59Z</time>
      </trkpt>
      <trkpt lat="42.81088" lon="0.38576">
        <ele>1821.5</ele>
        <time>2017-04-16T10:55:00Z</time>
      </trkpt>
      <trkpt lat="42.81106" lon="0.38578">
        <ele>1823.7</ele>
        <time>2017-04-16T10:55:02Z</time>
      </trkpt>
      <trkpt lat="42.81115" lon="0.38574">
        <ele>1830.5</ele>
        <time>2017-04-16T10:55:03Z</time>
      </trkpt>
      <trkpt lat="42.81123" lon="0.38568">
        <ele>1832.7</ele>
        <time>2017-04-16T10:55:04Z</time>
      </trkpt>
      <trkpt lat="42.81131" lon="0.38561">
        <ele>1838</ele>
        <time>2017-04-16T10:55:05Z</time>
      </trkpt>
      <trkpt lat="42.81138" lon="0.38553">
        <ele>1841</ele>
        <time>2017-04-16T10:55:06Z</time>
      </trkpt>
      <trkpt lat="42.81143" lon="0.38543">
        <ele>1841</ele>
        <time>2017-04-16T10:55:07Z</time>
      </trkpt>
      <trkpt lat="42.81148" lon="0.38532">
        <ele>1846.5</ele>
        <time>2017-04-16T10:55:08Z</time>
      </trkpt>
      <trkpt lat="42.81153" lon="0.38521">
        <ele>1849.2</ele>
        <time>2017-04-16T10:55:09Z</time>
      </trkpt>
      <trkpt lat="42.81158" lon="0.3851">
        <ele>1857.2</ele>
        <time>2017-04-16T10:55:10Z</time>
      </trkpt>
      <trkpt lat="42.81163" lon="0.38499">
        <ele>1857.2</ele>
        <time>2017-04-16T10:55:11Z</time>
      </trkpt>
      <trkpt lat="42.81168" lon="0.38485">
        <ele>1861.5</ele>
        <time>2017-04-16T10:55:12Z</time>
      </trkpt>
      <trkpt lat="42.81173" lon="0.38469">
        <ele>1862.7</ele>
        <time>2017-04-16T10:55:13Z</time>
      </trkpt>
      <trkpt lat="42.81176" lon="0.38452">
        <ele>1864</ele>
        <time>2017-04-16T10:55:14Z</time>
      </trkpt>
      <trkpt lat="42.81178" lon="0.38437">
        <ele>1868.5</ele>
        <time>2017-04-16T10:55:15Z</time>
      </trkpt>
      <trkpt lat="42.81178" lon="0.38424">
        <ele>1868.5</ele>
        <time>2017-04-16T10:55:16Z</time>
      </trkpt>
      <trkpt lat="42.81176" lon="0.38412">
        <ele>1873</ele>
        <time>2017-04-16T10:55:17Z</time>
      </trkpt>
      <trkpt lat="42.81167" lon="0.38393">
        <ele>1876.5</ele>
        <time>2017-04-16T10:55:19Z</time>
      </trkpt>
      <trkpt lat="42.81154" lon="0.38379">
        <ele>1876.7</ele>
        <time>2017-04-16T10:55:21Z</time>
      </trkpt>
      <trkpt lat="42.8114" lon="0.3837">
        <ele>1876.2</ele>
        <time>2017-04-16T10:55:23Z</time>
      </trkpt>
      <trkpt lat="42.81124" lon="0.38369">
        <ele>1873.7</ele>
        <time>2017-04-16T10:55:25Z</time>
      </trkpt>
      <trkpt lat="42.81115" lon="0.38372">
        <ele>1873</ele>
        <time>2017-04-16T10:55:26Z</time>
      </trkpt>
      <trkpt lat="42.81102" lon="0.38385">
        <ele>1873.7</ele>
        <time>2017-04-16T10:55:28Z</time>
      </trkpt>
      <trkpt lat="42.81095" lon="0.384">
        <ele>1879.2</ele>
        <time>2017-04-16T10:55:30Z</time>
      </trkpt>
      <trkpt lat="42.81092" lon="0.38407">
        <ele>1887</ele>
        <time>2017-04-16T10:55:31Z</time>
      </trkpt>
      <trkpt lat="42.81092" lon="0.38422">
        <ele>1893</ele>
        <time>2017-04-16T10:55:33Z</time>
      </trkpt>
      <trkpt lat="42.81095" lon="0.3844">
        <ele>1898.2</ele>
        <time>2017-04-16T10:55:35Z</time>
      </trkpt>
      <trkpt lat="42.811" lon="0.38456">
        <ele>1905.2</ele>
        <time>2017-04-16T10:55:37Z</time>
      </trkpt>
      <trkpt lat="42.81111" lon="0.38467">
        <ele>1910.7</ele>
        <time>2017-04-16T10:55:39Z</time>
      </trkpt>
      <trkpt lat="42.81127" lon="0.38474">
        <ele>1912</ele>
        <time>2017-04-16T10:55:41Z</time>
      </trkpt>
      <trkpt lat="42.81137" lon="0.38473">
        <ele>1913.5</ele>
        <time>2017-04-16T10:55:42Z</time>
      </trkpt>
      <trkpt lat="42.81147" lon="0.38468">
        <ele>1913.5</ele>
        <time>2017-04-16T10:55:43Z</time>
      </trkpt>
      <trkpt lat="42.81153" lon="0.38459">
        <ele>1914.2</ele>
        <time>2017-04-16T10:55:44Z</time>
      </trkpt>
      <trkpt lat="42.81157" lon="0.38449">
        <ele>1920</ele>
        <time>2017-04-16T10:55:45Z</time>
      </trkpt>
      <trkpt lat="42.81166" lon="0.38429">
        <ele>1927.5</ele>
        <time>2017-04-16T10:55:47Z</time>
      </trkpt>
      <trkpt lat="42.81173" lon="0.38419">
        <ele>1928.7</ele>
        <time>2017-04-16T10:55:48Z</time>
      </trkpt>
      <trkpt lat="42.8118" lon="0.38409">
        <ele>1928.7</ele>
        <time>2017-04-16T10:55:49Z</time>
      </trkpt>
      <trkpt lat="42.81186" lon="0.384">
        <ele>1934</ele>
        <time>2017-04-16T10:55:50Z</time>
      </trkpt>
      <trkpt lat="42.81198" lon="0.38381">
        <ele>1939</ele>
        <time>2017-04-16T10:55:52Z</time>
      </trkpt>
      <trkpt lat="42.81203" lon="0.3837">
        <ele>1939.5</ele>
        <time>2017-04-16T10:55:53Z</time>
      </trkpt>
      <trkpt lat="42.81208" lon="0.38357">
        <ele>1939.5</ele>
        <time>2017-04-16T10:55:54Z</time>
      </trkpt>
      <trkpt lat="42.81212" lon="0.38345">
        <ele>1938.5</ele>
        <time>2017-04-16T10:55:55Z</time>
      </trkpt>
      <trkpt lat="42.81214" lon="0.38321">
        <ele>1934.7</ele>
        <time>2017-04-16T10:55:57Z</time>
      </trkpt>
      <trkpt lat="42.81212" lon="0.38309">
        <ele>1934</ele>
        <time>2017-04-16T10:55:58Z</time>
      </trkpt>
      <trkpt lat="42.81208" lon="0.38297">
        <ele>1934</ele>
        <time>2017-04-16T10:55:59Z</time>
      </trkpt>
      <trkpt lat="42.81205" lon="0.38284">
        <ele>1931</ele>
        <time>2017-04-16T10:56:00Z</time>
      </trkpt>
      <trkpt lat="42.81201" lon="0.38271">
        <ele>1931</ele>
        <time>2017-04-16T10:56:01Z</time>
      </trkpt>
      <trkpt lat="42.81198" lon="0.38258">
        <ele>1927</ele>
        <time>2017-04-16T10:56:02Z</time>
      </trkpt>
      <trkpt lat="42.81193" lon="0.38245">
        <ele>1925.5</ele>
        <time>2017-04-16T10:56:03Z</time>
      </trkpt>
      <trkpt lat="42.81187" lon="0.38233">
        <ele>1924</ele>
        <time>2017-04-16T10:56:04Z</time>
      </trkpt>
      <trkpt lat="42.81179" lon="0.38223">
        <ele>1921</ele>
        <time>2017-04-16T10:56:05Z</time>
      </trkpt>
      <trkpt lat="42.81169" lon="0.38216">
        <ele>1921</ele>
        <time>2017-04-16T10:56:06Z</time>
      </trkpt>
      <trkpt lat="42.8116" lon="0.38212">
        <ele>1919.5</ele>
        <time>2017-04-16T10:56:07Z</time>
      </trkpt>
      <trkpt lat="42.81144" lon="0.38212">
        <ele>1918.2</ele>
        <time>2017-04-16T10:56:09Z</time>
      </trkpt>
      <trkpt lat="42.8113" lon="0.38212">
        <ele>1914</ele>
        <time>2017-04-16T10:56:11Z</time>
      </trkpt>
      <trkpt lat="42.81112" lon="0.38211">
        <ele>1912</ele>
        <time>2017-04-16T10:56:13Z</time>
      </trkpt>
      <trkpt lat="42.81102" lon="0.38214">
        <ele>1909</ele>
        <time>2017-04-16T10:56:14Z</time>
      </trkpt>
      <trkpt lat="42.81092" lon="0.3822">
        <ele>1908</ele>
        <time>2017-04-16T10:56:15Z</time>
      </trkpt>
      <trkpt lat="42.81084" lon="0.38228">
        <ele>1908</ele>
        <time>2017-04-16T10:56:16Z</time>
      </trkpt>
      <trkpt lat="42.81077" lon="0.38237">
        <ele>1909</ele>
        <time>2017-04-16T10:56:17Z</time>
      </trkpt>
      <trkpt lat="42.81063" lon="0.38248">
        <ele>1914.5</ele>
        <time>2017-04-16T10:56:19Z</time>
      </trkpt>
      <trkpt lat="42.81048" lon="0.38252">
        <ele>1919</ele>
        <time>2017-04-16T10:56:21Z</time>
      </trkpt>
      <trkpt lat="42.81036" lon="0.38261">
        <ele>1922</ele>
        <time>2017-04-16T10:56:23Z</time>
      </trkpt>
      <trkpt lat="42.81026" lon="0.38269">
        <ele>1934</ele>
        <time>2017-04-16T10:56:25Z</time>
      </trkpt>
      <trkpt lat="42.81013" lon="0.38272">
        <ele>1936</ele>
        <time>2017-04-16T10:56:27Z</time>
      </trkpt>
      <trkpt lat="42.80998" lon="0.38268">
        <ele>1941.7</ele>
        <time>2017-04-16T10:56:29Z</time>
      </trkpt>
      <trkpt lat="42.80984" lon="0.38258">
        <ele>1946</ele>
        <time>2017-04-16T10:56:31Z</time>
      </trkpt>
      <trkpt lat="42.80971" lon="0.3824">
        <ele>1947.5</ele>
        <time>2017-04-16T10:56:33Z</time>
      </trkpt>
      <trkpt lat="42.80965" lon="0.38226">
        <ele>1948</ele>
        <time>2017-04-16T10:56:34Z</time>
      </trkpt>
      <trkpt lat="42.80961" lon="0.3821">
        <ele>1948</ele>
        <time>2017-04-16T10:56:35Z</time>
      </trkpt>
      <trkpt lat="42.80961" lon="0.38192">
        <ele>1948</ele>
        <time>2017-04-16T10:56:36Z</time>
      </trkpt>
      <trkpt lat="42.80965" lon="0.38173">
        <ele>1950</ele>
        <time>2017-04-16T10:56:37Z</time>
      </trkpt>
      <trkpt lat="42.80971" lon="0.38159">
        <ele>1950</ele>
        <time>2017-04-16T10:56:38Z</time>
      </trkpt>
      <trkpt lat="42.80977" lon="0.3815">
        <ele>1955.5</ele>
        <time>2017-04-16T10:56:39Z</time>
      </trkpt>
      <trkpt lat="42.80987" lon="0.38136">
        <ele>1957.2</ele>
        <time>2017-04-16T10:56:41Z</time>
      </trkpt>
      <trkpt lat="42.80998" lon="0.38119">
        <ele>1961.5</ele>
        <time>2017-04-16T10:56:43Z</time>
      </trkpt>
      <trkpt lat="42.81005" lon="0.38111">
        <ele>1962.7</ele>
        <time>2017-04-16T10:56:44Z</time>
      </trkpt>
      <trkpt lat="42.8102" lon="0.38101">
        <ele>1965.5</ele>
        <time>2017-04-16T10:56:46Z</time>
      </trkpt>
      <trkpt lat="42.81035" lon="0.38102">
        <ele>1966.7</ele>
        <time>2017-04-16T10:56:48Z</time>
      </trkpt>
      <trkpt lat="42.81049" lon="0.38107">
        <ele>1968</ele>
        <time>2017-04-16T10:56:50Z</time>
      </trkpt>
      <trkpt lat="42.81059" lon="0.3812">
        <ele>1969.5</ele>
        <time>2017-04-16T10:56:52Z</time>
      </trkpt>
      <trkpt lat="42.81061" lon="0.3814">
        <ele>1973</ele>
        <time>2017-04-16T10:56:54Z</time>
      </trkpt>
      <trkpt lat="42.81056" lon="0.38159">
        <ele>1974</ele>
        <time>2017-04-16T10:56:56Z</time>
      </trkpt>
      <trkpt lat="42.8105" lon="0.3817">
        <ele>1981</ele>
        <time>2017-04-16T10:56:58Z</time>
      </trkpt>
      <trkpt lat="42.81042" lon="0.3818">
        <ele>1991</ele>
        <time>2017-04-16T10:57:00Z</time>
      </trkpt>
      <trkpt lat="42.81027" lon="0.38188">
        <ele>1991</ele>
        <time>2017-04-16T10:57:02Z</time>
      </trkpt>
      <trkpt lat="42.81011" lon="0.38189">
        <ele>1992.5</ele>
        <time>2017-04-16T10:57:04Z</time>
      </trkpt>
      <trkpt lat="42.81002" lon="0.38187">
        <ele>1993.2</ele>
        <time>2017-04-16T10:57:05Z</time>
      </trkpt>
      <trkpt lat="42.80992" lon="0.38183">
        <ele>1997.5</ele>
        <time>2017-04-16T10:57:06Z</time>
      </trkpt>
      <trkpt lat="42.80982" lon="0.38177">
        <ele>1999.2</ele>
        <time>2017-04-16T10:57:07Z</time>
      </trkpt>
      <trkpt lat="42.80973" lon="0.3817">
        <ele>2001</ele>
        <time>2017-04-16T10:57:08Z</time>
      </trkpt>
      <trkpt lat="42.80966" lon="0.38162">
        <ele>2002.5</ele>
        <time>2017-04-16T10:57:09Z</time>
      </trkpt>
      <trkpt lat="42.80956" lon="0.38141">
        <ele>2003.2</ele>
        <time>2017-04-16T10:57:11Z</time>
      </trkpt>
      <trkpt lat="42.80949" lon="0.38129">
        <ele>2003.2</ele>
        <time>2017-04-16T10:57:12Z</time>
      </trkpt>
      <trkpt lat="42.8094" lon="0.38117">
        <ele>2003</ele>
        <time>2017-04-16T10:57:13Z</time>
      </trkpt>
      <trkpt lat="42.8093" lon="0.38106">
        <ele>2001</ele>
        <time>2017-04-16T10:57:14Z</time>
      </trkpt>
      <trkpt lat="42.80919" lon="0.38098">
        <ele>2000</ele>
        <time>2017-04-16T10:57:15Z</time>
      </trkpt>
      <trkpt lat="42.8091" lon="0.38095">
        <ele>2000</ele>
        <time>2017-04-16T10:57:16Z</time>
      </trkpt>
      <trkpt lat="42.80895" lon="0.38095">
        <ele>2001</ele>
        <time>2017-04-16T10:57:18Z</time>
      </trkpt>
      <trkpt lat="42.80879" lon="0.38095">
        <ele>1999</ele>
        <time>2017-04-16T10:57:20Z</time>
      </trkpt>
      <trkpt lat="42.80868" lon="0.38095">
        <ele>1999</ele>
        <time>2017-04-16T10:57:21Z</time>
      </trkpt>
      <trkpt lat="42.80855" lon="0.38094">
        <ele>1994</ele>
        <time>2017-04-16T10:57:22Z</time>
      </trkpt>
      <trkpt lat="42.80842" lon="0.38093">
        <ele>1994</ele>
        <time>2017-04-16T10:57:23Z</time>
      </trkpt>
      <trkpt lat="42.8083" lon="0.38093">
        <ele>1992.5</ele>
        <time>2017-04-16T10:57:24Z</time>
      </trkpt>
      <trkpt lat="42.80814" lon="0.38096">
        <ele>1998</ele>
        <time>2017-04-16T10:57:26Z</time>
      </trkpt>
      <trkpt lat="42.808" lon="0.38102">
        <ele>1998.5</ele>
        <time>2017-04-16T10:57:28Z</time>
      </trkpt>
      <trkpt lat="42.80791" lon="0.38106">
        <ele>1998.7</ele>
        <time>2017-04-16T10:57:29Z</time>
      </trkpt>
      <trkpt lat="42.8078" lon="0.38111">
        <ele>1995.2</ele>
        <time>2017-04-16T10:57:30Z</time>
      </trkpt>
      <trkpt lat="42.80771" lon="0.38118">
        <ele>1995.2</ele>
        <time>2017-04-16T10:57:31Z</time>
      </trkpt>
      <trkpt lat="42.80763" lon="0.38126">
        <ele>1994</ele>
        <time>2017-04-16T10:57:32Z</time>
      </trkpt>
      <trkpt lat="42.80755" lon="0.38146">
        <ele>1994</ele>
        <time>2017-04-16T10:57:34Z</time>
      </trkpt>
      <trkpt lat="42.80754" lon="0.38158">
        <ele>1993</ele>
        <time>2017-04-16T10:57:35Z</time>
      </trkpt>
      <trkpt lat="42.80754" lon="0.38171">
        <ele>1992.5</ele>
        <time>2017-04-16T10:57:36Z</time>
      </trkpt>
      <trkpt lat="42.80755" lon="0.38183">
        <ele>1989</ele>
        <time>2017-04-16T10:57:37Z</time>
      </trkpt>
      <trkpt lat="42.80759" lon="0.38206">
        <ele>1988</ele>
        <time>2017-04-16T10:57:39Z</time>
      </trkpt>
      <trkpt lat="42.80762" lon="0.38217">
        <ele>1987</ele>
        <time>2017-04-16T10:57:40Z</time>
      </trkpt>
      <trkpt lat="42.80766" lon="0.3823">
        <ele>1986.5</ele>
        <time>2017-04-16T10:57:41Z</time>
      </trkpt>
      <trkpt lat="42.8077" lon="0.38241">
        <ele>1986.5</ele>
        <time>2017-04-16T10:57:42Z</time>
      </trkpt>
      <trkpt lat="42.80776" lon="0.38252">
        <ele>1988</ele>
        <time>2017-04-16T10:57:43Z</time>
      </trkpt>
      <trkpt lat="42.80786" lon="0.38271">
        <ele>1988.5</ele>
        <time>2017-04-16T10:57:45Z</time>
      </trkpt>
      <trkpt lat="42.80796" lon="0.38289">
        <ele>1989.5</ele>
        <time>2017-04-16T10:57:47Z</time>
      </trkpt>
      <trkpt lat="42.80803" lon="0.38297">
        <ele>1990</ele>
        <time>2017-04-16T10:57:48Z</time>
      </trkpt>
      <trkpt lat="42.80819" lon="0.38306">
        <ele>1990</ele>
        <time>2017-04-16T10:57:50Z</time>
      </trkpt>
      <trkpt lat="42.80834" lon="0.38312">
        <ele>1992.5</ele>
        <time>2017-04-16T10:57:52Z</time>
      </trkpt>
      <trkpt lat="42.80849" lon="0.38318">
        <ele>1996.2</ele>
        <time>2017-04-16T10:57:54Z</time>
      </trkpt>
      <trkpt lat="42.80865" lon="0.38327">
        <ele>1997.5</ele>
        <time>2017-04-16T10:57:56Z</time>
      </trkpt>
      <trkpt lat="42.8088" lon="0.38336">
        <ele>1999</ele>
        <time>2017-04-16T10:57:58Z</time>
      </trkpt>
      <trkpt lat="42.80897" lon="0.38345">
        <ele>1999.5</ele>
        <time>2017-04-16T10:58:00Z</time>
      </trkpt>
      <trkpt lat="42.80906" lon="0.3835">
        <ele>1998.5</ele>
        <time>2017-04-16T10:58:01Z</time>
      </trkpt>
      <trkpt lat="42.80915" lon="0.38355">
        <ele>1997.7</ele>
        <time>2017-04-16T10:58:02Z</time>
      </trkpt>
      <trkpt lat="42.80924" lon="0.38359">
        <ele>1995.5</ele>
        <time>2017-04-16T10:58:03Z</time>
      </trkpt>
      <trkpt lat="42.80933" lon="0.38362">
        <ele>1995.5</ele>
        <time>2017-04-16T10:58:04Z</time>
      </trkpt>
      <trkpt lat="42.80943" lon="0.38364">
        <ele>1995</ele>
        <time>2017-04-16T10:58:05Z</time>
      </trkpt>
      <trkpt lat="42.80953" lon="0.38366">
        <ele>1995</ele>
        <time>2017-04-16T10:58:06Z</time>
      </trkpt>
      <trkpt lat="42.80964" lon="0.38368">
        <ele>1995</ele>
        <time>2017-04-16T10:58:07Z</time>
      </trkpt>
      <trkpt lat="42.80974" lon="0.3837">
        <ele>1995.5</ele>
        <time>2017-04-16T10:58:08Z</time>
      </trkpt>
      <trkpt lat="42.80984" lon="0.38372">
        <ele>1995.7</ele>
        <time>2017-04-16T10:58:09Z</time>
      </trkpt>
      <trkpt lat="42.80992" lon="0.38375">
        <ele>2001</ele>
        <time>2017-04-16T10:58:10Z</time>
      </trkpt>
      <trkpt lat="42.81003" lon="0.3838">
        <ele>2006</ele>
        <time>2017-04-16T10:58:12Z</time>
      </trkpt>
      <trkpt lat="42.81013" lon="0.38384">
        <ele>2014.2</ele>
        <time>2017-04-16T10:58:14Z</time>
      </trkpt>
      <trkpt lat="42.81028" lon="0.38392">
        <ele>2020</ele>
        <time>2017-04-16T10:58:16Z</time>
      </trkpt>
      <trkpt lat="42.81043" lon="0.38399">
        <ele>2024.7</ele>
        <time>2017-04-16T10:58:18Z</time>
      </trkpt>
      <trkpt lat="42.81056" lon="0.38398">
        <ele>2031.5</ele>
        <time>2017-04-16T10:58:20Z</time>
      </trkpt>
      <trkpt lat="42.81067" lon="0.38384">
        <ele>2039</ele>
        <time>2017-04-16T10:58:22Z</time>
      </trkpt>
      <trkpt lat="42.8107" lon="0.38361">
        <ele>2041</ele>
        <time>2017-04-16T10:58:24Z</time>
      </trkpt>
      <trkpt lat="42.81066" lon="0.38348">
        <ele>2046</ele>
        <time>2017-04-16T10:58:25Z</time>
      </trkpt>
      <trkpt lat="42.8106" lon="0.38337">
        <ele>2048.5</ele>
        <time>2017-04-16T10:58:26Z</time>
      </trkpt>
      <trkpt lat="42.81052" lon="0.38328">
        <ele>2054.5</ele>
        <time>2017-04-16T10:58:27Z</time>
      </trkpt>
      <trkpt lat="42.81043" lon="0.38323">
        <ele>2058</ele>
        <time>2017-04-16T10:58:28Z</time>
      </trkpt>
      <trkpt lat="42.8103" lon="0.38322">
        <ele>2064.5</ele>
        <time>2017-04-16T10:58:30Z</time>
      </trkpt>
      <trkpt lat="42.81022" lon="0.38329">
        <ele>2077.5</ele>
        <time>2017-04-16T10:58:32Z</time>
      </trkpt>
      <trkpt lat="42.81007" lon="0.38334">
        <ele>2084</ele>
        <time>2017-04-16T10:58:34Z</time>
      </trkpt>
      <trkpt lat="42.80992" lon="0.38343">
        <ele>2084</ele>
        <time>2017-04-16T10:58:36Z</time>
      </trkpt>
      <trkpt lat="42.80986" lon="0.38362">
        <ele>2093.5</ele>
        <time>2017-04-16T10:58:38Z</time>
      </trkpt>
      <trkpt lat="42.80987" lon="0.38381">
        <ele>2095.2</ele>
        <time>2017-04-16T10:58:40Z</time>
      </trkpt>
      <trkpt lat="42.80991" lon="0.38394">
        <ele>2103</ele>
        <time>2017-04-16T10:58:42Z</time>
      </trkpt>
      <trkpt lat="42.81001" lon="0.38404">
        <ele>2108</ele>
        <time>2017-04-16T10:58:44Z</time>
      </trkpt>
      <trkpt lat="42.81015" lon="0.38407">
        <ele>2110</ele>
        <time>2017-04-16T10:58:46Z</time>
      </trkpt>
      <trkpt lat="42.8103" lon="0.38396">
        <ele>2111</ele>
        <time>2017-04-16T10:58:48Z</time>
      </trkpt>
      <trkpt lat="42.81036" lon="0.38385">
        <ele>2112.5</ele>
        <time>2017-04-16T10:58:49Z</time>
      </trkpt>
      <trkpt lat="42.81039" lon="0.38371">
        <ele>2116</ele>
        <time>2017-04-16T10:58:50Z</time>
      </trkpt>
      <trkpt lat="42.81038" lon="0.38356">
        <ele>2116</ele>
        <time>2017-04-16T10:58:51Z</time>
      </trkpt>
      <trkpt lat="42.81035" lon="0.38343">
        <ele>2117</ele>
        <time>2017-04-16T10:58:52Z</time>
      </trkpt>
      <trkpt lat="42.81029" lon="0.38331">
        <ele>2120.5</ele>
        <time>2017-04-16T10:58:53Z</time>
      </trkpt>
      <trkpt lat="42.81023" lon="0.3832">
        <ele>2121.7</ele>
        <time>2017-04-16T10:58:54Z</time>
      </trkpt>
      <trkpt lat="42.81017" lon="0.3831">
        <ele>2126.5</ele>
        <time>2017-04-16T10:58:55Z</time>
      </trkpt>
      <trkpt lat="42.81003" lon="0.38296">
        <ele>2128.2</ele>
        <time>2017-04-16T10:58:57Z</time>
      </trkpt>
      <trkpt lat="42.80995" lon="0.38292">
        <ele>2135.5</ele>
        <time>2017-04-16T10:58:58Z</time>
      </trkpt>
      <trkpt lat="42.80986" lon="0.38289">
        <ele>2141</ele>
        <time>2017-04-16T10:58:59Z</time>
      </trkpt>
      <trkpt lat="42.80969" lon="0.38284">
        <ele>2145.5</ele>
        <time>2017-04-16T10:59:01Z</time>
      </trkpt>
      <trkpt lat="42.80961" lon="0.38284">
        <ele>2149.5</ele>
        <time>2017-04-16T10:59:02Z</time>
      </trkpt>
      <trkpt lat="42.80945" lon="0.38294">
        <ele>2153.5</ele>
        <time>2017-04-16T10:59:04Z</time>
      </trkpt>
      <trkpt lat="42.80938" lon="0.38302">
        <ele>2153.5</ele>
        <time>2017-04-16T10:59:05Z</time>
      </trkpt>
      <trkpt lat="42.8093" lon="0.38319">
        <ele>2159</ele>
        <time>2017-04-16T10:59:07Z</time>
      </trkpt>
      <trkpt lat="42.80929" lon="0.38337">
        <ele>2166.5</ele>
        <time>2017-04-16T10:59:09Z</time>
      </trkpt>
      <trkpt lat="42.8093" lon="0.38356">
        <ele>2168.2</ele>
        <time>2017-04-16T10:59:11Z</time>
      </trkpt>
      <trkpt lat="42.80936" lon="0.38374">
        <ele>2174.5</ele>
        <time>2017-04-16T10:59:13Z</time>
      </trkpt>
      <trkpt lat="42.80951" lon="0.38381">
        <ele>2179</ele>
        <time>2017-04-16T10:59:15Z</time>
      </trkpt>
      <trkpt lat="42.80966" lon="0.38382">
        <ele>2185</ele>
        <time>2017-04-16T10:59:17Z</time>
      </trkpt>
      <trkpt lat="42.80971" lon="0.38394">
        <ele>2191.7</ele>
        <time>2017-04-16T10:59:19Z</time>
      </trkpt>
      <trkpt lat="42.80974" lon="0.38415">
        <ele>2193</ele>
        <time>2017-04-16T10:59:21Z</time>
      </trkpt>
      <trkpt lat="42.80988" lon="0.38423">
        <ele>2194.5</ele>
        <time>2017-04-16T10:59:23Z</time>
      </trkpt>
      <trkpt lat="42.80997" lon="0.38416">
        <ele>2195</ele>
        <time>2017-04-16T10:59:24Z</time>
      </trkpt>
      <trkpt lat="42.81003" lon="0.38403">
        <ele>2195</ele>
        <time>2017-04-16T10:59:25Z</time>
      </trkpt>
      <trkpt lat="42.81003" lon="0.38385">
        <ele>2195</ele>
        <time>2017-04-16T10:59:26Z</time>
      </trkpt>
      <trkpt lat="42.80998" lon="0.38369">
        <ele>2193</ele>
        <time>2017-04-16T10:59:27Z</time>
      </trkpt>
      <trkpt lat="42.80989" lon="0.38357">
        <ele>2192</ele>
        <time>2017-04-16T10:59:28Z</time>
      </trkpt>
      <trkpt lat="42.80978" lon="0.38351">
        <ele>2193.2</ele>
        <time>2017-04-16T10:59:29Z</time>
      </trkpt>
      <trkpt lat="42.80968" lon="0.38347">
        <ele>2196.5</ele>
        <time>2017-04-16T10:59:30Z</time>
      </trkpt>
      <trkpt lat="42.80959" lon="0.38344">
        <ele>2196.5</ele>
        <time>2017-04-16T10:59:31Z</time>
      </trkpt>
      <trkpt lat="42.8095" lon="0.3834">
        <ele>2197.7</ele>
        <time>2017-04-16T10:59:32Z</time>
      </trkpt>
      <trkpt lat="42.80941" lon="0.38336">
        <ele>2199</ele>
        <time>2017-04-16T10:59:33Z</time>
      </trkpt>
      <trkpt lat="42.80932" lon="0.38333">
        <ele>2204.2</ele>
        <time>2017-04-16T10:59:34Z</time>
      </trkpt>
      <trkpt lat="42.80923" lon="0.38334">
        <ele>2207</ele>
        <time>2017-04-16T10:59:35Z</time>
      </trkpt>
      <trkpt lat="42.80907" lon="0.38339">
        <ele>2207.5</ele>
        <time>2017-04-16T10:59:37Z</time>
      </trkpt>
      <trkpt lat="42.80894" lon="0.38342">
        <ele>2211</ele>
        <time>2017-04-16T10:59:39Z</time>
      </trkpt>
      <trkpt lat="42.80876" lon="0.38343">
        <ele>2211.5</ele>
        <time>2017-04-16T10:59:41Z</time>
      </trkpt>
      <trkpt lat="42.80866" lon="0.38343">
        <ele>2211.2</ele>
        <time>2017-04-16T10:59:42Z</time>
      </trkpt>
      <trkpt lat="42.80855" lon="0.38342">
        <ele>2212</ele>
        <time>2017-04-16T10:59:43Z</time>
      </trkpt>
      <trkpt lat="42.80845" lon="0.38339">
        <ele>2212.5</ele>
        <time>2017-04-16T10:59:44Z</time>
      </trkpt>
      <trkpt lat="42.80836" lon="0.38336">
        <ele>2213</ele>
        <time>2017-04-16T10:59:45Z</time>
      </trkpt>
      <trkpt lat="42.80828" lon="0.38334">
        <ele>2217.5</ele>
        <time>2017-04-16T10:59:46Z</time>
      </trkpt>
      <trkpt lat="42.80811" lon="0.3833">
        <ele>2220</ele>
        <time>2017-04-16T10:59:48Z</time>
      </trkpt>
      <trkpt lat="42.80793" lon="0.38325">
        <ele>2221.5</ele>
        <time>2017-04-16T10:59:50Z</time>
      </trkpt>
      <trkpt lat="42.80776" lon="0.38322">
        <ele>2222</ele>
        <time>2017-04-16T10:59:52Z</time>
      </trkpt>
      <trkpt lat="42.80767" lon="0.38322">
        <ele>2222</ele>
        <time>2017-04-16T10:59:53Z</time>
      </trkpt>
      <trkpt lat="42.80749" lon="0.38323">
        <ele>2220</ele>
        <time>2017-04-16T10:59:55Z</time>
      </trkpt>
      <trkpt lat="42.80733" lon="0.38326">
        <ele>2215.7</ele>
        <time>2017-04-16T10:59:57Z</time>
      </trkpt>
      <trkpt lat="42.80724" lon="0.38329">
        <ele>2215</ele>
        <time>2017-04-16T10:59:58Z</time>
      </trkpt>
      <trkpt lat="42.80714" lon="0.38332">
        <ele>2215</ele>
        <time>2017-04-16T10:59:59Z</time>
      </trkpt>
      <trkpt lat="42.80705" lon="0.38336">
        <ele>2212</ele>
        <time>2017-04-16T11:00:00Z</time>
      </trkpt>
      <trkpt lat="42.80696" lon="0.38339">
        <ele>2209.5</ele>
        <time>2017-04-16T11:00:01Z</time>
      </trkpt>
      <trkpt lat="42.80687" lon="0.38341">
        <ele>2208.7</ele>
        <time>2017-04-16T11:00:02Z</time>
      </trkpt>
      <trkpt lat="42.80669" lon="0.38345">
        <ele>2208</ele>
        <time>2017-04-16T11:00:04Z</time>
      </trkpt>
      <trkpt lat="42.8066" lon="0.38348">
        <ele>2208</ele>
        <time>2017-04-16T11:00:05Z</time>
      </trkpt>
      <trkpt lat="42.80651" lon="0.38352">
        <ele>2206.5</ele>
        <time>2017-04-16T11:00:06Z</time>
      </trkpt>
      <trkpt lat="42.80642" lon="0.38356">
        <ele>2205.7</ele>
        <time>2017-04-16T11:00:07Z</time>
      </trkpt>
      <trkpt lat="42.80632" lon="0.3836">
        <ele>2205.7</ele>
        <time>2017-04-16T11:00:08Z</time>
      </trkpt>
      <trkpt lat="42.80623" lon="0.38363">
        <ele>2203.5</ele>
        <time>2017-04-16T11:00:09Z</time>
      </trkpt>
      <trkpt lat="42.80613" lon="0.38366">
        <ele>2203.5</ele>
        <time>2017-04-16T11:00:10Z</time>
      </trkpt>
      <trkpt lat="42.80602" lon="0.38368">
        <ele>2203</ele>
        <time>2017-04-16T11:00:11Z</time>
      </trkpt>
      <trkpt lat="42.80592" lon="0.38371">
        <ele>2203</ele>
        <time>2017-04-16T11:00:12Z</time>
      </trkpt>
      <trkpt lat="42.80583" lon="0.38374">
        <ele>2203</ele>
        <time>2017-04-16T11:00:13Z</time>
      </trkpt>
      <trkpt lat="42.80573" lon="0.38378">
        <ele>2200.5</ele>
        <time>2017-04-16T11:00:14Z</time>
      </trkpt>
      <trkpt lat="42.80563" lon="0.38381">
        <ele>2199.2</ele>
        <time>2017-04-16T11:00:15Z</time>
      </trkpt>
      <trkpt lat="42.80552" lon="0.38384">
        <ele>2195.5</ele>
        <time>2017-04-16T11:00:16Z</time>
      </trkpt>
      <trkpt lat="42.80541" lon="0.38387">
        <ele>2195.5</ele>
        <time>2017-04-16T11:00:17Z</time>
      </trkpt>
      <trkpt lat="42.8053" lon="0.38388">
        <ele>2194.2</ele>
        <time>2017-04-16T11:00:18Z</time>
      </trkpt>
      <trkpt lat="42.80519" lon="0.3839">
        <ele>2191.5</ele>
        <time>2017-04-16T11:00:19Z</time>
      </trkpt>
      <trkpt lat="42.80508" lon="0.38391">
        <ele>2190.7</ele>
        <time>2017-04-16T11:00:20Z</time>
      </trkpt>
      <trkpt lat="42.80498" lon="0.38392">
        <ele>2184.7</ele>
        <time>2017-04-16T11:00:21Z</time>
      </trkpt>
      <trkpt lat="42.80487" lon="0.38394">
        <ele>2184.7</ele>
        <time>2017-04-16T11:00:22Z</time>
      </trkpt>
      <trkpt lat="42.80476" lon="0.38395">
        <ele>2183</ele>
        <time>2017-04-16T11:00:23Z</time>
      </trkpt>
      <trkpt lat="42.80464" lon="0.38396">
        <ele>2181</ele>
        <time>2017-04-16T11:00:24Z</time>
      </trkpt>
      <trkpt lat="42.80452" lon="0.38396">
        <ele>2176</ele>
        <time>2017-04-16T11:00:25Z</time>
      </trkpt>
      <trkpt lat="42.8044" lon="0.38396">
        <ele>2174.5</ele>
        <time>2017-04-16T11:00:26Z</time>
      </trkpt>
      <trkpt lat="42.80428" lon="0.38397">
        <ele>2174.5</ele>
        <time>2017-04-16T11:00:27Z</time>
      </trkpt>
      <trkpt lat="42.80416" lon="0.38399">
        <ele>2169.5</ele>
        <time>2017-04-16T11:00:28Z</time>
      </trkpt>
      <trkpt lat="42.80404" lon="0.38402">
        <ele>2166</ele>
        <time>2017-04-16T11:00:29Z</time>
      </trkpt>
      <trkpt lat="42.80393" lon="0.38406">
        <ele>2164.5</ele>
        <time>2017-04-16T11:00:30Z</time>
      </trkpt>
      <trkpt lat="42.80381" lon="0.3841">
        <ele>2164.5</ele>
        <time>2017-04-16T11:00:31Z</time>
      </trkpt>
      <trkpt lat="42.8037" lon="0.38413">
        <ele>2160</ele>
        <time>2017-04-16T11:00:32Z</time>
      </trkpt>
      <trkpt lat="42.80359" lon="0.38416">
        <ele>2160</ele>
        <time>2017-04-16T11:00:33Z</time>
      </trkpt>
      <trkpt lat="42.80348" lon="0.3842">
        <ele>2154.5</ele>
        <time>2017-04-16T11:00:34Z</time>
      </trkpt>
      <trkpt lat="42.80337" lon="0.38427">
        <ele>2153.2</ele>
        <time>2017-04-16T11:00:35Z</time>
      </trkpt>
      <trkpt lat="42.80327" lon="0.38434">
        <ele>2153.2</ele>
        <time>2017-04-16T11:00:36Z</time>
      </trkpt>
      <trkpt lat="42.80317" lon="0.3844">
        <ele>2152</ele>
        <time>2017-04-16T11:00:37Z</time>
      </trkpt>
      <trkpt lat="42.80306" lon="0.38447">
        <ele>2150</ele>
        <time>2017-04-16T11:00:38Z</time>
      </trkpt>
      <trkpt lat="42.80295" lon="0.38452">
        <ele>2149</ele>
        <time>2017-04-16T11:00:39Z</time>
      </trkpt>
      <trkpt lat="42.80285" lon="0.38458">
        <ele>2145</ele>
        <time>2017-04-16T11:00:40Z</time>
      </trkpt>
      <trkpt lat="42.80274" lon="0.38466">
        <ele>2142</ele>
        <time>2017-04-16T11:00:41Z</time>
      </trkpt>
      <trkpt lat="42.80265" lon="0.38474">
        <ele>2142</ele>
        <time>2017-04-16T11:00:42Z</time>
      </trkpt>
      <trkpt lat="42.80255" lon="0.38481">
        <ele>2141</ele>
        <time>2017-04-16T11:00:43Z</time>
      </trkpt>
      <trkpt lat="42.80245" lon="0.38488">
        <ele>2140.5</ele>
        <time>2017-04-16T11:00:44Z</time>
      </trkpt>
      <trkpt lat="42.80235" lon="0.38495">
        <ele>2138</ele>
        <time>2017-04-16T11:00:45Z</time>
      </trkpt>
      <trkpt lat="42.80225" lon="0.38501">
        <ele>2133.5</ele>
        <time>2017-04-16T11:00:46Z</time>
      </trkpt>
      <trkpt lat="42.80214" lon="0.38507">
        <ele>2132.2</ele>
        <time>2017-04-16T11:00:47Z</time>
      </trkpt>
      <trkpt lat="42.80204" lon="0.38514">
        <ele>2132.2</ele>
        <time>2017-04-16T11:00:48Z</time>
      </trkpt>
      <trkpt lat="42.80193" lon="0.3852">
        <ele>2131</ele>
        <time>2017-04-16T11:00:49Z</time>
      </trkpt>
      <trkpt lat="42.80183" lon="0.38526">
        <ele>2131</ele>
        <time>2017-04-16T11:00:50Z</time>
      </trkpt>
      <trkpt lat="42.80173" lon="0.3853">
        <ele>2131</ele>
        <time>2017-04-16T11:00:51Z</time>
      </trkpt>
      <trkpt lat="42.80163" lon="0.38535">
        <ele>2130</ele>
        <time>2017-04-16T11:00:52Z</time>
      </trkpt>
      <trkpt lat="42.80153" lon="0.3854">
        <ele>2129.5</ele>
        <time>2017-04-16T11:00:53Z</time>
      </trkpt>
      <trkpt lat="42.80143" lon="0.38546">
        <ele>2127.5</ele>
        <time>2017-04-16T11:00:54Z</time>
      </trkpt>
      <trkpt lat="42.80133" lon="0.38552">
        <ele>2126.7</ele>
        <time>2017-04-16T11:00:55Z</time>
      </trkpt>
      <trkpt lat="42.80123" lon="0.38558">
        <ele>2126</ele>
        <time>2017-04-16T11:00:56Z</time>
      </trkpt>
      <trkpt lat="42.80112" lon="0.38563">
        <ele>2121.5</ele>
        <time>2017-04-16T11:00:57Z</time>
      </trkpt>
      <trkpt lat="42.80102" lon="0.38568">
        <ele>2119</ele>
        <time>2017-04-16T11:00:58Z</time>
      </trkpt>
      <trkpt lat="42.80091" lon="0.38573">
        <ele>2119</ele>
        <time>2017-04-16T11:00:59Z</time>
      </trkpt>
      <trkpt lat="42.8008" lon="0.38578">
        <ele>2118.5</ele>
        <time>2017-04-16T11:01:00Z</time>
      </trkpt>
      <trkpt lat="42.80069" lon="0.38583">
        <ele>2113.5</ele>
        <time>2017-04-16T11:01:01Z</time>
      </trkpt>
      <trkpt lat="42.80059" lon="0.38589">
        <ele>2113.5</ele>
        <time>2017-04-16T11:01:02Z</time>
      </trkpt>
      <trkpt lat="42.80049" lon="0.38596">
        <ele>2109</ele>
        <time>2017-04-16T11:01:03Z</time>
      </trkpt>
      <trkpt lat="42.80039" lon="0.38603">
        <ele>2109</ele>
        <time>2017-04-16T11:01:04Z</time>
      </trkpt>
      <trkpt lat="42.80029" lon="0.38611">
        <ele>2107.5</ele>
        <time>2017-04-16T11:01:05Z</time>
      </trkpt>
      <trkpt lat="42.80019" lon="0.38618">
        <ele>2105.5</ele>
        <time>2017-04-16T11:01:06Z</time>
      </trkpt>
      <trkpt lat="42.80009" lon="0.38625">
        <ele>2105</ele>
        <time>2017-04-16T11:01:07Z</time>
      </trkpt>
      <trkpt lat="42.79999" lon="0.38632">
        <ele>2102</ele>
        <time>2017-04-16T11:01:08Z</time>
      </trkpt>
      <trkpt lat="42.7999" lon="0.38641">
        <ele>2100.5</ele>
        <time>2017-04-16T11:01:09Z</time>
      </trkpt>
      <trkpt lat="42.79981" lon="0.3865">
        <ele>2096.5</ele>
        <time>2017-04-16T11:01:10Z</time>
      </trkpt>
      <trkpt lat="42.79972" lon="0.3866">
        <ele>2096.5</ele>
        <time>2017-04-16T11:01:11Z</time>
      </trkpt>
      <trkpt lat="42.79963" lon="0.38669">
        <ele>2095.2</ele>
        <time>2017-04-16T11:01:12Z</time>
      </trkpt>
      <trkpt lat="42.79954" lon="0.38678">
        <ele>2089.5</ele>
        <time>2017-04-16T11:01:13Z</time>
      </trkpt>
      <trkpt lat="42.79945" lon="0.38685">
        <ele>2089.5</ele>
        <time>2017-04-16T11:01:14Z</time>
      </trkpt>
      <trkpt lat="42.79935" lon="0.38692">
        <ele>2088</ele>
        <time>2017-04-16T11:01:15Z</time>
      </trkpt>
      <trkpt lat="42.79925" lon="0.38697">
        <ele>2086.5</ele>
        <time>2017-04-16T11:01:16Z</time>
      </trkpt>
      <trkpt lat="42.79916" lon="0.38703">
        <ele>2084</ele>
        <time>2017-04-16T11:01:17Z</time>
      </trkpt>
      <trkpt lat="42.79906" lon="0.38708">
        <ele>2083.5</ele>
        <time>2017-04-16T11:01:18Z</time>
      </trkpt>
      <trkpt lat="42.79896" lon="0.38713">
        <ele>2083.5</ele>
        <time>2017-04-16T11:01:19Z</time>
      </trkpt>
      <trkpt lat="42.79886" lon="0.38716">
        <ele>2082.7</ele>
        <time>2017-04-16T11:01:20Z</time>
      </trkpt>
      <trkpt lat="42.79876" lon="0.38719">
        <ele>2081.5</ele>
        <time>2017-04-16T11:01:21Z</time>
      </trkpt>
      <trkpt lat="42.79866" lon="0.38721">
        <ele>2081.2</ele>
        <time>2017-04-16T11:01:22Z</time>
      </trkpt>
      <trkpt lat="42.79857" lon="0.38722">
        <ele>2077.5</ele>
        <time>2017-04-16T11:01:23Z</time>
      </trkpt>
      <trkpt lat="42.79848" lon="0.38724">
        <ele>2075.7</ele>
        <time>2017-04-16T11:01:24Z</time>
      </trkpt>
      <trkpt lat="42.79838" lon="0.38726">
        <ele>2072</ele>
        <time>2017-04-16T11:01:25Z</time>
      </trkpt>
      <trkpt lat="42.79828" lon="0.38728">
        <ele>2071</ele>
        <time>2017-04-16T11:01:26Z</time>
      </trkpt>
      <trkpt lat="42.79818" lon="0.38731">
        <ele>2070</ele>
        <time>2017-04-16T11:01:27Z</time>
      </trkpt>
      <trkpt lat="42.79807" lon="0.38733">
        <ele>2066.5</ele>
        <time>2017-04-16T11:01:28Z</time>
      </trkpt>
      <trkpt lat="42.79797" lon="0.38736">
        <ele>2064.7</ele>
        <time>2017-04-16T11:01:29Z</time>
      </trkpt>
      <trkpt lat="42.79786" lon="0.38738">
        <ele>2062</ele>
        <time>2017-04-16T11:01:30Z</time>
      </trkpt>
      <trkpt lat="42.79775" lon="0.38741">
        <ele>2061.5</ele>
        <time>2017-04-16T11:01:31Z</time>
      </trkpt>
      <trkpt lat="42.79764" lon="0.38745">
        <ele>2057.5</ele>
        <time>2017-04-16T11:01:32Z</time>
      </trkpt>
      <trkpt lat="42.79754" lon="0.38748">
        <ele>2055.7</ele>
        <time>2017-04-16T11:01:33Z</time>
      </trkpt>
      <trkpt lat="42.79744" lon="0.3875">
        <ele>2052.5</ele>
        <time>2017-04-16T11:01:34Z</time>
      </trkpt>
      <trkpt lat="42.79734" lon="0.38751">
        <ele>2052.5</ele>
        <time>2017-04-16T11:01:35Z</time>
      </trkpt>
      <trkpt lat="42.79724" lon="0.38752">
        <ele>2051.7</ele>
        <time>2017-04-16T11:01:36Z</time>
      </trkpt>
      <trkpt lat="42.79714" lon="0.38755">
        <ele>2049.5</ele>
        <time>2017-04-16T11:01:37Z</time>
      </trkpt>
      <trkpt lat="42.79704" lon="0.38757">
        <ele>2048.7</ele>
        <time>2017-04-16T11:01:38Z</time>
      </trkpt>
      <trkpt lat="42.79695" lon="0.38759">
        <ele>2045</ele>
        <time>2017-04-16T11:01:39Z</time>
      </trkpt>
      <trkpt lat="42.79686" lon="0.3876">
        <ele>2043.5</ele>
        <time>2017-04-16T11:01:40Z</time>
      </trkpt>
      <trkpt lat="42.79677" lon="0.3876">
        <ele>2040</ele>
        <time>2017-04-16T11:01:41Z</time>
      </trkpt>
      <trkpt lat="42.7966" lon="0.38759">
        <ele>2035</ele>
        <time>2017-04-16T11:01:43Z</time>
      </trkpt>
      <trkpt lat="42.79651" lon="0.3876">
        <ele>2033.5</ele>
        <time>2017-04-16T11:01:44Z</time>
      </trkpt>
      <trkpt lat="42.79642" lon="0.38762">
        <ele>2033.5</ele>
        <time>2017-04-16T11:01:45Z</time>
      </trkpt>
      <trkpt lat="42.79632" lon="0.38763">
        <ele>2032</ele>
        <time>2017-04-16T11:01:46Z</time>
      </trkpt>
      <trkpt lat="42.79621" lon="0.38762">
        <ele>2029.5</ele>
        <time>2017-04-16T11:01:47Z</time>
      </trkpt>
      <trkpt lat="42.7961" lon="0.38761">
        <ele>2023.5</ele>
        <time>2017-04-16T11:01:48Z</time>
      </trkpt>
      <trkpt lat="42.79598" lon="0.3876">
        <ele>2023.5</ele>
        <time>2017-04-16T11:01:49Z</time>
      </trkpt>
      <trkpt lat="42.79588" lon="0.38759">
        <ele>2019.5</ele>
        <time>2017-04-16T11:01:50Z</time>
      </trkpt>
      <trkpt lat="42.79578" lon="0.38761">
        <ele>2019.2</ele>
        <time>2017-04-16T11:01:51Z</time>
      </trkpt>
      <trkpt lat="42.7956" lon="0.38763">
        <ele>2019</ele>
        <time>2017-04-16T11:01:53Z</time>
      </trkpt>
      <trkpt lat="42.79549" lon="0.38763">
        <ele>2017.5</ele>
        <time>2017-04-16T11:01:54Z</time>
      </trkpt>
      <trkpt lat="42.79538" lon="0.38761">
        <ele>2017.5</ele>
        <time>2017-04-16T11:01:55Z</time>
      </trkpt>
      <trkpt lat="42.79528" lon="0.38758">
        <ele>2014.5</ele>
        <time>2017-04-16T11:01:56Z</time>
      </trkpt>
      <trkpt lat="42.79519" lon="0.38754">
        <ele>2013.2</ele>
        <time>2017-04-16T11:01:57Z</time>
      </trkpt>
      <trkpt lat="42.79502" lon="0.38751">
        <ele>2010.5</ele>
        <time>2017-04-16T11:01:59Z</time>
      </trkpt>
      <trkpt lat="42.79493" lon="0.3875">
        <ele>2008.5</ele>
        <time>2017-04-16T11:02:00Z</time>
      </trkpt>
      <trkpt lat="42.79483" lon="0.3875">
        <ele>2008.5</ele>
        <time>2017-04-16T11:02:01Z</time>
      </trkpt>
      <trkpt lat="42.79473" lon="0.38749">
        <ele>2007.7</ele>
        <time>2017-04-16T11:02:02Z</time>
      </trkpt>
      <trkpt lat="42.79463" lon="0.38748">
        <ele>2005</ele>
        <time>2017-04-16T11:02:03Z</time>
      </trkpt>
      <trkpt lat="42.79453" lon="0.38744">
        <ele>2004</ele>
        <time>2017-04-16T11:02:04Z</time>
      </trkpt>
      <trkpt lat="42.79444" lon="0.3874">
        <ele>2002.2</ele>
        <time>2017-04-16T11:02:05Z</time>
      </trkpt>
      <trkpt lat="42.79435" lon="0.38736">
        <ele>2002.2</ele>
        <time>2017-04-16T11:02:06Z</time>
      </trkpt>
      <trkpt lat="42.79426" lon="0.38731">
        <ele>2002</ele>
        <time>2017-04-16T11:02:07Z</time>
      </trkpt>
      <trkpt lat="42.79409" lon="0.38722">
        <ele>2002</ele>
        <time>2017-04-16T11:02:09Z</time>
      </trkpt>
      <trkpt lat="42.794" lon="0.38718">
        <ele>2001</ele>
        <time>2017-04-16T11:02:10Z</time>
      </trkpt>
      <trkpt lat="42.79391" lon="0.38714">
        <ele>2000.5</ele>
        <time>2017-04-16T11:02:11Z</time>
      </trkpt>
      <trkpt lat="42.7938" lon="0.38709">
        <ele>2000</ele>
        <time>2017-04-16T11:02:12Z</time>
      </trkpt>
      <trkpt lat="42.7937" lon="0.38705">
        <ele>1999</ele>
        <time>2017-04-16T11:02:13Z</time>
      </trkpt>
      <trkpt lat="42.79359" lon="0.38701">
        <ele>1998.5</ele>
        <time>2017-04-16T11:02:14Z</time>
      </trkpt>
      <trkpt lat="42.79349" lon="0.38696">
        <ele>1999</ele>
        <time>2017-04-16T11:02:15Z</time>
      </trkpt>
      <trkpt lat="42.7934" lon="0.38691">
        <ele>1999.5</ele>
        <time>2017-04-16T11:02:16Z</time>
      </trkpt>
      <trkpt lat="42.79331" lon="0.38687">
        <ele>2001</ele>
        <time>2017-04-16T11:02:17Z</time>
      </trkpt>
      <trkpt lat="42.79321" lon="0.38681">
        <ele>2001.5</ele>
        <time>2017-04-16T11:02:18Z</time>
      </trkpt>
      <trkpt lat="42.79311" lon="0.38674">
        <ele>2002</ele>
        <time>2017-04-16T11:02:19Z</time>
      </trkpt>
      <trkpt lat="42.79301" lon="0.38667">
        <ele>2002.5</ele>
        <time>2017-04-16T11:02:20Z</time>
      </trkpt>
      <trkpt lat="42.79291" lon="0.38659">
        <ele>2004.5</ele>
        <time>2017-04-16T11:02:21Z</time>
      </trkpt>
      <trkpt lat="42.79282" lon="0.38651">
        <ele>2005.2</ele>
        <time>2017-04-16T11:02:22Z</time>
      </trkpt>
      <trkpt lat="42.79275" lon="0.38642">
        <ele>2006</ele>
        <time>2017-04-16T11:02:23Z</time>
      </trkpt>
      <trkpt lat="42.79268" lon="0.38634">
        <ele>2006</ele>
        <time>2017-04-16T11:02:24Z</time>
      </trkpt>
      <trkpt lat="42.7926" lon="0.38625">
        <ele>2007</ele>
        <time>2017-04-16T11:02:25Z</time>
      </trkpt>
      <trkpt lat="42.79251" lon="0.38617">
        <ele>2007.5</ele>
        <time>2017-04-16T11:02:26Z</time>
      </trkpt>
      <trkpt lat="42.79241" lon="0.3861">
        <ele>2008</ele>
        <time>2017-04-16T11:02:27Z</time>
      </trkpt>
      <trkpt lat="42.79231" lon="0.38604">
        <ele>2006.5</ele>
        <time>2017-04-16T11:02:28Z</time>
      </trkpt>
      <trkpt lat="42.79222" lon="0.38596">
        <ele>2005.7</ele>
        <time>2017-04-16T11:02:29Z</time>
      </trkpt>
      <trkpt lat="42.79214" lon="0.38588">
        <ele>2005</ele>
        <time>2017-04-16T11:02:30Z</time>
      </trkpt>
      <trkpt lat="42.79207" lon="0.38579">
        <ele>2005</ele>
        <time>2017-04-16T11:02:31Z</time>
      </trkpt>
      <trkpt lat="42.79199" lon="0.38571">
        <ele>2005.5</ele>
        <time>2017-04-16T11:02:32Z</time>
      </trkpt>
      <trkpt lat="42.79191" lon="0.38565">
        <ele>2005.7</ele>
        <time>2017-04-16T11:02:33Z</time>
      </trkpt>
      <trkpt lat="42.79182" lon="0.3856">
        <ele>2005.5</ele>
        <time>2017-04-16T11:02:34Z</time>
      </trkpt>
      <trkpt lat="42.79172" lon="0.38556">
        <ele>2005.2</ele>
        <time>2017-04-16T11:02:35Z</time>
      </trkpt>
      <trkpt lat="42.79161" lon="0.38551">
        <ele>2004.5</ele>
        <time>2017-04-16T11:02:36Z</time>
      </trkpt>
      <trkpt lat="42.79151" lon="0.38547">
        <ele>2004</ele>
        <time>2017-04-16T11:02:37Z</time>
      </trkpt>
      <trkpt lat="42.7914" lon="0.38544">
        <ele>2004.5</ele>
        <time>2017-04-16T11:02:38Z</time>
      </trkpt>
      <trkpt lat="42.79131" lon="0.38542">
        <ele>2004.7</ele>
        <time>2017-04-16T11:02:39Z</time>
      </trkpt>
      <trkpt lat="42.79122" lon="0.38541">
        <ele>2004.7</ele>
        <time>2017-04-16T11:02:40Z</time>
      </trkpt>
      <trkpt lat="42.79112" lon="0.38539">
        <ele>2005.5</ele>
        <time>2017-04-16T11:02:41Z</time>
      </trkpt>
      <trkpt lat="42.79103" lon="0.38538">
        <ele>2005.7</ele>
        <time>2017-04-16T11:02:42Z</time>
      </trkpt>
      <trkpt lat="42.79093" lon="0.38537">
        <ele>2006</ele>
        <time>2017-04-16T11:02:43Z</time>
      </trkpt>
      <trkpt lat="42.79082" lon="0.38537">
        <ele>2005.5</ele>
        <time>2017-04-16T11:02:44Z</time>
      </trkpt>
      <trkpt lat="42.79073" lon="0.38538">
        <ele>2004.5</ele>
        <time>2017-04-16T11:02:45Z</time>
      </trkpt>
      <trkpt lat="42.79064" lon="0.38539">
        <ele>2004.2</ele>
        <time>2017-04-16T11:02:46Z</time>
      </trkpt>
      <trkpt lat="42.79055" lon="0.38541">
        <ele>1999.6</ele>
        <time>2017-04-16T11:02:47Z</time>
      </trkpt>
      <trkpt lat="42.79046" lon="0.38543">
        <ele>1999.6</ele>
        <time>2017-04-16T11:02:48Z</time>
      </trkpt>
      <trkpt lat="42.79035" lon="0.38545">
        <ele>1997.8</ele>
        <time>2017-04-16T11:02:49Z</time>
      </trkpt>
      <trkpt lat="42.79022" lon="0.38548">
        <ele>1996</ele>
        <time>2017-04-16T11:02:50Z</time>
      </trkpt>
      <trkpt lat="42.7901" lon="0.3855">
        <ele>1990.7</ele>
        <time>2017-04-16T11:02:51Z</time>
      </trkpt>
      <trkpt lat="42.78998" lon="0.38552">
        <ele>1988.5</ele>
        <time>2017-04-16T11:02:52Z</time>
      </trkpt>
      <trkpt lat="42.78988" lon="0.38553">
        <ele>1988.2</ele>
        <time>2017-04-16T11:02:53Z</time>
      </trkpt>
      <trkpt lat="42.78977" lon="0.38553">
        <ele>1988.2</ele>
        <time>2017-04-16T11:02:54Z</time>
      </trkpt>
      <trkpt lat="42.78967" lon="0.38555">
        <ele>1985</ele>
        <time>2017-04-16T11:02:55Z</time>
      </trkpt>
      <trkpt lat="42.78956" lon="0.38558">
        <ele>1985</ele>
        <time>2017-04-16T11:02:56Z</time>
      </trkpt>
      <trkpt lat="42.78944" lon="0.38561">
        <ele>1983.5</ele>
        <time>2017-04-16T11:02:57Z</time>
      </trkpt>
      <trkpt lat="42.78931" lon="0.38564">
        <ele>1980.5</ele>
        <time>2017-04-16T11:02:58Z</time>
      </trkpt>
      <trkpt lat="42.78918" lon="0.38567">
        <ele>1979.7</ele>
        <time>2017-04-16T11:02:59Z</time>
      </trkpt>
      <trkpt lat="42.78906" lon="0.3857">
        <ele>1977.5</ele>
        <time>2017-04-16T11:03:00Z</time>
      </trkpt>
      <trkpt lat="42.78894" lon="0.38573">
        <ele>1977</ele>
        <time>2017-04-16T11:03:01Z</time>
      </trkpt>
      <trkpt lat="42.78883" lon="0.38578">
        <ele>1978.5</ele>
        <time>2017-04-16T11:03:02Z</time>
      </trkpt>
      <trkpt lat="42.78871" lon="0.38583">
        <ele>1978.5</ele>
        <time>2017-04-16T11:03:03Z</time>
      </trkpt>
      <trkpt lat="42.78861" lon="0.38587">
        <ele>1979.2</ele>
        <time>2017-04-16T11:03:04Z</time>
      </trkpt>
      <trkpt lat="42.78851" lon="0.3859">
        <ele>1980</ele>
        <time>2017-04-16T11:03:05Z</time>
      </trkpt>
      <trkpt lat="42.78841" lon="0.38591">
        <ele>1980</ele>
        <time>2017-04-16T11:03:06Z</time>
      </trkpt>
      <trkpt lat="42.78831" lon="0.38592">
        <ele>1981.5</ele>
        <time>2017-04-16T11:03:07Z</time>
      </trkpt>
      <trkpt lat="42.78821" lon="0.38594">
        <ele>1981.7</ele>
        <time>2017-04-16T11:03:08Z</time>
      </trkpt>
      <trkpt lat="42.7881" lon="0.38596">
        <ele>1982.3</ele>
        <time>2017-04-16T11:03:09Z</time>
      </trkpt>
      <trkpt lat="42.78799" lon="0.38599">
        <ele>1979</ele>
        <time>2017-04-16T11:03:10Z</time>
      </trkpt>
      <trkpt lat="42.78787" lon="0.38601">
        <ele>1973.5</ele>
        <time>2017-04-16T11:03:11Z</time>
      </trkpt>
      <trkpt lat="42.78776" lon="0.38602">
        <ele>1973.5</ele>
        <time>2017-04-16T11:03:12Z</time>
      </trkpt>
      <trkpt lat="42.78765" lon="0.38603">
        <ele>1972.7</ele>
        <time>2017-04-16T11:03:13Z</time>
      </trkpt>
      <trkpt lat="42.78755" lon="0.38603">
        <ele>1971</ele>
        <time>2017-04-16T11:03:14Z</time>
      </trkpt>
      <trkpt lat="42.78745" lon="0.38604">
        <ele>1970.5</ele>
        <time>2017-04-16T11:03:15Z</time>
      </trkpt>
      <trkpt lat="42.78735" lon="0.38606">
        <ele>1970</ele>
        <time>2017-04-16T11:03:16Z</time>
      </trkpt>
      <trkpt lat="42.78724" lon="0.38607">
        <ele>1967.7</ele>
        <time>2017-04-16T11:03:17Z</time>
      </trkpt>
      <trkpt lat="42.78713" lon="0.38609">
        <ele>1967.7</ele>
        <time>2017-04-16T11:03:18Z</time>
      </trkpt>
      <trkpt lat="42.78702" lon="0.38611">
        <ele>1964</ele>
        <time>2017-04-16T11:03:19Z</time>
      </trkpt>
      <trkpt lat="42.78691" lon="0.38614">
        <ele>1962.5</ele>
        <time>2017-04-16T11:03:20Z</time>
      </trkpt>
      <trkpt lat="42.78681" lon="0.38616">
        <ele>1961</ele>
        <time>2017-04-16T11:03:21Z</time>
      </trkpt>
      <trkpt lat="42.78671" lon="0.38619">
        <ele>1958.5</ele>
        <time>2017-04-16T11:03:22Z</time>
      </trkpt>
      <trkpt lat="42.7866" lon="0.38623">
        <ele>1957.2</ele>
        <time>2017-04-16T11:03:23Z</time>
      </trkpt>
      <trkpt lat="42.78649" lon="0.38628">
        <ele>1955.5</ele>
        <time>2017-04-16T11:03:24Z</time>
      </trkpt>
      <trkpt lat="42.78638" lon="0.38632">
        <ele>1955.2</ele>
        <time>2017-04-16T11:03:25Z</time>
      </trkpt>
      <trkpt lat="42.78626" lon="0.38635">
        <ele>1952</ele>
        <time>2017-04-16T11:03:26Z</time>
      </trkpt>
      <trkpt lat="42.78615" lon="0.38637">
        <ele>1951</ele>
        <time>2017-04-16T11:03:27Z</time>
      </trkpt>
      <trkpt lat="42.78604" lon="0.38639">
        <ele>1951</ele>
        <time>2017-04-16T11:03:28Z</time>
      </trkpt>
      <trkpt lat="42.78594" lon="0.38641">
        <ele>1949</ele>
        <time>2017-04-16T11:03:29Z</time>
      </trkpt>
      <trkpt lat="42.78584" lon="0.38644">
        <ele>1948</ele>
        <time>2017-04-16T11:03:30Z</time>
      </trkpt>
      <trkpt lat="42.78573" lon="0.38646">
        <ele>1946.2</ele>
        <time>2017-04-16T11:03:31Z</time>
      </trkpt>
      <trkpt lat="42.78562" lon="0.38648">
        <ele>1946.2</ele>
        <time>2017-04-16T11:03:32Z</time>
      </trkpt>
      <trkpt lat="42.7855" lon="0.3865">
        <ele>1946</ele>
        <time>2017-04-16T11:03:33Z</time>
      </trkpt>
      <trkpt lat="42.78539" lon="0.38652">
        <ele>1945</ele>
        <time>2017-04-16T11:03:34Z</time>
      </trkpt>
      <trkpt lat="42.78528" lon="0.38655">
        <ele>1944.5</ele>
        <time>2017-04-16T11:03:35Z</time>
      </trkpt>
      <trkpt lat="42.78518" lon="0.38657">
        <ele>1943.5</ele>
        <time>2017-04-16T11:03:36Z</time>
      </trkpt>
      <trkpt lat="42.78508" lon="0.3866">
        <ele>1943.2</ele>
        <time>2017-04-16T11:03:37Z</time>
      </trkpt>
      <trkpt lat="42.78497" lon="0.38661">
        <ele>1942.5</ele>
        <time>2017-04-16T11:03:38Z</time>
      </trkpt>
      <trkpt lat="42.78485" lon="0.38663">
        <ele>1942.2</ele>
        <time>2017-04-16T11:03:39Z</time>
      </trkpt>
      <trkpt lat="42.78474" lon="0.38665">
        <ele>1942</ele>
        <time>2017-04-16T11:03:40Z</time>
      </trkpt>
      <trkpt lat="42.78462" lon="0.38669">
        <ele>1942</ele>
        <time>2017-04-16T11:03:41Z</time>
      </trkpt>
      <trkpt lat="42.78452" lon="0.38673">
        <ele>1942</ele>
        <time>2017-04-16T11:03:42Z</time>
      </trkpt>
      <trkpt lat="42.78443" lon="0.38678">
        <ele>1942.5</ele>
        <time>2017-04-16T11:03:43Z</time>
      </trkpt>
      <trkpt lat="42.78434" lon="0.38681">
        <ele>1942.7</ele>
        <time>2017-04-16T11:03:44Z</time>
      </trkpt>
      <trkpt lat="42.78425" lon="0.38682">
        <ele>1943</ele>
        <time>2017-04-16T11:03:45Z</time>
      </trkpt>
      <trkpt lat="42.78415" lon="0.38683">
        <ele>1943</ele>
        <time>2017-04-16T11:03:46Z</time>
      </trkpt>
      <trkpt lat="42.78406" lon="0.38685">
        <ele>1943</ele>
        <time>2017-04-16T11:03:47Z</time>
      </trkpt>
      <trkpt lat="42.78397" lon="0.3869">
        <ele>1941</ele>
        <time>2017-04-16T11:03:48Z</time>
      </trkpt>
      <trkpt lat="42.78388" lon="0.38697">
        <ele>1938.5</ele>
        <time>2017-04-16T11:03:49Z</time>
      </trkpt>
      <trkpt lat="42.78379" lon="0.38705">
        <ele>1938.5</ele>
        <time>2017-04-16T11:03:50Z</time>
      </trkpt>
      <trkpt lat="42.7837" lon="0.38711">
        <ele>1938.2</ele>
        <time>2017-04-16T11:03:51Z</time>
      </trkpt>
      <trkpt lat="42.7836" lon="0.38716">
        <ele>1937.5</ele>
        <time>2017-04-16T11:03:52Z</time>
      </trkpt>
      <trkpt lat="42.78349" lon="0.38722">
        <ele>1937</ele>
        <time>2017-04-16T11:03:53Z</time>
      </trkpt>
      <trkpt lat="42.78338" lon="0.38728">
        <ele>1937.5</ele>
        <time>2017-04-16T11:03:54Z</time>
      </trkpt>
      <trkpt lat="42.78329" lon="0.38734">
        <ele>1937.7</ele>
        <time>2017-04-16T11:03:55Z</time>
      </trkpt>
      <trkpt lat="42.78321" lon="0.3874">
        <ele>1937.7</ele>
        <time>2017-04-16T11:03:56Z</time>
      </trkpt>
      <trkpt lat="42.78307" lon="0.38751">
        <ele>1941</ele>
        <time>2017-04-16T11:03:58Z</time>
      </trkpt>
      <trkpt lat="42.78291" lon="0.38761">
        <ele>1944.2</ele>
        <time>2017-04-16T11:04:00Z</time>
      </trkpt>
      <trkpt lat="42.78282" lon="0.38767">
        <ele>1945</ele>
        <time>2017-04-16T11:04:01Z</time>
      </trkpt>
      <trkpt lat="42.78272" lon="0.38773">
        <ele>1942</ele>
        <time>2017-04-16T11:04:02Z</time>
      </trkpt>
      <trkpt lat="42.78262" lon="0.38779">
        <ele>1944</ele>
        <time>2017-04-16T11:04:03Z</time>
      </trkpt>
      <trkpt lat="42.78253" lon="0.38784">
        <ele>1944</ele>
        <time>2017-04-16T11:04:04Z</time>
      </trkpt>
      <trkpt lat="42.78245" lon="0.38791">
        <ele>1944.5</ele>
        <time>2017-04-16T11:04:05Z</time>
      </trkpt>
      <trkpt lat="42.78237" lon="0.38798">
        <ele>1945</ele>
        <time>2017-04-16T11:04:06Z</time>
      </trkpt>
      <trkpt lat="42.78228" lon="0.38805">
        <ele>1945</ele>
        <time>2017-04-16T11:04:07Z</time>
      </trkpt>
      <trkpt lat="42.78219" lon="0.38813">
        <ele>1945</ele>
        <time>2017-04-16T11:04:08Z</time>
      </trkpt>
      <trkpt lat="42.78211" lon="0.38821">
        <ele>1943</ele>
        <time>2017-04-16T11:04:09Z</time>
      </trkpt>
      <trkpt lat="42.78203" lon="0.38829">
        <ele>1942</ele>
        <time>2017-04-16T11:04:10Z</time>
      </trkpt>
      <trkpt lat="42.78195" lon="0.38837">
        <ele>1941</ele>
        <time>2017-04-16T11:04:11Z</time>
      </trkpt>
      <trkpt lat="42.78186" lon="0.38847">
        <ele>1941</ele>
        <time>2017-04-16T11:04:12Z</time>
      </trkpt>
      <trkpt lat="42.78177" lon="0.38857">
        <ele>1941</ele>
        <time>2017-04-16T11:04:13Z</time>
      </trkpt>
      <trkpt lat="42.78168" lon="0.38868">
        <ele>1938</ele>
        <time>2017-04-16T11:04:14Z</time>
      </trkpt>
      <trkpt lat="42.7816" lon="0.38878">
        <ele>1934</ele>
        <time>2017-04-16T11:04:15Z</time>
      </trkpt>
      <trkpt lat="42.78153" lon="0.38889">
        <ele>1933.5</ele>
        <time>2017-04-16T11:04:16Z</time>
      </trkpt>
      <trkpt lat="42.78145" lon="0.38899">
        <ele>1933.5</ele>
        <time>2017-04-16T11:04:17Z</time>
      </trkpt>
      <trkpt lat="42.78138" lon="0.38909">
        <ele>1933</ele>
        <time>2017-04-16T11:04:18Z</time>
      </trkpt>
      <trkpt lat="42.78132" lon="0.38919">
        <ele>1933</ele>
        <time>2017-04-16T11:04:19Z</time>
      </trkpt>
      <trkpt lat="42.78125" lon="0.3893">
        <ele>1928</ele>
        <time>2017-04-16T11:04:20Z</time>
      </trkpt>
      <trkpt lat="42.78119" lon="0.38943">
        <ele>1925.5</ele>
        <time>2017-04-16T11:04:21Z</time>
      </trkpt>
      <trkpt lat="42.78113" lon="0.38956">
        <ele>1925.5</ele>
        <time>2017-04-16T11:04:22Z</time>
      </trkpt>
      <trkpt lat="42.78108" lon="0.38968">
        <ele>1921</ele>
        <time>2017-04-16T11:04:23Z</time>
      </trkpt>
      <trkpt lat="42.78103" lon="0.38978">
        <ele>1920</ele>
        <time>2017-04-16T11:04:24Z</time>
      </trkpt>
      <trkpt lat="42.78093" lon="0.38999">
        <ele>1916</ele>
        <time>2017-04-16T11:04:26Z</time>
      </trkpt>
      <trkpt lat="42.78088" lon="0.39011">
        <ele>1916</ele>
        <time>2017-04-16T11:04:27Z</time>
      </trkpt>
      <trkpt lat="42.78083" lon="0.39024">
        <ele>1911.5</ele>
        <time>2017-04-16T11:04:28Z</time>
      </trkpt>
      <trkpt lat="42.78077" lon="0.39037">
        <ele>1905.5</ele>
        <time>2017-04-16T11:04:29Z</time>
      </trkpt>
      <trkpt lat="42.78073" lon="0.39051">
        <ele>1904.2</ele>
        <time>2017-04-16T11:04:30Z</time>
      </trkpt>
      <trkpt lat="42.7807" lon="0.39063">
        <ele>1904.2</ele>
        <time>2017-04-16T11:04:31Z</time>
      </trkpt>
      <trkpt lat="42.78067" lon="0.39075">
        <ele>1903</ele>
        <time>2017-04-16T11:04:32Z</time>
      </trkpt>
      <trkpt lat="42.78065" lon="0.39087">
        <ele>1902</ele>
        <time>2017-04-16T11:04:33Z</time>
      </trkpt>
      <trkpt lat="42.78062" lon="0.39101">
        <ele>1901.5</ele>
        <time>2017-04-16T11:04:34Z</time>
      </trkpt>
      <trkpt lat="42.78059" lon="0.39114">
        <ele>1897.5</ele>
        <time>2017-04-16T11:04:35Z</time>
      </trkpt>
      <trkpt lat="42.78055" lon="0.39129">
        <ele>1892</ele>
        <time>2017-04-16T11:04:36Z</time>
      </trkpt>
      <trkpt lat="42.7805" lon="0.39143">
        <ele>1891</ele>
        <time>2017-04-16T11:04:37Z</time>
      </trkpt>
      <trkpt lat="42.78046" lon="0.39157">
        <ele>1891</ele>
        <time>2017-04-16T11:04:38Z</time>
      </trkpt>
      <trkpt lat="42.78041" lon="0.3917">
        <ele>1890</ele>
        <time>2017-04-16T11:04:39Z</time>
      </trkpt>
      <trkpt lat="42.78038" lon="0.39184">
        <ele>1889</ele>
        <time>2017-04-16T11:04:40Z</time>
      </trkpt>
      <trkpt lat="42.78034" lon="0.39197">
        <ele>1888.5</ele>
        <time>2017-04-16T11:04:41Z</time>
      </trkpt>
      <trkpt lat="42.7803" lon="0.3921">
        <ele>1889</ele>
        <time>2017-04-16T11:04:42Z</time>
      </trkpt>
      <trkpt lat="42.78025" lon="0.39221">
        <ele>1889.5</ele>
        <time>2017-04-16T11:04:43Z</time>
      </trkpt>
      <trkpt lat="42.78019" lon="0.39232">
        <ele>1890</ele>
        <time>2017-04-16T11:04:44Z</time>
      </trkpt>
      <trkpt lat="42.78013" lon="0.39243">
        <ele>1891.5</ele>
        <time>2017-04-16T11:04:45Z</time>
      </trkpt>
      <trkpt lat="42.78007" lon="0.39255">
        <ele>1894</ele>
        <time>2017-04-16T11:04:46Z</time>
      </trkpt>
      <trkpt lat="42.78001" lon="0.39266">
        <ele>1894.5</ele>
        <time>2017-04-16T11:04:47Z</time>
      </trkpt>
      <trkpt lat="42.77994" lon="0.39276">
        <ele>1894.5</ele>
        <time>2017-04-16T11:04:48Z</time>
      </trkpt>
      <trkpt lat="42.77987" lon="0.39285">
        <ele>1897</ele>
        <time>2017-04-16T11:04:49Z</time>
      </trkpt>
      <trkpt lat="42.77979" lon="0.39294">
        <ele>1898</ele>
        <time>2017-04-16T11:04:50Z</time>
      </trkpt>
      <trkpt lat="42.77971" lon="0.39302">
        <ele>1899</ele>
        <time>2017-04-16T11:04:51Z</time>
      </trkpt>
      <trkpt lat="42.77963" lon="0.39311">
        <ele>1900.5</ele>
        <time>2017-04-16T11:04:52Z</time>
      </trkpt>
      <trkpt lat="42.77956" lon="0.39319">
        <ele>1906</ele>
        <time>2017-04-16T11:04:53Z</time>
      </trkpt>
      <trkpt lat="42.77949" lon="0.39327">
        <ele>1908</ele>
        <time>2017-04-16T11:04:54Z</time>
      </trkpt>
      <trkpt lat="42.77942" lon="0.39334">
        <ele>1910</ele>
        <time>2017-04-16T11:04:55Z</time>
      </trkpt>
      <trkpt lat="42.77934" lon="0.39343">
        <ele>1911.5</ele>
        <time>2017-04-16T11:04:56Z</time>
      </trkpt>
      <trkpt lat="42.77925" lon="0.39351">
        <ele>1911.5</ele>
        <time>2017-04-16T11:04:57Z</time>
      </trkpt>
      <trkpt lat="42.77916" lon="0.39359">
        <ele>1912.2</ele>
        <time>2017-04-16T11:04:58Z</time>
      </trkpt>
      <trkpt lat="42.77906" lon="0.39367">
        <ele>1915.5</ele>
        <time>2017-04-16T11:04:59Z</time>
      </trkpt>
      <trkpt lat="42.77899" lon="0.39376">
        <ele>1923</ele>
        <time>2017-04-16T11:05:00Z</time>
      </trkpt>
      <trkpt lat="42.77895" lon="0.39394">
        <ele>1925.5</ele>
        <time>2017-04-16T11:05:02Z</time>
      </trkpt>
      <trkpt lat="42.77901" lon="0.39407">
        <ele>1930.5</ele>
        <time>2017-04-16T11:05:04Z</time>
      </trkpt>
      <trkpt lat="42.77912" lon="0.39408">
        <ele>1936</ele>
        <time>2017-04-16T11:05:06Z</time>
      </trkpt>
      <trkpt lat="42.77919" lon="0.39393">
        <ele>1941.5</ele>
        <time>2017-04-16T11:05:08Z</time>
      </trkpt>
      <trkpt lat="42.7792" lon="0.39369">
        <ele>1946</ele>
        <time>2017-04-16T11:05:10Z</time>
      </trkpt>
      <trkpt lat="42.77916" lon="0.39358">
        <ele>1946</ele>
        <time>2017-04-16T11:05:11Z</time>
      </trkpt>
      <trkpt lat="42.7791" lon="0.39347">
        <ele>1947</ele>
        <time>2017-04-16T11:05:12Z</time>
      </trkpt>
      <trkpt lat="42.77902" lon="0.39339">
        <ele>1952</ele>
        <time>2017-04-16T11:05:13Z</time>
      </trkpt>
      <trkpt lat="42.77891" lon="0.39333">
        <ele>1956</ele>
        <time>2017-04-16T11:05:14Z</time>
      </trkpt>
      <trkpt lat="42.77879" lon="0.3933">
        <ele>1959</ele>
        <time>2017-04-16T11:05:15Z</time>
      </trkpt>
      <trkpt lat="42.77868" lon="0.3933">
        <ele>1960.5</ele>
        <time>2017-04-16T11:05:16Z</time>
      </trkpt>
      <trkpt lat="42.77858" lon="0.39333">
        <ele>1960.5</ele>
        <time>2017-04-16T11:05:17Z</time>
      </trkpt>
      <trkpt lat="42.77849" lon="0.39337">
        <ele>1966.5</ele>
        <time>2017-04-16T11:05:18Z</time>
      </trkpt>
      <trkpt lat="42.7784" lon="0.39341">
        <ele>1968.7</ele>
        <time>2017-04-16T11:05:19Z</time>
      </trkpt>
      <trkpt lat="42.77832" lon="0.39347">
        <ele>1975</ele>
        <time>2017-04-16T11:05:20Z</time>
      </trkpt>
      <trkpt lat="42.77823" lon="0.39352">
        <ele>1977</ele>
        <time>2017-04-16T11:05:21Z</time>
      </trkpt>
      <trkpt lat="42.77816" lon="0.39358">
        <ele>1979</ele>
        <time>2017-04-16T11:05:22Z</time>
      </trkpt>
      <trkpt lat="42.77802" lon="0.39373">
        <ele>1979.7</ele>
        <time>2017-04-16T11:05:24Z</time>
      </trkpt>
      <trkpt lat="42.7779" lon="0.39389">
        <ele>1981.5</ele>
        <time>2017-04-16T11:05:26Z</time>
      </trkpt>
      <trkpt lat="42.77783" lon="0.39396">
        <ele>1983</ele>
        <time>2017-04-16T11:05:27Z</time>
      </trkpt>
      <trkpt lat="42.77776" lon="0.39403">
        <ele>1983.5</ele>
        <time>2017-04-16T11:05:28Z</time>
      </trkpt>
      <trkpt lat="42.77764" lon="0.3942">
        <ele>1985.5</ele>
        <time>2017-04-16T11:05:30Z</time>
      </trkpt>
      <trkpt lat="42.77765" lon="0.3944">
        <ele>1986.2</ele>
        <time>2017-04-16T11:05:32Z</time>
      </trkpt>
      <trkpt lat="42.77776" lon="0.39452">
        <ele>1986</ele>
        <time>2017-04-16T11:05:34Z</time>
      </trkpt>
      <trkpt lat="42.77789" lon="0.3945">
        <ele>1988.2</ele>
        <time>2017-04-16T11:05:36Z</time>
      </trkpt>
      <trkpt lat="42.77799" lon="0.39433">
        <ele>1989.7</ele>
        <time>2017-04-16T11:05:38Z</time>
      </trkpt>
      <trkpt lat="42.778" lon="0.3942">
        <ele>1992.2</ele>
        <time>2017-04-16T11:05:39Z</time>
      </trkpt>
      <trkpt lat="42.77798" lon="0.39406">
        <ele>1992.2</ele>
        <time>2017-04-16T11:05:40Z</time>
      </trkpt>
      <trkpt lat="42.77794" lon="0.39392">
        <ele>1993</ele>
        <time>2017-04-16T11:05:41Z</time>
      </trkpt>
      <trkpt lat="42.77788" lon="0.3938">
        <ele>1996.7</ele>
        <time>2017-04-16T11:05:42Z</time>
      </trkpt>
      <trkpt lat="42.77781" lon="0.39369">
        <ele>2001</ele>
        <time>2017-04-16T11:05:43Z</time>
      </trkpt>
      <trkpt lat="42.77775" lon="0.39361">
        <ele>2001</ele>
        <time>2017-04-16T11:05:44Z</time>
      </trkpt>
      <trkpt lat="42.77761" lon="0.39345">
        <ele>2005.5</ele>
        <time>2017-04-16T11:05:46Z</time>
      </trkpt>
      <trkpt lat="42.77754" lon="0.39337">
        <ele>2006.2</ele>
        <time>2017-04-16T11:05:47Z</time>
      </trkpt>
      <trkpt lat="42.77746" lon="0.39328">
        <ele>2007</ele>
        <time>2017-04-16T11:05:48Z</time>
      </trkpt>
      <trkpt lat="42.77737" lon="0.39322">
        <ele>2010</ele>
        <time>2017-04-16T11:05:49Z</time>
      </trkpt>
      <trkpt lat="42.77727" lon="0.39318">
        <ele>2010</ele>
        <time>2017-04-16T11:05:50Z</time>
      </trkpt>
      <trkpt lat="42.77717" lon="0.39318">
        <ele>2012.5</ele>
        <time>2017-04-16T11:05:51Z</time>
      </trkpt>
      <trkpt lat="42.77707" lon="0.39321">
        <ele>2012.5</ele>
        <time>2017-04-16T11:05:52Z</time>
      </trkpt>
      <trkpt lat="42.77699" lon="0.39327">
        <ele>2013</ele>
        <time>2017-04-16T11:05:53Z</time>
      </trkpt>
      <trkpt lat="42.77692" lon="0.39335">
        <ele>2015.2</ele>
        <time>2017-04-16T11:05:54Z</time>
      </trkpt>
      <trkpt lat="42.77684" lon="0.39354">
        <ele>2016.5</ele>
        <time>2017-04-16T11:05:56Z</time>
      </trkpt>
      <trkpt lat="42.77684" lon="0.39371">
        <ele>2018.5</ele>
        <time>2017-04-16T11:05:58Z</time>
      </trkpt>
      <trkpt lat="42.77691" lon="0.39383">
        <ele>2020.5</ele>
        <time>2017-04-16T11:06:00Z</time>
      </trkpt>
      <trkpt lat="42.77705" lon="0.39386">
        <ele>2021</ele>
        <time>2017-04-16T11:06:02Z</time>
      </trkpt>
      <trkpt lat="42.77718" lon="0.39372">
        <ele>2020.2</ele>
        <time>2017-04-16T11:06:04Z</time>
      </trkpt>
      <trkpt lat="42.77722" lon="0.3936">
        <ele>2019</ele>
        <time>2017-04-16T11:06:05Z</time>
      </trkpt>
      <trkpt lat="42.77724" lon="0.39347">
        <ele>2018</ele>
        <time>2017-04-16T11:06:06Z</time>
      </trkpt>
      <trkpt lat="42.77723" lon="0.39334">
        <ele>2018</ele>
        <time>2017-04-16T11:06:07Z</time>
      </trkpt>
      <trkpt lat="42.7772" lon="0.39322">
        <ele>2020.5</ele>
        <time>2017-04-16T11:06:08Z</time>
      </trkpt>
      <trkpt lat="42.77715" lon="0.39311">
        <ele>2021.7</ele>
        <time>2017-04-16T11:06:09Z</time>
      </trkpt>
      <trkpt lat="42.77709" lon="0.393">
        <ele>2024.5</ele>
        <time>2017-04-16T11:06:10Z</time>
      </trkpt>
      <trkpt lat="42.77701" lon="0.3929">
        <ele>2025.2</ele>
        <time>2017-04-16T11:06:11Z</time>
      </trkpt>
      <trkpt lat="42.77691" lon="0.3928">
        <ele>2028.2</ele>
        <time>2017-04-16T11:06:12Z</time>
      </trkpt>
      <trkpt lat="42.77682" lon="0.39271">
        <ele>2029</ele>
        <time>2017-04-16T11:06:13Z</time>
      </trkpt>
      <trkpt lat="42.77672" lon="0.39262">
        <ele>2031</ele>
        <time>2017-04-16T11:06:14Z</time>
      </trkpt>
      <trkpt lat="42.77662" lon="0.39254">
        <ele>2031</ele>
        <time>2017-04-16T11:06:15Z</time>
      </trkpt>
      <trkpt lat="42.77652" lon="0.39246">
        <ele>2032</ele>
        <time>2017-04-16T11:06:16Z</time>
      </trkpt>
      <trkpt lat="42.77641" lon="0.39239">
        <ele>2035.5</ele>
        <time>2017-04-16T11:06:17Z</time>
      </trkpt>
      <trkpt lat="42.7763" lon="0.39232">
        <ele>2038</ele>
        <time>2017-04-16T11:06:18Z</time>
      </trkpt>
      <trkpt lat="42.77619" lon="0.39225">
        <ele>2038</ele>
        <time>2017-04-16T11:06:19Z</time>
      </trkpt>
      <trkpt lat="42.77608" lon="0.39219">
        <ele>2038.5</ele>
        <time>2017-04-16T11:06:20Z</time>
      </trkpt>
      <trkpt lat="42.77598" lon="0.39212">
        <ele>2038.7</ele>
        <time>2017-04-16T11:06:21Z</time>
      </trkpt>
      <trkpt lat="42.77588" lon="0.39206">
        <ele>2040</ele>
        <time>2017-04-16T11:06:22Z</time>
      </trkpt>
      <trkpt lat="42.77578" lon="0.39199">
        <ele>2040.5</ele>
        <time>2017-04-16T11:06:23Z</time>
      </trkpt>
      <trkpt lat="42.77569" lon="0.3919">
        <ele>2042.5</ele>
        <time>2017-04-16T11:06:24Z</time>
      </trkpt>
      <trkpt lat="42.77562" lon="0.39178">
        <ele>2043.2</ele>
        <time>2017-04-16T11:06:25Z</time>
      </trkpt>
      <trkpt lat="42.77557" lon="0.39163">
        <ele>2043.5</ele>
        <time>2017-04-16T11:06:26Z</time>
      </trkpt>
      <trkpt lat="42.77558" lon="0.39148">
        <ele>2042.7</ele>
        <time>2017-04-16T11:06:27Z</time>
      </trkpt>
      <trkpt lat="42.77562" lon="0.39135">
        <ele>2045</ele>
        <time>2017-04-16T11:06:28Z</time>
      </trkpt>
      <trkpt lat="42.77568" lon="0.39126">
        <ele>2045</ele>
        <time>2017-04-16T11:06:29Z</time>
      </trkpt>
      <trkpt lat="42.7758" lon="0.3911">
        <ele>2048</ele>
        <time>2017-04-16T11:06:31Z</time>
      </trkpt>
      <trkpt lat="42.77593" lon="0.39093">
        <ele>2051</ele>
        <time>2017-04-16T11:06:33Z</time>
      </trkpt>
      <trkpt lat="42.77602" lon="0.39086">
        <ele>2053</ele>
        <time>2017-04-16T11:06:34Z</time>
      </trkpt>
      <trkpt lat="42.77612" lon="0.39081">
        <ele>2055.5</ele>
        <time>2017-04-16T11:06:35Z</time>
      </trkpt>
      <trkpt lat="42.77623" lon="0.39079">
        <ele>2056.2</ele>
        <time>2017-04-16T11:06:36Z</time>
      </trkpt>
      <trkpt lat="42.77635" lon="0.39081">
        <ele>2056.2</ele>
        <time>2017-04-16T11:06:37Z</time>
      </trkpt>
      <trkpt lat="42.77646" lon="0.39085">
        <ele>2059.5</ele>
        <time>2017-04-16T11:06:38Z</time>
      </trkpt>
      <trkpt lat="42.77656" lon="0.39088">
        <ele>2060.7</ele>
        <time>2017-04-16T11:06:39Z</time>
      </trkpt>
      <trkpt lat="42.77667" lon="0.39089">
        <ele>2060.7</ele>
        <time>2017-04-16T11:06:40Z</time>
      </trkpt>
      <trkpt lat="42.77679" lon="0.39088">
        <ele>2062.5</ele>
        <time>2017-04-16T11:06:41Z</time>
      </trkpt>
      <trkpt lat="42.77691" lon="0.39087">
        <ele>2062.7</ele>
        <time>2017-04-16T11:06:42Z</time>
      </trkpt>
      <trkpt lat="42.77704" lon="0.39089">
        <ele>2063.5</ele>
        <time>2017-04-16T11:06:43Z</time>
      </trkpt>
      <trkpt lat="42.77716" lon="0.39092">
        <ele>2063.5</ele>
        <time>2017-04-16T11:06:44Z</time>
      </trkpt>
      <trkpt lat="42.77727" lon="0.39098">
        <ele>2067.5</ele>
        <time>2017-04-16T11:06:45Z</time>
      </trkpt>
      <trkpt lat="42.77736" lon="0.39105">
        <ele>2069.2</ele>
        <time>2017-04-16T11:06:46Z</time>
      </trkpt>
      <trkpt lat="42.77746" lon="0.39112">
        <ele>2073</ele>
        <time>2017-04-16T11:06:47Z</time>
      </trkpt>
      <trkpt lat="42.77754" lon="0.39119">
        <ele>2073</ele>
        <time>2017-04-16T11:06:48Z</time>
      </trkpt>
      <trkpt lat="42.77763" lon="0.39125">
        <ele>2074</ele>
        <time>2017-04-16T11:06:49Z</time>
      </trkpt>
      <trkpt lat="42.77771" lon="0.39128">
        <ele>2077.5</ele>
        <time>2017-04-16T11:06:50Z</time>
      </trkpt>
      <trkpt lat="42.77785" lon="0.39125">
        <ele>2079</ele>
        <time>2017-04-16T11:06:52Z</time>
      </trkpt>
      <trkpt lat="42.77798" lon="0.39121">
        <ele>2075.5</ele>
        <time>2017-04-16T11:06:54Z</time>
      </trkpt>
      <trkpt lat="42.77807" lon="0.39121">
        <ele>2075.5</ele>
        <time>2017-04-16T11:06:55Z</time>
      </trkpt>
      <trkpt lat="42.77816" lon="0.39121">
        <ele>2074.2</ele>
        <time>2017-04-16T11:06:56Z</time>
      </trkpt>
      <trkpt lat="42.77832" lon="0.39122">
        <ele>2072.5</ele>
        <time>2017-04-16T11:06:58Z</time>
      </trkpt>
      <trkpt lat="42.77848" lon="0.39126">
        <ele>2073</ele>
        <time>2017-04-16T11:07:00Z</time>
      </trkpt>
      <trkpt lat="42.77864" lon="0.39134">
        <ele>2074</ele>
        <time>2017-04-16T11:07:02Z</time>
      </trkpt>
      <trkpt lat="42.77876" lon="0.39153">
        <ele>2074</ele>
        <time>2017-04-16T11:07:04Z</time>
      </trkpt>
      <trkpt lat="42.7788" lon="0.39166">
        <ele>2073.5</ele>
        <time>2017-04-16T11:07:05Z</time>
      </trkpt>
      <trkpt lat="42.77883" lon="0.39178">
        <ele>2073.2</ele>
        <time>2017-04-16T11:07:06Z</time>
      </trkpt>
      <trkpt lat="42.77885" lon="0.39191">
        <ele>2076</ele>
        <time>2017-04-16T11:07:07Z</time>
      </trkpt>
      <trkpt lat="42.77888" lon="0.39203">
        <ele>2077</ele>
        <time>2017-04-16T11:07:08Z</time>
      </trkpt>
      <trkpt lat="42.7789" lon="0.39217">
        <ele>2077</ele>
        <time>2017-04-16T11:07:09Z</time>
      </trkpt>
      <trkpt lat="42.77892" lon="0.39232">
        <ele>2078.5</ele>
        <time>2017-04-16T11:07:10Z</time>
      </trkpt>
      <trkpt lat="42.77892" lon="0.39246">
        <ele>2080</ele>
        <time>2017-04-16T11:07:11Z</time>
      </trkpt>
      <trkpt lat="42.77892" lon="0.39261">
        <ele>2080</ele>
        <time>2017-04-16T11:07:12Z</time>
      </trkpt>
      <trkpt lat="42.77892" lon="0.39276">
        <ele>2080</ele>
        <time>2017-04-16T11:07:13Z</time>
      </trkpt>
      <trkpt lat="42.77891" lon="0.39291">
        <ele>2080.5</ele>
        <time>2017-04-16T11:07:14Z</time>
      </trkpt>
      <trkpt lat="42.77891" lon="0.39305">
        <ele>2081.2</ele>
        <time>2017-04-16T11:07:15Z</time>
      </trkpt>
      <trkpt lat="42.77891" lon="0.3932">
        <ele>2081.1</ele>
        <time>2017-04-16T11:07:16Z</time>
      </trkpt>
      <trkpt lat="42.7789" lon="0.39334">
        <ele>2081.7</ele>
        <time>2017-04-16T11:07:17Z</time>
      </trkpt>
      <trkpt lat="42.77889" lon="0.39347">
        <ele>2081.7</ele>
        <time>2017-04-16T11:07:18Z</time>
      </trkpt>
      <trkpt lat="42.77886" lon="0.3936">
        <ele>2082</ele>
        <time>2017-04-16T11:07:19Z</time>
      </trkpt>
      <trkpt lat="42.77882" lon="0.39374">
        <ele>2082</ele>
        <time>2017-04-16T11:07:20Z</time>
      </trkpt>
      <trkpt lat="42.77879" lon="0.39386">
        <ele>2080.5</ele>
        <time>2017-04-16T11:07:21Z</time>
      </trkpt>
      <trkpt lat="42.77876" lon="0.39399">
        <ele>2079.7</ele>
        <time>2017-04-16T11:07:22Z</time>
      </trkpt>
      <trkpt lat="42.77875" lon="0.39411">
        <ele>2079</ele>
        <time>2017-04-16T11:07:23Z</time>
      </trkpt>
      <trkpt lat="42.77873" lon="0.39425">
        <ele>2079.5</ele>
        <time>2017-04-16T11:07:24Z</time>
      </trkpt>
      <trkpt lat="42.7787" lon="0.3944">
        <ele>2081.5</ele>
        <time>2017-04-16T11:07:25Z</time>
      </trkpt>
      <trkpt lat="42.77867" lon="0.39455">
        <ele>2082.2</ele>
        <time>2017-04-16T11:07:26Z</time>
      </trkpt>
      <trkpt lat="42.77864" lon="0.39468">
        <ele>2082.2</ele>
        <time>2017-04-16T11:07:27Z</time>
      </trkpt>
      <trkpt lat="42.77862" lon="0.3948">
        <ele>2084.5</ele>
        <time>2017-04-16T11:07:28Z</time>
      </trkpt>
      <trkpt lat="42.77861" lon="0.39492">
        <ele>2085.2</ele>
        <time>2017-04-16T11:07:29Z</time>
      </trkpt>
      <trkpt lat="42.7786" lon="0.39505">
        <ele>2086</ele>
        <time>2017-04-16T11:07:30Z</time>
      </trkpt>
      <trkpt lat="42.77858" lon="0.3952">
        <ele>2087.5</ele>
        <time>2017-04-16T11:07:31Z</time>
      </trkpt>
      <trkpt lat="42.77856" lon="0.39536">
        <ele>2088</ele>
        <time>2017-04-16T11:07:32Z</time>
      </trkpt>
      <trkpt lat="42.77854" lon="0.39553">
        <ele>2087.5</ele>
        <time>2017-04-16T11:07:33Z</time>
      </trkpt>
      <trkpt lat="42.77852" lon="0.3957">
        <ele>2087.5</ele>
        <time>2017-04-16T11:07:34Z</time>
      </trkpt>
      <trkpt lat="42.7785" lon="0.39586">
        <ele>2087.7</ele>
        <time>2017-04-16T11:07:35Z</time>
      </trkpt>
      <trkpt lat="42.77847" lon="0.39601">
        <ele>2087.3</ele>
        <time>2017-04-16T11:07:36Z</time>
      </trkpt>
      <trkpt lat="42.77845" lon="0.39615">
        <ele>2087.5</ele>
        <time>2017-04-16T11:07:37Z</time>
      </trkpt>
      <trkpt lat="42.77844" lon="0.39629">
        <ele>2087.7</ele>
        <time>2017-04-16T11:07:38Z</time>
      </trkpt>
      <trkpt lat="42.77843" lon="0.39644">
        <ele>2087.7</ele>
        <time>2017-04-16T11:07:39Z</time>
      </trkpt>
      <trkpt lat="42.77841" lon="0.3966">
        <ele>2086.5</ele>
        <time>2017-04-16T11:07:40Z</time>
      </trkpt>
      <trkpt lat="42.7784" lon="0.39674">
        <ele>2085</ele>
        <time>2017-04-16T11:07:41Z</time>
      </trkpt>
      <trkpt lat="42.77838" lon="0.39688">
        <ele>2085</ele>
        <time>2017-04-16T11:07:42Z</time>
      </trkpt>
      <trkpt lat="42.77835" lon="0.39701">
        <ele>2085.5</ele>
        <time>2017-04-16T11:07:43Z</time>
      </trkpt>
      <trkpt lat="42.77833" lon="0.39713">
        <ele>2085.7</ele>
        <time>2017-04-16T11:07:44Z</time>
      </trkpt>
      <trkpt lat="42.77831" lon="0.39727">
        <ele>2084.5</ele>
        <time>2017-04-16T11:07:45Z</time>
      </trkpt>
      <trkpt lat="42.77829" lon="0.39742">
        <ele>2083</ele>
        <time>2017-04-16T11:07:46Z</time>
      </trkpt>
      <trkpt lat="42.77828" lon="0.39757">
        <ele>2082</ele>
        <time>2017-04-16T11:07:47Z</time>
      </trkpt>
      <trkpt lat="42.77827" lon="0.39772">
        <ele>2081.5</ele>
        <time>2017-04-16T11:07:48Z</time>
      </trkpt>
      <trkpt lat="42.77827" lon="0.39786">
        <ele>2081.5</ele>
        <time>2017-04-16T11:07:49Z</time>
      </trkpt>
      <trkpt lat="42.77826" lon="0.39799">
        <ele>2081.5</ele>
        <time>2017-04-16T11:07:50Z</time>
      </trkpt>
      <trkpt lat="42.77825" lon="0.39812">
        <ele>2081.7</ele>
        <time>2017-04-16T11:07:51Z</time>
      </trkpt>
      <trkpt lat="42.7782" lon="0.39833">
        <ele>2084.2</ele>
        <time>2017-04-16T11:07:53Z</time>
      </trkpt>
      <trkpt lat="42.77817" lon="0.39854">
        <ele>2085</ele>
        <time>2017-04-16T11:07:55Z</time>
      </trkpt>
      <trkpt lat="42.77813" lon="0.39877">
        <ele>2082</ele>
        <time>2017-04-16T11:07:57Z</time>
      </trkpt>
      <trkpt lat="42.77811" lon="0.3989">
        <ele>2079</ele>
        <time>2017-04-16T11:07:58Z</time>
      </trkpt>
      <trkpt lat="42.77809" lon="0.39902">
        <ele>2079</ele>
        <time>2017-04-16T11:07:59Z</time>
      </trkpt>
      <trkpt lat="42.77807" lon="0.39915">
        <ele>2077</ele>
        <time>2017-04-16T11:08:00Z</time>
      </trkpt>
      <trkpt lat="42.77806" lon="0.39928">
        <ele>2077</ele>
        <time>2017-04-16T11:08:01Z</time>
      </trkpt>
      <trkpt lat="42.77805" lon="0.39941">
        <ele>2074.7</ele>
        <time>2017-04-16T11:08:02Z</time>
      </trkpt>
      <trkpt lat="42.77804" lon="0.39955">
        <ele>2074.7</ele>
        <time>2017-04-16T11:08:03Z</time>
      </trkpt>
      <trkpt lat="42.77803" lon="0.39968">
        <ele>2072</ele>
        <time>2017-04-16T11:08:04Z</time>
      </trkpt>
      <trkpt lat="42.77802" lon="0.39982">
        <ele>2071</ele>
        <time>2017-04-16T11:08:05Z</time>
      </trkpt>
      <trkpt lat="42.778" lon="0.39993">
        <ele>2068.5</ele>
        <time>2017-04-16T11:08:06Z</time>
      </trkpt>
      <trkpt lat="42.77797" lon="0.40017">
        <ele>2067</ele>
        <time>2017-04-16T11:08:08Z</time>
      </trkpt>
      <trkpt lat="42.77796" lon="0.40031">
        <ele>2059.5</ele>
        <time>2017-04-16T11:08:09Z</time>
      </trkpt>
      <trkpt lat="42.77794" lon="0.40048">
        <ele>2059.5</ele>
        <time>2017-04-16T11:08:10Z</time>
      </trkpt>
      <trkpt lat="42.77792" lon="0.40065">
        <ele>2051</ele>
        <time>2017-04-16T11:08:11Z</time>
      </trkpt>
      <trkpt lat="42.77791" lon="0.4008">
        <ele>2048</ele>
        <time>2017-04-16T11:08:12Z</time>
      </trkpt>
      <trkpt lat="42.7779" lon="0.40094">
        <ele>2045</ele>
        <time>2017-04-16T11:08:13Z</time>
      </trkpt>
      <trkpt lat="42.7779" lon="0.40107">
        <ele>2041.5</ele>
        <time>2017-04-16T11:08:14Z</time>
      </trkpt>
      <trkpt lat="42.77789" lon="0.40119">
        <ele>2039.7</ele>
        <time>2017-04-16T11:08:15Z</time>
      </trkpt>
      <trkpt lat="42.77789" lon="0.40133">
        <ele>2036</ele>
        <time>2017-04-16T11:08:16Z</time>
      </trkpt>
      <trkpt lat="42.77789" lon="0.40148">
        <ele>2028</ele>
        <time>2017-04-16T11:08:17Z</time>
      </trkpt>
      <trkpt lat="42.7779" lon="0.40163">
        <ele>2028</ele>
        <time>2017-04-16T11:08:18Z</time>
      </trkpt>
      <trkpt lat="42.77792" lon="0.40178">
        <ele>2024</ele>
        <time>2017-04-16T11:08:19Z</time>
      </trkpt>
      <trkpt lat="42.77792" lon="0.40193">
        <ele>2020</ele>
        <time>2017-04-16T11:08:20Z</time>
      </trkpt>
      <trkpt lat="42.77792" lon="0.40206">
        <ele>2019</ele>
        <time>2017-04-16T11:08:21Z</time>
      </trkpt>
      <trkpt lat="42.77792" lon="0.40219">
        <ele>2018.5</ele>
        <time>2017-04-16T11:08:22Z</time>
      </trkpt>
      <trkpt lat="42.77792" lon="0.40231">
        <ele>2017</ele>
        <time>2017-04-16T11:08:23Z</time>
      </trkpt>
      <trkpt lat="42.77792" lon="0.40244">
        <ele>2016.5</ele>
        <time>2017-04-16T11:08:24Z</time>
      </trkpt>
      <trkpt lat="42.77793" lon="0.40257">
        <ele>2012.2</ele>
        <time>2017-04-16T11:08:25Z</time>
      </trkpt>
      <trkpt lat="42.77794" lon="0.40272">
        <ele>2012.2</ele>
        <time>2017-04-16T11:08:26Z</time>
      </trkpt>
      <trkpt lat="42.77794" lon="0.40286">
        <ele>2011</ele>
        <time>2017-04-16T11:08:27Z</time>
      </trkpt>
      <trkpt lat="42.77794" lon="0.40301">
        <ele>2007</ele>
        <time>2017-04-16T11:08:28Z</time>
      </trkpt>
      <trkpt lat="42.77795" lon="0.40315">
        <ele>2005</ele>
        <time>2017-04-16T11:08:29Z</time>
      </trkpt>
      <trkpt lat="42.77795" lon="0.40328">
        <ele>2001</ele>
        <time>2017-04-16T11:08:30Z</time>
      </trkpt>
      <trkpt lat="42.77795" lon="0.40341">
        <ele>2000</ele>
        <time>2017-04-16T11:08:31Z</time>
      </trkpt>
      <trkpt lat="42.77795" lon="0.40354">
        <ele>1996.5</ele>
        <time>2017-04-16T11:08:32Z</time>
      </trkpt>
      <trkpt lat="42.77795" lon="0.40368">
        <ele>1994</ele>
        <time>2017-04-16T11:08:33Z</time>
      </trkpt>
      <trkpt lat="42.77795" lon="0.40381">
        <ele>1992.5</ele>
        <time>2017-04-16T11:08:34Z</time>
      </trkpt>
      <trkpt lat="42.77795" lon="0.40395">
        <ele>1992.5</ele>
        <time>2017-04-16T11:08:35Z</time>
      </trkpt>
      <trkpt lat="42.77795" lon="0.40408">
        <ele>1991.7</ele>
        <time>2017-04-16T11:08:36Z</time>
      </trkpt>
      <trkpt lat="42.77795" lon="0.40422">
        <ele>1989</ele>
        <time>2017-04-16T11:08:37Z</time>
      </trkpt>
      <trkpt lat="42.77794" lon="0.40436">
        <ele>1988</ele>
        <time>2017-04-16T11:08:38Z</time>
      </trkpt>
      <trkpt lat="42.77793" lon="0.4045">
        <ele>1987</ele>
        <time>2017-04-16T11:08:39Z</time>
      </trkpt>
      <trkpt lat="42.77792" lon="0.40464">
        <ele>1984.5</ele>
        <time>2017-04-16T11:08:40Z</time>
      </trkpt>
      <trkpt lat="42.77791" lon="0.40478">
        <ele>1981</ele>
        <time>2017-04-16T11:08:41Z</time>
      </trkpt>
      <trkpt lat="42.7779" lon="0.40491">
        <ele>1980.5</ele>
        <time>2017-04-16T11:08:42Z</time>
      </trkpt>
      <trkpt lat="42.77789" lon="0.40506">
        <ele>1980.5</ele>
        <time>2017-04-16T11:08:43Z</time>
      </trkpt>
      <trkpt lat="42.77787" lon="0.4052">
        <ele>1975.5</ele>
        <time>2017-04-16T11:08:44Z</time>
      </trkpt>
      <trkpt lat="42.77785" lon="0.40533">
        <ele>1975.5</ele>
        <time>2017-04-16T11:08:45Z</time>
      </trkpt>
      <trkpt lat="42.77784" lon="0.40546">
        <ele>1974</ele>
        <time>2017-04-16T11:08:46Z</time>
      </trkpt>
      <trkpt lat="42.77782" lon="0.40559">
        <ele>1973.5</ele>
        <time>2017-04-16T11:08:47Z</time>
      </trkpt>
      <trkpt lat="42.7778" lon="0.40572">
        <ele>1973.2</ele>
        <time>2017-04-16T11:08:48Z</time>
      </trkpt>
      <trkpt lat="42.77779" lon="0.40585">
        <ele>1971.5</ele>
        <time>2017-04-16T11:08:49Z</time>
      </trkpt>
      <trkpt lat="42.77777" lon="0.40598">
        <ele>1970</ele>
        <time>2017-04-16T11:08:50Z</time>
      </trkpt>
      <trkpt lat="42.77775" lon="0.40612">
        <ele>1967.5</ele>
        <time>2017-04-16T11:08:51Z</time>
      </trkpt>
      <trkpt lat="42.77774" lon="0.40625">
        <ele>1967.5</ele>
        <time>2017-04-16T11:08:52Z</time>
      </trkpt>
      <trkpt lat="42.77772" lon="0.40638">
        <ele>1966.2</ele>
        <time>2017-04-16T11:08:53Z</time>
      </trkpt>
      <trkpt lat="42.77771" lon="0.40651">
        <ele>1963.5</ele>
        <time>2017-04-16T11:08:54Z</time>
      </trkpt>
      <trkpt lat="42.7777" lon="0.40664">
        <ele>1962.7</ele>
        <time>2017-04-16T11:08:55Z</time>
      </trkpt>
      <trkpt lat="42.77769" lon="0.40677">
        <ele>1961</ele>
        <time>2017-04-16T11:08:56Z</time>
      </trkpt>
      <trkpt lat="42.77768" lon="0.4069">
        <ele>1960.5</ele>
        <time>2017-04-16T11:08:57Z</time>
      </trkpt>
      <trkpt lat="42.77767" lon="0.40703">
        <ele>1960</ele>
        <time>2017-04-16T11:08:58Z</time>
      </trkpt>
      <trkpt lat="42.77766" lon="0.40715">
        <ele>1958</ele>
        <time>2017-04-16T11:08:59Z</time>
      </trkpt>
      <trkpt lat="42.77766" lon="0.40728">
        <ele>1957</ele>
        <time>2017-04-16T11:09:00Z</time>
      </trkpt>
      <trkpt lat="42.77765" lon="0.40741">
        <ele>1953.7</ele>
        <time>2017-04-16T11:09:01Z</time>
      </trkpt>
      <trkpt lat="42.77764" lon="0.40753">
        <ele>1953</ele>
        <time>2017-04-16T11:09:02Z</time>
      </trkpt>
      <trkpt lat="42.77763" lon="0.40766">
        <ele>1953</ele>
        <time>2017-04-16T11:09:03Z</time>
      </trkpt>
      <trkpt lat="42.77762" lon="0.40778">
        <ele>1952.5</ele>
        <time>2017-04-16T11:09:04Z</time>
      </trkpt>
      <trkpt lat="42.77761" lon="0.4079">
        <ele>1952.2</ele>
        <time>2017-04-16T11:09:05Z</time>
      </trkpt>
      <trkpt lat="42.7776" lon="0.40803">
        <ele>1950</ele>
        <time>2017-04-16T11:09:06Z</time>
      </trkpt>
      <trkpt lat="42.7776" lon="0.40816">
        <ele>1949</ele>
        <time>2017-04-16T11:09:07Z</time>
      </trkpt>
      <trkpt lat="42.77759" lon="0.40829">
        <ele>1945</ele>
        <time>2017-04-16T11:09:08Z</time>
      </trkpt>
      <trkpt lat="42.77759" lon="0.40841">
        <ele>1943.5</ele>
        <time>2017-04-16T11:09:09Z</time>
      </trkpt>
      <trkpt lat="42.77759" lon="0.40854">
        <ele>1939</ele>
        <time>2017-04-16T11:09:10Z</time>
      </trkpt>
      <trkpt lat="42.77758" lon="0.40867">
        <ele>1937</ele>
        <time>2017-04-16T11:09:11Z</time>
      </trkpt>
      <trkpt lat="42.77756" lon="0.40891">
        <ele>1937</ele>
        <time>2017-04-16T11:09:13Z</time>
      </trkpt>
      <trkpt lat="42.77755" lon="0.40903">
        <ele>1937.5</ele>
        <time>2017-04-16T11:09:14Z</time>
      </trkpt>
      <trkpt lat="42.77755" lon="0.40916">
        <ele>1936</ele>
        <time>2017-04-16T11:09:15Z</time>
      </trkpt>
      <trkpt lat="42.77755" lon="0.40929">
        <ele>1934</ele>
        <time>2017-04-16T11:09:16Z</time>
      </trkpt>
      <trkpt lat="42.77755" lon="0.40941">
        <ele>1934</ele>
        <time>2017-04-16T11:09:17Z</time>
      </trkpt>
      <trkpt lat="42.77755" lon="0.40954">
        <ele>1932.5</ele>
        <time>2017-04-16T11:09:18Z</time>
      </trkpt>
      <trkpt lat="42.77755" lon="0.40966">
        <ele>1931.7</ele>
        <time>2017-04-16T11:09:19Z</time>
      </trkpt>
      <trkpt lat="42.77755" lon="0.40979">
        <ele>1929.5</ele>
        <time>2017-04-16T11:09:20Z</time>
      </trkpt>
      <trkpt lat="42.77755" lon="0.40992">
        <ele>1929.5</ele>
        <time>2017-04-16T11:09:21Z</time>
      </trkpt>
      <trkpt lat="42.77756" lon="0.41005">
        <ele>1926.5</ele>
        <time>2017-04-16T11:09:22Z</time>
      </trkpt>
      <trkpt lat="42.77757" lon="0.41018">
        <ele>1925.2</ele>
        <time>2017-04-16T11:09:23Z</time>
      </trkpt>
      <trkpt lat="42.77758" lon="0.41031">
        <ele>1922.5</ele>
        <time>2017-04-16T11:09:24Z</time>
      </trkpt>
      <trkpt lat="42.77759" lon="0.41043">
        <ele>1921.7</ele>
        <time>2017-04-16T11:09:25Z</time>
      </trkpt>
      <trkpt lat="42.7776" lon="0.41056">
        <ele>1921.7</ele>
        <time>2017-04-16T11:09:26Z</time>
      </trkpt>
      <trkpt lat="42.7776" lon="0.41069">
        <ele>1919</ele>
        <time>2017-04-16T11:09:27Z</time>
      </trkpt>
      <trkpt lat="42.77761" lon="0.41082">
        <ele>1918</ele>
        <time>2017-04-16T11:09:28Z</time>
      </trkpt>
      <trkpt lat="42.77762" lon="0.41095">
        <ele>1915</ele>
        <time>2017-04-16T11:09:29Z</time>
      </trkpt>
      <trkpt lat="42.77763" lon="0.41109">
        <ele>1915</ele>
        <time>2017-04-16T11:09:30Z</time>
      </trkpt>
      <trkpt lat="42.77764" lon="0.41122">
        <ele>1914</ele>
        <time>2017-04-16T11:09:31Z</time>
      </trkpt>
      <trkpt lat="42.77765" lon="0.41136">
        <ele>1913</ele>
        <time>2017-04-16T11:09:32Z</time>
      </trkpt>
      <trkpt lat="42.77766" lon="0.41149">
        <ele>1910</ele>
        <time>2017-04-16T11:09:33Z</time>
      </trkpt>
      <trkpt lat="42.77766" lon="0.41162">
        <ele>1910</ele>
        <time>2017-04-16T11:09:34Z</time>
      </trkpt>
      <trkpt lat="42.77768" lon="0.41175">
        <ele>1908.5</ele>
        <time>2017-04-16T11:09:35Z</time>
      </trkpt>
      <trkpt lat="42.77769" lon="0.41188">
        <ele>1907.2</ele>
        <time>2017-04-16T11:09:36Z</time>
      </trkpt>
      <trkpt lat="42.77771" lon="0.41202">
        <ele>1901.7</ele>
        <time>2017-04-16T11:09:37Z</time>
      </trkpt>
      <trkpt lat="42.77773" lon="0.41216">
        <ele>1901.7</ele>
        <time>2017-04-16T11:09:38Z</time>
      </trkpt>
      <trkpt lat="42.77775" lon="0.4123">
        <ele>1900.7</ele>
        <time>2017-04-16T11:09:39Z</time>
      </trkpt>
      <trkpt lat="42.77776" lon="0.41243">
        <ele>1899</ele>
        <time>2017-04-16T11:09:40Z</time>
      </trkpt>
      <trkpt lat="42.77778" lon="0.41256">
        <ele>1898</ele>
        <time>2017-04-16T11:09:41Z</time>
      </trkpt>
      <trkpt lat="42.7778" lon="0.41269">
        <ele>1898</ele>
        <time>2017-04-16T11:09:42Z</time>
      </trkpt>
      <trkpt lat="42.77781" lon="0.41282">
        <ele>1897</ele>
        <time>2017-04-16T11:09:43Z</time>
      </trkpt>
      <trkpt lat="42.77782" lon="0.41296">
        <ele>1894.5</ele>
        <time>2017-04-16T11:09:44Z</time>
      </trkpt>
      <trkpt lat="42.77783" lon="0.4131">
        <ele>1890</ele>
        <time>2017-04-16T11:09:45Z</time>
      </trkpt>
      <trkpt lat="42.77785" lon="0.41323">
        <ele>1890</ele>
        <time>2017-04-16T11:09:46Z</time>
      </trkpt>
      <trkpt lat="42.77787" lon="0.41335">
        <ele>1889</ele>
        <time>2017-04-16T11:09:47Z</time>
      </trkpt>
      <trkpt lat="42.77789" lon="0.41348">
        <ele>1888</ele>
        <time>2017-04-16T11:09:48Z</time>
      </trkpt>
      <trkpt lat="42.77791" lon="0.41361">
        <ele>1886.5</ele>
        <time>2017-04-16T11:09:49Z</time>
      </trkpt>
      <trkpt lat="42.77792" lon="0.41374">
        <ele>1885.7</ele>
        <time>2017-04-16T11:09:50Z</time>
      </trkpt>
      <trkpt lat="42.77793" lon="0.41388">
        <ele>1882</ele>
        <time>2017-04-16T11:09:51Z</time>
      </trkpt>
      <trkpt lat="42.77795" lon="0.41402">
        <ele>1878</ele>
        <time>2017-04-16T11:09:52Z</time>
      </trkpt>
      <trkpt lat="42.77797" lon="0.41416">
        <ele>1877.5</ele>
        <time>2017-04-16T11:09:53Z</time>
      </trkpt>
      <trkpt lat="42.77799" lon="0.41429">
        <ele>1877</ele>
        <time>2017-04-16T11:09:54Z</time>
      </trkpt>
      <trkpt lat="42.778" lon="0.41443">
        <ele>1877</ele>
        <time>2017-04-16T11:09:55Z</time>
      </trkpt>
      <trkpt lat="42.77802" lon="0.41456">
        <ele>1874</ele>
        <time>2017-04-16T11:09:56Z</time>
      </trkpt>
      <trkpt lat="42.77802" lon="0.41469">
        <ele>1872.5</ele>
        <time>2017-04-16T11:09:57Z</time>
      </trkpt>
      <trkpt lat="42.77804" lon="0.41483">
        <ele>1870</ele>
        <time>2017-04-16T11:09:58Z</time>
      </trkpt>
      <trkpt lat="42.77805" lon="0.41496">
        <ele>1869.5</ele>
        <time>2017-04-16T11:09:59Z</time>
      </trkpt>
      <trkpt lat="42.77807" lon="0.4151">
        <ele>1865.2</ele>
        <time>2017-04-16T11:10:00Z</time>
      </trkpt>
      <trkpt lat="42.77808" lon="0.41523">
        <ele>1865.2</ele>
        <time>2017-04-16T11:10:01Z</time>
      </trkpt>
      <trkpt lat="42.77808" lon="0.41536">
        <ele>1864</ele>
        <time>2017-04-16T11:10:02Z</time>
      </trkpt>
      <trkpt lat="42.77809" lon="0.41549">
        <ele>1863</ele>
        <time>2017-04-16T11:10:03Z</time>
      </trkpt>
      <trkpt lat="42.77809" lon="0.41563">
        <ele>1862.5</ele>
        <time>2017-04-16T11:10:04Z</time>
      </trkpt>
      <trkpt lat="42.7781" lon="0.41576">
        <ele>1860.5</ele>
        <time>2017-04-16T11:10:05Z</time>
      </trkpt>
      <trkpt lat="42.77811" lon="0.4159">
        <ele>1860</ele>
        <time>2017-04-16T11:10:06Z</time>
      </trkpt>
      <trkpt lat="42.77811" lon="0.41603">
        <ele>1857</ele>
        <time>2017-04-16T11:10:07Z</time>
      </trkpt>
      <trkpt lat="42.77811" lon="0.41617">
        <ele>1857</ele>
        <time>2017-04-16T11:10:08Z</time>
      </trkpt>
      <trkpt lat="42.77811" lon="0.4163">
        <ele>1852</ele>
        <time>2017-04-16T11:10:09Z</time>
      </trkpt>
      <trkpt lat="42.77812" lon="0.41644">
        <ele>1851</ele>
        <time>2017-04-16T11:10:10Z</time>
      </trkpt>
      <trkpt lat="42.77812" lon="0.41658">
        <ele>1848.5</ele>
        <time>2017-04-16T11:10:11Z</time>
      </trkpt>
      <trkpt lat="42.77813" lon="0.41671">
        <ele>1847.7</ele>
        <time>2017-04-16T11:10:12Z</time>
      </trkpt>
      <trkpt lat="42.77813" lon="0.41685">
        <ele>1847</ele>
        <time>2017-04-16T11:10:13Z</time>
      </trkpt>
      <trkpt lat="42.77813" lon="0.41699">
        <ele>1845</ele>
        <time>2017-04-16T11:10:14Z</time>
      </trkpt>
      <trkpt lat="42.77813" lon="0.41712">
        <ele>1844</ele>
        <time>2017-04-16T11:10:15Z</time>
      </trkpt>
      <trkpt lat="42.77813" lon="0.41726">
        <ele>1844</ele>
        <time>2017-04-16T11:10:16Z</time>
      </trkpt>
      <trkpt lat="42.77814" lon="0.41739">
        <ele>1842</ele>
        <time>2017-04-16T11:10:17Z</time>
      </trkpt>
      <trkpt lat="42.77815" lon="0.41752">
        <ele>1841.5</ele>
        <time>2017-04-16T11:10:18Z</time>
      </trkpt>
      <trkpt lat="42.77816" lon="0.41766">
        <ele>1837.5</ele>
        <time>2017-04-16T11:10:19Z</time>
      </trkpt>
      <trkpt lat="42.77817" lon="0.4178">
        <ele>1835.7</ele>
        <time>2017-04-16T11:10:20Z</time>
      </trkpt>
      <trkpt lat="42.77819" lon="0.41793">
        <ele>1834</ele>
        <time>2017-04-16T11:10:21Z</time>
      </trkpt>
      <trkpt lat="42.77821" lon="0.41806">
        <ele>1835</ele>
        <time>2017-04-16T11:10:22Z</time>
      </trkpt>
      <trkpt lat="42.77824" lon="0.41818">
        <ele>1835.5</ele>
        <time>2017-04-16T11:10:23Z</time>
      </trkpt>
      <trkpt lat="42.77827" lon="0.4183">
        <ele>1834</ele>
        <time>2017-04-16T11:10:24Z</time>
      </trkpt>
      <trkpt lat="42.77831" lon="0.41843">
        <ele>1833</ele>
        <time>2017-04-16T11:10:25Z</time>
      </trkpt>
      <trkpt lat="42.77833" lon="0.41856">
        <ele>1832</ele>
        <time>2017-04-16T11:10:26Z</time>
      </trkpt>
      <trkpt lat="42.77836" lon="0.4187">
        <ele>1830.5</ele>
        <time>2017-04-16T11:10:27Z</time>
      </trkpt>
      <trkpt lat="42.77838" lon="0.41883">
        <ele>1829.7</ele>
        <time>2017-04-16T11:10:28Z</time>
      </trkpt>
      <trkpt lat="42.7784" lon="0.41896">
        <ele>1828</ele>
        <time>2017-04-16T11:10:29Z</time>
      </trkpt>
      <trkpt lat="42.77841" lon="0.4191">
        <ele>1827.5</ele>
        <time>2017-04-16T11:10:30Z</time>
      </trkpt>
      <trkpt lat="42.77843" lon="0.41923">
        <ele>1824</ele>
        <time>2017-04-16T11:10:31Z</time>
      </trkpt>
      <trkpt lat="42.77844" lon="0.41937">
        <ele>1824</ele>
        <time>2017-04-16T11:10:32Z</time>
      </trkpt>
      <trkpt lat="42.77845" lon="0.4195">
        <ele>1823</ele>
        <time>2017-04-16T11:10:33Z</time>
      </trkpt>
      <trkpt lat="42.77846" lon="0.41963">
        <ele>1822</ele>
        <time>2017-04-16T11:10:34Z</time>
      </trkpt>
      <trkpt lat="42.77847" lon="0.41976">
        <ele>1821.5</ele>
        <time>2017-04-16T11:10:35Z</time>
      </trkpt>
      <trkpt lat="42.77847" lon="0.41989">
        <ele>1816.7</ele>
        <time>2017-04-16T11:10:36Z</time>
      </trkpt>
      <trkpt lat="42.77848" lon="0.42003">
        <ele>1813</ele>
        <time>2017-04-16T11:10:37Z</time>
      </trkpt>
      <trkpt lat="42.77848" lon="0.42016">
        <ele>1813.5</ele>
        <time>2017-04-16T11:10:38Z</time>
      </trkpt>
      <trkpt lat="42.77848" lon="0.4203">
        <ele>1813.5</ele>
        <time>2017-04-16T11:10:39Z</time>
      </trkpt>
      <trkpt lat="42.77848" lon="0.42044">
        <ele>1813.7</ele>
        <time>2017-04-16T11:10:40Z</time>
      </trkpt>
      <trkpt lat="42.77849" lon="0.42058">
        <ele>1811.5</ele>
        <time>2017-04-16T11:10:41Z</time>
      </trkpt>
      <trkpt lat="42.77849" lon="0.42071">
        <ele>1810.2</ele>
        <time>2017-04-16T11:10:42Z</time>
      </trkpt>
      <trkpt lat="42.7785" lon="0.42085">
        <ele>1808</ele>
        <time>2017-04-16T11:10:43Z</time>
      </trkpt>
      <trkpt lat="42.77852" lon="0.42098">
        <ele>1807.5</ele>
        <time>2017-04-16T11:10:44Z</time>
      </trkpt>
      <trkpt lat="42.77854" lon="0.42111">
        <ele>1806</ele>
        <time>2017-04-16T11:10:45Z</time>
      </trkpt>
      <trkpt lat="42.77856" lon="0.42124">
        <ele>1805.5</ele>
        <time>2017-04-16T11:10:46Z</time>
      </trkpt>
      <trkpt lat="42.77858" lon="0.42137">
        <ele>1802</ele>
        <time>2017-04-16T11:10:47Z</time>
      </trkpt>
      <trkpt lat="42.7786" lon="0.42149">
        <ele>1800.5</ele>
        <time>2017-04-16T11:10:48Z</time>
      </trkpt>
      <trkpt lat="42.77861" lon="0.42161">
        <ele>1798.5</ele>
        <time>2017-04-16T11:10:49Z</time>
      </trkpt>
      <trkpt lat="42.77862" lon="0.42174">
        <ele>1798.5</ele>
        <time>2017-04-16T11:10:50Z</time>
      </trkpt>
      <trkpt lat="42.77863" lon="0.42186">
        <ele>1798.2</ele>
        <time>2017-04-16T11:10:51Z</time>
      </trkpt>
      <trkpt lat="42.77863" lon="0.42199">
        <ele>1798</ele>
        <time>2017-04-16T11:10:52Z</time>
      </trkpt>
      <trkpt lat="42.77863" lon="0.42212">
        <ele>1794.2</ele>
        <time>2017-04-16T11:10:53Z</time>
      </trkpt>
      <trkpt lat="42.77863" lon="0.42224">
        <ele>1794.2</ele>
        <time>2017-04-16T11:10:54Z</time>
      </trkpt>
      <trkpt lat="42.77862" lon="0.42237">
        <ele>1792</ele>
        <time>2017-04-16T11:10:55Z</time>
      </trkpt>
      <trkpt lat="42.77862" lon="0.42249">
        <ele>1791.5</ele>
        <time>2017-04-16T11:10:56Z</time>
      </trkpt>
      <trkpt lat="42.77862" lon="0.42261">
        <ele>1789</ele>
        <time>2017-04-16T11:10:57Z</time>
      </trkpt>
      <trkpt lat="42.77862" lon="0.42274">
        <ele>1788</ele>
        <time>2017-04-16T11:10:58Z</time>
      </trkpt>
      <trkpt lat="42.77861" lon="0.42296">
        <ele>1785.5</ele>
        <time>2017-04-16T11:11:00Z</time>
      </trkpt>
      <trkpt lat="42.7786" lon="0.42319">
        <ele>1781.5</ele>
        <time>2017-04-16T11:11:02Z</time>
      </trkpt>
      <trkpt lat="42.7786" lon="0.42343">
        <ele>1777.5</ele>
        <time>2017-04-16T11:11:04Z</time>
      </trkpt>
      <trkpt lat="42.77859" lon="0.42367">
        <ele>1776</ele>
        <time>2017-04-16T11:11:06Z</time>
      </trkpt>
      <trkpt lat="42.77858" lon="0.42391">
        <ele>1774.5</ele>
        <time>2017-04-16T11:11:08Z</time>
      </trkpt>
      <trkpt lat="42.77857" lon="0.42403">
        <ele>1771.5</ele>
        <time>2017-04-16T11:11:09Z</time>
      </trkpt>
      <trkpt lat="42.77856" lon="0.42415">
        <ele>1769</ele>
        <time>2017-04-16T11:11:10Z</time>
      </trkpt>
      <trkpt lat="42.77854" lon="0.42438">
        <ele>1766</ele>
        <time>2017-04-16T11:11:12Z</time>
      </trkpt>
      <trkpt lat="42.77855" lon="0.4246">
        <ele>1762</ele>
        <time>2017-04-16T11:11:14Z</time>
      </trkpt>
      <trkpt lat="42.77856" lon="0.42483">
        <ele>1759</ele>
        <time>2017-04-16T11:11:16Z</time>
      </trkpt>
      <trkpt lat="42.77855" lon="0.42505">
        <ele>1757</ele>
        <time>2017-04-16T11:11:18Z</time>
      </trkpt>
      <trkpt lat="42.77852" lon="0.42516">
        <ele>1754</ele>
        <time>2017-04-16T11:11:19Z</time>
      </trkpt>
      <trkpt lat="42.77848" lon="0.42529">
        <ele>1754</ele>
        <time>2017-04-16T11:11:20Z</time>
      </trkpt>
      <trkpt lat="42.77843" lon="0.42541">
        <ele>1749.2</ele>
        <time>2017-04-16T11:11:21Z</time>
      </trkpt>
      <trkpt lat="42.77837" lon="0.42552">
        <ele>1749.2</ele>
        <time>2017-04-16T11:11:22Z</time>
      </trkpt>
      <trkpt lat="42.77831" lon="0.42562">
        <ele>1746</ele>
        <time>2017-04-16T11:11:23Z</time>
      </trkpt>
      <trkpt lat="42.77825" lon="0.42571">
        <ele>1745</ele>
        <time>2017-04-16T11:11:24Z</time>
      </trkpt>
      <trkpt lat="42.77817" lon="0.4258">
        <ele>1744</ele>
        <time>2017-04-16T11:11:25Z</time>
      </trkpt>
      <trkpt lat="42.7781" lon="0.42588">
        <ele>1742.5</ele>
        <time>2017-04-16T11:11:26Z</time>
      </trkpt>
      <trkpt lat="42.77803" lon="0.42597">
        <ele>1741.7</ele>
        <time>2017-04-16T11:11:27Z</time>
      </trkpt>
      <trkpt lat="42.77796" lon="0.42606">
        <ele>1739.5</ele>
        <time>2017-04-16T11:11:28Z</time>
      </trkpt>
      <trkpt lat="42.7779" lon="0.42615">
        <ele>1738.7</ele>
        <time>2017-04-16T11:11:29Z</time>
      </trkpt>
      <trkpt lat="42.77782" lon="0.42624">
        <ele>1736.5</ele>
        <time>2017-04-16T11:11:30Z</time>
      </trkpt>
      <trkpt lat="42.77775" lon="0.42633">
        <ele>1735.7</ele>
        <time>2017-04-16T11:11:31Z</time>
      </trkpt>
      <trkpt lat="42.77768" lon="0.42643">
        <ele>1734.5</ele>
        <time>2017-04-16T11:11:32Z</time>
      </trkpt>
      <trkpt lat="42.77761" lon="0.42665">
        <ele>1734.2</ele>
        <time>2017-04-16T11:11:34Z</time>
      </trkpt>
      <trkpt lat="42.7776" lon="0.42677">
        <ele>1731</ele>
        <time>2017-04-16T11:11:35Z</time>
      </trkpt>
      <trkpt lat="42.7776" lon="0.427">
        <ele>1728</ele>
        <time>2017-04-16T11:11:37Z</time>
      </trkpt>
      <trkpt lat="42.77766" lon="0.4272">
        <ele>1727.2</ele>
        <time>2017-04-16T11:11:39Z</time>
      </trkpt>
      <trkpt lat="42.77771" lon="0.4273">
        <ele>1722.5</ele>
        <time>2017-04-16T11:11:40Z</time>
      </trkpt>
      <trkpt lat="42.77776" lon="0.42739">
        <ele>1718.5</ele>
        <time>2017-04-16T11:11:41Z</time>
      </trkpt>
      <trkpt lat="42.7779" lon="0.42749">
        <ele>1717.2</ele>
        <time>2017-04-16T11:11:43Z</time>
      </trkpt>
      <trkpt lat="42.77805" lon="0.42751">
        <ele>1714</ele>
        <time>2017-04-16T11:11:45Z</time>
      </trkpt>
      <trkpt lat="42.77822" lon="0.42754">
        <ele>1710.5</ele>
        <time>2017-04-16T11:11:47Z</time>
      </trkpt>
      <trkpt lat="42.77831" lon="0.42756">
        <ele>1710.5</ele>
        <time>2017-04-16T11:11:48Z</time>
      </trkpt>
      <trkpt lat="42.7784" lon="0.42758">
        <ele>1710</ele>
        <time>2017-04-16T11:11:49Z</time>
      </trkpt>
      <trkpt lat="42.7785" lon="0.42759">
        <ele>1708</ele>
        <time>2017-04-16T11:11:50Z</time>
      </trkpt>
      <trkpt lat="42.77859" lon="0.4276">
        <ele>1707</ele>
        <time>2017-04-16T11:11:51Z</time>
      </trkpt>
      <trkpt lat="42.77874" lon="0.42767">
        <ele>1705.2</ele>
        <time>2017-04-16T11:11:53Z</time>
      </trkpt>
      <trkpt lat="42.77888" lon="0.42782">
        <ele>1705</ele>
        <time>2017-04-16T11:11:55Z</time>
      </trkpt>
      <trkpt lat="42.77895" lon="0.4279">
        <ele>1705</ele>
        <time>2017-04-16T11:11:56Z</time>
      </trkpt>
      <trkpt lat="42.77909" lon="0.42798">
        <ele>1706.5</ele>
        <time>2017-04-16T11:11:58Z</time>
      </trkpt>
      <trkpt lat="42.77923" lon="0.42803">
        <ele>1707</ele>
        <time>2017-04-16T11:12:00Z</time>
      </trkpt>
      <trkpt lat="42.77932" lon="0.42811">
        <ele>1707</ele>
        <time>2017-04-16T11:12:02Z</time>
      </trkpt>
      <trkpt lat="42.77943" lon="0.42815">
        <ele>1705</ele>
        <time>2017-04-16T11:12:04Z</time>
      </trkpt>
      <trkpt lat="42.77959" lon="0.42808">
        <ele>1700.5</ele>
        <time>2017-04-16T11:12:06Z</time>
      </trkpt>
      <trkpt lat="42.77967" lon="0.42801">
        <ele>1699.2</ele>
        <time>2017-04-16T11:12:07Z</time>
      </trkpt>
      <trkpt lat="42.77972" lon="0.42792">
        <ele>1695.5</ele>
        <time>2017-04-16T11:12:08Z</time>
      </trkpt>
      <trkpt lat="42.77979" lon="0.42772">
        <ele>1694.2</ele>
        <time>2017-04-16T11:12:10Z</time>
      </trkpt>
      <trkpt lat="42.77986" lon="0.42752">
        <ele>1693</ele>
        <time>2017-04-16T11:12:12Z</time>
      </trkpt>
      <trkpt lat="42.77998" lon="0.42739">
        <ele>1692</ele>
        <time>2017-04-16T11:12:14Z</time>
      </trkpt>
      <trkpt lat="42.78011" lon="0.42731">
        <ele>1689</ele>
        <time>2017-04-16T11:12:16Z</time>
      </trkpt>
      <trkpt lat="42.78025" lon="0.42721">
        <ele>1685.5</ele>
        <time>2017-04-16T11:12:18Z</time>
      </trkpt>
      <trkpt lat="42.78038" lon="0.42713">
        <ele>1682.5</ele>
        <time>2017-04-16T11:12:20Z</time>
      </trkpt>
      <trkpt lat="42.78052" lon="0.42707">
        <ele>1682</ele>
        <time>2017-04-16T11:12:22Z</time>
      </trkpt>
      <trkpt lat="42.78068" lon="0.42703">
        <ele>1678.5</ele>
        <time>2017-04-16T11:12:24Z</time>
      </trkpt>
      <trkpt lat="42.78084" lon="0.427">
        <ele>1678.2</ele>
        <time>2017-04-16T11:12:26Z</time>
      </trkpt>
      <trkpt lat="42.78102" lon="0.42698">
        <ele>1677</ele>
        <time>2017-04-16T11:12:28Z</time>
      </trkpt>
      <trkpt lat="42.78119" lon="0.42704">
        <ele>1675.5</ele>
        <time>2017-04-16T11:12:30Z</time>
      </trkpt>
      <trkpt lat="42.78132" lon="0.42713">
        <ele>1675</ele>
        <time>2017-04-16T11:12:32Z</time>
      </trkpt>
      <trkpt lat="42.78144" lon="0.42723">
        <ele>1675</ele>
        <time>2017-04-16T11:12:34Z</time>
      </trkpt>
      <trkpt lat="42.78158" lon="0.42735">
        <ele>1676.5</ele>
        <time>2017-04-16T11:12:36Z</time>
      </trkpt>
      <trkpt lat="42.78171" lon="0.42747">
        <ele>1677.7</ele>
        <time>2017-04-16T11:12:38Z</time>
      </trkpt>
      <trkpt lat="42.7818" lon="0.42761">
        <ele>1683</ele>
        <time>2017-04-16T11:12:40Z</time>
      </trkpt>
      <trkpt lat="42.78185" lon="0.42776">
        <ele>1683</ele>
        <time>2017-04-16T11:12:42Z</time>
      </trkpt>
      <trkpt lat="42.78191" lon="0.42797">
        <ele>1681.5</ele>
        <time>2017-04-16T11:12:44Z</time>
      </trkpt>
      <trkpt lat="42.78196" lon="0.42819">
        <ele>1682.5</ele>
        <time>2017-04-16T11:12:46Z</time>
      </trkpt>
      <trkpt lat="42.78198" lon="0.42842">
        <ele>1683</ele>
        <time>2017-04-16T11:12:48Z</time>
      </trkpt>
      <trkpt lat="42.78199" lon="0.42864">
        <ele>1684</ele>
        <time>2017-04-16T11:12:50Z</time>
      </trkpt>
      <trkpt lat="42.78202" lon="0.42886">
        <ele>1684.7</ele>
        <time>2017-04-16T11:12:52Z</time>
      </trkpt>
      <trkpt lat="42.78207" lon="0.42905">
        <ele>1685</ele>
        <time>2017-04-16T11:12:54Z</time>
      </trkpt>
      <trkpt lat="42.78211" lon="0.42927">
        <ele>1685</ele>
        <time>2017-04-16T11:12:56Z</time>
      </trkpt>
      <trkpt lat="42.78217" lon="0.42947">
        <ele>1684.2</ele>
        <time>2017-04-16T11:12:58Z</time>
      </trkpt>
      <trkpt lat="42.78227" lon="0.4296">
        <ele>1684</ele>
        <time>2017-04-16T11:13:00Z</time>
      </trkpt>
      <trkpt lat="42.78241" lon="0.42964">
        <ele>1680.5</ele>
        <time>2017-04-16T11:13:02Z</time>
      </trkpt>
      <trkpt lat="42.7825" lon="0.42955">
        <ele>1680.2</ele>
        <time>2017-04-16T11:13:04Z</time>
      </trkpt>
      <trkpt lat="42.78253" lon="0.4294">
        <ele>1680.7</ele>
        <time>2017-04-16T11:13:06Z</time>
      </trkpt>
      <trkpt lat="42.78249" lon="0.42924">
        <ele>1680.5</ele>
        <time>2017-04-16T11:13:08Z</time>
      </trkpt>
      <trkpt lat="42.78241" lon="0.42907">
        <ele>1680</ele>
        <time>2017-04-16T11:13:10Z</time>
      </trkpt>
      <trkpt lat="42.78228" lon="0.42894">
        <ele>1680.5</ele>
        <time>2017-04-16T11:13:12Z</time>
      </trkpt>
      <trkpt lat="42.78214" lon="0.42881">
        <ele>1680.7</ele>
        <time>2017-04-16T11:13:14Z</time>
      </trkpt>
      <trkpt lat="42.78208" lon="0.42873">
        <ele>1681</ele>
        <time>2017-04-16T11:13:15Z</time>
      </trkpt>
      <trkpt lat="42.78201" lon="0.42864">
        <ele>1681</ele>
        <time>2017-04-16T11:13:16Z</time>
      </trkpt>
      <trkpt lat="42.78195" lon="0.42855">
        <ele>1678.5</ele>
        <time>2017-04-16T11:13:17Z</time>
      </trkpt>
      <trkpt lat="42.78188" lon="0.42846">
        <ele>1677.2</ele>
        <time>2017-04-16T11:13:18Z</time>
      </trkpt>
      <trkpt lat="42.78177" lon="0.4283">
        <ele>1675.2</ele>
        <time>2017-04-16T11:13:20Z</time>
      </trkpt>
      <trkpt lat="42.78167" lon="0.42812">
        <ele>1675</ele>
        <time>2017-04-16T11:13:22Z</time>
      </trkpt>
      <trkpt lat="42.78161" lon="0.42802">
        <ele>1675</ele>
        <time>2017-04-16T11:13:23Z</time>
      </trkpt>
      <trkpt lat="42.78155" lon="0.42793">
        <ele>1675</ele>
        <time>2017-04-16T11:13:24Z</time>
      </trkpt>
      <trkpt lat="42.78149" lon="0.42783">
        <ele>1675.5</ele>
        <time>2017-04-16T11:13:25Z</time>
      </trkpt>
      <trkpt lat="42.78139" lon="0.42765">
        <ele>1675.5</ele>
        <time>2017-04-16T11:13:27Z</time>
      </trkpt>
      <trkpt lat="42.78132" lon="0.42745">
        <ele>1677.2</ele>
        <time>2017-04-16T11:13:29Z</time>
      </trkpt>
      <trkpt lat="42.78125" lon="0.42727">
        <ele>1678</ele>
        <time>2017-04-16T11:13:31Z</time>
      </trkpt>
      <trkpt lat="42.78115" lon="0.42708">
        <ele>1677</ele>
        <time>2017-04-16T11:13:33Z</time>
      </trkpt>
      <trkpt lat="42.78102" lon="0.42692">
        <ele>1677</ele>
        <time>2017-04-16T11:13:35Z</time>
      </trkpt>
      <trkpt lat="42.78089" lon="0.42678">
        <ele>1677</ele>
        <time>2017-04-16T11:13:37Z</time>
      </trkpt>
      <trkpt lat="42.78077" lon="0.42664">
        <ele>1677.5</ele>
        <time>2017-04-16T11:13:39Z</time>
      </trkpt>
      <trkpt lat="42.78067" lon="0.42652">
        <ele>1679</ele>
        <time>2017-04-16T11:13:41Z</time>
      </trkpt>
      <trkpt lat="42.78054" lon="0.4264">
        <ele>1680</ele>
        <time>2017-04-16T11:13:43Z</time>
      </trkpt>
      <trkpt lat="42.78041" lon="0.42631">
        <ele>1680</ele>
        <time>2017-04-16T11:13:45Z</time>
      </trkpt>
      <trkpt lat="42.7803" lon="0.42625">
        <ele>1681.5</ele>
        <time>2017-04-16T11:13:47Z</time>
      </trkpt>
      <trkpt lat="42.78019" lon="0.42615">
        <ele>1681.2</ele>
        <time>2017-04-16T11:13:49Z</time>
      </trkpt>
      <trkpt lat="42.78012" lon="0.42608">
        <ele>1677.5</ele>
        <time>2017-04-16T11:13:50Z</time>
      </trkpt>
      <trkpt lat="42.78005" lon="0.42601">
        <ele>1675.7</ele>
        <time>2017-04-16T11:13:51Z</time>
      </trkpt>
      <trkpt lat="42.77998" lon="0.42593">
        <ele>1672</ele>
        <time>2017-04-16T11:13:52Z</time>
      </trkpt>
      <trkpt lat="42.77989" lon="0.42576">
        <ele>1669.5</ele>
        <time>2017-04-16T11:13:54Z</time>
      </trkpt>
      <trkpt lat="42.77983" lon="0.4256">
        <ele>1669.2</ele>
        <time>2017-04-16T11:13:56Z</time>
      </trkpt>
      <trkpt lat="42.77977" lon="0.42542">
        <ele>1666.5</ele>
        <time>2017-04-16T11:13:58Z</time>
      </trkpt>
      <trkpt lat="42.77971" lon="0.42523">
        <ele>1661</ele>
        <time>2017-04-16T11:14:00Z</time>
      </trkpt>
      <trkpt lat="42.77965" lon="0.42506">
        <ele>1657.7</ele>
        <time>2017-04-16T11:14:02Z</time>
      </trkpt>
      <trkpt lat="42.77965" lon="0.42488">
        <ele>1657</ele>
        <time>2017-04-16T11:14:04Z</time>
      </trkpt>
      <trkpt lat="42.77972" lon="0.42474">
        <ele>1655.5</ele>
        <time>2017-04-16T11:14:06Z</time>
      </trkpt>
      <trkpt lat="42.77983" lon="0.42465">
        <ele>1654.2</ele>
        <time>2017-04-16T11:14:08Z</time>
      </trkpt>
      <trkpt lat="42.77996" lon="0.42451">
        <ele>1652.5</ele>
        <time>2017-04-16T11:14:10Z</time>
      </trkpt>
      <trkpt lat="42.78008" lon="0.42439">
        <ele>1651</ele>
        <time>2017-04-16T11:14:12Z</time>
      </trkpt>
      <trkpt lat="42.78018" lon="0.42429">
        <ele>1653.7</ele>
        <time>2017-04-16T11:14:14Z</time>
      </trkpt>
      <trkpt lat="42.78027" lon="0.42416">
        <ele>1655</ele>
        <time>2017-04-16T11:14:16Z</time>
      </trkpt>
      <trkpt lat="42.78037" lon="0.42407">
        <ele>1655</ele>
        <time>2017-04-16T11:14:18Z</time>
      </trkpt>
      <trkpt lat="42.78049" lon="0.42406">
        <ele>1653</ele>
        <time>2017-04-16T11:14:20Z</time>
      </trkpt>
      <trkpt lat="42.78065" lon="0.42409">
        <ele>1650.5</ele>
        <time>2017-04-16T11:14:22Z</time>
      </trkpt>
      <trkpt lat="42.78081" lon="0.42415">
        <ele>1645.7</ele>
        <time>2017-04-16T11:14:24Z</time>
      </trkpt>
      <trkpt lat="42.78093" lon="0.42421">
        <ele>1644</ele>
        <time>2017-04-16T11:14:26Z</time>
      </trkpt>
      <trkpt lat="42.78105" lon="0.42427">
        <ele>1643</ele>
        <time>2017-04-16T11:14:28Z</time>
      </trkpt>
      <trkpt lat="42.7812" lon="0.42433">
        <ele>1642.2</ele>
        <time>2017-04-16T11:14:30Z</time>
      </trkpt>
      <trkpt lat="42.78135" lon="0.42439">
        <ele>1640.5</ele>
        <time>2017-04-16T11:14:32Z</time>
      </trkpt>
      <trkpt lat="42.7815" lon="0.42443">
        <ele>1638.5</ele>
        <time>2017-04-16T11:14:34Z</time>
      </trkpt>
      <trkpt lat="42.78165" lon="0.42446">
        <ele>1635</ele>
        <time>2017-04-16T11:14:36Z</time>
      </trkpt>
      <trkpt lat="42.78182" lon="0.4245">
        <ele>1631</ele>
        <time>2017-04-16T11:14:38Z</time>
      </trkpt>
      <trkpt lat="42.78197" lon="0.42455">
        <ele>1628.7</ele>
        <time>2017-04-16T11:14:40Z</time>
      </trkpt>
      <trkpt lat="42.7821" lon="0.42462">
        <ele>1629</ele>
        <time>2017-04-16T11:14:42Z</time>
      </trkpt>
      <trkpt lat="42.78223" lon="0.42465">
        <ele>1629.7</ele>
        <time>2017-04-16T11:14:44Z</time>
      </trkpt>
      <trkpt lat="42.78238" lon="0.42467">
        <ele>1626</ele>
        <time>2017-04-16T11:14:46Z</time>
      </trkpt>
      <trkpt lat="42.78254" lon="0.42471">
        <ele>1624</ele>
        <time>2017-04-16T11:14:48Z</time>
      </trkpt>
      <trkpt lat="42.78272" lon="0.42477">
        <ele>1620</ele>
        <time>2017-04-16T11:14:50Z</time>
      </trkpt>
      <trkpt lat="42.7828" lon="0.4248">
        <ele>1616.5</ele>
        <time>2017-04-16T11:14:51Z</time>
      </trkpt>
      <trkpt lat="42.78297" lon="0.42487">
        <ele>1615</ele>
        <time>2017-04-16T11:14:53Z</time>
      </trkpt>
      <trkpt lat="42.78313" lon="0.42492">
        <ele>1614.2</ele>
        <time>2017-04-16T11:14:55Z</time>
      </trkpt>
      <trkpt lat="42.78328" lon="0.42497">
        <ele>1614.5</ele>
        <time>2017-04-16T11:14:57Z</time>
      </trkpt>
      <trkpt lat="42.78344" lon="0.425">
        <ele>1616</ele>
        <time>2017-04-16T11:14:59Z</time>
      </trkpt>
      <trkpt lat="42.78359" lon="0.42498">
        <ele>1617</ele>
        <time>2017-04-16T11:15:01Z</time>
      </trkpt>
      <trkpt lat="42.78374" lon="0.42493">
        <ele>1617</ele>
        <time>2017-04-16T11:15:03Z</time>
      </trkpt>
      <trkpt lat="42.78386" lon="0.42491">
        <ele>1621</ele>
        <time>2017-04-16T11:15:05Z</time>
      </trkpt>
      <trkpt lat="42.784" lon="0.4249">
        <ele>1619</ele>
        <time>2017-04-16T11:15:07Z</time>
      </trkpt>
      <trkpt lat="42.78416" lon="0.42488">
        <ele>1622.5</ele>
        <time>2017-04-16T11:15:09Z</time>
      </trkpt>
      <trkpt lat="42.78432" lon="0.42491">
        <ele>1628.5</ele>
        <time>2017-04-16T11:15:11Z</time>
      </trkpt>
      <trkpt lat="42.78446" lon="0.42497">
        <ele>1630</ele>
        <time>2017-04-16T11:15:13Z</time>
      </trkpt>
      <trkpt lat="42.78457" lon="0.42503">
        <ele>1633</ele>
        <time>2017-04-16T11:15:15Z</time>
      </trkpt>
      <trkpt lat="42.7847" lon="0.42508">
        <ele>1636</ele>
        <time>2017-04-16T11:15:17Z</time>
      </trkpt>
      <trkpt lat="42.78483" lon="0.42513">
        <ele>1638.7</ele>
        <time>2017-04-16T11:15:19Z</time>
      </trkpt>
      <trkpt lat="42.78496" lon="0.42517">
        <ele>1640</ele>
        <time>2017-04-16T11:15:21Z</time>
      </trkpt>
      <trkpt lat="42.7851" lon="0.42512">
        <ele>1643</ele>
        <time>2017-04-16T11:15:23Z</time>
      </trkpt>
      <trkpt lat="42.78518" lon="0.42493">
        <ele>1645</ele>
        <time>2017-04-16T11:15:25Z</time>
      </trkpt>
      <trkpt lat="42.78514" lon="0.42473">
        <ele>1648</ele>
        <time>2017-04-16T11:15:27Z</time>
      </trkpt>
      <trkpt lat="42.78499" lon="0.42461">
        <ele>1652</ele>
        <time>2017-04-16T11:15:29Z</time>
      </trkpt>
      <trkpt lat="42.7849" lon="0.42458">
        <ele>1656</ele>
        <time>2017-04-16T11:15:30Z</time>
      </trkpt>
      <trkpt lat="42.7848" lon="0.42459">
        <ele>1659</ele>
        <time>2017-04-16T11:15:31Z</time>
      </trkpt>
      <trkpt lat="42.78471" lon="0.42464">
        <ele>1659</ele>
        <time>2017-04-16T11:15:32Z</time>
      </trkpt>
      <trkpt lat="42.78463" lon="0.42472">
        <ele>1659.5</ele>
        <time>2017-04-16T11:15:33Z</time>
      </trkpt>
      <trkpt lat="42.78457" lon="0.42482">
        <ele>1661.5</ele>
        <time>2017-04-16T11:15:34Z</time>
      </trkpt>
      <trkpt lat="42.78452" lon="0.42493">
        <ele>1662.2</ele>
        <time>2017-04-16T11:15:35Z</time>
      </trkpt>
      <trkpt lat="42.7845" lon="0.42515">
        <ele>1664</ele>
        <time>2017-04-16T11:15:37Z</time>
      </trkpt>
      <trkpt lat="42.78456" lon="0.42532">
        <ele>1667</ele>
        <time>2017-04-16T11:15:39Z</time>
      </trkpt>
      <trkpt lat="42.78467" lon="0.42546">
        <ele>1668</ele>
        <time>2017-04-16T11:15:41Z</time>
      </trkpt>
      <trkpt lat="42.78481" lon="0.42557">
        <ele>1669</ele>
        <time>2017-04-16T11:15:43Z</time>
      </trkpt>
      <trkpt lat="42.78493" lon="0.4257">
        <ele>1669.5</ele>
        <time>2017-04-16T11:15:45Z</time>
      </trkpt>
      <trkpt lat="42.78506" lon="0.4257">
        <ele>1672</ele>
        <time>2017-04-16T11:15:47Z</time>
      </trkpt>
      <trkpt lat="42.78515" lon="0.42557">
        <ele>1676</ele>
        <time>2017-04-16T11:15:49Z</time>
      </trkpt>
      <trkpt lat="42.78517" lon="0.42538">
        <ele>1678</ele>
        <time>2017-04-16T11:15:51Z</time>
      </trkpt>
      <trkpt lat="42.78513" lon="0.4252">
        <ele>1679.5</ele>
        <time>2017-04-16T11:15:53Z</time>
      </trkpt>
      <trkpt lat="42.78506" lon="0.42504">
        <ele>1686</ele>
        <time>2017-04-16T11:15:55Z</time>
      </trkpt>
      <trkpt lat="42.78497" lon="0.42487">
        <ele>1688</ele>
        <time>2017-04-16T11:15:57Z</time>
      </trkpt>
      <trkpt lat="42.78484" lon="0.42476">
        <ele>1691</ele>
        <time>2017-04-16T11:15:59Z</time>
      </trkpt>
      <trkpt lat="42.7847" lon="0.42476">
        <ele>1692</ele>
        <time>2017-04-16T11:16:01Z</time>
      </trkpt>
      <trkpt lat="42.78453" lon="0.42487">
        <ele>1692</ele>
        <time>2017-04-16T11:16:03Z</time>
      </trkpt>
      <trkpt lat="42.78445" lon="0.42498">
        <ele>1686</ele>
        <time>2017-04-16T11:16:04Z</time>
      </trkpt>
      <trkpt lat="42.78438" lon="0.42511">
        <ele>1686</ele>
        <time>2017-04-16T11:16:05Z</time>
      </trkpt>
      <trkpt lat="42.78433" lon="0.42525">
        <ele>1684</ele>
        <time>2017-04-16T11:16:06Z</time>
      </trkpt>
      <trkpt lat="42.78429" lon="0.42537">
        <ele>1686</ele>
        <time>2017-04-16T11:16:07Z</time>
      </trkpt>
      <trkpt lat="42.78427" lon="0.4255">
        <ele>1687</ele>
        <time>2017-04-16T11:16:08Z</time>
      </trkpt>
      <trkpt lat="42.78423" lon="0.42574">
        <ele>1690</ele>
        <time>2017-04-16T11:16:10Z</time>
      </trkpt>
      <trkpt lat="42.78421" lon="0.42586">
        <ele>1690</ele>
        <time>2017-04-16T11:16:11Z</time>
      </trkpt>
      <trkpt lat="42.78423" lon="0.42608">
        <ele>1691.5</ele>
        <time>2017-04-16T11:16:13Z</time>
      </trkpt>
      <trkpt lat="42.78433" lon="0.42623">
        <ele>1690</ele>
        <time>2017-04-16T11:16:15Z</time>
      </trkpt>
      <trkpt lat="42.78445" lon="0.42626">
        <ele>1689</ele>
        <time>2017-04-16T11:16:17Z</time>
      </trkpt>
      <trkpt lat="42.78456" lon="0.42616">
        <ele>1686.7</ele>
        <time>2017-04-16T11:16:19Z</time>
      </trkpt>
      <trkpt lat="42.78461" lon="0.42596">
        <ele>1687.5</ele>
        <time>2017-04-16T11:16:21Z</time>
      </trkpt>
      <trkpt lat="42.78455" lon="0.42574">
        <ele>1688</ele>
        <time>2017-04-16T11:16:23Z</time>
      </trkpt>
      <trkpt lat="42.78442" lon="0.42559">
        <ele>1688</ele>
        <time>2017-04-16T11:16:25Z</time>
      </trkpt>
      <trkpt lat="42.78426" lon="0.42553">
        <ele>1690.2</ele>
        <time>2017-04-16T11:16:27Z</time>
      </trkpt>
      <trkpt lat="42.78416" lon="0.42552">
        <ele>1690.2</ele>
        <time>2017-04-16T11:16:28Z</time>
      </trkpt>
      <trkpt lat="42.78407" lon="0.42553">
        <ele>1691</ele>
        <time>2017-04-16T11:16:29Z</time>
      </trkpt>
      <trkpt lat="42.78397" lon="0.42558">
        <ele>1691</ele>
        <time>2017-04-16T11:16:30Z</time>
      </trkpt>
      <trkpt lat="42.78388" lon="0.42568">
        <ele>1691</ele>
        <time>2017-04-16T11:16:31Z</time>
      </trkpt>
      <trkpt lat="42.78382" lon="0.4258">
        <ele>1690</ele>
        <time>2017-04-16T11:16:32Z</time>
      </trkpt>
      <trkpt lat="42.78379" lon="0.42595">
        <ele>1690</ele>
        <time>2017-04-16T11:16:33Z</time>
      </trkpt>
      <trkpt lat="42.78379" lon="0.4261">
        <ele>1689.5</ele>
        <time>2017-04-16T11:16:34Z</time>
      </trkpt>
      <trkpt lat="42.78379" lon="0.42623">
        <ele>1687.5</ele>
        <time>2017-04-16T11:16:35Z</time>
      </trkpt>
      <trkpt lat="42.78382" lon="0.42645">
        <ele>1688.5</ele>
        <time>2017-04-16T11:16:37Z</time>
      </trkpt>
      <trkpt lat="42.78381" lon="0.42666">
        <ele>1691.5</ele>
        <time>2017-04-16T11:16:39Z</time>
      </trkpt>
      <trkpt lat="42.78386" lon="0.42685">
        <ele>1688.5</ele>
        <time>2017-04-16T11:16:41Z</time>
      </trkpt>
      <trkpt lat="42.78397" lon="0.427">
        <ele>1687</ele>
        <time>2017-04-16T11:16:43Z</time>
      </trkpt>
      <trkpt lat="42.78409" lon="0.42706">
        <ele>1686.5</ele>
        <time>2017-04-16T11:16:45Z</time>
      </trkpt>
      <trkpt lat="42.78423" lon="0.42706">
        <ele>1683</ele>
        <time>2017-04-16T11:16:47Z</time>
      </trkpt>
      <trkpt lat="42.7844" lon="0.42703">
        <ele>1679.2</ele>
        <time>2017-04-16T11:16:49Z</time>
      </trkpt>
      <trkpt lat="42.78454" lon="0.42699">
        <ele>1677</ele>
        <time>2017-04-16T11:16:51Z</time>
      </trkpt>
      <trkpt lat="42.78469" lon="0.42697">
        <ele>1675.5</ele>
        <time>2017-04-16T11:16:53Z</time>
      </trkpt>
      <trkpt lat="42.78484" lon="0.42695">
        <ele>1673</ele>
        <time>2017-04-16T11:16:55Z</time>
      </trkpt>
      <trkpt lat="42.78501" lon="0.42691">
        <ele>1672</ele>
        <time>2017-04-16T11:16:57Z</time>
      </trkpt>
      <trkpt lat="42.7851" lon="0.42688">
        <ele>1667</ele>
        <time>2017-04-16T11:16:58Z</time>
      </trkpt>
      <trkpt lat="42.78519" lon="0.42686">
        <ele>1665</ele>
        <time>2017-04-16T11:16:59Z</time>
      </trkpt>
      <trkpt lat="42.78528" lon="0.42684">
        <ele>1663</ele>
        <time>2017-04-16T11:17:00Z</time>
      </trkpt>
      <trkpt lat="42.78537" lon="0.42682">
        <ele>1663</ele>
        <time>2017-04-16T11:17:01Z</time>
      </trkpt>
      <trkpt lat="42.78547" lon="0.4268">
        <ele>1659</ele>
        <time>2017-04-16T11:17:02Z</time>
      </trkpt>
      <trkpt lat="42.78556" lon="0.42678">
        <ele>1659</ele>
        <time>2017-04-16T11:17:03Z</time>
      </trkpt>
      <trkpt lat="42.78565" lon="0.42676">
        <ele>1657</ele>
        <time>2017-04-16T11:17:04Z</time>
      </trkpt>
      <trkpt lat="42.78575" lon="0.42674">
        <ele>1653.5</ele>
        <time>2017-04-16T11:17:05Z</time>
      </trkpt>
      <trkpt lat="42.78584" lon="0.42674">
        <ele>1652.7</ele>
        <time>2017-04-16T11:17:06Z</time>
      </trkpt>
      <trkpt lat="42.78601" lon="0.42674">
        <ele>1650</ele>
        <time>2017-04-16T11:17:08Z</time>
      </trkpt>
      <trkpt lat="42.7861" lon="0.42672">
        <ele>1649</ele>
        <time>2017-04-16T11:17:09Z</time>
      </trkpt>
      <trkpt lat="42.78619" lon="0.42668">
        <ele>1642.7</ele>
        <time>2017-04-16T11:17:10Z</time>
      </trkpt>
      <trkpt lat="42.78628" lon="0.42664">
        <ele>1639.5</ele>
        <time>2017-04-16T11:17:11Z</time>
      </trkpt>
      <trkpt lat="42.78637" lon="0.42659">
        <ele>1639.5</ele>
        <time>2017-04-16T11:17:12Z</time>
      </trkpt>
      <trkpt lat="42.78646" lon="0.42653">
        <ele>1638.7</ele>
        <time>2017-04-16T11:17:13Z</time>
      </trkpt>
      <trkpt lat="42.78655" lon="0.42649">
        <ele>1638</ele>
        <time>2017-04-16T11:17:14Z</time>
      </trkpt>
      <trkpt lat="42.78671" lon="0.4264">
        <ele>1637.2</ele>
        <time>2017-04-16T11:17:16Z</time>
      </trkpt>
      <trkpt lat="42.78687" lon="0.4263">
        <ele>1636.5</ele>
        <time>2017-04-16T11:17:18Z</time>
      </trkpt>
      <trkpt lat="42.78702" lon="0.42621">
        <ele>1635</ele>
        <time>2017-04-16T11:17:20Z</time>
      </trkpt>
      <trkpt lat="42.7872" lon="0.42616">
        <ele>1634</ele>
        <time>2017-04-16T11:17:22Z</time>
      </trkpt>
      <trkpt lat="42.78735" lon="0.42608">
        <ele>1632</ele>
        <time>2017-04-16T11:17:24Z</time>
      </trkpt>
      <trkpt lat="42.78748" lon="0.42598">
        <ele>1627.5</ele>
        <time>2017-04-16T11:17:26Z</time>
      </trkpt>
      <trkpt lat="42.78763" lon="0.42587">
        <ele>1626.2</ele>
        <time>2017-04-16T11:17:28Z</time>
      </trkpt>
      <trkpt lat="42.78772" lon="0.42581">
        <ele>1622</ele>
        <time>2017-04-16T11:17:29Z</time>
      </trkpt>
      <trkpt lat="42.7878" lon="0.42577">
        <ele>1620.5</ele>
        <time>2017-04-16T11:17:30Z</time>
      </trkpt>
      <trkpt lat="42.78789" lon="0.42574">
        <ele>1617</ele>
        <time>2017-04-16T11:17:31Z</time>
      </trkpt>
      <trkpt lat="42.78804" lon="0.42568">
        <ele>1613.5</ele>
        <time>2017-04-16T11:17:33Z</time>
      </trkpt>
      <trkpt lat="42.78819" lon="0.42558">
        <ele>1607</ele>
        <time>2017-04-16T11:17:35Z</time>
      </trkpt>
      <trkpt lat="42.78833" lon="0.42544">
        <ele>1604.5</ele>
        <time>2017-04-16T11:17:37Z</time>
      </trkpt>
      <trkpt lat="42.78846" lon="0.4253">
        <ele>1602</ele>
        <time>2017-04-16T11:17:39Z</time>
      </trkpt>
      <trkpt lat="42.78856" lon="0.42518">
        <ele>1599</ele>
        <time>2017-04-16T11:17:41Z</time>
      </trkpt>
      <trkpt lat="42.78867" lon="0.42505">
        <ele>1591.2</ele>
        <time>2017-04-16T11:17:43Z</time>
      </trkpt>
      <trkpt lat="42.78881" lon="0.42489">
        <ele>1589</ele>
        <time>2017-04-16T11:17:45Z</time>
      </trkpt>
      <trkpt lat="42.78888" lon="0.4248">
        <ele>1586</ele>
        <time>2017-04-16T11:17:46Z</time>
      </trkpt>
      <trkpt lat="42.78894" lon="0.42471">
        <ele>1584.5</ele>
        <time>2017-04-16T11:17:47Z</time>
      </trkpt>
      <trkpt lat="42.78901" lon="0.42462">
        <ele>1579</ele>
        <time>2017-04-16T11:17:48Z</time>
      </trkpt>
      <trkpt lat="42.78908" lon="0.42453">
        <ele>1574</ele>
        <time>2017-04-16T11:17:49Z</time>
      </trkpt>
      <trkpt lat="42.78919" lon="0.42438">
        <ele>1573.5</ele>
        <time>2017-04-16T11:17:51Z</time>
      </trkpt>
      <trkpt lat="42.78932" lon="0.42423">
        <ele>1570.5</ele>
        <time>2017-04-16T11:17:53Z</time>
      </trkpt>
      <trkpt lat="42.78939" lon="0.42415">
        <ele>1569.2</ele>
        <time>2017-04-16T11:17:54Z</time>
      </trkpt>
      <trkpt lat="42.78951" lon="0.42401">
        <ele>1566</ele>
        <time>2017-04-16T11:17:56Z</time>
      </trkpt>
      <trkpt lat="42.78962" lon="0.42392">
        <ele>1568</ele>
        <time>2017-04-16T11:17:58Z</time>
      </trkpt>
      <trkpt lat="42.78974" lon="0.42386">
        <ele>1570.5</ele>
        <time>2017-04-16T11:18:00Z</time>
      </trkpt>
      <trkpt lat="42.78987" lon="0.42382">
        <ele>1570.5</ele>
        <time>2017-04-16T11:18:02Z</time>
      </trkpt>
      <trkpt lat="42.78998" lon="0.42371">
        <ele>1570</ele>
        <time>2017-04-16T11:18:04Z</time>
      </trkpt>
      <trkpt lat="42.79009" lon="0.42357">
        <ele>1567</ele>
        <time>2017-04-16T11:18:06Z</time>
      </trkpt>
      <trkpt lat="42.79023" lon="0.42345">
        <ele>1566.7</ele>
        <time>2017-04-16T11:18:08Z</time>
      </trkpt>
      <trkpt lat="42.79035" lon="0.42337">
        <ele>1563.2</ele>
        <time>2017-04-16T11:18:10Z</time>
      </trkpt>
      <trkpt lat="42.79047" lon="0.42329">
        <ele>1559</ele>
        <time>2017-04-16T11:18:12Z</time>
      </trkpt>
      <trkpt lat="42.79059" lon="0.42322">
        <ele>1555.5</ele>
        <time>2017-04-16T11:18:14Z</time>
      </trkpt>
      <trkpt lat="42.79071" lon="0.42313">
        <ele>1553</ele>
        <time>2017-04-16T11:18:16Z</time>
      </trkpt>
      <trkpt lat="42.79084" lon="0.42307">
        <ele>1550</ele>
        <time>2017-04-16T11:18:18Z</time>
      </trkpt>
      <trkpt lat="42.79099" lon="0.42307">
        <ele>1540.5</ele>
        <time>2017-04-16T11:18:20Z</time>
      </trkpt>
      <trkpt lat="42.79114" lon="0.42307">
        <ele>1539.2</ele>
        <time>2017-04-16T11:18:22Z</time>
      </trkpt>
      <trkpt lat="42.79129" lon="0.42301">
        <ele>1534.5</ele>
        <time>2017-04-16T11:18:24Z</time>
      </trkpt>
      <trkpt lat="42.79142" lon="0.42296">
        <ele>1528.5</ele>
        <time>2017-04-16T11:18:26Z</time>
      </trkpt>
      <trkpt lat="42.79154" lon="0.42292">
        <ele>1525</ele>
        <time>2017-04-16T11:18:28Z</time>
      </trkpt>
      <trkpt lat="42.79166" lon="0.42285">
        <ele>1524</ele>
        <time>2017-04-16T11:18:30Z</time>
      </trkpt>
      <trkpt lat="42.79178" lon="0.42275">
        <ele>1519.5</ele>
        <time>2017-04-16T11:18:32Z</time>
      </trkpt>
      <trkpt lat="42.7919" lon="0.42266">
        <ele>1515</ele>
        <time>2017-04-16T11:18:34Z</time>
      </trkpt>
      <trkpt lat="42.79205" lon="0.42256">
        <ele>1508</ele>
        <time>2017-04-16T11:18:36Z</time>
      </trkpt>
      <trkpt lat="42.79215" lon="0.42245">
        <ele>1510.7</ele>
        <time>2017-04-16T11:18:38Z</time>
      </trkpt>
      <trkpt lat="42.79224" lon="0.4224">
        <ele>1512</ele>
        <time>2017-04-16T11:18:40Z</time>
      </trkpt>
      <trkpt lat="42.79236" lon="0.42242">
        <ele>1512</ele>
        <time>2017-04-16T11:18:42Z</time>
      </trkpt>
      <trkpt lat="42.79249" lon="0.42243">
        <ele>1512</ele>
        <time>2017-04-16T11:18:44Z</time>
      </trkpt>
      <trkpt lat="42.7926" lon="0.42239">
        <ele>1512</ele>
        <time>2017-04-16T11:18:46Z</time>
      </trkpt>
      <trkpt lat="42.79269" lon="0.42233">
        <ele>1511.2</ele>
        <time>2017-04-16T11:18:48Z</time>
      </trkpt>
      <trkpt lat="42.7928" lon="0.42229">
        <ele>1510</ele>
        <time>2017-04-16T11:18:50Z</time>
      </trkpt>
      <trkpt lat="42.7929" lon="0.42224">
        <ele>1508.2</ele>
        <time>2017-04-16T11:18:52Z</time>
      </trkpt>
      <trkpt lat="42.79301" lon="0.42215">
        <ele>1508</ele>
        <time>2017-04-16T11:18:54Z</time>
      </trkpt>
      <trkpt lat="42.79315" lon="0.42209">
        <ele>1503.5</ele>
        <time>2017-04-16T11:18:56Z</time>
      </trkpt>
      <trkpt lat="42.79327" lon="0.42203">
        <ele>1500.7</ele>
        <time>2017-04-16T11:18:58Z</time>
      </trkpt>
      <trkpt lat="42.79336" lon="0.42198">
        <ele>1501</ele>
        <time>2017-04-16T11:19:00Z</time>
      </trkpt>
      <trkpt lat="42.79345" lon="0.42193">
        <ele>1502</ele>
        <time>2017-04-16T11:19:02Z</time>
      </trkpt>
      <trkpt lat="42.79358" lon="0.42186">
        <ele>1503.5</ele>
        <time>2017-04-16T11:19:04Z</time>
      </trkpt>
      <trkpt lat="42.79369" lon="0.42178">
        <ele>1505.5</ele>
        <time>2017-04-16T11:19:06Z</time>
      </trkpt>
      <trkpt lat="42.79377" lon="0.42172">
        <ele>1507</ele>
        <time>2017-04-16T11:19:08Z</time>
      </trkpt>
      <trkpt lat="42.79388" lon="0.42168">
        <ele>1507</ele>
        <time>2017-04-16T11:19:10Z</time>
      </trkpt>
      <trkpt lat="42.794" lon="0.42166">
        <ele>1507</ele>
        <time>2017-04-16T11:19:12Z</time>
      </trkpt>
      <trkpt lat="42.79411" lon="0.42164">
        <ele>1507</ele>
        <time>2017-04-16T11:19:14Z</time>
      </trkpt>
      <trkpt lat="42.79423" lon="0.42158">
        <ele>1506</ele>
        <time>2017-04-16T11:19:16Z</time>
      </trkpt>
      <trkpt lat="42.79434" lon="0.42152">
        <ele>1503.5</ele>
        <time>2017-04-16T11:19:18Z</time>
      </trkpt>
      <trkpt lat="42.79446" lon="0.42147">
        <ele>1503</ele>
        <time>2017-04-16T11:19:20Z</time>
      </trkpt>
      <trkpt lat="42.79457" lon="0.42142">
        <ele>1502.2</ele>
        <time>2017-04-16T11:19:22Z</time>
      </trkpt>
      <trkpt lat="42.79468" lon="0.42136">
        <ele>1502.7</ele>
        <time>2017-04-16T11:19:24Z</time>
      </trkpt>
      <trkpt lat="42.7948" lon="0.42128">
        <ele>1503</ele>
        <time>2017-04-16T11:19:26Z</time>
      </trkpt>
      <trkpt lat="42.79489" lon="0.42122">
        <ele>1504.5</ele>
        <time>2017-04-16T11:19:28Z</time>
      </trkpt>
      <trkpt lat="42.79502" lon="0.42117">
        <ele>1508.7</ele>
        <time>2017-04-16T11:19:31Z</time>
      </trkpt>
      <trkpt lat="42.79513" lon="0.42115">
        <ele>1509.2</ele>
        <time>2017-04-16T11:19:33Z</time>
      </trkpt>
      <trkpt lat="42.79526" lon="0.42113">
        <ele>1508</ele>
        <time>2017-04-16T11:19:35Z</time>
      </trkpt>
      <trkpt lat="42.79539" lon="0.42112">
        <ele>1504.5</ele>
        <time>2017-04-16T11:19:37Z</time>
      </trkpt>
      <trkpt lat="42.79551" lon="0.4211">
        <ele>1502</ele>
        <time>2017-04-16T11:19:39Z</time>
      </trkpt>
      <trkpt lat="42.79564" lon="0.42105">
        <ele>1501.2</ele>
        <time>2017-04-16T11:19:41Z</time>
      </trkpt>
      <trkpt lat="42.79577" lon="0.42103">
        <ele>1497.2</ele>
        <time>2017-04-16T11:19:43Z</time>
      </trkpt>
      <trkpt lat="42.79591" lon="0.421">
        <ele>1493</ele>
        <time>2017-04-16T11:19:45Z</time>
      </trkpt>
      <trkpt lat="42.79604" lon="0.42098">
        <ele>1489</ele>
        <time>2017-04-16T11:19:47Z</time>
      </trkpt>
      <trkpt lat="42.79617" lon="0.42097">
        <ele>1486</ele>
        <time>2017-04-16T11:19:49Z</time>
      </trkpt>
      <trkpt lat="42.79631" lon="0.42097">
        <ele>1483</ele>
        <time>2017-04-16T11:19:51Z</time>
      </trkpt>
      <trkpt lat="42.79645" lon="0.421">
        <ele>1482</ele>
        <time>2017-04-16T11:19:53Z</time>
      </trkpt>
      <trkpt lat="42.79657" lon="0.42103">
        <ele>1482</ele>
        <time>2017-04-16T11:19:55Z</time>
      </trkpt>
      <trkpt lat="42.79669" lon="0.42107">
        <ele>1481</ele>
        <time>2017-04-16T11:19:57Z</time>
      </trkpt>
      <trkpt lat="42.7968" lon="0.4211">
        <ele>1482</ele>
        <time>2017-04-16T11:19:59Z</time>
      </trkpt>
      <trkpt lat="42.7969" lon="0.42114">
        <ele>1483.7</ele>
        <time>2017-04-16T11:20:01Z</time>
      </trkpt>
      <trkpt lat="42.79701" lon="0.42118">
        <ele>1485.5</ele>
        <time>2017-04-16T11:20:03Z</time>
      </trkpt>
      <trkpt lat="42.79714" lon="0.42121">
        <ele>1485.2</ele>
        <time>2017-04-16T11:20:05Z</time>
      </trkpt>
      <trkpt lat="42.79728" lon="0.42127">
        <ele>1482.2</ele>
        <time>2017-04-16T11:20:07Z</time>
      </trkpt>
      <trkpt lat="42.79741" lon="0.42133">
        <ele>1478.7</ele>
        <time>2017-04-16T11:20:09Z</time>
      </trkpt>
      <trkpt lat="42.79755" lon="0.42136">
        <ele>1476.5</ele>
        <time>2017-04-16T11:20:11Z</time>
      </trkpt>
      <trkpt lat="42.79769" lon="0.42137">
        <ele>1474.5</ele>
        <time>2017-04-16T11:20:13Z</time>
      </trkpt>
      <trkpt lat="42.79782" lon="0.4214">
        <ele>1472</ele>
        <time>2017-04-16T11:20:15Z</time>
      </trkpt>
      <trkpt lat="42.79796" lon="0.42141">
        <ele>1471</ele>
        <time>2017-04-16T11:20:17Z</time>
      </trkpt>
      <trkpt lat="42.79809" lon="0.4214">
        <ele>1466.5</ele>
        <time>2017-04-16T11:20:19Z</time>
      </trkpt>
      <trkpt lat="42.79823" lon="0.42141">
        <ele>1466.7</ele>
        <time>2017-04-16T11:20:21Z</time>
      </trkpt>
      <trkpt lat="42.79836" lon="0.42145">
        <ele>1463.2</ele>
        <time>2017-04-16T11:20:23Z</time>
      </trkpt>
      <trkpt lat="42.79848" lon="0.42148">
        <ele>1458.3</ele>
        <time>2017-04-16T11:20:25Z</time>
      </trkpt>
      <trkpt lat="42.79862" lon="0.42144">
        <ele>1457</ele>
        <time>2017-04-16T11:20:27Z</time>
      </trkpt>
      <trkpt lat="42.7987" lon="0.4214">
        <ele>1452.5</ele>
        <time>2017-04-16T11:20:28Z</time>
      </trkpt>
      <trkpt lat="42.79877" lon="0.42134">
        <ele>1447.2</ele>
        <time>2017-04-16T11:20:29Z</time>
      </trkpt>
      <trkpt lat="42.7989" lon="0.42124">
        <ele>1442</ele>
        <time>2017-04-16T11:20:31Z</time>
      </trkpt>
      <trkpt lat="42.79903" lon="0.42116">
        <ele>1439</ele>
        <time>2017-04-16T11:20:33Z</time>
      </trkpt>
      <trkpt lat="42.79916" lon="0.42108">
        <ele>1437.5</ele>
        <time>2017-04-16T11:20:35Z</time>
      </trkpt>
      <trkpt lat="42.79929" lon="0.42101">
        <ele>1435</ele>
        <time>2017-04-16T11:20:37Z</time>
      </trkpt>
      <trkpt lat="42.79943" lon="0.42096">
        <ele>1431.5</ele>
        <time>2017-04-16T11:20:39Z</time>
      </trkpt>
      <trkpt lat="42.79957" lon="0.42095">
        <ele>1428</ele>
        <time>2017-04-16T11:20:41Z</time>
      </trkpt>
      <trkpt lat="42.7997" lon="0.42097">
        <ele>1427</ele>
        <time>2017-04-16T11:20:43Z</time>
      </trkpt>
      <trkpt lat="42.79983" lon="0.42099">
        <ele>1425.7</ele>
        <time>2017-04-16T11:20:45Z</time>
      </trkpt>
      <trkpt lat="42.79996" lon="0.42098">
        <ele>1424.5</ele>
        <time>2017-04-16T11:20:47Z</time>
      </trkpt>
      <trkpt lat="42.80009" lon="0.42098">
        <ele>1421</ele>
        <time>2017-04-16T11:20:49Z</time>
      </trkpt>
      <trkpt lat="42.80021" lon="0.42097">
        <ele>1420</ele>
        <time>2017-04-16T11:20:51Z</time>
      </trkpt>
      <trkpt lat="42.80032" lon="0.4209">
        <ele>1418</ele>
        <time>2017-04-16T11:20:53Z</time>
      </trkpt>
      <trkpt lat="42.80044" lon="0.42082">
        <ele>1417</ele>
        <time>2017-04-16T11:20:55Z</time>
      </trkpt>
      <trkpt lat="42.80054" lon="0.42076">
        <ele>1414.7</ele>
        <time>2017-04-16T11:20:57Z</time>
      </trkpt>
      <trkpt lat="42.80065" lon="0.42071">
        <ele>1414.7</ele>
        <time>2017-04-16T11:20:59Z</time>
      </trkpt>
      <trkpt lat="42.80079" lon="0.42064">
        <ele>1415</ele>
        <time>2017-04-16T11:21:01Z</time>
      </trkpt>
      <trkpt lat="42.80093" lon="0.42058">
        <ele>1413.5</ele>
        <time>2017-04-16T11:21:03Z</time>
      </trkpt>
      <trkpt lat="42.80105" lon="0.42061">
        <ele>1414.2</ele>
        <time>2017-04-16T11:21:05Z</time>
      </trkpt>
      <trkpt lat="42.80115" lon="0.42072">
        <ele>1415</ele>
        <time>2017-04-16T11:21:07Z</time>
      </trkpt>
      <trkpt lat="42.80128" lon="0.42076">
        <ele>1417.2</ele>
        <time>2017-04-16T11:21:09Z</time>
      </trkpt>
      <trkpt lat="42.8014" lon="0.42066">
        <ele>1417.2</ele>
        <time>2017-04-16T11:21:11Z</time>
      </trkpt>
      <trkpt lat="42.80142" lon="0.42046">
        <ele>1420</ele>
        <time>2017-04-16T11:21:13Z</time>
      </trkpt>
      <trkpt lat="42.80134" lon="0.42028">
        <ele>1421</ele>
        <time>2017-04-16T11:21:15Z</time>
      </trkpt>
      <trkpt lat="42.8012" lon="0.42012">
        <ele>1420</ele>
        <time>2017-04-16T11:21:17Z</time>
      </trkpt>
      <trkpt lat="42.80111" lon="0.42007">
        <ele>1419</ele>
        <time>2017-04-16T11:21:18Z</time>
      </trkpt>
      <trkpt lat="42.801" lon="0.42003">
        <ele>1415</ele>
        <time>2017-04-16T11:21:19Z</time>
      </trkpt>
      <trkpt lat="42.80089" lon="0.42001">
        <ele>1413.5</ele>
        <time>2017-04-16T11:21:20Z</time>
      </trkpt>
      <trkpt lat="42.80077" lon="0.42">
        <ele>1412</ele>
        <time>2017-04-16T11:21:21Z</time>
      </trkpt>
      <trkpt lat="42.80065" lon="0.41999">
        <ele>1409.5</ele>
        <time>2017-04-16T11:21:22Z</time>
      </trkpt>
      <trkpt lat="42.80053" lon="0.41999">
        <ele>1407.5</ele>
        <time>2017-04-16T11:21:23Z</time>
      </trkpt>
      <trkpt lat="42.80042" lon="0.41999">
        <ele>1407.7</ele>
        <time>2017-04-16T11:21:24Z</time>
      </trkpt>
      <trkpt lat="42.80031" lon="0.42001">
        <ele>1407.7</ele>
        <time>2017-04-16T11:21:25Z</time>
      </trkpt>
      <trkpt lat="42.8002" lon="0.42003">
        <ele>1407</ele>
        <time>2017-04-16T11:21:26Z</time>
      </trkpt>
      <trkpt lat="42.80009" lon="0.42005">
        <ele>1406.5</ele>
        <time>2017-04-16T11:21:27Z</time>
      </trkpt>
      <trkpt lat="42.79999" lon="0.42007">
        <ele>1406</ele>
        <time>2017-04-16T11:21:28Z</time>
      </trkpt>
      <trkpt lat="42.79988" lon="0.42009">
        <ele>1406.5</ele>
        <time>2017-04-16T11:21:29Z</time>
      </trkpt>
      <trkpt lat="42.79979" lon="0.42012">
        <ele>1408</ele>
        <time>2017-04-16T11:21:30Z</time>
      </trkpt>
      <trkpt lat="42.79971" lon="0.42015">
        <ele>1408.5</ele>
        <time>2017-04-16T11:21:31Z</time>
      </trkpt>
      <trkpt lat="42.79961" lon="0.42015">
        <ele>1408.5</ele>
        <time>2017-04-16T11:21:32Z</time>
      </trkpt>
      <trkpt lat="42.7995" lon="0.42011">
        <ele>1409</ele>
        <time>2017-04-16T11:21:33Z</time>
      </trkpt>
      <trkpt lat="42.7994" lon="0.42002">
        <ele>1406</ele>
        <time>2017-04-16T11:21:34Z</time>
      </trkpt>
      <trkpt lat="42.79933" lon="0.41989">
        <ele>1406</ele>
        <time>2017-04-16T11:21:35Z</time>
      </trkpt>
      <trkpt lat="42.79929" lon="0.41976">
        <ele>1402</ele>
        <time>2017-04-16T11:21:36Z</time>
      </trkpt>
      <trkpt lat="42.79926" lon="0.41965">
        <ele>1404</ele>
        <time>2017-04-16T11:21:37Z</time>
      </trkpt>
      <trkpt lat="42.79917" lon="0.41945">
        <ele>1405.5</ele>
        <time>2017-04-16T11:21:39Z</time>
      </trkpt>
      <trkpt lat="42.7991" lon="0.41936">
        <ele>1408.5</ele>
        <time>2017-04-16T11:21:40Z</time>
      </trkpt>
      <trkpt lat="42.79903" lon="0.41926">
        <ele>1408.5</ele>
        <time>2017-04-16T11:21:41Z</time>
      </trkpt>
      <trkpt lat="42.79897" lon="0.41915">
        <ele>1409.7</ele>
        <time>2017-04-16T11:21:42Z</time>
      </trkpt>
      <trkpt lat="42.79891" lon="0.41903">
        <ele>1406.5</ele>
        <time>2017-04-16T11:21:43Z</time>
      </trkpt>
      <trkpt lat="42.79886" lon="0.41891">
        <ele>1406.5</ele>
        <time>2017-04-16T11:21:44Z</time>
      </trkpt>
      <trkpt lat="42.7988" lon="0.41878">
        <ele>1403</ele>
        <time>2017-04-16T11:21:45Z</time>
      </trkpt>
      <trkpt lat="42.79875" lon="0.41866">
        <ele>1402</ele>
        <time>2017-04-16T11:21:46Z</time>
      </trkpt>
      <trkpt lat="42.79871" lon="0.41855">
        <ele>1401</ele>
        <time>2017-04-16T11:21:47Z</time>
      </trkpt>
      <trkpt lat="42.79866" lon="0.41843">
        <ele>1399.5</ele>
        <time>2017-04-16T11:21:48Z</time>
      </trkpt>
      <trkpt lat="42.79862" lon="0.4183">
        <ele>1397</ele>
        <time>2017-04-16T11:21:49Z</time>
      </trkpt>
      <trkpt lat="42.79858" lon="0.41815">
        <ele>1396</ele>
        <time>2017-04-16T11:21:50Z</time>
      </trkpt>
      <trkpt lat="42.79853" lon="0.41801">
        <ele>1396</ele>
        <time>2017-04-16T11:21:51Z</time>
      </trkpt>
      <trkpt lat="42.79849" lon="0.41788">
        <ele>1395</ele>
        <time>2017-04-16T11:21:52Z</time>
      </trkpt>
      <trkpt lat="42.79845" lon="0.41777">
        <ele>1395</ele>
        <time>2017-04-16T11:21:53Z</time>
      </trkpt>
      <trkpt lat="42.79837" lon="0.41756">
        <ele>1392.7</ele>
        <time>2017-04-16T11:21:55Z</time>
      </trkpt>
      <trkpt lat="42.79833" lon="0.41744">
        <ele>1392.7</ele>
        <time>2017-04-16T11:21:56Z</time>
      </trkpt>
      <trkpt lat="42.79829" lon="0.41731">
        <ele>1390.5</ele>
        <time>2017-04-16T11:21:57Z</time>
      </trkpt>
      <trkpt lat="42.79823" lon="0.41718">
        <ele>1389.7</ele>
        <time>2017-04-16T11:21:58Z</time>
      </trkpt>
      <trkpt lat="42.79819" lon="0.41705">
        <ele>1389</ele>
        <time>2017-04-16T11:21:59Z</time>
      </trkpt>
      <trkpt lat="42.79814" lon="0.41694">
        <ele>1386.5</ele>
        <time>2017-04-16T11:22:00Z</time>
      </trkpt>
      <trkpt lat="42.7981" lon="0.41682">
        <ele>1385.2</ele>
        <time>2017-04-16T11:22:01Z</time>
      </trkpt>
      <trkpt lat="42.79805" lon="0.41671">
        <ele>1382.5</ele>
        <time>2017-04-16T11:22:02Z</time>
      </trkpt>
      <trkpt lat="42.798" lon="0.41659">
        <ele>1381.7</ele>
        <time>2017-04-16T11:22:03Z</time>
      </trkpt>
      <trkpt lat="42.79794" lon="0.41646">
        <ele>1378.5</ele>
        <time>2017-04-16T11:22:04Z</time>
      </trkpt>
      <trkpt lat="42.79788" lon="0.41632">
        <ele>1376</ele>
        <time>2017-04-16T11:22:05Z</time>
      </trkpt>
      <trkpt lat="42.79783" lon="0.41618">
        <ele>1374</ele>
        <time>2017-04-16T11:22:06Z</time>
      </trkpt>
      <trkpt lat="42.79778" lon="0.41605">
        <ele>1374</ele>
        <time>2017-04-16T11:22:07Z</time>
      </trkpt>
      <trkpt lat="42.79773" lon="0.41593">
        <ele>1373</ele>
        <time>2017-04-16T11:22:08Z</time>
      </trkpt>
      <trkpt lat="42.79768" lon="0.41582">
        <ele>1370.5</ele>
        <time>2017-04-16T11:22:09Z</time>
      </trkpt>
      <trkpt lat="42.79763" lon="0.41571">
        <ele>1370.5</ele>
        <time>2017-04-16T11:22:10Z</time>
      </trkpt>
      <trkpt lat="42.79757" lon="0.41559">
        <ele>1368</ele>
        <time>2017-04-16T11:22:11Z</time>
      </trkpt>
      <trkpt lat="42.79751" lon="0.41546">
        <ele>1367</ele>
        <time>2017-04-16T11:22:12Z</time>
      </trkpt>
      <trkpt lat="42.79746" lon="0.41534">
        <ele>1366</ele>
        <time>2017-04-16T11:22:13Z</time>
      </trkpt>
      <trkpt lat="42.79742" lon="0.41523">
        <ele>1364</ele>
        <time>2017-04-16T11:22:14Z</time>
      </trkpt>
      <trkpt lat="42.79738" lon="0.41511">
        <ele>1363</ele>
        <time>2017-04-16T11:22:15Z</time>
      </trkpt>
      <trkpt lat="42.79735" lon="0.41499">
        <ele>1359.5</ele>
        <time>2017-04-16T11:22:16Z</time>
      </trkpt>
      <trkpt lat="42.79732" lon="0.41487">
        <ele>1358.2</ele>
        <time>2017-04-16T11:22:17Z</time>
      </trkpt>
      <trkpt lat="42.79729" lon="0.41473">
        <ele>1357</ele>
        <time>2017-04-16T11:22:18Z</time>
      </trkpt>
      <trkpt lat="42.79725" lon="0.41459">
        <ele>1354</ele>
        <time>2017-04-16T11:22:19Z</time>
      </trkpt>
      <trkpt lat="42.79721" lon="0.41446">
        <ele>1349.5</ele>
        <time>2017-04-16T11:22:20Z</time>
      </trkpt>
      <trkpt lat="42.79717" lon="0.41434">
        <ele>1348.7</ele>
        <time>2017-04-16T11:22:21Z</time>
      </trkpt>
      <trkpt lat="42.79712" lon="0.41422">
        <ele>1346.5</ele>
        <time>2017-04-16T11:22:22Z</time>
      </trkpt>
      <trkpt lat="42.79708" lon="0.41409">
        <ele>1346.5</ele>
        <time>2017-04-16T11:22:23Z</time>
      </trkpt>
      <trkpt lat="42.79703" lon="0.41397">
        <ele>1345</ele>
        <time>2017-04-16T11:22:24Z</time>
      </trkpt>
      <trkpt lat="42.79698" lon="0.41385">
        <ele>1345</ele>
        <time>2017-04-16T11:22:25Z</time>
      </trkpt>
      <trkpt lat="42.79692" lon="0.41373">
        <ele>1343.5</ele>
        <time>2017-04-16T11:22:26Z</time>
      </trkpt>
      <trkpt lat="42.79686" lon="0.41361">
        <ele>1342.7</ele>
        <time>2017-04-16T11:22:27Z</time>
      </trkpt>
      <trkpt lat="42.7968" lon="0.4135">
        <ele>1340</ele>
        <time>2017-04-16T11:22:28Z</time>
      </trkpt>
      <trkpt lat="42.79673" lon="0.4134">
        <ele>1339</ele>
        <time>2017-04-16T11:22:29Z</time>
      </trkpt>
      <trkpt lat="42.79667" lon="0.4133">
        <ele>1335.7</ele>
        <time>2017-04-16T11:22:30Z</time>
      </trkpt>
      <trkpt lat="42.7966" lon="0.41319">
        <ele>1335</ele>
        <time>2017-04-16T11:22:31Z</time>
      </trkpt>
      <trkpt lat="42.79653" lon="0.41309">
        <ele>1335</ele>
        <time>2017-04-16T11:22:32Z</time>
      </trkpt>
      <trkpt lat="42.79645" lon="0.41298">
        <ele>1329</ele>
        <time>2017-04-16T11:22:33Z</time>
      </trkpt>
      <trkpt lat="42.79638" lon="0.41288">
        <ele>1329</ele>
        <time>2017-04-16T11:22:34Z</time>
      </trkpt>
      <trkpt lat="42.7963" lon="0.41278">
        <ele>1325.5</ele>
        <time>2017-04-16T11:22:35Z</time>
      </trkpt>
      <trkpt lat="42.79623" lon="0.41268">
        <ele>1324</ele>
        <time>2017-04-16T11:22:36Z</time>
      </trkpt>
      <trkpt lat="42.79615" lon="0.41258">
        <ele>1324</ele>
        <time>2017-04-16T11:22:37Z</time>
      </trkpt>
      <trkpt lat="42.79607" lon="0.41246">
        <ele>1321</ele>
        <time>2017-04-16T11:22:38Z</time>
      </trkpt>
      <trkpt lat="42.79599" lon="0.41234">
        <ele>1317</ele>
        <time>2017-04-16T11:22:39Z</time>
      </trkpt>
      <trkpt lat="42.79592" lon="0.41223">
        <ele>1317</ele>
        <time>2017-04-16T11:22:40Z</time>
      </trkpt>
      <trkpt lat="42.79585" lon="0.41213">
        <ele>1316.5</ele>
        <time>2017-04-16T11:22:41Z</time>
      </trkpt>
      <trkpt lat="42.79578" lon="0.41203">
        <ele>1315.5</ele>
        <time>2017-04-16T11:22:42Z</time>
      </trkpt>
      <trkpt lat="42.79572" lon="0.41192">
        <ele>1315.2</ele>
        <time>2017-04-16T11:22:43Z</time>
      </trkpt>
      <trkpt lat="42.79565" lon="0.41181">
        <ele>1313</ele>
        <time>2017-04-16T11:22:44Z</time>
      </trkpt>
      <trkpt lat="42.79558" lon="0.41169">
        <ele>1313</ele>
        <time>2017-04-16T11:22:45Z</time>
      </trkpt>
      <trkpt lat="42.79551" lon="0.41156">
        <ele>1312</ele>
        <time>2017-04-16T11:22:46Z</time>
      </trkpt>
      <trkpt lat="42.79546" lon="0.41144">
        <ele>1309</ele>
        <time>2017-04-16T11:22:47Z</time>
      </trkpt>
      <trkpt lat="42.79542" lon="0.41132">
        <ele>1308</ele>
        <time>2017-04-16T11:22:48Z</time>
      </trkpt>
      <trkpt lat="42.79537" lon="0.4112">
        <ele>1306</ele>
        <time>2017-04-16T11:22:49Z</time>
      </trkpt>
      <trkpt lat="42.79534" lon="0.41108">
        <ele>1305.5</ele>
        <time>2017-04-16T11:22:50Z</time>
      </trkpt>
      <trkpt lat="42.79531" lon="0.41096">
        <ele>1304</ele>
        <time>2017-04-16T11:22:51Z</time>
      </trkpt>
      <trkpt lat="42.79528" lon="0.41083">
        <ele>1303.5</ele>
        <time>2017-04-16T11:22:52Z</time>
      </trkpt>
      <trkpt lat="42.79526" lon="0.4107">
        <ele>1299</ele>
        <time>2017-04-16T11:22:53Z</time>
      </trkpt>
      <trkpt lat="42.79525" lon="0.41056">
        <ele>1299</ele>
        <time>2017-04-16T11:22:54Z</time>
      </trkpt>
      <trkpt lat="42.79525" lon="0.41042">
        <ele>1297</ele>
        <time>2017-04-16T11:22:55Z</time>
      </trkpt>
      <trkpt lat="42.79524" lon="0.41029">
        <ele>1295</ele>
        <time>2017-04-16T11:22:56Z</time>
      </trkpt>
      <trkpt lat="42.79523" lon="0.41016">
        <ele>1295</ele>
        <time>2017-04-16T11:22:57Z</time>
      </trkpt>
      <trkpt lat="42.79523" lon="0.41004">
        <ele>1293</ele>
        <time>2017-04-16T11:22:58Z</time>
      </trkpt>
      <trkpt lat="42.79522" lon="0.40992">
        <ele>1292</ele>
        <time>2017-04-16T11:22:59Z</time>
      </trkpt>
      <trkpt lat="42.79522" lon="0.40978">
        <ele>1288.5</ele>
        <time>2017-04-16T11:23:00Z</time>
      </trkpt>
      <trkpt lat="42.79521" lon="0.40965">
        <ele>1287.2</ele>
        <time>2017-04-16T11:23:01Z</time>
      </trkpt>
      <trkpt lat="42.79521" lon="0.40952">
        <ele>1286</ele>
        <time>2017-04-16T11:23:02Z</time>
      </trkpt>
      <trkpt lat="42.79522" lon="0.40939">
        <ele>1286</ele>
        <time>2017-04-16T11:23:03Z</time>
      </trkpt>
      <trkpt lat="42.79522" lon="0.40927">
        <ele>1284.5</ele>
        <time>2017-04-16T11:23:04Z</time>
      </trkpt>
      <trkpt lat="42.79523" lon="0.40903">
        <ele>1282</ele>
        <time>2017-04-16T11:23:06Z</time>
      </trkpt>
      <trkpt lat="42.79523" lon="0.4089">
        <ele>1281.5</ele>
        <time>2017-04-16T11:23:07Z</time>
      </trkpt>
      <trkpt lat="42.79523" lon="0.40877">
        <ele>1278</ele>
        <time>2017-04-16T11:23:08Z</time>
      </trkpt>
      <trkpt lat="42.79523" lon="0.40864">
        <ele>1275</ele>
        <time>2017-04-16T11:23:09Z</time>
      </trkpt>
      <trkpt lat="42.79523" lon="0.40851">
        <ele>1275</ele>
        <time>2017-04-16T11:23:10Z</time>
      </trkpt>
      <trkpt lat="42.79523" lon="0.40839">
        <ele>1274</ele>
        <time>2017-04-16T11:23:11Z</time>
      </trkpt>
      <trkpt lat="42.79524" lon="0.40826">
        <ele>1273.5</ele>
        <time>2017-04-16T11:23:12Z</time>
      </trkpt>
      <trkpt lat="42.79524" lon="0.40813">
        <ele>1270.5</ele>
        <time>2017-04-16T11:23:13Z</time>
      </trkpt>
      <trkpt lat="42.79524" lon="0.40799">
        <ele>1269.2</ele>
        <time>2017-04-16T11:23:14Z</time>
      </trkpt>
      <trkpt lat="42.79525" lon="0.40786">
        <ele>1268</ele>
        <time>2017-04-16T11:23:15Z</time>
      </trkpt>
      <trkpt lat="42.79525" lon="0.40773">
        <ele>1266.5</ele>
        <time>2017-04-16T11:23:16Z</time>
      </trkpt>
      <trkpt lat="42.79526" lon="0.40761">
        <ele>1265</ele>
        <time>2017-04-16T11:23:17Z</time>
      </trkpt>
      <trkpt lat="42.79526" lon="0.40736">
        <ele>1262.5</ele>
        <time>2017-04-16T11:23:19Z</time>
      </trkpt>
      <trkpt lat="42.79527" lon="0.40724">
        <ele>1262.5</ele>
        <time>2017-04-16T11:23:20Z</time>
      </trkpt>
      <trkpt lat="42.79527" lon="0.40712">
        <ele>1261.7</ele>
        <time>2017-04-16T11:23:21Z</time>
      </trkpt>
      <trkpt lat="42.79527" lon="0.40699">
        <ele>1261</ele>
        <time>2017-04-16T11:23:22Z</time>
      </trkpt>
      <trkpt lat="42.79527" lon="0.40686">
        <ele>1259.5</ele>
        <time>2017-04-16T11:23:23Z</time>
      </trkpt>
      <trkpt lat="42.79528" lon="0.40672">
        <ele>1258.7</ele>
        <time>2017-04-16T11:23:24Z</time>
      </trkpt>
      <trkpt lat="42.79528" lon="0.40659">
        <ele>1255</ele>
        <time>2017-04-16T11:23:25Z</time>
      </trkpt>
      <trkpt lat="42.79529" lon="0.40646">
        <ele>1254</ele>
        <time>2017-04-16T11:23:26Z</time>
      </trkpt>
      <trkpt lat="42.7953" lon="0.40634">
        <ele>1252.5</ele>
        <time>2017-04-16T11:23:27Z</time>
      </trkpt>
      <trkpt lat="42.79531" lon="0.40621">
        <ele>1252.5</ele>
        <time>2017-04-16T11:23:28Z</time>
      </trkpt>
      <trkpt lat="42.79533" lon="0.40609">
        <ele>1251.7</ele>
        <time>2017-04-16T11:23:29Z</time>
      </trkpt>
      <trkpt lat="42.79535" lon="0.40597">
        <ele>1248.5</ele>
        <time>2017-04-16T11:23:30Z</time>
      </trkpt>
      <trkpt lat="42.79537" lon="0.40584">
        <ele>1247.2</ele>
        <time>2017-04-16T11:23:31Z</time>
      </trkpt>
      <trkpt lat="42.79539" lon="0.40572">
        <ele>1244.5</ele>
        <time>2017-04-16T11:23:32Z</time>
      </trkpt>
      <trkpt lat="42.79541" lon="0.4056">
        <ele>1243.7</ele>
        <time>2017-04-16T11:23:33Z</time>
      </trkpt>
      <trkpt lat="42.79547" lon="0.40537">
        <ele>1242.5</ele>
        <time>2017-04-16T11:23:35Z</time>
      </trkpt>
      <trkpt lat="42.79553" lon="0.40515">
        <ele>1239</ele>
        <time>2017-04-16T11:23:37Z</time>
      </trkpt>
      <trkpt lat="42.7956" lon="0.40495">
        <ele>1235</ele>
        <time>2017-04-16T11:23:39Z</time>
      </trkpt>
      <trkpt lat="42.79569" lon="0.40479">
        <ele>1234</ele>
        <time>2017-04-16T11:23:41Z</time>
      </trkpt>
      <trkpt lat="42.79577" lon="0.40463">
        <ele>1227</ele>
        <time>2017-04-16T11:23:43Z</time>
      </trkpt>
      <trkpt lat="42.79586" lon="0.40447">
        <ele>1226</ele>
        <time>2017-04-16T11:23:45Z</time>
      </trkpt>
      <trkpt lat="42.79595" lon="0.40433">
        <ele>1225</ele>
        <time>2017-04-16T11:23:47Z</time>
      </trkpt>
      <trkpt lat="42.79605" lon="0.4042">
        <ele>1222.5</ele>
        <time>2017-04-16T11:23:49Z</time>
      </trkpt>
      <trkpt lat="42.79616" lon="0.40403">
        <ele>1219.5</ele>
        <time>2017-04-16T11:23:51Z</time>
      </trkpt>
      <trkpt lat="42.79626" lon="0.40384">
        <ele>1218</ele>
        <time>2017-04-16T11:23:53Z</time>
      </trkpt>
      <trkpt lat="42.79635" lon="0.40369">
        <ele>1215.7</ele>
        <time>2017-04-16T11:23:55Z</time>
      </trkpt>
      <trkpt lat="42.79649" lon="0.40361">
        <ele>1211.2</ele>
        <time>2017-04-16T11:23:57Z</time>
      </trkpt>
      <trkpt lat="42.79655" lon="0.40356">
        <ele>1205.5</ele>
        <time>2017-04-16T11:23:58Z</time>
      </trkpt>
      <trkpt lat="42.79668" lon="0.40345">
        <ele>1202</ele>
        <time>2017-04-16T11:24:00Z</time>
      </trkpt>
      <trkpt lat="42.79681" lon="0.40334">
        <ele>1198</ele>
        <time>2017-04-16T11:24:02Z</time>
      </trkpt>
      <trkpt lat="42.79692" lon="0.4032">
        <ele>1196.5</ele>
        <time>2017-04-16T11:24:04Z</time>
      </trkpt>
      <trkpt lat="42.79703" lon="0.40307">
        <ele>1194</ele>
        <time>2017-04-16T11:24:06Z</time>
      </trkpt>
      <trkpt lat="42.79716" lon="0.40302">
        <ele>1190.5</ele>
        <time>2017-04-16T11:24:08Z</time>
      </trkpt>
      <trkpt lat="42.79731" lon="0.40305">
        <ele>1186</ele>
        <time>2017-04-16T11:24:10Z</time>
      </trkpt>
      <trkpt lat="42.79744" lon="0.4031">
        <ele>1185</ele>
        <time>2017-04-16T11:24:12Z</time>
      </trkpt>
      <trkpt lat="42.79757" lon="0.40316">
        <ele>1183.5</ele>
        <time>2017-04-16T11:24:14Z</time>
      </trkpt>
      <trkpt lat="42.79771" lon="0.40322">
        <ele>1178.5</ele>
        <time>2017-04-16T11:24:16Z</time>
      </trkpt>
      <trkpt lat="42.79778" lon="0.40325">
        <ele>1172.5</ele>
        <time>2017-04-16T11:24:17Z</time>
      </trkpt>
      <trkpt lat="42.79791" lon="0.40334">
        <ele>1171</ele>
        <time>2017-04-16T11:24:19Z</time>
      </trkpt>
      <trkpt lat="42.79801" lon="0.40346">
        <ele>1168</ele>
        <time>2017-04-16T11:24:21Z</time>
      </trkpt>
      <trkpt lat="42.7981" lon="0.40361">
        <ele>1164.7</ele>
        <time>2017-04-16T11:24:23Z</time>
      </trkpt>
      <trkpt lat="42.79816" lon="0.40381">
        <ele>1163.3</ele>
        <time>2017-04-16T11:24:25Z</time>
      </trkpt>
      <trkpt lat="42.7982" lon="0.40405">
        <ele>1156.7</ele>
        <time>2017-04-16T11:24:27Z</time>
      </trkpt>
      <trkpt lat="42.79821" lon="0.40417">
        <ele>1153.5</ele>
        <time>2017-04-16T11:24:28Z</time>
      </trkpt>
      <trkpt lat="42.79821" lon="0.4043">
        <ele>1153.5</ele>
        <time>2017-04-16T11:24:29Z</time>
      </trkpt>
      <trkpt lat="42.79821" lon="0.40454">
        <ele>1152</ele>
        <time>2017-04-16T11:24:31Z</time>
      </trkpt>
      <trkpt lat="42.79821" lon="0.40466">
        <ele>1150</ele>
        <time>2017-04-16T11:24:32Z</time>
      </trkpt>
      <trkpt lat="42.79824" lon="0.40489">
        <ele>1146.5</ele>
        <time>2017-04-16T11:24:34Z</time>
      </trkpt>
      <trkpt lat="42.79827" lon="0.40511">
        <ele>1143.5</ele>
        <time>2017-04-16T11:24:36Z</time>
      </trkpt>
      <trkpt lat="42.79829" lon="0.40534">
        <ele>1140</ele>
        <time>2017-04-16T11:24:38Z</time>
      </trkpt>
      <trkpt lat="42.79831" lon="0.40556">
        <ele>1139</ele>
        <time>2017-04-16T11:24:40Z</time>
      </trkpt>
      <trkpt lat="42.79833" lon="0.40575">
        <ele>1135.7</ele>
        <time>2017-04-16T11:24:42Z</time>
      </trkpt>
      <trkpt lat="42.79835" lon="0.40594">
        <ele>1133.5</ele>
        <time>2017-04-16T11:24:44Z</time>
      </trkpt>
      <trkpt lat="42.79837" lon="0.40617">
        <ele>1130.5</ele>
        <time>2017-04-16T11:24:46Z</time>
      </trkpt>
      <trkpt lat="42.79838" lon="0.40629">
        <ele>1129.2</ele>
        <time>2017-04-16T11:24:47Z</time>
      </trkpt>
      <trkpt lat="42.79839" lon="0.40641">
        <ele>1125</ele>
        <time>2017-04-16T11:24:48Z</time>
      </trkpt>
      <trkpt lat="42.79839" lon="0.40663">
        <ele>1125</ele>
        <time>2017-04-16T11:24:50Z</time>
      </trkpt>
      <trkpt lat="42.79839" lon="0.40683">
        <ele>1126</ele>
        <time>2017-04-16T11:24:52Z</time>
      </trkpt>
      <trkpt lat="42.79839" lon="0.40704">
        <ele>1126</ele>
        <time>2017-04-16T11:24:54Z</time>
      </trkpt>
      <trkpt lat="42.79839" lon="0.40727">
        <ele>1125.2</ele>
        <time>2017-04-16T11:24:56Z</time>
      </trkpt>
      <trkpt lat="42.79839" lon="0.40748">
        <ele>1123</ele>
        <time>2017-04-16T11:24:58Z</time>
      </trkpt>
      <trkpt lat="42.79843" lon="0.40765">
        <ele>1119</ele>
        <time>2017-04-16T11:25:00Z</time>
      </trkpt>
      <trkpt lat="42.7985" lon="0.4078">
        <ele>1115.5</ele>
        <time>2017-04-16T11:25:02Z</time>
      </trkpt>
      <trkpt lat="42.79855" lon="0.40798">
        <ele>1114.7</ele>
        <time>2017-04-16T11:25:04Z</time>
      </trkpt>
      <trkpt lat="42.7986" lon="0.40814">
        <ele>1111.7</ele>
        <time>2017-04-16T11:25:06Z</time>
      </trkpt>
      <trkpt lat="42.79869" lon="0.4083">
        <ele>1110</ele>
        <time>2017-04-16T11:25:08Z</time>
      </trkpt>
      <trkpt lat="42.79877" lon="0.40845">
        <ele>1107</ele>
        <time>2017-04-16T11:25:10Z</time>
      </trkpt>
      <trkpt lat="42.79884" lon="0.40856">
        <ele>1106</ele>
        <time>2017-04-16T11:25:12Z</time>
      </trkpt>
      <trkpt lat="42.79892" lon="0.40867">
        <ele>1104</ele>
        <time>2017-04-16T11:25:14Z</time>
      </trkpt>
      <trkpt lat="42.79899" lon="0.40879">
        <ele>1102</ele>
        <time>2017-04-16T11:25:16Z</time>
      </trkpt>
      <trkpt lat="42.79904" lon="0.40889">
        <ele>1103.2</ele>
        <time>2017-04-16T11:25:18Z</time>
      </trkpt>
      <trkpt lat="42.79912" lon="0.40896">
        <ele>1100.2</ele>
        <time>2017-04-16T11:25:20Z</time>
      </trkpt>
      <trkpt lat="42.79921" lon="0.40886">
        <ele>1092.2</ele>
        <time>2017-04-16T11:25:22Z</time>
      </trkpt>
      <trkpt lat="42.79923" lon="0.40862">
        <ele>1088.5</ele>
        <time>2017-04-16T11:25:24Z</time>
      </trkpt>
      <trkpt lat="42.7992" lon="0.40849">
        <ele>1087</ele>
        <time>2017-04-16T11:25:25Z</time>
      </trkpt>
      <trkpt lat="42.79912" lon="0.40831">
        <ele>1087</ele>
        <time>2017-04-16T11:25:27Z</time>
      </trkpt>
      <trkpt lat="42.79905" lon="0.4081">
        <ele>1085.5</ele>
        <time>2017-04-16T11:25:29Z</time>
      </trkpt>
      <trkpt lat="42.79902" lon="0.40798">
        <ele>1080</ele>
        <time>2017-04-16T11:25:30Z</time>
      </trkpt>
      <trkpt lat="42.79899" lon="0.40784">
        <ele>1080</ele>
        <time>2017-04-16T11:25:31Z</time>
      </trkpt>
      <trkpt lat="42.79895" lon="0.40771">
        <ele>1078</ele>
        <time>2017-04-16T11:25:32Z</time>
      </trkpt>
      <trkpt lat="42.7989" lon="0.40759">
        <ele>1073.7</ele>
        <time>2017-04-16T11:25:33Z</time>
      </trkpt>
      <trkpt lat="42.79885" lon="0.40747">
        <ele>1073</ele>
        <time>2017-04-16T11:25:34Z</time>
      </trkpt>
      <trkpt lat="42.7988" lon="0.40735">
        <ele>1073</ele>
        <time>2017-04-16T11:25:35Z</time>
      </trkpt>
      <trkpt lat="42.79875" lon="0.40724">
        <ele>1073.5</ele>
        <time>2017-04-16T11:25:36Z</time>
      </trkpt>
      <trkpt lat="42.7987" lon="0.40713">
        <ele>1073.7</ele>
        <time>2017-04-16T11:25:37Z</time>
      </trkpt>
      <trkpt lat="42.79865" lon="0.40692">
        <ele>1073.2</ele>
        <time>2017-04-16T11:25:39Z</time>
      </trkpt>
      <trkpt lat="42.79864" lon="0.40673">
        <ele>1071.5</ele>
        <time>2017-04-16T11:25:41Z</time>
      </trkpt>
      <trkpt lat="42.79862" lon="0.40653">
        <ele>1069.5</ele>
        <time>2017-04-16T11:25:43Z</time>
      </trkpt>
      <trkpt lat="42.79861" lon="0.4063">
        <ele>1065</ele>
        <time>2017-04-16T11:25:45Z</time>
      </trkpt>
      <trkpt lat="42.7986" lon="0.40611">
        <ele>1061.5</ele>
        <time>2017-04-16T11:25:47Z</time>
      </trkpt>
      <trkpt lat="42.79864" lon="0.40597">
        <ele>1059</ele>
        <time>2017-04-16T11:25:49Z</time>
      </trkpt>
      <trkpt lat="42.79872" lon="0.40591">
        <ele>1058</ele>
        <time>2017-04-16T11:25:51Z</time>
      </trkpt>
      <trkpt lat="42.79881" lon="0.40592">
        <ele>1054.7</ele>
        <time>2017-04-16T11:25:53Z</time>
      </trkpt>
      <trkpt lat="42.79888" lon="0.40599">
        <ele>1052.5</ele>
        <time>2017-04-16T11:25:55Z</time>
      </trkpt>
      <trkpt lat="42.79895" lon="0.40612">
        <ele>1050</ele>
        <time>2017-04-16T11:25:57Z</time>
      </trkpt>
      <trkpt lat="42.799" lon="0.40628">
        <ele>1048</ele>
        <time>2017-04-16T11:25:59Z</time>
      </trkpt>
      <trkpt lat="42.79907" lon="0.40642">
        <ele>1046.5</ele>
        <time>2017-04-16T11:26:01Z</time>
      </trkpt>
      <trkpt lat="42.79915" lon="0.4065">
        <ele>1046.2</ele>
        <time>2017-04-16T11:26:03Z</time>
      </trkpt>
      <trkpt lat="42.79921" lon="0.4066">
        <ele>1043</ele>
        <time>2017-04-16T11:26:05Z</time>
      </trkpt>
      <trkpt lat="42.79927" lon="0.40673">
        <ele>1038</ele>
        <time>2017-04-16T11:26:07Z</time>
      </trkpt>
      <trkpt lat="42.79931" lon="0.40687">
        <ele>1037</ele>
        <time>2017-04-16T11:26:09Z</time>
      </trkpt>
      <trkpt lat="42.79938" lon="0.40699">
        <ele>1034</ele>
        <time>2017-04-16T11:26:11Z</time>
      </trkpt>
      <trkpt lat="42.79943" lon="0.4071">
        <ele>1029.5</ele>
        <time>2017-04-16T11:26:13Z</time>
      </trkpt>
      <trkpt lat="42.79955" lon="0.4071">
        <ele>1024</ele>
        <time>2017-04-16T11:26:16Z</time>
      </trkpt>
      <trkpt lat="42.79963" lon="0.40697">
        <ele>1021.5</ele>
        <time>2017-04-16T11:26:18Z</time>
      </trkpt>
      <trkpt lat="42.79971" lon="0.40684">
        <ele>1020</ele>
        <time>2017-04-16T11:26:20Z</time>
      </trkpt>
      <trkpt lat="42.79981" lon="0.40674">
        <ele>1009.5</ele>
        <time>2017-04-16T11:26:22Z</time>
      </trkpt>
      <trkpt lat="42.79993" lon="0.40665">
        <ele>1006</ele>
        <time>2017-04-16T11:26:24Z</time>
      </trkpt>
      <trkpt lat="42.80006" lon="0.40662">
        <ele>1001.5</ele>
        <time>2017-04-16T11:26:26Z</time>
      </trkpt>
      <trkpt lat="42.80017" lon="0.4066">
        <ele>1000.2</ele>
        <time>2017-04-16T11:26:28Z</time>
      </trkpt>
      <trkpt lat="42.80028" lon="0.40657">
        <ele>1000</ele>
        <time>2017-04-16T11:26:30Z</time>
      </trkpt>
      <trkpt lat="42.80037" lon="0.40653">
        <ele>999</ele>
        <time>2017-04-16T11:26:32Z</time>
      </trkpt>
      <trkpt lat="42.80047" lon="0.40649">
        <ele>996.5</ele>
        <time>2017-04-16T11:26:34Z</time>
      </trkpt>
      <trkpt lat="42.80059" lon="0.40643">
        <ele>994.5</ele>
        <time>2017-04-16T11:26:37Z</time>
      </trkpt>
      <trkpt lat="42.80071" lon="0.40636">
        <ele>991</ele>
        <time>2017-04-16T11:26:40Z</time>
      </trkpt>
      <trkpt lat="42.80083" lon="0.4063">
        <ele>985.5</ele>
        <time>2017-04-16T11:26:42Z</time>
      </trkpt>
      <trkpt lat="42.80093" lon="0.40625">
        <ele>982.2</ele>
        <time>2017-04-16T11:26:44Z</time>
      </trkpt>
      <trkpt lat="42.80106" lon="0.40622">
        <ele>980.3</ele>
        <time>2017-04-16T11:26:47Z</time>
      </trkpt>
      <trkpt lat="42.80118" lon="0.40616">
        <ele>976</ele>
        <time>2017-04-16T11:26:49Z</time>
      </trkpt>
      <trkpt lat="42.8013" lon="0.40613">
        <ele>973</ele>
        <time>2017-04-16T11:26:51Z</time>
      </trkpt>
      <trkpt lat="42.8014" lon="0.40611">
        <ele>971.5</ele>
        <time>2017-04-16T11:26:53Z</time>
      </trkpt>
      <trkpt lat="42.80151" lon="0.40606">
        <ele>971.2</ele>
        <time>2017-04-16T11:26:55Z</time>
      </trkpt>
      <trkpt lat="42.80161" lon="0.40608">
        <ele>970.2</ele>
        <time>2017-04-16T11:26:57Z</time>
      </trkpt>
      <trkpt lat="42.80171" lon="0.40613">
        <ele>967.7</ele>
        <time>2017-04-16T11:26:59Z</time>
      </trkpt>
      <trkpt lat="42.80181" lon="0.40613">
        <ele>966.2</ele>
        <time>2017-04-16T11:27:01Z</time>
      </trkpt>
      <trkpt lat="42.8019" lon="0.40613">
        <ele>965</ele>
        <time>2017-04-16T11:27:04Z</time>
      </trkpt>
      <trkpt lat="42.80191" lon="0.40616">
        <ele>965.5</ele>
        <time>2017-04-16T11:27:07Z</time>
      </trkpt>
      <trkpt lat="42.80191" lon="0.40616">
        <ele>964</ele>
        <time>2017-04-16T11:27:10Z</time>
      </trkpt>
      <trkpt lat="42.80192" lon="0.40616">
        <ele>963.5</ele>
        <time>2017-04-16T11:27:13Z</time>
      </trkpt>
      <trkpt lat="42.80192" lon="0.40616">
        <ele>963.7</ele>
        <time>2017-04-16T11:27:16Z</time>
      </trkpt>
      <trkpt lat="42.80191" lon="0.40616">
        <ele>964</ele>
        <time>2017-04-16T11:27:19Z</time>
      </trkpt>
      <trkpt lat="42.80191" lon="0.40615">
        <ele>962.5</ele>
        <time>2017-04-16T11:27:22Z</time>
      </trkpt>
      <trkpt lat="42.8019" lon="0.40614">
        <ele>963</ele>
        <time>2017-04-16T11:27:25Z</time>
      </trkpt>
      <trkpt lat="42.80189" lon="0.40614">
        <ele>962.2</ele>
        <time>2017-04-16T11:27:28Z</time>
      </trkpt>
      <trkpt lat="42.80187" lon="0.40614">
        <ele>963.5</ele>
        <time>2017-04-16T11:27:31Z</time>
      </trkpt>
      <trkpt lat="42.80185" lon="0.40614">
        <ele>963</ele>
        <time>2017-04-16T11:27:34Z</time>
      </trkpt>
      <trkpt lat="42.80184" lon="0.40615">
        <ele>962.5</ele>
        <time>2017-04-16T11:27:37Z</time>
      </trkpt>
      <trkpt lat="42.80185" lon="0.40615">
        <ele>964.2</ele>
        <time>2017-04-16T11:27:40Z</time>
      </trkpt>
      <trkpt lat="42.80185" lon="0.40614">
        <ele>964.2</ele>
        <time>2017-04-16T11:27:43Z</time>
      </trkpt>
      <trkpt lat="42.80185" lon="0.40614">
        <ele>963</ele>
        <time>2017-04-16T11:27:46Z</time>
      </trkpt>
      <trkpt lat="42.80185" lon="0.40614">
        <ele>962.5</ele>
        <time>2017-04-16T11:27:49Z</time>
      </trkpt>
      <trkpt lat="42.80186" lon="0.40613">
        <ele>962</ele>
        <time>2017-04-16T11:27:52Z</time>
      </trkpt>
      <trkpt lat="42.80187" lon="0.40613">
        <ele>964</ele>
        <time>2017-04-16T11:27:55Z</time>
      </trkpt>
      <trkpt lat="42.80187" lon="0.40612">
        <ele>962.5</ele>
        <time>2017-04-16T11:27:58Z</time>
      </trkpt>
      <trkpt lat="42.80187" lon="0.40611">
        <ele>963</ele>
        <time>2017-04-16T11:28:01Z</time>
      </trkpt>
      <trkpt lat="42.80187" lon="0.40611">
        <ele>963.5</ele>
        <time>2017-04-16T11:28:04Z</time>
      </trkpt>
      <trkpt lat="42.80187" lon="0.4061">
        <ele>963</ele>
        <time>2017-04-16T11:28:07Z</time>
      </trkpt>
      <trkpt lat="42.80186" lon="0.40609">
        <ele>964</ele>
        <time>2017-04-16T11:28:10Z</time>
      </trkpt>
      <trkpt lat="42.80186" lon="0.40608">
        <ele>965</ele>
        <time>2017-04-16T11:28:13Z</time>
      </trkpt>
      <trkpt lat="42.80185" lon="0.40608">
        <ele>963</ele>
        <time>2017-04-16T11:28:16Z</time>
      </trkpt>
      <trkpt lat="42.80185" lon="0.40608">
        <ele>963</ele>
        <time>2017-04-16T11:28:19Z</time>
      </trkpt>
      <trkpt lat="42.80184" lon="0.40609">
        <ele>963</ele>
        <time>2017-04-16T11:28:22Z</time>
      </trkpt>
      <trkpt lat="42.80184" lon="0.40609">
        <ele>962.7</ele>
        <time>2017-04-16T11:28:25Z</time>
      </trkpt>
      <trkpt lat="42.80183" lon="0.4061">
        <ele>963</ele>
        <time>2017-04-16T11:28:28Z</time>
      </trkpt>
      <trkpt lat="42.80182" lon="0.4061">
        <ele>963.5</ele>
        <time>2017-04-16T11:28:31Z</time>
      </trkpt>
      <trkpt lat="42.80182" lon="0.4061">
        <ele>963</ele>
        <time>2017-04-16T11:28:34Z</time>
      </trkpt>
      <trkpt lat="42.80183" lon="0.4061">
        <ele>963</ele>
        <time>2017-04-16T11:28:37Z</time>
      </trkpt>
      <trkpt lat="42.80183" lon="0.40612">
        <ele>963</ele>
        <time>2017-04-16T11:28:40Z</time>
      </trkpt>
      <trkpt lat="42.80182" lon="0.40612">
        <ele>964</ele>
        <time>2017-04-16T11:28:43Z</time>
      </trkpt>
      <trkpt lat="42.8018" lon="0.40612">
        <ele>963</ele>
        <time>2017-04-16T11:28:46Z</time>
      </trkpt>
      <trkpt lat="42.80179" lon="0.40612">
        <ele>962.5</ele>
        <time>2017-04-16T11:28:49Z</time>
      </trkpt>
      <trkpt lat="42.80178" lon="0.40613">
        <ele>962.5</ele>
        <time>2017-04-16T11:28:52Z</time>
      </trkpt>
      <trkpt lat="42.80177" lon="0.40614">
        <ele>963</ele>
        <time>2017-04-16T11:28:55Z</time>
      </trkpt>
      <trkpt lat="42.80178" lon="0.40615">
        <ele>963.2</ele>
        <time>2017-04-16T11:28:58Z</time>
      </trkpt>
      <trkpt lat="42.8018" lon="0.40615">
        <ele>963</ele>
        <time>2017-04-16T11:29:01Z</time>
      </trkpt>
      <trkpt lat="42.80181" lon="0.40616">
        <ele>963</ele>
        <time>2017-04-16T11:29:04Z</time>
      </trkpt>
      <trkpt lat="42.80184" lon="0.40616">
        <ele>963.2</ele>
        <time>2017-04-16T11:29:07Z</time>
      </trkpt>
      <trkpt lat="42.80185" lon="0.40615">
        <ele>963</ele>
        <time>2017-04-16T11:29:10Z</time>
      </trkpt>
      <trkpt lat="42.80186" lon="0.40615">
        <ele>963.7</ele>
        <time>2017-04-16T11:29:13Z</time>
      </trkpt>
      <trkpt lat="42.80187" lon="0.40615">
        <ele>964</ele>
        <time>2017-04-16T11:29:16Z</time>
      </trkpt>
      <trkpt lat="42.80189" lon="0.40614">
        <ele>963.5</ele>
        <time>2017-04-16T11:29:19Z</time>
      </trkpt>
      <trkpt lat="42.80189" lon="0.40615">
        <ele>964</ele>
        <time>2017-04-16T11:29:22Z</time>
      </trkpt>
      <trkpt lat="42.80191" lon="0.40616">
        <ele>963.2</ele>
        <time>2017-04-16T11:29:25Z</time>
      </trkpt>
      <trkpt lat="42.80191" lon="0.40617">
        <ele>963</ele>
        <time>2017-04-16T11:29:28Z</time>
      </trkpt>
      <trkpt lat="42.8019" lon="0.40618">
        <ele>964</ele>
        <time>2017-04-16T11:29:31Z</time>
      </trkpt>
      <trkpt lat="42.8019" lon="0.40618">
        <ele>965</ele>
        <time>2017-04-16T11:29:34Z</time>
      </trkpt>
      <trkpt lat="42.80189" lon="0.40619">
        <ele>963.5</ele>
        <time>2017-04-16T11:29:37Z</time>
      </trkpt>
      <trkpt lat="42.80188" lon="0.40619">
        <ele>963.5</ele>
        <time>2017-04-16T11:29:40Z</time>
      </trkpt>
      <trkpt lat="42.80188" lon="0.40621">
        <ele>964</ele>
        <time>2017-04-16T11:29:43Z</time>
      </trkpt>
      <trkpt lat="42.80188" lon="0.40622">
        <ele>963.2</ele>
        <time>2017-04-16T11:29:46Z</time>
      </trkpt>
      <trkpt lat="42.80188" lon="0.40624">
        <ele>964</ele>
        <time>2017-04-16T11:29:49Z</time>
      </trkpt>
      <trkpt lat="42.80188" lon="0.40626">
        <ele>963.5</ele>
        <time>2017-04-16T11:29:52Z</time>
      </trkpt>
      <trkpt lat="42.80188" lon="0.40627">
        <ele>964</ele>
        <time>2017-04-16T11:29:55Z</time>
      </trkpt>
      <trkpt lat="42.80188" lon="0.40629">
        <ele>964.5</ele>
        <time>2017-04-16T11:29:58Z</time>
      </trkpt>
      <trkpt lat="42.80188" lon="0.4063">
        <ele>964</ele>
        <time>2017-04-16T11:30:01Z</time>
      </trkpt>
      <trkpt lat="42.80188" lon="0.4063">
        <ele>963.7</ele>
        <time>2017-04-16T11:30:04Z</time>
      </trkpt>
      <trkpt lat="42.80188" lon="0.40629">
        <ele>963</ele>
        <time>2017-04-16T11:30:07Z</time>
      </trkpt>
      <trkpt lat="42.80187" lon="0.40629">
        <ele>963.7</ele>
        <time>2017-04-16T11:30:10Z</time>
      </trkpt>
      <trkpt lat="42.80186" lon="0.40627">
        <ele>963.2</ele>
        <time>2017-04-16T11:30:13Z</time>
      </trkpt>
      <trkpt lat="42.80186" lon="0.40626">
        <ele>963</ele>
        <time>2017-04-16T11:30:16Z</time>
      </trkpt>
      <trkpt lat="42.80183" lon="0.40623">
        <ele>963.7</ele>
        <time>2017-04-16T11:30:19Z</time>
      </trkpt>
      <trkpt lat="42.80184" lon="0.40622">
        <ele>965</ele>
        <time>2017-04-16T11:30:22Z</time>
      </trkpt>
      <trkpt lat="42.80186" lon="0.40618">
        <ele>964</ele>
        <time>2017-04-16T11:30:25Z</time>
      </trkpt>
      <trkpt lat="42.80187" lon="0.40613">
        <ele>964.5</ele>
        <time>2017-04-16T11:30:28Z</time>
      </trkpt>
      <trkpt lat="42.80189" lon="0.40608">
        <ele>963.5</ele>
        <time>2017-04-16T11:30:31Z</time>
      </trkpt>
      <trkpt lat="42.80189" lon="0.40607">
        <ele>963</ele>
        <time>2017-04-16T11:30:34Z</time>
      </trkpt>
      <trkpt lat="42.80189" lon="0.40606">
        <ele>963.5</ele>
        <time>2017-04-16T11:30:37Z</time>
      </trkpt>
      <trkpt lat="42.80189" lon="0.40606">
        <ele>964</ele>
        <time>2017-04-16T11:30:40Z</time>
      </trkpt>
      <trkpt lat="42.80188" lon="0.40605">
        <ele>963.2</ele>
        <time>2017-04-16T11:30:43Z</time>
      </trkpt>
      <trkpt lat="42.80188" lon="0.40605">
        <ele>963</ele>
        <time>2017-04-16T11:30:46Z</time>
      </trkpt>
      <trkpt lat="42.80186" lon="0.40604">
        <ele>963.2</ele>
        <time>2017-04-16T11:30:49Z</time>
      </trkpt>
      <trkpt lat="42.80189" lon="0.40605">
        <ele>964.5</ele>
        <time>2017-04-16T11:30:52Z</time>
      </trkpt>
      <trkpt lat="42.80193" lon="0.40604">
        <ele>962.7</ele>
        <time>2017-04-16T11:30:55Z</time>
      </trkpt>
      <trkpt lat="42.80197" lon="0.406">
        <ele>963</ele>
        <time>2017-04-16T11:30:58Z</time>
      </trkpt>
      <trkpt lat="42.80202" lon="0.40598">
        <ele>963.2</ele>
        <time>2017-04-16T11:31:01Z</time>
      </trkpt>
      <trkpt lat="42.80206" lon="0.40595">
        <ele>963.7</ele>
        <time>2017-04-16T11:31:04Z</time>
      </trkpt>
      <trkpt lat="42.80209" lon="0.40593">
        <ele>962.5</ele>
        <time>2017-04-16T11:31:07Z</time>
      </trkpt>
      <trkpt lat="42.80211" lon="0.40595">
        <ele>963</ele>
        <time>2017-04-16T11:31:10Z</time>
      </trkpt>
      <trkpt lat="42.80213" lon="0.40597">
        <ele>963.5</ele>
        <time>2017-04-16T11:31:13Z</time>
      </trkpt>
      <trkpt lat="42.80218" lon="0.40595">
        <ele>963</ele>
        <time>2017-04-16T11:31:16Z</time>
      </trkpt>
      <trkpt lat="42.80222" lon="0.4059">
        <ele>963</ele>
        <time>2017-04-16T11:31:19Z</time>
      </trkpt>
      <trkpt lat="42.80225" lon="0.4058">
        <ele>964</ele>
        <time>2017-04-16T11:31:22Z</time>
      </trkpt>
      <trkpt lat="42.80225" lon="0.40569">
        <ele>964</ele>
        <time>2017-04-16T11:31:25Z</time>
      </trkpt>
      <trkpt lat="42.80225" lon="0.40559">
        <ele>962.2</ele>
        <time>2017-04-16T11:31:28Z</time>
      </trkpt>
      <trkpt lat="42.80224" lon="0.40549">
        <ele>963</ele>
        <time>2017-04-16T11:31:31Z</time>
      </trkpt>
      <trkpt lat="42.80224" lon="0.40538">
        <ele>963.5</ele>
        <time>2017-04-16T11:31:34Z</time>
      </trkpt>
      <trkpt lat="42.80223" lon="0.4053">
        <ele>963</ele>
        <time>2017-04-16T11:31:37Z</time>
      </trkpt>
      <trkpt lat="42.80223" lon="0.40522">
        <ele>964</ele>
        <time>2017-04-16T11:31:40Z</time>
      </trkpt>
      <trkpt lat="42.80222" lon="0.4052">
        <ele>964</ele>
        <time>2017-04-16T11:31:43Z</time>
      </trkpt>
      <trkpt lat="42.80221" lon="0.40517">
        <ele>964</ele>
        <time>2017-04-16T11:31:46Z</time>
      </trkpt>
      <trkpt lat="42.80219" lon="0.40513">
        <ele>963.7</ele>
        <time>2017-04-16T11:31:49Z</time>
      </trkpt>
      <trkpt lat="42.80218" lon="0.40511">
        <ele>963.5</ele>
        <time>2017-04-16T11:31:52Z</time>
      </trkpt>
      <trkpt lat="42.80217" lon="0.4051">
        <ele>964.5</ele>
        <time>2017-04-16T11:31:55Z</time>
      </trkpt>
      <trkpt lat="42.80217" lon="0.40506">
        <ele>963.5</ele>
        <time>2017-04-16T11:31:58Z</time>
      </trkpt>
      <trkpt lat="42.80216" lon="0.40505">
        <ele>963.7</ele>
        <time>2017-04-16T11:32:01Z</time>
      </trkpt>
      <trkpt lat="42.80217" lon="0.40505">
        <ele>964.7</ele>
        <time>2017-04-16T11:32:04Z</time>
      </trkpt>
      <trkpt lat="42.80217" lon="0.40506">
        <ele>964</ele>
        <time>2017-04-16T11:32:07Z</time>
      </trkpt>
      <trkpt lat="42.80218" lon="0.40508">
        <ele>964.7</ele>
        <time>2017-04-16T11:32:10Z</time>
      </trkpt>
      <trkpt lat="42.80219" lon="0.40508">
        <ele>964.2</ele>
        <time>2017-04-16T11:32:13Z</time>
      </trkpt>
      <trkpt lat="42.8022" lon="0.40508">
        <ele>965</ele>
        <time>2017-04-16T11:32:16Z</time>
      </trkpt>
      <trkpt lat="42.8022" lon="0.40508">
        <ele>963.2</ele>
        <time>2017-04-16T11:32:19Z</time>
      </trkpt>
      <trkpt lat="42.80221" lon="0.40507">
        <ele>963.5</ele>
        <time>2017-04-16T11:32:22Z</time>
      </trkpt>
      <trkpt lat="42.80221" lon="0.40507">
        <ele>964</ele>
        <time>2017-04-16T11:32:25Z</time>
      </trkpt>
      <trkpt lat="42.80222" lon="0.40507">
        <ele>963</ele>
        <time>2017-04-16T11:32:28Z</time>
      </trkpt>
      <trkpt lat="42.80222" lon="0.40507">
        <ele>963.5</ele>
        <time>2017-04-16T11:32:31Z</time>
      </trkpt>
      <trkpt lat="42.80223" lon="0.40507">
        <ele>964.5</ele>
        <time>2017-04-16T11:32:34Z</time>
      </trkpt>
      <trkpt lat="42.80222" lon="0.40506">
        <ele>963.5</ele>
        <time>2017-04-16T11:32:37Z</time>
      </trkpt>
      <trkpt lat="42.80222" lon="0.40506">
        <ele>964</ele>
        <time>2017-04-16T11:32:40Z</time>
      </trkpt>
      <trkpt lat="42.80222" lon="0.40506">
        <ele>964</ele>
        <time>2017-04-16T11:32:43Z</time>
      </trkpt>
      <trkpt lat="42.80222" lon="0.40506">
        <ele>963.2</ele>
        <time>2017-04-16T11:32:46Z</time>
      </trkpt>
      <trkpt lat="42.80221" lon="0.40506">
        <ele>963.7</ele>
        <time>2017-04-16T11:32:49Z</time>
      </trkpt>
      <trkpt lat="42.80221" lon="0.40506">
        <ele>964</ele>
        <time>2017-04-16T11:32:52Z</time>
      </trkpt>
      <trkpt lat="42.80221" lon="0.40506">
        <ele>964</ele>
        <time>2017-04-16T11:32:55Z</time>
      </trkpt>
      <trkpt lat="42.80221" lon="0.40506">
        <ele>962.5</ele>
        <time>2017-04-16T11:32:58Z</time>
      </trkpt>
      <trkpt lat="42.80221" lon="0.40507">
        <ele>963.5</ele>
        <time>2017-04-16T11:33:01Z</time>
      </trkpt>
      <trkpt lat="42.80221" lon="0.40507">
        <ele>963.5</ele>
        <time>2017-04-16T11:33:04Z</time>
      </trkpt>
      <trkpt lat="42.80222" lon="0.40507">
        <ele>963.5</ele>
        <time>2017-04-16T11:33:07Z</time>
      </trkpt>
      <trkpt lat="42.80222" lon="0.40507">
        <ele>963.7</ele>
        <time>2017-04-16T11:33:10Z</time>
      </trkpt>
      <trkpt lat="42.80222" lon="0.40508">
        <ele>963</ele>
        <time>2017-04-16T11:33:13Z</time>
      </trkpt>
      <trkpt lat="42.80222" lon="0.40508">
        <ele>963</ele>
        <time>2017-04-16T11:33:16Z</time>
      </trkpt>
      <trkpt lat="42.80222" lon="0.40508">
        <ele>963</ele>
        <time>2017-04-16T11:33:19Z</time>
      </trkpt>
      <trkpt lat="42.80222" lon="0.40508">
        <ele>963.7</ele>
        <time>2017-04-16T11:33:22Z</time>
      </trkpt>
      <trkpt lat="42.80222" lon="0.40508">
        <ele>964</ele>
        <time>2017-04-16T11:33:25Z</time>
      </trkpt>
      <trkpt lat="42.80221" lon="0.40508">
        <ele>964</ele>
        <time>2017-04-16T11:33:28Z</time>
      </trkpt>
      <trkpt lat="42.80221" lon="0.40508">
        <ele>964</ele>
        <time>2017-04-16T11:33:31Z</time>
      </trkpt>
      <trkpt lat="42.80221" lon="0.40508">
        <ele>963</ele>
        <time>2017-04-16T11:33:34Z</time>
      </trkpt>
      <trkpt lat="42.80221" lon="0.40508">
        <ele>962</ele>
        <time>2017-04-16T11:33:37Z</time>
      </trkpt>
      <trkpt lat="42.80221" lon="0.40508">
        <ele>962.7</ele>
        <time>2017-04-16T11:33:40Z</time>
      </trkpt>
      <trkpt lat="42.80221" lon="0.40508">
        <ele>965</ele>
        <time>2017-04-16T11:33:43Z</time>
      </trkpt>
      <trkpt lat="42.80221" lon="0.40508">
        <ele>964.2</ele>
        <time>2017-04-16T11:33:46Z</time>
      </trkpt>
      <trkpt lat="42.80221" lon="0.40508">
        <ele>962.5</ele>
        <time>2017-04-16T11:33:49Z</time>
      </trkpt>
      <trkpt lat="42.80221" lon="0.40508">
        <ele>962.5</ele>
        <time>2017-04-16T11:33:52Z</time>
      </trkpt>
      <trkpt lat="42.8022" lon="0.40508">
        <ele>962.2</ele>
        <time>2017-04-16T11:33:55Z</time>
      </trkpt>
      <trkpt lat="42.8022" lon="0.40508">
        <ele>963</ele>
        <time>2017-04-16T11:33:58Z</time>
      </trkpt>
      <trkpt lat="42.8022" lon="0.40507">
        <ele>964.5</ele>
        <time>2017-04-16T11:34:01Z</time>
      </trkpt>
      <trkpt lat="42.8022" lon="0.40507">
        <ele>964.2</ele>
        <time>2017-04-16T11:34:04Z</time>
      </trkpt>
      <trkpt lat="42.8022" lon="0.40507">
        <ele>964.7</ele>
        <time>2017-04-16T11:34:07Z</time>
      </trkpt>
      <trkpt lat="42.8022" lon="0.40507">
        <ele>963.5</ele>
        <time>2017-04-16T11:34:10Z</time>
      </trkpt>
      <trkpt lat="42.8022" lon="0.40507">
        <ele>964.7</ele>
        <time>2017-04-16T11:34:13Z</time>
      </trkpt>
      <trkpt lat="42.8022" lon="0.40507">
        <ele>964.5</ele>
        <time>2017-04-16T11:34:16Z</time>
      </trkpt>
      <trkpt lat="42.8022" lon="0.40507">
        <ele>963.2</ele>
        <time>2017-04-16T11:34:19Z</time>
      </trkpt>
      <trkpt lat="42.8022" lon="0.40507">
        <ele>963</ele>
        <time>2017-04-16T11:34:22Z</time>
      </trkpt>
      <trkpt lat="42.8022" lon="0.40507">
        <ele>962.5</ele>
        <time>2017-04-16T11:34:25Z</time>
      </trkpt>
      <trkpt lat="42.8022" lon="0.40507">
        <ele>963</ele>
        <time>2017-04-16T11:34:28Z</time>
      </trkpt>
      <trkpt lat="42.8022" lon="0.40507">
        <ele>963.7</ele>
        <time>2017-04-16T11:34:31Z</time>
      </trkpt>
      <trkpt lat="42.8022" lon="0.40507">
        <ele>964</ele>
        <time>2017-04-16T11:34:34Z</time>
      </trkpt>
      <trkpt lat="42.8022" lon="0.40507">
        <ele>963.5</ele>
        <time>2017-04-16T11:34:37Z</time>
      </trkpt>
      <trkpt lat="42.8022" lon="0.40507">
        <ele>963.7</ele>
        <time>2017-04-16T11:34:40Z</time>
      </trkpt>
      <trkpt lat="42.8022" lon="0.40506">
        <ele>963.2</ele>
        <time>2017-04-16T11:34:43Z</time>
      </trkpt>
      <trkpt lat="42.8022" lon="0.40506">
        <ele>963.7</ele>
        <time>2017-04-16T11:34:46Z</time>
      </trkpt>
      <trkpt lat="42.8022" lon="0.40507">
        <ele>964</ele>
        <time>2017-04-16T11:34:49Z</time>
      </trkpt>
      <trkpt lat="42.80221" lon="0.40507">
        <ele>963.2</ele>
        <time>2017-04-16T11:34:52Z</time>
      </trkpt>
      <trkpt lat="42.80221" lon="0.40507">
        <ele>964</ele>
        <time>2017-04-16T11:34:55Z</time>
      </trkpt>
      <trkpt lat="42.80221" lon="0.40507">
        <ele>962.5</ele>
        <time>2017-04-16T11:34:58Z</time>
      </trkpt>
      <trkpt lat="42.80221" lon="0.40507">
        <ele>963</ele>
        <time>2017-04-16T11:35:01Z</time>
      </trkpt>
      <trkpt lat="42.80222" lon="0.40507">
        <ele>963</ele>
        <time>2017-04-16T11:35:04Z</time>
      </trkpt>
      <trkpt lat="42.80222" lon="0.40508">
        <ele>964</ele>
        <time>2017-04-16T11:35:07Z</time>
      </trkpt>
      <trkpt lat="42.80222" lon="0.40507">
        <ele>963.7</ele>
        <time>2017-04-16T11:35:10Z</time>
      </trkpt>
      <trkpt lat="42.80222" lon="0.40507">
        <ele>963.5</ele>
        <time>2017-04-16T11:35:13Z</time>
      </trkpt>
      <trkpt lat="42.80223" lon="0.40507">
        <ele>964.5</ele>
        <time>2017-04-16T11:35:16Z</time>
      </trkpt>
      <trkpt lat="42.80223" lon="0.40507">
        <ele>963.5</ele>
        <time>2017-04-16T11:35:19Z</time>
      </trkpt>
      <trkpt lat="42.80223" lon="0.40507">
        <ele>963.5</ele>
        <time>2017-04-16T11:35:22Z</time>
      </trkpt>
      <trkpt lat="42.80223" lon="0.40507">
        <ele>963.7</ele>
        <time>2017-04-16T11:35:25Z</time>
      </trkpt>
      <trkpt lat="42.80223" lon="0.40507">
        <ele>964.7</ele>
        <time>2017-04-16T11:35:28Z</time>
      </trkpt>
      <trkpt lat="42.80223" lon="0.40506">
        <ele>965</ele>
        <time>2017-04-16T11:35:31Z</time>
      </trkpt>
      <trkpt lat="42.80223" lon="0.40506">
        <ele>964</ele>
        <time>2017-04-16T11:35:34Z</time>
      </trkpt>
      <trkpt lat="42.80223" lon="0.40506">
        <ele>964</ele>
        <time>2017-04-16T11:35:37Z</time>
      </trkpt>
      <trkpt lat="42.80223" lon="0.40506">
        <ele>963.2</ele>
        <time>2017-04-16T11:35:40Z</time>
      </trkpt>
      <trkpt lat="42.80223" lon="0.40506">
        <ele>963.5</ele>
        <time>2017-04-16T11:35:43Z</time>
      </trkpt>
      <trkpt lat="42.80223" lon="0.40506">
        <ele>964</ele>
        <time>2017-04-16T11:35:46Z</time>
      </trkpt>
      <trkpt lat="42.80223" lon="0.40506">
        <ele>963.2</ele>
        <time>2017-04-16T11:35:49Z</time>
      </trkpt>
      <trkpt lat="42.80223" lon="0.40506">
        <ele>963.7</ele>
        <time>2017-04-16T11:35:52Z</time>
      </trkpt>
      <trkpt lat="42.80223" lon="0.40507">
        <ele>964.5</ele>
        <time>2017-04-16T11:35:55Z</time>
      </trkpt>
      <trkpt lat="42.80223" lon="0.40507">
        <ele>963.5</ele>
        <time>2017-04-16T11:35:58Z</time>
      </trkpt>
      <trkpt lat="42.80223" lon="0.40507">
        <ele>964</ele>
        <time>2017-04-16T11:36:01Z</time>
      </trkpt>
      <trkpt lat="42.80223" lon="0.40507">
        <ele>964</ele>
        <time>2017-04-16T11:36:04Z</time>
      </trkpt>
      <trkpt lat="42.80223" lon="0.40507">
        <ele>963.2</ele>
        <time>2017-04-16T11:36:07Z</time>
      </trkpt>
      <trkpt lat="42.80223" lon="0.40507">
        <ele>963</ele>
        <time>2017-04-16T11:36:10Z</time>
      </trkpt>
      <trkpt lat="42.80223" lon="0.40506">
        <ele>963.5</ele>
        <time>2017-04-16T11:36:13Z</time>
      </trkpt>
      <trkpt lat="42.80224" lon="0.40506">
        <ele>962</ele>
        <time>2017-04-16T11:36:16Z</time>
      </trkpt>
      <trkpt lat="42.80224" lon="0.40506">
        <ele>962.2</ele>
        <time>2017-04-16T11:36:19Z</time>
      </trkpt>
      <trkpt lat="42.80224" lon="0.40506">
        <ele>962</ele>
        <time>2017-04-16T11:36:22Z</time>
      </trkpt>
      <trkpt lat="42.80224" lon="0.40506">
        <ele>963.5</ele>
        <time>2017-04-16T11:36:25Z</time>
      </trkpt>
      <trkpt lat="42.80224" lon="0.40506">
        <ele>962</ele>
        <time>2017-04-16T11:36:28Z</time>
      </trkpt>
      <trkpt lat="42.80224" lon="0.40506">
        <ele>962.5</ele>
        <time>2017-04-16T11:36:31Z</time>
      </trkpt>
      <trkpt lat="42.80224" lon="0.40506">
        <ele>961</ele>
        <time>2017-04-16T11:36:34Z</time>
      </trkpt>
      <trkpt lat="42.80224" lon="0.40506">
        <ele>963.5</ele>
        <time>2017-04-16T11:36:37Z</time>
      </trkpt>
      <trkpt lat="42.80224" lon="0.40506">
        <ele>963</ele>
        <time>2017-04-16T11:36:40Z</time>
      </trkpt>
      <trkpt lat="42.80224" lon="0.40506">
        <ele>962.5</ele>
        <time>2017-04-16T11:36:43Z</time>
      </trkpt>
      <trkpt lat="42.80224" lon="0.40506">
        <ele>962</ele>
        <time>2017-04-16T11:36:46Z</time>
      </trkpt>
      <trkpt lat="42.80224" lon="0.40506">
        <ele>962.7</ele>
        <time>2017-04-16T11:36:49Z</time>
      </trkpt>
      <trkpt lat="42.80225" lon="0.40506">
        <ele>962.5</ele>
        <time>2017-04-16T11:36:52Z</time>
      </trkpt>
      <trkpt lat="42.80225" lon="0.40506">
        <ele>962</ele>
        <time>2017-04-16T11:36:55Z</time>
      </trkpt>
      <trkpt lat="42.80225" lon="0.40506">
        <ele>962</ele>
        <time>2017-04-16T11:36:58Z</time>
      </trkpt>
      <trkpt lat="42.80225" lon="0.40506">
        <ele>963</ele>
        <time>2017-04-16T11:37:01Z</time>
      </trkpt>
      <trkpt lat="42.80225" lon="0.40506">
        <ele>963.5</ele>
        <time>2017-04-16T11:37:04Z</time>
      </trkpt>
      <trkpt lat="42.80225" lon="0.40506">
        <ele>961.5</ele>
        <time>2017-04-16T11:37:07Z</time>
      </trkpt>
      <trkpt lat="42.80225" lon="0.40506">
        <ele>962</ele>
        <time>2017-04-16T11:37:10Z</time>
      </trkpt>
      <trkpt lat="42.80224" lon="0.40506">
        <ele>962</ele>
        <time>2017-04-16T11:37:13Z</time>
      </trkpt>
      <trkpt lat="42.80224" lon="0.40506">
        <ele>962.5</ele>
        <time>2017-04-16T11:37:16Z</time>
      </trkpt>
      <trkpt lat="42.80224" lon="0.40506">
        <ele>963</ele>
        <time>2017-04-16T11:37:19Z</time>
      </trkpt>
      <trkpt lat="42.80224" lon="0.40506">
        <ele>960.7</ele>
        <time>2017-04-16T11:37:22Z</time>
      </trkpt>
      <trkpt lat="42.80225" lon="0.40507">
        <ele>961.5</ele>
        <time>2017-04-16T11:37:25Z</time>
      </trkpt>
      <trkpt lat="42.80225" lon="0.40508">
        <ele>962.2</ele>
        <time>2017-04-16T11:37:28Z</time>
      </trkpt>
      <trkpt lat="42.80225" lon="0.40508">
        <ele>962.2</ele>
        <time>2017-04-16T11:37:31Z</time>
      </trkpt>
      <trkpt lat="42.80226" lon="0.40508">
        <ele>962</ele>
        <time>2017-04-16T11:37:34Z</time>
      </trkpt>
      <trkpt lat="42.80226" lon="0.40509">
        <ele>962</ele>
        <time>2017-04-16T11:37:37Z</time>
      </trkpt>
      <trkpt lat="42.80225" lon="0.40509">
        <ele>962</ele>
        <time>2017-04-16T11:37:40Z</time>
      </trkpt>
      <trkpt lat="42.80225" lon="0.40508">
        <ele>961.2</ele>
        <time>2017-04-16T11:37:43Z</time>
      </trkpt>
      <trkpt lat="42.80225" lon="0.40508">
        <ele>961</ele>
        <time>2017-04-16T11:37:46Z</time>
      </trkpt>
      <trkpt lat="42.80224" lon="0.40508">
        <ele>959.4</ele>
        <time>2017-04-16T11:37:49Z</time>
      </trkpt>
      <trkpt lat="42.80224" lon="0.40507">
        <ele>961</ele>
        <time>2017-04-16T11:37:52Z</time>
      </trkpt>
      <trkpt lat="42.80223" lon="0.40507">
        <ele>961.5</ele>
        <time>2017-04-16T11:37:55Z</time>
      </trkpt>
      <trkpt lat="42.80222" lon="0.40507">
        <ele>961</ele>
        <time>2017-04-16T11:37:58Z</time>
      </trkpt>
      <trkpt lat="42.80222" lon="0.40507">
        <ele>961</ele>
        <time>2017-04-16T11:38:01Z</time>
      </trkpt>
      <trkpt lat="42.80222" lon="0.40507">
        <ele>961</ele>
        <time>2017-04-16T11:38:04Z</time>
      </trkpt>
      <trkpt lat="42.80223" lon="0.40507">
        <ele>959.5</ele>
        <time>2017-04-16T11:38:07Z</time>
      </trkpt>
      <trkpt lat="42.80223" lon="0.40507">
        <ele>959.6</ele>
        <time>2017-04-16T11:38:10Z</time>
      </trkpt>
      <trkpt lat="42.80223" lon="0.40507">
        <ele>959</ele>
        <time>2017-04-16T11:38:13Z</time>
      </trkpt>
      <trkpt lat="42.80223" lon="0.40507">
        <ele>959</ele>
        <time>2017-04-16T11:38:16Z</time>
      </trkpt>
      <trkpt lat="42.80223" lon="0.40507">
        <ele>960.5</ele>
        <time>2017-04-16T11:38:19Z</time>
      </trkpt>
      <trkpt lat="42.80223" lon="0.40508">
        <ele>960</ele>
        <time>2017-04-16T11:38:22Z</time>
      </trkpt>
      <trkpt lat="42.80223" lon="0.40508">
        <ele>960</ele>
        <time>2017-04-16T11:38:25Z</time>
      </trkpt>
      <trkpt lat="42.80223" lon="0.40509">
        <ele>961</ele>
        <time>2017-04-16T11:38:28Z</time>
      </trkpt>
      <trkpt lat="42.80223" lon="0.40509">
        <ele>960.2</ele>
        <time>2017-04-16T11:38:31Z</time>
      </trkpt>
      <trkpt lat="42.80223" lon="0.40509">
        <ele>958.5</ele>
        <time>2017-04-16T11:38:34Z</time>
      </trkpt>
      <trkpt lat="42.80224" lon="0.40509">
        <ele>959.5</ele>
        <time>2017-04-16T11:38:37Z</time>
      </trkpt>
      <trkpt lat="42.80224" lon="0.40509">
        <ele>960</ele>
        <time>2017-04-16T11:38:40Z</time>
      </trkpt>
      <trkpt lat="42.80224" lon="0.40509">
        <ele>958.5</ele>
        <time>2017-04-16T11:38:43Z</time>
      </trkpt>
      <trkpt lat="42.80224" lon="0.40508">
        <ele>959</ele>
        <time>2017-04-16T11:38:46Z</time>
      </trkpt>
      <trkpt lat="42.80224" lon="0.40508">
        <ele>959</ele>
        <time>2017-04-16T11:38:49Z</time>
      </trkpt>
      <trkpt lat="42.80224" lon="0.40508">
        <ele>959.5</ele>
        <time>2017-04-16T11:38:52Z</time>
      </trkpt>
      <trkpt lat="42.80224" lon="0.40508">
        <ele>960</ele>
        <time>2017-04-16T11:38:55Z</time>
      </trkpt>
      <trkpt lat="42.80224" lon="0.40508">
        <ele>959</ele>
        <time>2017-04-16T11:38:58Z</time>
      </trkpt>
      <trkpt lat="42.80224" lon="0.40509">
        <ele>959</ele>
        <time>2017-04-16T11:39:01Z</time>
      </trkpt>
      <trkpt lat="42.80224" lon="0.40509">
        <ele>959.7</ele>
        <time>2017-04-16T11:39:04Z</time>
      </trkpt>
      <trkpt lat="42.80224" lon="0.40509">
        <ele>959.7</ele>
        <time>2017-04-16T11:39:07Z</time>
      </trkpt>
      <trkpt lat="42.80224" lon="0.40509">
        <ele>959.2</ele>
        <time>2017-04-16T11:39:10Z</time>
      </trkpt>
      <trkpt lat="42.80224" lon="0.40509">
        <ele>959</ele>
        <time>2017-04-16T11:39:13Z</time>
      </trkpt>
      <trkpt lat="42.80224" lon="0.40509">
        <ele>959</ele>
        <time>2017-04-16T11:39:16Z</time>
      </trkpt>
      <trkpt lat="42.80224" lon="0.40509">
        <ele>959</ele>
        <time>2017-04-16T11:39:19Z</time>
      </trkpt>
      <trkpt lat="42.80224" lon="0.40508">
        <ele>959.5</ele>
        <time>2017-04-16T11:39:22Z</time>
      </trkpt>
      <trkpt lat="42.80224" lon="0.40508">
        <ele>960</ele>
        <time>2017-04-16T11:39:25Z</time>
      </trkpt>
      <trkpt lat="42.80224" lon="0.40508">
        <ele>960</ele>
        <time>2017-04-16T11:39:28Z</time>
      </trkpt>
      <trkpt lat="42.80224" lon="0.40508">
        <ele>959</ele>
        <time>2017-04-16T11:39:31Z</time>
      </trkpt>
      <trkpt lat="42.80224" lon="0.40508">
        <ele>959.5</ele>
        <time>2017-04-16T11:39:34Z</time>
      </trkpt>
      <trkpt lat="42.80224" lon="0.40508">
        <ele>960.7</ele>
        <time>2017-04-16T11:39:37Z</time>
      </trkpt>
      <trkpt lat="42.80224" lon="0.40508">
        <ele>959</ele>
        <time>2017-04-16T11:39:40Z</time>
      </trkpt>
      <trkpt lat="42.80224" lon="0.40508">
        <ele>960</ele>
        <time>2017-04-16T11:39:43Z</time>
      </trkpt>
      <trkpt lat="42.80224" lon="0.40509">
        <ele>959.2</ele>
        <time>2017-04-16T11:39:46Z</time>
      </trkpt>
      <trkpt lat="42.80224" lon="0.40509">
        <ele>959.7</ele>
        <time>2017-04-16T11:39:49Z</time>
      </trkpt>
      <trkpt lat="42.80224" lon="0.4051">
        <ele>961.5</ele>
        <time>2017-04-16T11:39:52Z</time>
      </trkpt>
      <trkpt lat="42.80224" lon="0.4051">
        <ele>958.5</ele>
        <time>2017-04-16T11:39:55Z</time>
      </trkpt>
      <trkpt lat="42.80224" lon="0.4051">
        <ele>956.5</ele>
        <time>2017-04-16T11:39:58Z</time>
      </trkpt>
      <trkpt lat="42.80224" lon="0.4051">
        <ele>959</ele>
        <time>2017-04-16T11:40:01Z</time>
      </trkpt>
      <trkpt lat="42.80224" lon="0.40511">
        <ele>958.5</ele>
        <time>2017-04-16T11:40:04Z</time>
      </trkpt>
      <trkpt lat="42.80224" lon="0.40511">
        <ele>959</ele>
        <time>2017-04-16T11:40:07Z</time>
      </trkpt>
      <trkpt lat="42.80224" lon="0.40511">
        <ele>957.5</ele>
        <time>2017-04-16T11:40:10Z</time>
      </trkpt>
      <trkpt lat="42.80224" lon="0.40511">
        <ele>957</ele>
        <time>2017-04-16T11:40:13Z</time>
      </trkpt>
      <trkpt lat="42.80224" lon="0.40511">
        <ele>957</ele>
        <time>2017-04-16T11:40:16Z</time>
      </trkpt>
      <trkpt lat="42.80224" lon="0.40511">
        <ele>957.5</ele>
        <time>2017-04-16T11:40:19Z</time>
      </trkpt>
      <trkpt lat="42.80224" lon="0.40511">
        <ele>957.2</ele>
        <time>2017-04-16T11:40:22Z</time>
      </trkpt>
      <trkpt lat="42.80224" lon="0.40511">
        <ele>958</ele>
        <time>2017-04-16T11:40:25Z</time>
      </trkpt>
      <trkpt lat="42.80224" lon="0.40511">
        <ele>958</ele>
        <time>2017-04-16T11:40:28Z</time>
      </trkpt>
      <trkpt lat="42.80224" lon="0.40511">
        <ele>958.5</ele>
        <time>2017-04-16T11:40:31Z</time>
      </trkpt>
      <trkpt lat="42.80224" lon="0.40511">
        <ele>958.2</ele>
        <time>2017-04-16T11:40:34Z</time>
      </trkpt>
      <trkpt lat="42.80224" lon="0.40511">
        <ele>959</ele>
        <time>2017-04-16T11:40:37Z</time>
      </trkpt>
      <trkpt lat="42.80224" lon="0.40511">
        <ele>958.5</ele>
        <time>2017-04-16T11:40:40Z</time>
      </trkpt>
      <trkpt lat="42.80224" lon="0.4051">
        <ele>959</ele>
        <time>2017-04-16T11:40:43Z</time>
      </trkpt>
      <trkpt lat="42.80224" lon="0.4051">
        <ele>958.2</ele>
        <time>2017-04-16T11:40:46Z</time>
      </trkpt>
      <trkpt lat="42.80224" lon="0.4051">
        <ele>959</ele>
        <time>2017-04-16T11:40:49Z</time>
      </trkpt>
      <trkpt lat="42.80224" lon="0.4051">
        <ele>957.7</ele>
        <time>2017-04-16T11:40:52Z</time>
      </trkpt>
      <trkpt lat="42.80224" lon="0.4051">
        <ele>955.5</ele>
        <time>2017-04-16T11:40:55Z</time>
      </trkpt>
      <trkpt lat="42.80223" lon="0.4051">
        <ele>957.5</ele>
        <time>2017-04-16T11:40:58Z</time>
      </trkpt>
      <trkpt lat="42.80224" lon="0.4051">
        <ele>956.5</ele>
        <time>2017-04-16T11:41:01Z</time>
      </trkpt>
      <trkpt lat="42.80223" lon="0.4051">
        <ele>956.5</ele>
        <time>2017-04-16T11:41:04Z</time>
      </trkpt>
      <trkpt lat="42.80223" lon="0.4051">
        <ele>956</ele>
        <time>2017-04-16T11:41:07Z</time>
      </trkpt>
      <trkpt lat="42.80223" lon="0.4051">
        <ele>956.7</ele>
        <time>2017-04-16T11:41:10Z</time>
      </trkpt>
      <trkpt lat="42.80223" lon="0.40509">
        <ele>953.5</ele>
        <time>2017-04-16T11:41:13Z</time>
      </trkpt>
      <trkpt lat="42.80223" lon="0.40509">
        <ele>955</ele>
        <time>2017-04-16T11:41:16Z</time>
      </trkpt>
      <trkpt lat="42.80223" lon="0.40509">
        <ele>955.7</ele>
        <time>2017-04-16T11:41:19Z</time>
      </trkpt>
      <trkpt lat="42.80223" lon="0.40509">
        <ele>955</ele>
        <time>2017-04-16T11:41:22Z</time>
      </trkpt>
      <trkpt lat="42.80223" lon="0.40509">
        <ele>954</ele>
        <time>2017-04-16T11:41:25Z</time>
      </trkpt>
      <trkpt lat="42.80223" lon="0.40509">
        <ele>954.5</ele>
        <time>2017-04-16T11:41:28Z</time>
      </trkpt>
      <trkpt lat="42.80223" lon="0.40509">
        <ele>953.7</ele>
        <time>2017-04-16T11:41:31Z</time>
      </trkpt>
      <trkpt lat="42.80223" lon="0.40509">
        <ele>954</ele>
        <time>2017-04-16T11:41:34Z</time>
      </trkpt>
      <trkpt lat="42.80223" lon="0.40509">
        <ele>954</ele>
        <time>2017-04-16T11:41:37Z</time>
      </trkpt>
      <trkpt lat="42.80223" lon="0.40509">
        <ele>956</ele>
        <time>2017-04-16T11:41:40Z</time>
      </trkpt>
      <trkpt lat="42.80223" lon="0.40509">
        <ele>954.5</ele>
        <time>2017-04-16T11:41:43Z</time>
      </trkpt>
      <trkpt lat="42.80223" lon="0.40509">
        <ele>956</ele>
        <time>2017-04-16T11:41:46Z</time>
      </trkpt>
      <trkpt lat="42.80223" lon="0.40509">
        <ele>955</ele>
        <time>2017-04-16T11:41:49Z</time>
      </trkpt>
      <trkpt lat="42.80223" lon="0.40509">
        <ele>955</ele>
        <time>2017-04-16T11:41:52Z</time>
      </trkpt>
      <trkpt lat="42.80223" lon="0.40509">
        <ele>955.7</ele>
        <time>2017-04-16T11:41:55Z</time>
      </trkpt>
      <trkpt lat="42.80223" lon="0.40509">
        <ele>955.5</ele>
        <time>2017-04-16T11:41:58Z</time>
      </trkpt>
      <trkpt lat="42.80223" lon="0.40509">
        <ele>955.3</ele>
        <time>2017-04-16T11:42:01Z</time>
      </trkpt>
      <trkpt lat="42.80223" lon="0.40509">
        <ele>956</ele>
        <time>2017-04-16T11:42:04Z</time>
      </trkpt>
      <trkpt lat="42.80223" lon="0.40508">
        <ele>956</ele>
        <time>2017-04-16T11:42:07Z</time>
      </trkpt>
      <trkpt lat="42.80223" lon="0.40508">
        <ele>956.5</ele>
        <time>2017-04-16T11:42:10Z</time>
      </trkpt>
      <trkpt lat="42.80223" lon="0.40508">
        <ele>955.5</ele>
        <time>2017-04-16T11:42:13Z</time>
      </trkpt>
      <trkpt lat="42.80223" lon="0.40508">
        <ele>955</ele>
        <time>2017-04-16T11:42:16Z</time>
      </trkpt>
      <trkpt lat="42.80223" lon="0.40508">
        <ele>953</ele>
        <time>2017-04-16T11:42:19Z</time>
      </trkpt>
      <trkpt lat="42.80223" lon="0.40508">
        <ele>956</ele>
        <time>2017-04-16T11:42:22Z</time>
      </trkpt>
      <trkpt lat="42.80223" lon="0.40508">
        <ele>955.5</ele>
        <time>2017-04-16T11:42:25Z</time>
      </trkpt>
      <trkpt lat="42.80223" lon="0.40508">
        <ele>955.2</ele>
        <time>2017-04-16T11:42:28Z</time>
      </trkpt>
      <trkpt lat="42.80223" lon="0.40508">
        <ele>955</ele>
        <time>2017-04-16T11:42:31Z</time>
      </trkpt>
      <trkpt lat="42.80223" lon="0.40508">
        <ele>955.7</ele>
        <time>2017-04-16T11:42:34Z</time>
      </trkpt>
      <trkpt lat="42.80223" lon="0.40508">
        <ele>952.6</ele>
        <time>2017-04-16T11:42:37Z</time>
      </trkpt>
      <trkpt lat="42.80223" lon="0.40508">
        <ele>954.2</ele>
        <time>2017-04-16T11:42:40Z</time>
      </trkpt>
      <trkpt lat="42.80223" lon="0.40508">
        <ele>953</ele>
        <time>2017-04-16T11:42:43Z</time>
      </trkpt>
      <trkpt lat="42.80223" lon="0.40508">
        <ele>953</ele>
        <time>2017-04-16T11:42:46Z</time>
      </trkpt>
      <trkpt lat="42.80223" lon="0.40508">
        <ele>952</ele>
        <time>2017-04-16T11:42:49Z</time>
      </trkpt>
      <trkpt lat="42.80223" lon="0.40508">
        <ele>952.7</ele>
        <time>2017-04-16T11:42:52Z</time>
      </trkpt>
      <trkpt lat="42.80223" lon="0.40508">
        <ele>954.5</ele>
        <time>2017-04-16T11:42:55Z</time>
      </trkpt>
      <trkpt lat="42.80223" lon="0.40508">
        <ele>954.2</ele>
        <time>2017-04-16T11:42:58Z</time>
      </trkpt>
      <trkpt lat="42.80223" lon="0.40508">
        <ele>954</ele>
        <time>2017-04-16T11:43:01Z</time>
      </trkpt>
      <trkpt lat="42.80223" lon="0.40508">
        <ele>953</ele>
        <time>2017-04-16T11:43:04Z</time>
      </trkpt>
      <trkpt lat="42.80223" lon="0.40508">
        <ele>954.2</ele>
        <time>2017-04-16T11:43:07Z</time>
      </trkpt>
      <trkpt lat="42.80223" lon="0.40508">
        <ele>954</ele>
        <time>2017-04-16T11:43:10Z</time>
      </trkpt>
      <trkpt lat="42.80223" lon="0.40508">
        <ele>953.7</ele>
        <time>2017-04-16T11:43:13Z</time>
      </trkpt>
      <trkpt lat="42.80223" lon="0.40508">
        <ele>953.5</ele>
        <time>2017-04-16T11:43:16Z</time>
      </trkpt>
      <trkpt lat="42.80223" lon="0.40508">
        <ele>953.5</ele>
        <time>2017-04-16T11:43:19Z</time>
      </trkpt>
      <trkpt lat="42.80223" lon="0.40508">
        <ele>953.7</ele>
        <time>2017-04-16T11:43:22Z</time>
      </trkpt>
      <trkpt lat="42.80223" lon="0.40508">
        <ele>954.5</ele>
        <time>2017-04-16T11:43:25Z</time>
      </trkpt>
      <trkpt lat="42.80223" lon="0.40508">
        <ele>952</ele>
        <time>2017-04-16T11:43:28Z</time>
      </trkpt>
      <trkpt lat="42.80223" lon="0.40508">
        <ele>952.5</ele>
        <time>2017-04-16T11:43:31Z</time>
      </trkpt>
      <trkpt lat="42.80223" lon="0.40508">
        <ele>952.7</ele>
        <time>2017-04-16T11:43:34Z</time>
      </trkpt>
      <trkpt lat="42.80223" lon="0.40508">
        <ele>952.2</ele>
        <time>2017-04-16T11:43:37Z</time>
      </trkpt>
      <trkpt lat="42.80223" lon="0.40508">
        <ele>954</ele>
        <time>2017-04-16T11:43:40Z</time>
      </trkpt>
      <trkpt lat="42.80223" lon="0.40508">
        <ele>954</ele>
        <time>2017-04-16T11:43:43Z</time>
      </trkpt>
      <trkpt lat="42.80223" lon="0.40508">
        <ele>951.7</ele>
        <time>2017-04-16T11:43:46Z</time>
      </trkpt>
      <trkpt lat="42.80223" lon="0.40508">
        <ele>951.7</ele>
        <time>2017-04-16T11:43:49Z</time>
      </trkpt>
      <trkpt lat="42.80223" lon="0.40507">
        <ele>951</ele>
        <time>2017-04-16T11:43:52Z</time>
      </trkpt>
      <trkpt lat="42.80223" lon="0.40507">
        <ele>951.7</ele>
        <time>2017-04-16T11:43:55Z</time>
      </trkpt>
      <trkpt lat="42.80223" lon="0.40508">
        <ele>952.7</ele>
        <time>2017-04-16T11:43:58Z</time>
      </trkpt>
      <trkpt lat="42.80223" lon="0.40507">
        <ele>951.5</ele>
        <time>2017-04-16T11:44:01Z</time>
      </trkpt>
      <trkpt lat="42.80223" lon="0.40507">
        <ele>951.6</ele>
        <time>2017-04-16T11:44:04Z</time>
      </trkpt>
      <trkpt lat="42.80223" lon="0.40507">
        <ele>950.7</ele>
        <time>2017-04-16T11:44:07Z</time>
      </trkpt>
      <trkpt lat="42.80223" lon="0.40507">
        <ele>950</ele>
        <time>2017-04-16T11:44:10Z</time>
      </trkpt>
      <trkpt lat="42.80223" lon="0.40507">
        <ele>950</ele>
        <time>2017-04-16T11:44:13Z</time>
      </trkpt>
      <trkpt lat="42.80223" lon="0.40507">
        <ele>951.5</ele>
        <time>2017-04-16T11:44:16Z</time>
      </trkpt>
      <trkpt lat="42.80223" lon="0.40507">
        <ele>951</ele>
        <time>2017-04-16T11:44:19Z</time>
      </trkpt>
      <trkpt lat="42.80223" lon="0.40507">
        <ele>950.2</ele>
        <time>2017-04-16T11:44:22Z</time>
      </trkpt>
      <trkpt lat="42.80223" lon="0.40506">
        <ele>949</ele>
        <time>2017-04-16T11:44:25Z</time>
      </trkpt>
      <trkpt lat="42.80223" lon="0.40506">
        <ele>950</ele>
        <time>2017-04-16T11:44:28Z</time>
      </trkpt>
      <trkpt lat="42.80223" lon="0.40505">
        <ele>950.7</ele>
        <time>2017-04-16T11:44:31Z</time>
      </trkpt>
      <trkpt lat="42.80223" lon="0.40505">
        <ele>951</ele>
        <time>2017-04-16T11:44:34Z</time>
      </trkpt>
      <trkpt lat="42.80223" lon="0.40505">
        <ele>950</ele>
        <time>2017-04-16T11:44:37Z</time>
      </trkpt>
      <trkpt lat="42.80223" lon="0.40505">
        <ele>950</ele>
        <time>2017-04-16T11:44:40Z</time>
      </trkpt>
      <trkpt lat="42.80223" lon="0.40505">
        <ele>949.7</ele>
        <time>2017-04-16T11:44:43Z</time>
      </trkpt>
      <trkpt lat="42.80223" lon="0.40504">
        <ele>949.5</ele>
        <time>2017-04-16T11:44:46Z</time>
      </trkpt>
      <trkpt lat="42.80223" lon="0.40504">
        <ele>949</ele>
        <time>2017-04-16T11:44:49Z</time>
      </trkpt>
      <trkpt lat="42.80223" lon="0.40504">
        <ele>949</ele>
        <time>2017-04-16T11:44:52Z</time>
      </trkpt>
      <trkpt lat="42.80223" lon="0.40504">
        <ele>950.5</ele>
        <time>2017-04-16T11:44:55Z</time>
      </trkpt>
      <trkpt lat="42.80223" lon="0.40505">
        <ele>949</ele>
        <time>2017-04-16T11:44:58Z</time>
      </trkpt>
      <trkpt lat="42.80223" lon="0.40505">
        <ele>950</ele>
        <time>2017-04-16T11:45:01Z</time>
      </trkpt>
      <trkpt lat="42.80223" lon="0.40506">
        <ele>950</ele>
        <time>2017-04-16T11:45:04Z</time>
      </trkpt>
      <trkpt lat="42.80223" lon="0.40506">
        <ele>950</ele>
        <time>2017-04-16T11:45:07Z</time>
      </trkpt>
      <trkpt lat="42.80223" lon="0.40506">
        <ele>950</ele>
        <time>2017-04-16T11:45:10Z</time>
      </trkpt>
      <trkpt lat="42.80223" lon="0.40507">
        <ele>949.5</ele>
        <time>2017-04-16T11:45:13Z</time>
      </trkpt>
      <trkpt lat="42.80223" lon="0.40507">
        <ele>950</ele>
        <time>2017-04-16T11:45:16Z</time>
      </trkpt>
      <trkpt lat="42.80223" lon="0.40507">
        <ele>949.2</ele>
        <time>2017-04-16T11:45:19Z</time>
      </trkpt>
      <trkpt lat="42.80223" lon="0.40507">
        <ele>948</ele>
        <time>2017-04-16T11:45:22Z</time>
      </trkpt>
      <trkpt lat="42.80223" lon="0.40507">
        <ele>950</ele>
        <time>2017-04-16T11:45:25Z</time>
      </trkpt>
      <trkpt lat="42.80223" lon="0.40508">
        <ele>950</ele>
        <time>2017-04-16T11:45:28Z</time>
      </trkpt>
      <trkpt lat="42.80223" lon="0.40508">
        <ele>950</ele>
        <time>2017-04-16T11:45:31Z</time>
      </trkpt>
      <trkpt lat="42.80223" lon="0.40508">
        <ele>950.5</ele>
        <time>2017-04-16T11:45:34Z</time>
      </trkpt>
      <trkpt lat="42.80223" lon="0.40508">
        <ele>950</ele>
        <time>2017-04-16T11:45:37Z</time>
      </trkpt>
      <trkpt lat="42.80223" lon="0.40508">
        <ele>950.5</ele>
        <time>2017-04-16T11:45:40Z</time>
      </trkpt>
      <trkpt lat="42.80223" lon="0.40508">
        <ele>950.2</ele>
        <time>2017-04-16T11:45:43Z</time>
      </trkpt>
      <trkpt lat="42.80223" lon="0.40508">
        <ele>950.2</ele>
        <time>2017-04-16T11:45:46Z</time>
      </trkpt>
      <trkpt lat="42.80223" lon="0.40508">
        <ele>950</ele>
        <time>2017-04-16T11:45:49Z</time>
      </trkpt>
      <trkpt lat="42.80223" lon="0.40508">
        <ele>951.5</ele>
        <time>2017-04-16T11:45:52Z</time>
      </trkpt>
      <trkpt lat="42.80223" lon="0.40508">
        <ele>949.5</ele>
        <time>2017-04-16T11:45:55Z</time>
      </trkpt>
      <trkpt lat="42.80223" lon="0.40508">
        <ele>950.5</ele>
        <time>2017-04-16T11:45:58Z</time>
      </trkpt>
      <trkpt lat="42.80223" lon="0.40508">
        <ele>950</ele>
        <time>2017-04-16T11:46:01Z</time>
      </trkpt>
      <trkpt lat="42.80223" lon="0.40507">
        <ele>950</ele>
        <time>2017-04-16T11:46:04Z</time>
      </trkpt>
      <trkpt lat="42.80223" lon="0.40507">
        <ele>950</ele>
        <time>2017-04-16T11:46:07Z</time>
      </trkpt>
      <trkpt lat="42.80223" lon="0.40507">
        <ele>950</ele>
        <time>2017-04-16T11:46:10Z</time>
      </trkpt>
      <trkpt lat="42.80223" lon="0.40507">
        <ele>950</ele>
        <time>2017-04-16T11:46:13Z</time>
      </trkpt>
      <trkpt lat="42.80223" lon="0.40508">
        <ele>950</ele>
        <time>2017-04-16T11:46:16Z</time>
      </trkpt>
      <trkpt lat="42.80223" lon="0.40508">
        <ele>951</ele>
        <time>2017-04-16T11:46:19Z</time>
      </trkpt>
      <trkpt lat="42.80223" lon="0.40508">
        <ele>950</ele>
        <time>2017-04-16T11:46:22Z</time>
      </trkpt>
      <trkpt lat="42.80223" lon="0.40508">
        <ele>950</ele>
        <time>2017-04-16T11:46:25Z</time>
      </trkpt>
      <trkpt lat="42.80223" lon="0.40508">
        <ele>950.7</ele>
        <time>2017-04-16T11:46:28Z</time>
      </trkpt>
      <trkpt lat="42.80223" lon="0.40508">
        <ele>949.5</ele>
        <time>2017-04-16T11:46:31Z</time>
      </trkpt>
      <trkpt lat="42.80223" lon="0.40509">
        <ele>949.5</ele>
        <time>2017-04-16T11:46:34Z</time>
      </trkpt>
      <trkpt lat="42.80223" lon="0.40509">
        <ele>950.5</ele>
        <time>2017-04-16T11:46:37Z</time>
      </trkpt>
      <trkpt lat="42.80223" lon="0.40509">
        <ele>950</ele>
        <time>2017-04-16T11:46:40Z</time>
      </trkpt>
      <trkpt lat="42.80223" lon="0.40509">
        <ele>950</ele>
        <time>2017-04-16T11:46:43Z</time>
      </trkpt>
      <trkpt lat="42.80223" lon="0.40509">
        <ele>949.5</ele>
        <time>2017-04-16T11:46:46Z</time>
      </trkpt>
      <trkpt lat="42.80223" lon="0.40509">
        <ele>950</ele>
        <time>2017-04-16T11:46:49Z</time>
      </trkpt>
      <trkpt lat="42.80223" lon="0.40508">
        <ele>951</ele>
        <time>2017-04-16T11:46:52Z</time>
      </trkpt>
      <trkpt lat="42.80223" lon="0.40508">
        <ele>950</ele>
        <time>2017-04-16T11:46:55Z</time>
      </trkpt>
      <trkpt lat="42.80223" lon="0.40507">
        <ele>949.7</ele>
        <time>2017-04-16T11:46:58Z</time>
      </trkpt>
      <trkpt lat="42.80223" lon="0.40506">
        <ele>950</ele>
        <time>2017-04-16T11:47:01Z</time>
      </trkpt>
      <trkpt lat="42.80223" lon="0.40506">
        <ele>951</ele>
        <time>2017-04-16T11:47:04Z</time>
      </trkpt>
      <trkpt lat="42.80223" lon="0.40505">
        <ele>949.2</ele>
        <time>2017-04-16T11:47:07Z</time>
      </trkpt>
      <trkpt lat="42.80223" lon="0.40506">
        <ele>950.5</ele>
        <time>2017-04-16T11:47:10Z</time>
      </trkpt>
      <trkpt lat="42.80223" lon="0.40506">
        <ele>951</ele>
        <time>2017-04-16T11:47:13Z</time>
      </trkpt>
      <trkpt lat="42.80223" lon="0.40506">
        <ele>950.7</ele>
        <time>2017-04-16T11:47:16Z</time>
      </trkpt>
      <trkpt lat="42.80223" lon="0.40507">
        <ele>950.5</ele>
        <time>2017-04-16T11:47:19Z</time>
      </trkpt>
      <trkpt lat="42.80223" lon="0.40507">
        <ele>950</ele>
        <time>2017-04-16T11:47:22Z</time>
      </trkpt>
      <trkpt lat="42.80223" lon="0.40507">
        <ele>950</ele>
        <time>2017-04-16T11:47:25Z</time>
      </trkpt>
      <trkpt lat="42.80223" lon="0.40507">
        <ele>949.5</ele>
        <time>2017-04-16T11:47:28Z</time>
      </trkpt>
      <trkpt lat="42.80223" lon="0.40508">
        <ele>949.5</ele>
        <time>2017-04-16T11:47:31Z</time>
      </trkpt>
      <trkpt lat="42.80223" lon="0.40508">
        <ele>950</ele>
        <time>2017-04-16T11:47:34Z</time>
      </trkpt>
      <trkpt lat="42.80223" lon="0.40508">
        <ele>949</ele>
        <time>2017-04-16T11:47:37Z</time>
      </trkpt>
      <trkpt lat="42.80223" lon="0.40508">
        <ele>949.5</ele>
        <time>2017-04-16T11:47:40Z</time>
      </trkpt>
      <trkpt lat="42.80223" lon="0.40508">
        <ele>950</ele>
        <time>2017-04-16T11:47:43Z</time>
      </trkpt>
      <trkpt lat="42.80223" lon="0.40508">
        <ele>949.2</ele>
        <time>2017-04-16T11:47:46Z</time>
      </trkpt>
      <trkpt lat="42.80223" lon="0.40508">
        <ele>949</ele>
        <time>2017-04-16T11:47:49Z</time>
      </trkpt>
      <trkpt lat="42.80223" lon="0.40508">
        <ele>950.2</ele>
        <time>2017-04-16T11:47:52Z</time>
      </trkpt>
      <trkpt lat="42.80223" lon="0.40508">
        <ele>950.2</ele>
        <time>2017-04-16T11:47:55Z</time>
      </trkpt>
      <trkpt lat="42.80223" lon="0.40507">
        <ele>950</ele>
        <time>2017-04-16T11:47:58Z</time>
      </trkpt>
      <trkpt lat="42.80223" lon="0.40507">
        <ele>951</ele>
        <time>2017-04-16T11:48:01Z</time>
      </trkpt>
      <trkpt lat="42.80224" lon="0.40505">
        <ele>950.5</ele>
        <time>2017-04-16T11:48:04Z</time>
      </trkpt>
      <trkpt lat="42.80223" lon="0.40506">
        <ele>951</ele>
        <time>2017-04-16T11:48:07Z</time>
      </trkpt>
      <trkpt lat="42.80223" lon="0.40506">
        <ele>950.2</ele>
        <time>2017-04-16T11:48:10Z</time>
      </trkpt>
      <trkpt lat="42.80223" lon="0.40507">
        <ele>951.2</ele>
        <time>2017-04-16T11:48:13Z</time>
      </trkpt>
      <trkpt lat="42.80223" lon="0.40507">
        <ele>950.2</ele>
        <time>2017-04-16T11:48:16Z</time>
      </trkpt>
      <trkpt lat="42.80223" lon="0.40507">
        <ele>950</ele>
        <time>2017-04-16T11:48:19Z</time>
      </trkpt>
      <trkpt lat="42.80223" lon="0.40508">
        <ele>950.7</ele>
        <time>2017-04-16T11:48:22Z</time>
      </trkpt>
      <trkpt lat="42.80223" lon="0.40509">
        <ele>950</ele>
        <time>2017-04-16T11:48:25Z</time>
      </trkpt>
      <trkpt lat="42.80223" lon="0.40509">
        <ele>949.5</ele>
        <time>2017-04-16T11:48:28Z</time>
      </trkpt>
      <trkpt lat="42.80223" lon="0.40509">
        <ele>951</ele>
        <time>2017-04-16T11:48:31Z</time>
      </trkpt>
      <trkpt lat="42.80223" lon="0.4051">
        <ele>950.5</ele>
        <time>2017-04-16T11:48:34Z</time>
      </trkpt>
      <trkpt lat="42.80223" lon="0.40511">
        <ele>950.5</ele>
        <time>2017-04-16T11:48:37Z</time>
      </trkpt>
      <trkpt lat="42.80223" lon="0.4051">
        <ele>951</ele>
        <time>2017-04-16T11:48:40Z</time>
      </trkpt>
      <trkpt lat="42.80223" lon="0.4051">
        <ele>950.5</ele>
        <time>2017-04-16T11:48:43Z</time>
      </trkpt>
      <trkpt lat="42.80223" lon="0.4051">
        <ele>951</ele>
        <time>2017-04-16T11:48:46Z</time>
      </trkpt>
      <trkpt lat="42.80223" lon="0.4051">
        <ele>951</ele>
        <time>2017-04-16T11:48:49Z</time>
      </trkpt>
      <trkpt lat="42.80223" lon="0.4051">
        <ele>951</ele>
        <time>2017-04-16T11:48:52Z</time>
      </trkpt>
      <trkpt lat="42.80223" lon="0.4051">
        <ele>950.2</ele>
        <time>2017-04-16T11:48:55Z</time>
      </trkpt>
      <trkpt lat="42.80223" lon="0.4051">
        <ele>950</ele>
        <time>2017-04-16T11:48:58Z</time>
      </trkpt>
      <trkpt lat="42.80223" lon="0.4051">
        <ele>951</ele>
        <time>2017-04-16T11:49:01Z</time>
      </trkpt>
      <trkpt lat="42.80223" lon="0.4051">
        <ele>950.2</ele>
        <time>2017-04-16T11:49:04Z</time>
      </trkpt>
      <trkpt lat="42.80223" lon="0.4051">
        <ele>949.2</ele>
        <time>2017-04-16T11:49:07Z</time>
      </trkpt>
      <trkpt lat="42.80223" lon="0.4051">
        <ele>951</ele>
        <time>2017-04-16T11:49:10Z</time>
      </trkpt>
      <trkpt lat="42.80223" lon="0.4051">
        <ele>950.2</ele>
        <time>2017-04-16T11:49:13Z</time>
      </trkpt>
      <trkpt lat="42.80223" lon="0.40511">
        <ele>950</ele>
        <time>2017-04-16T11:49:16Z</time>
      </trkpt>
      <trkpt lat="42.80223" lon="0.40511">
        <ele>951.5</ele>
        <time>2017-04-16T11:49:19Z</time>
      </trkpt>
      <trkpt lat="42.80223" lon="0.40511">
        <ele>952</ele>
        <time>2017-04-16T11:49:22Z</time>
      </trkpt>
      <trkpt lat="42.80223" lon="0.40512">
        <ele>951</ele>
        <time>2017-04-16T11:49:25Z</time>
      </trkpt>
      <trkpt lat="42.80222" lon="0.40513">
        <ele>950.7</ele>
        <time>2017-04-16T11:49:28Z</time>
      </trkpt>
      <trkpt lat="42.80222" lon="0.40513">
        <ele>950</ele>
        <time>2017-04-16T11:49:31Z</time>
      </trkpt>
      <trkpt lat="42.80222" lon="0.40513">
        <ele>950.5</ele>
        <time>2017-04-16T11:49:34Z</time>
      </trkpt>
      <trkpt lat="42.80222" lon="0.40514">
        <ele>950.5</ele>
        <time>2017-04-16T11:49:37Z</time>
      </trkpt>
      <trkpt lat="42.80222" lon="0.40514">
        <ele>949</ele>
        <time>2017-04-16T11:49:40Z</time>
      </trkpt>
      <trkpt lat="42.80222" lon="0.40513">
        <ele>949</ele>
        <time>2017-04-16T11:49:43Z</time>
      </trkpt>
      <trkpt lat="42.80222" lon="0.40513">
        <ele>950.5</ele>
        <time>2017-04-16T11:49:46Z</time>
      </trkpt>
      <trkpt lat="42.80222" lon="0.40514">
        <ele>950.7</ele>
        <time>2017-04-16T11:49:49Z</time>
      </trkpt>
      <trkpt lat="42.80222" lon="0.40513">
        <ele>949.5</ele>
        <time>2017-04-16T11:49:52Z</time>
      </trkpt>
      <trkpt lat="42.80222" lon="0.40513">
        <ele>951</ele>
        <time>2017-04-16T11:49:55Z</time>
      </trkpt>
      <trkpt lat="42.80223" lon="0.40512">
        <ele>950.5</ele>
        <time>2017-04-16T11:49:58Z</time>
      </trkpt>
      <trkpt lat="42.80223" lon="0.40512">
        <ele>950</ele>
        <time>2017-04-16T11:50:01Z</time>
      </trkpt>
      <trkpt lat="42.80223" lon="0.40511">
        <ele>949.2</ele>
        <time>2017-04-16T11:50:04Z</time>
      </trkpt>
      <trkpt lat="42.80223" lon="0.4051">
        <ele>949.5</ele>
        <time>2017-04-16T11:50:07Z</time>
      </trkpt>
      <trkpt lat="42.80223" lon="0.4051">
        <ele>949.5</ele>
        <time>2017-04-16T11:50:10Z</time>
      </trkpt>
      <trkpt lat="42.80223" lon="0.40511">
        <ele>949.2</ele>
        <time>2017-04-16T11:50:13Z</time>
      </trkpt>
      <trkpt lat="42.80222" lon="0.40511">
        <ele>950</ele>
        <time>2017-04-16T11:50:16Z</time>
      </trkpt>
      <trkpt lat="42.80222" lon="0.40511">
        <ele>949.7</ele>
        <time>2017-04-16T11:50:19Z</time>
      </trkpt>
      <trkpt lat="42.80222" lon="0.40511">
        <ele>950</ele>
        <time>2017-04-16T11:50:22Z</time>
      </trkpt>
      <trkpt lat="42.80223" lon="0.4051">
        <ele>951</ele>
        <time>2017-04-16T11:50:25Z</time>
      </trkpt>
      <trkpt lat="42.80223" lon="0.4051">
        <ele>950.2</ele>
        <time>2017-04-16T11:50:28Z</time>
      </trkpt>
      <trkpt lat="42.80223" lon="0.4051">
        <ele>950.5</ele>
        <time>2017-04-16T11:50:31Z</time>
      </trkpt>
      <trkpt lat="42.80223" lon="0.4051">
        <ele>950.2</ele>
        <time>2017-04-16T11:50:34Z</time>
      </trkpt>
      <trkpt lat="42.80223" lon="0.40509">
        <ele>950</ele>
        <time>2017-04-16T11:50:37Z</time>
      </trkpt>
      <trkpt lat="42.80223" lon="0.40508">
        <ele>950</ele>
        <time>2017-04-16T11:50:40Z</time>
      </trkpt>
      <trkpt lat="42.80223" lon="0.40508">
        <ele>949.5</ele>
        <time>2017-04-16T11:50:43Z</time>
      </trkpt>
      <trkpt lat="42.80223" lon="0.40508">
        <ele>950.7</ele>
        <time>2017-04-16T11:50:46Z</time>
      </trkpt>
      <trkpt lat="42.80223" lon="0.40508">
        <ele>950.2</ele>
        <time>2017-04-16T11:50:49Z</time>
      </trkpt>
      <trkpt lat="42.80223" lon="0.40508">
        <ele>950</ele>
        <time>2017-04-16T11:50:52Z</time>
      </trkpt>
      <trkpt lat="42.80223" lon="0.40507">
        <ele>950</ele>
        <time>2017-04-16T11:50:55Z</time>
      </trkpt>
      <trkpt lat="42.80223" lon="0.40507">
        <ele>949.2</ele>
        <time>2017-04-16T11:50:58Z</time>
      </trkpt>
      <trkpt lat="42.80223" lon="0.40506">
        <ele>950.5</ele>
        <time>2017-04-16T11:51:01Z</time>
      </trkpt>
      <trkpt lat="42.80223" lon="0.40506">
        <ele>950.5</ele>
        <time>2017-04-16T11:51:04Z</time>
      </trkpt>
      <trkpt lat="42.80223" lon="0.40506">
        <ele>950</ele>
        <time>2017-04-16T11:51:07Z</time>
      </trkpt>
      <trkpt lat="42.80223" lon="0.40506">
        <ele>951</ele>
        <time>2017-04-16T11:51:10Z</time>
      </trkpt>
      <trkpt lat="42.80223" lon="0.40507">
        <ele>950.5</ele>
        <time>2017-04-16T11:51:13Z</time>
      </trkpt>
      <trkpt lat="42.80223" lon="0.40507">
        <ele>950.5</ele>
        <time>2017-04-16T11:51:16Z</time>
      </trkpt>
      <trkpt lat="42.80223" lon="0.40507">
        <ele>950.5</ele>
        <time>2017-04-16T11:51:19Z</time>
      </trkpt>
      <trkpt lat="42.80223" lon="0.40507">
        <ele>950.5</ele>
        <time>2017-04-16T11:51:22Z</time>
      </trkpt>
      <trkpt lat="42.80223" lon="0.40506">
        <ele>951</ele>
        <time>2017-04-16T11:51:25Z</time>
      </trkpt>
      <trkpt lat="42.80223" lon="0.40506">
        <ele>950</ele>
        <time>2017-04-16T11:51:28Z</time>
      </trkpt>
      <trkpt lat="42.80223" lon="0.40506">
        <ele>950.5</ele>
        <time>2017-04-16T11:51:31Z</time>
      </trkpt>
      <trkpt lat="42.80223" lon="0.40506">
        <ele>948.2</ele>
        <time>2017-04-16T11:51:34Z</time>
      </trkpt>
      <trkpt lat="42.80223" lon="0.40505">
        <ele>952</ele>
        <time>2017-04-16T11:51:37Z</time>
      </trkpt>
      <trkpt lat="42.80223" lon="0.40505">
        <ele>950.5</ele>
        <time>2017-04-16T11:51:40Z</time>
      </trkpt>
      <trkpt lat="42.80223" lon="0.40506">
        <ele>951</ele>
        <time>2017-04-16T11:51:43Z</time>
      </trkpt>
      <trkpt lat="42.80222" lon="0.40506">
        <ele>951.7</ele>
        <time>2017-04-16T11:51:46Z</time>
      </trkpt>
      <trkpt lat="42.80222" lon="0.40506">
        <ele>952.5</ele>
        <time>2017-04-16T11:51:49Z</time>
      </trkpt>
      <trkpt lat="42.80222" lon="0.40506">
        <ele>951.2</ele>
        <time>2017-04-16T11:51:52Z</time>
      </trkpt>
      <trkpt lat="42.80222" lon="0.40507">
        <ele>949.3</ele>
        <time>2017-04-16T11:51:55Z</time>
      </trkpt>
      <trkpt lat="42.80222" lon="0.40507">
        <ele>949</ele>
        <time>2017-04-16T11:51:58Z</time>
      </trkpt>
      <trkpt lat="42.80222" lon="0.40507">
        <ele>948.5</ele>
        <time>2017-04-16T11:52:01Z</time>
      </trkpt>
      <trkpt lat="42.80222" lon="0.40508">
        <ele>949.5</ele>
        <time>2017-04-16T11:52:04Z</time>
      </trkpt>
      <trkpt lat="42.80222" lon="0.40508">
        <ele>950</ele>
        <time>2017-04-16T11:52:07Z</time>
      </trkpt>
      <trkpt lat="42.80222" lon="0.40508">
        <ele>949</ele>
        <time>2017-04-16T11:52:10Z</time>
      </trkpt>
      <trkpt lat="42.80222" lon="0.40508">
        <ele>949</ele>
        <time>2017-04-16T11:52:13Z</time>
      </trkpt>
      <trkpt lat="42.80222" lon="0.40509">
        <ele>949.5</ele>
        <time>2017-04-16T11:52:16Z</time>
      </trkpt>
      <trkpt lat="42.80222" lon="0.40509">
        <ele>949.5</ele>
        <time>2017-04-16T11:52:19Z</time>
      </trkpt>
      <trkpt lat="42.80221" lon="0.40509">
        <ele>950</ele>
        <time>2017-04-16T11:52:22Z</time>
      </trkpt>
      <trkpt lat="42.80221" lon="0.4051">
        <ele>949</ele>
        <time>2017-04-16T11:52:25Z</time>
      </trkpt>
      <trkpt lat="42.80221" lon="0.4051">
        <ele>949</ele>
        <time>2017-04-16T11:52:28Z</time>
      </trkpt>
      <trkpt lat="42.80222" lon="0.4051">
        <ele>949</ele>
        <time>2017-04-16T11:52:31Z</time>
      </trkpt>
      <trkpt lat="42.80222" lon="0.4051">
        <ele>950.5</ele>
        <time>2017-04-16T11:52:34Z</time>
      </trkpt>
      <trkpt lat="42.80222" lon="0.4051">
        <ele>949.7</ele>
        <time>2017-04-16T11:52:37Z</time>
      </trkpt>
      <trkpt lat="42.80221" lon="0.4051">
        <ele>948</ele>
        <time>2017-04-16T11:52:40Z</time>
      </trkpt>
      <trkpt lat="42.80221" lon="0.4051">
        <ele>948.7</ele>
        <time>2017-04-16T11:52:43Z</time>
      </trkpt>
      <trkpt lat="42.80221" lon="0.4051">
        <ele>950</ele>
        <time>2017-04-16T11:52:46Z</time>
      </trkpt>
      <trkpt lat="42.80221" lon="0.4051">
        <ele>950</ele>
        <time>2017-04-16T11:52:49Z</time>
      </trkpt>
      <trkpt lat="42.80221" lon="0.40511">
        <ele>950.7</ele>
        <time>2017-04-16T11:52:52Z</time>
      </trkpt>
      <trkpt lat="42.80221" lon="0.40511">
        <ele>950.2</ele>
        <time>2017-04-16T11:52:55Z</time>
      </trkpt>
      <trkpt lat="42.80221" lon="0.40512">
        <ele>948.7</ele>
        <time>2017-04-16T11:52:58Z</time>
      </trkpt>
      <trkpt lat="42.80221" lon="0.40512">
        <ele>949.5</ele>
        <time>2017-04-16T11:53:01Z</time>
      </trkpt>
      <trkpt lat="42.80221" lon="0.40512">
        <ele>946.2</ele>
        <time>2017-04-16T11:53:04Z</time>
      </trkpt>
      <trkpt lat="42.80221" lon="0.40512">
        <ele>944</ele>
        <time>2017-04-16T11:53:07Z</time>
      </trkpt>
      <trkpt lat="42.80221" lon="0.40511">
        <ele>950</ele>
        <time>2017-04-16T11:53:10Z</time>
      </trkpt>
      <trkpt lat="42.80221" lon="0.40511">
        <ele>948.7</ele>
        <time>2017-04-16T11:53:13Z</time>
      </trkpt>
      <trkpt lat="42.80221" lon="0.40511">
        <ele>949.5</ele>
        <time>2017-04-16T11:53:16Z</time>
      </trkpt>
      <trkpt lat="42.80221" lon="0.4051">
        <ele>951</ele>
        <time>2017-04-16T11:53:19Z</time>
      </trkpt>
      <trkpt lat="42.80221" lon="0.40509">
        <ele>949.5</ele>
        <time>2017-04-16T11:53:22Z</time>
      </trkpt>
      <trkpt lat="42.80222" lon="0.40509">
        <ele>949.5</ele>
        <time>2017-04-16T11:53:25Z</time>
      </trkpt>
      <trkpt lat="42.80222" lon="0.40508">
        <ele>949</ele>
        <time>2017-04-16T11:53:28Z</time>
      </trkpt>
      <trkpt lat="42.80222" lon="0.40507">
        <ele>951</ele>
        <time>2017-04-16T11:53:31Z</time>
      </trkpt>
      <trkpt lat="42.80222" lon="0.40507">
        <ele>949</ele>
        <time>2017-04-16T11:53:34Z</time>
      </trkpt>
      <trkpt lat="42.80222" lon="0.40507">
        <ele>950.2</ele>
        <time>2017-04-16T11:53:37Z</time>
      </trkpt>
      <trkpt lat="42.80222" lon="0.40508">
        <ele>950.2</ele>
        <time>2017-04-16T11:53:40Z</time>
      </trkpt>
      <trkpt lat="42.80222" lon="0.40508">
        <ele>949</ele>
        <time>2017-04-16T11:53:43Z</time>
      </trkpt>
      <trkpt lat="42.80222" lon="0.40509">
        <ele>950</ele>
        <time>2017-04-16T11:53:46Z</time>
      </trkpt>
      <trkpt lat="42.80222" lon="0.40508">
        <ele>950.2</ele>
        <time>2017-04-16T11:53:49Z</time>
      </trkpt>
      <trkpt lat="42.80222" lon="0.40508">
        <ele>949.5</ele>
        <time>2017-04-16T11:53:52Z</time>
      </trkpt>
      <trkpt lat="42.80222" lon="0.40509">
        <ele>950.5</ele>
        <time>2017-04-16T11:53:55Z</time>
      </trkpt>
      <trkpt lat="42.80222" lon="0.40509">
        <ele>950.5</ele>
        <time>2017-04-16T11:53:58Z</time>
      </trkpt>
      <trkpt lat="42.80222" lon="0.40509">
        <ele>948.5</ele>
        <time>2017-04-16T11:54:01Z</time>
      </trkpt>
      <trkpt lat="42.80222" lon="0.40509">
        <ele>949</ele>
        <time>2017-04-16T11:54:04Z</time>
      </trkpt>
      <trkpt lat="42.80222" lon="0.4051">
        <ele>949</ele>
        <time>2017-04-16T11:54:07Z</time>
      </trkpt>
      <trkpt lat="42.80222" lon="0.4051">
        <ele>950</ele>
        <time>2017-04-16T11:54:10Z</time>
      </trkpt>
      <trkpt lat="42.80222" lon="0.4051">
        <ele>949.2</ele>
        <time>2017-04-16T11:54:13Z</time>
      </trkpt>
      <trkpt lat="42.80221" lon="0.4051">
        <ele>948</ele>
        <time>2017-04-16T11:54:16Z</time>
      </trkpt>
      <trkpt lat="42.80221" lon="0.40511">
        <ele>949.7</ele>
        <time>2017-04-16T11:54:19Z</time>
      </trkpt>
      <trkpt lat="42.80221" lon="0.40511">
        <ele>949.2</ele>
        <time>2017-04-16T11:54:22Z</time>
      </trkpt>
      <trkpt lat="42.80221" lon="0.40511">
        <ele>950</ele>
        <time>2017-04-16T11:54:25Z</time>
      </trkpt>
      <trkpt lat="42.80221" lon="0.40511">
        <ele>951</ele>
        <time>2017-04-16T11:54:28Z</time>
      </trkpt>
      <trkpt lat="42.80221" lon="0.40511">
        <ele>949.7</ele>
        <time>2017-04-16T11:54:31Z</time>
      </trkpt>
      <trkpt lat="42.80221" lon="0.40511">
        <ele>949.7</ele>
        <time>2017-04-16T11:54:34Z</time>
      </trkpt>
      <trkpt lat="42.80221" lon="0.40511">
        <ele>950</ele>
        <time>2017-04-16T11:54:37Z</time>
      </trkpt>
      <trkpt lat="42.80221" lon="0.40511">
        <ele>951.5</ele>
        <time>2017-04-16T11:54:40Z</time>
      </trkpt>
      <trkpt lat="42.80221" lon="0.40511">
        <ele>951.5</ele>
        <time>2017-04-16T11:54:43Z</time>
      </trkpt>
      <trkpt lat="42.80221" lon="0.40511">
        <ele>950.2</ele>
        <time>2017-04-16T11:54:46Z</time>
      </trkpt>
      <trkpt lat="42.80221" lon="0.40511">
        <ele>949</ele>
        <time>2017-04-16T11:54:49Z</time>
      </trkpt>
      <trkpt lat="42.80221" lon="0.4051">
        <ele>948.5</ele>
        <time>2017-04-16T11:54:52Z</time>
      </trkpt>
      <trkpt lat="42.80221" lon="0.4051">
        <ele>949</ele>
        <time>2017-04-16T11:54:55Z</time>
      </trkpt>
      <trkpt lat="42.80222" lon="0.4051">
        <ele>950.5</ele>
        <time>2017-04-16T11:54:58Z</time>
      </trkpt>
      <trkpt lat="42.80222" lon="0.4051">
        <ele>950</ele>
        <time>2017-04-16T11:55:01Z</time>
      </trkpt>
      <trkpt lat="42.80222" lon="0.4051">
        <ele>951</ele>
        <time>2017-04-16T11:55:04Z</time>
      </trkpt>
      <trkpt lat="42.80222" lon="0.4051">
        <ele>951.2</ele>
        <time>2017-04-16T11:55:07Z</time>
      </trkpt>
      <trkpt lat="42.80222" lon="0.4051">
        <ele>949.5</ele>
        <time>2017-04-16T11:55:10Z</time>
      </trkpt>
      <trkpt lat="42.80222" lon="0.4051">
        <ele>950</ele>
        <time>2017-04-16T11:55:13Z</time>
      </trkpt>
      <trkpt lat="42.80222" lon="0.4051">
        <ele>949.5</ele>
        <time>2017-04-16T11:55:16Z</time>
      </trkpt>
      <trkpt lat="42.80222" lon="0.4051">
        <ele>951.5</ele>
        <time>2017-04-16T11:55:19Z</time>
      </trkpt>
      <trkpt lat="42.80222" lon="0.4051">
        <ele>950.5</ele>
        <time>2017-04-16T11:55:22Z</time>
      </trkpt>
      <trkpt lat="42.80222" lon="0.4051">
        <ele>949.5</ele>
        <time>2017-04-16T11:55:25Z</time>
      </trkpt>
      <trkpt lat="42.80222" lon="0.40509">
        <ele>950</ele>
        <time>2017-04-16T11:55:28Z</time>
      </trkpt>
      <trkpt lat="42.80222" lon="0.40509">
        <ele>948.5</ele>
        <time>2017-04-16T11:55:31Z</time>
      </trkpt>
      <trkpt lat="42.80222" lon="0.40509">
        <ele>948.7</ele>
        <time>2017-04-16T11:55:34Z</time>
      </trkpt>
      <trkpt lat="42.80222" lon="0.40509">
        <ele>950</ele>
        <time>2017-04-16T11:55:37Z</time>
      </trkpt>
      <trkpt lat="42.80222" lon="0.40509">
        <ele>950</ele>
        <time>2017-04-16T11:55:40Z</time>
      </trkpt>
      <trkpt lat="42.80222" lon="0.40509">
        <ele>949</ele>
        <time>2017-04-16T11:55:43Z</time>
      </trkpt>
      <trkpt lat="42.80222" lon="0.40509">
        <ele>950</ele>
        <time>2017-04-16T11:55:46Z</time>
      </trkpt>
      <trkpt lat="42.80222" lon="0.40509">
        <ele>948</ele>
        <time>2017-04-16T11:55:49Z</time>
      </trkpt>
      <trkpt lat="42.80222" lon="0.40509">
        <ele>948.5</ele>
        <time>2017-04-16T11:55:52Z</time>
      </trkpt>
      <trkpt lat="42.80222" lon="0.40509">
        <ele>948</ele>
        <time>2017-04-16T11:55:55Z</time>
      </trkpt>
      <trkpt lat="42.80222" lon="0.40509">
        <ele>947</ele>
        <time>2017-04-16T11:55:58Z</time>
      </trkpt>
      <trkpt lat="42.80222" lon="0.40509">
        <ele>948</ele>
        <time>2017-04-16T11:56:01Z</time>
      </trkpt>
      <trkpt lat="42.80222" lon="0.40509">
        <ele>947.7</ele>
        <time>2017-04-16T11:56:04Z</time>
      </trkpt>
      <trkpt lat="42.80222" lon="0.40509">
        <ele>948.7</ele>
        <time>2017-04-16T11:56:07Z</time>
      </trkpt>
      <trkpt lat="42.80222" lon="0.40509">
        <ele>950</ele>
        <time>2017-04-16T11:56:10Z</time>
      </trkpt>
      <trkpt lat="42.80221" lon="0.40509">
        <ele>948.2</ele>
        <time>2017-04-16T11:56:13Z</time>
      </trkpt>
      <trkpt lat="42.80221" lon="0.40509">
        <ele>948</ele>
        <time>2017-04-16T11:56:16Z</time>
      </trkpt>
      <trkpt lat="42.80221" lon="0.40509">
        <ele>949.5</ele>
        <time>2017-04-16T11:56:19Z</time>
      </trkpt>
      <trkpt lat="42.80221" lon="0.40509">
        <ele>949</ele>
        <time>2017-04-16T11:56:22Z</time>
      </trkpt>
      <trkpt lat="42.80221" lon="0.4051">
        <ele>947.5</ele>
        <time>2017-04-16T11:56:25Z</time>
      </trkpt>
      <trkpt lat="42.80221" lon="0.4051">
        <ele>948.3</ele>
        <time>2017-04-16T11:56:28Z</time>
      </trkpt>
      <trkpt lat="42.80221" lon="0.4051">
        <ele>948</ele>
        <time>2017-04-16T11:56:31Z</time>
      </trkpt>
      <trkpt lat="42.80221" lon="0.4051">
        <ele>947</ele>
        <time>2017-04-16T11:56:34Z</time>
      </trkpt>
      <trkpt lat="42.80221" lon="0.4051">
        <ele>946.5</ele>
        <time>2017-04-16T11:56:37Z</time>
      </trkpt>
      <trkpt lat="42.80221" lon="0.4051">
        <ele>947</ele>
        <time>2017-04-16T11:56:40Z</time>
      </trkpt>
      <trkpt lat="42.80221" lon="0.4051">
        <ele>948</ele>
        <time>2017-04-16T11:56:43Z</time>
      </trkpt>
      <trkpt lat="42.80221" lon="0.4051">
        <ele>947</ele>
        <time>2017-04-16T11:56:46Z</time>
      </trkpt>
      <trkpt lat="42.80221" lon="0.4051">
        <ele>947</ele>
        <time>2017-04-16T11:56:49Z</time>
      </trkpt>
      <trkpt lat="42.80221" lon="0.4051">
        <ele>947.7</ele>
        <time>2017-04-16T11:56:52Z</time>
      </trkpt>
      <trkpt lat="42.80221" lon="0.4051">
        <ele>947</ele>
        <time>2017-04-16T11:56:55Z</time>
      </trkpt>
      <trkpt lat="42.80221" lon="0.4051">
        <ele>947</ele>
        <time>2017-04-16T11:56:58Z</time>
      </trkpt>
      <trkpt lat="42.80221" lon="0.4051">
        <ele>946.5</ele>
        <time>2017-04-16T11:57:01Z</time>
      </trkpt>
      <trkpt lat="42.80221" lon="0.4051">
        <ele>947</ele>
        <time>2017-04-16T11:57:04Z</time>
      </trkpt>
      <trkpt lat="42.80221" lon="0.4051">
        <ele>944</ele>
        <time>2017-04-16T11:57:07Z</time>
      </trkpt>
      <trkpt lat="42.80221" lon="0.4051">
        <ele>945.5</ele>
        <time>2017-04-16T11:57:10Z</time>
      </trkpt>
      <trkpt lat="42.80221" lon="0.4051">
        <ele>945.5</ele>
        <time>2017-04-16T11:57:13Z</time>
      </trkpt>
      <trkpt lat="42.80221" lon="0.4051">
        <ele>947</ele>
        <time>2017-04-16T11:57:16Z</time>
      </trkpt>
      <trkpt lat="42.80221" lon="0.4051">
        <ele>946</ele>
        <time>2017-04-16T11:57:19Z</time>
      </trkpt>
      <trkpt lat="42.80221" lon="0.4051">
        <ele>944.2</ele>
        <time>2017-04-16T11:57:22Z</time>
      </trkpt>
      <trkpt lat="42.80221" lon="0.40509">
        <ele>944</ele>
        <time>2017-04-16T11:57:25Z</time>
      </trkpt>
      <trkpt lat="42.80223" lon="0.40506">
        <ele>945.5</ele>
        <time>2017-04-16T11:57:28Z</time>
      </trkpt>
      <trkpt lat="42.80225" lon="0.40502">
        <ele>946</ele>
        <time>2017-04-16T11:57:31Z</time>
      </trkpt>
      <trkpt lat="42.80226" lon="0.405">
        <ele>945.5</ele>
        <time>2017-04-16T11:57:34Z</time>
      </trkpt>
      <trkpt lat="42.80227" lon="0.405">
        <ele>944.2</ele>
        <time>2017-04-16T11:57:37Z</time>
      </trkpt>
      <trkpt lat="42.80227" lon="0.40499">
        <ele>946</ele>
        <time>2017-04-16T11:57:40Z</time>
      </trkpt>
      <trkpt lat="42.80227" lon="0.40499">
        <ele>946</ele>
        <time>2017-04-16T11:57:43Z</time>
      </trkpt>
      <trkpt lat="42.80228" lon="0.40499">
        <ele>945.5</ele>
        <time>2017-04-16T11:57:46Z</time>
      </trkpt>
      <trkpt lat="42.80228" lon="0.40499">
        <ele>945</ele>
        <time>2017-04-16T11:57:49Z</time>
      </trkpt>
      <trkpt lat="42.80228" lon="0.40499">
        <ele>945</ele>
        <time>2017-04-16T11:57:52Z</time>
      </trkpt>
      <trkpt lat="42.80229" lon="0.40499">
        <ele>944.5</ele>
        <time>2017-04-16T11:57:55Z</time>
      </trkpt>
      <trkpt lat="42.80229" lon="0.40499">
        <ele>945.5</ele>
        <time>2017-04-16T11:57:58Z</time>
      </trkpt>
      <trkpt lat="42.80229" lon="0.40499">
        <ele>946</ele>
        <time>2017-04-16T11:58:01Z</time>
      </trkpt>
      <trkpt lat="42.8023" lon="0.40499">
        <ele>945</ele>
        <time>2017-04-16T11:58:04Z</time>
      </trkpt>
      <trkpt lat="42.8023" lon="0.40498">
        <ele>945.7</ele>
        <time>2017-04-16T11:58:07Z</time>
      </trkpt>
      <trkpt lat="42.8023" lon="0.40498">
        <ele>945.2</ele>
        <time>2017-04-16T11:58:10Z</time>
      </trkpt>
      <trkpt lat="42.8023" lon="0.40498">
        <ele>945.7</ele>
        <time>2017-04-16T11:58:13Z</time>
      </trkpt>
      <trkpt lat="42.8023" lon="0.40498">
        <ele>945.5</ele>
        <time>2017-04-16T11:58:16Z</time>
      </trkpt>
      <trkpt lat="42.80231" lon="0.40497">
        <ele>945.5</ele>
        <time>2017-04-16T11:58:19Z</time>
      </trkpt>
      <trkpt lat="42.8023" lon="0.40497">
        <ele>945</ele>
        <time>2017-04-16T11:58:22Z</time>
      </trkpt>
      <trkpt lat="42.8023" lon="0.40497">
        <ele>945</ele>
        <time>2017-04-16T11:58:25Z</time>
      </trkpt>
      <trkpt lat="42.8023" lon="0.40497">
        <ele>945.7</ele>
        <time>2017-04-16T11:58:28Z</time>
      </trkpt>
      <trkpt lat="42.8023" lon="0.40497">
        <ele>945.5</ele>
        <time>2017-04-16T11:58:31Z</time>
      </trkpt>
      <trkpt lat="42.80229" lon="0.40497">
        <ele>946.5</ele>
        <time>2017-04-16T11:58:34Z</time>
      </trkpt>
      <trkpt lat="42.80229" lon="0.40497">
        <ele>946.5</ele>
        <time>2017-04-16T11:58:37Z</time>
      </trkpt>
      <trkpt lat="42.80228" lon="0.40498">
        <ele>945.5</ele>
        <time>2017-04-16T11:58:40Z</time>
      </trkpt>
      <trkpt lat="42.80227" lon="0.40498">
        <ele>945.5</ele>
        <time>2017-04-16T11:58:43Z</time>
      </trkpt>
      <trkpt lat="42.80227" lon="0.40499">
        <ele>945</ele>
        <time>2017-04-16T11:58:46Z</time>
      </trkpt>
      <trkpt lat="42.80226" lon="0.405">
        <ele>945</ele>
        <time>2017-04-16T11:58:49Z</time>
      </trkpt>
      <trkpt lat="42.80225" lon="0.40501">
        <ele>945.5</ele>
        <time>2017-04-16T11:58:52Z</time>
      </trkpt>
      <trkpt lat="42.80225" lon="0.40502">
        <ele>946</ele>
        <time>2017-04-16T11:58:55Z</time>
      </trkpt>
      <trkpt lat="42.80224" lon="0.40504">
        <ele>944.5</ele>
        <time>2017-04-16T11:58:58Z</time>
      </trkpt>
      <trkpt lat="42.80223" lon="0.40504">
        <ele>945</ele>
        <time>2017-04-16T11:59:01Z</time>
      </trkpt>
      <trkpt lat="42.80223" lon="0.40505">
        <ele>945</ele>
        <time>2017-04-16T11:59:04Z</time>
      </trkpt>
      <trkpt lat="42.80222" lon="0.40505">
        <ele>946.5</ele>
        <time>2017-04-16T11:59:07Z</time>
      </trkpt>
      <trkpt lat="42.80222" lon="0.40505">
        <ele>946.2</ele>
        <time>2017-04-16T11:59:10Z</time>
      </trkpt>
      <trkpt lat="42.80221" lon="0.40505">
        <ele>946</ele>
        <time>2017-04-16T11:59:13Z</time>
      </trkpt>
      <trkpt lat="42.80221" lon="0.40506">
        <ele>945.5</ele>
        <time>2017-04-16T11:59:16Z</time>
      </trkpt>
      <trkpt lat="42.80221" lon="0.40506">
        <ele>944.2</ele>
        <time>2017-04-16T11:59:19Z</time>
      </trkpt>
      <trkpt lat="42.80221" lon="0.40507">
        <ele>944.7</ele>
        <time>2017-04-16T11:59:22Z</time>
      </trkpt>
      <trkpt lat="42.80221" lon="0.40507">
        <ele>946.5</ele>
        <time>2017-04-16T11:59:25Z</time>
      </trkpt>
      <trkpt lat="42.8022" lon="0.40507">
        <ele>946</ele>
        <time>2017-04-16T11:59:28Z</time>
      </trkpt>
      <trkpt lat="42.8022" lon="0.40507">
        <ele>945.7</ele>
        <time>2017-04-16T11:59:31Z</time>
      </trkpt>
      <trkpt lat="42.8022" lon="0.40507">
        <ele>945.5</ele>
        <time>2017-04-16T11:59:34Z</time>
      </trkpt>
      <trkpt lat="42.8022" lon="0.40507">
        <ele>946</ele>
        <time>2017-04-16T11:59:37Z</time>
      </trkpt>
      <trkpt lat="42.80219" lon="0.40508">
        <ele>946.7</ele>
        <time>2017-04-16T11:59:40Z</time>
      </trkpt>
      <trkpt lat="42.80219" lon="0.40507">
        <ele>946.2</ele>
        <time>2017-04-16T11:59:43Z</time>
      </trkpt>
      <trkpt lat="42.80219" lon="0.40508">
        <ele>945</ele>
        <time>2017-04-16T11:59:46Z</time>
      </trkpt>
      <trkpt lat="42.80219" lon="0.40508">
        <ele>945</ele>
        <time>2017-04-16T11:59:49Z</time>
      </trkpt>
      <trkpt lat="42.80219" lon="0.40508">
        <ele>945</ele>
        <time>2017-04-16T11:59:52Z</time>
      </trkpt>
      <trkpt lat="42.80219" lon="0.40508">
        <ele>945</ele>
        <time>2017-04-16T11:59:55Z</time>
      </trkpt>
      <trkpt lat="42.80219" lon="0.40508">
        <ele>945</ele>
        <time>2017-04-16T11:59:58Z</time>
      </trkpt>
      <trkpt lat="42.80219" lon="0.40508">
        <ele>945</ele>
        <time>2017-04-16T12:00:01Z</time>
      </trkpt>
      <trkpt lat="42.80219" lon="0.40508">
        <ele>945</ele>
        <time>2017-04-16T12:00:04Z</time>
      </trkpt>
      <trkpt lat="42.80219" lon="0.40509">
        <ele>945</ele>
        <time>2017-04-16T12:00:07Z</time>
      </trkpt>
      <trkpt lat="42.80218" lon="0.40509">
        <ele>946</ele>
        <time>2017-04-16T12:00:10Z</time>
      </trkpt>
      <trkpt lat="42.80218" lon="0.4051">
        <ele>946</ele>
        <time>2017-04-16T12:00:13Z</time>
      </trkpt>
      <trkpt lat="42.80218" lon="0.4051">
        <ele>946</ele>
        <time>2017-04-16T12:00:16Z</time>
      </trkpt>
      <trkpt lat="42.80218" lon="0.4051">
        <ele>945.5</ele>
        <time>2017-04-16T12:00:19Z</time>
      </trkpt>
      <trkpt lat="42.80218" lon="0.4051">
        <ele>946.5</ele>
        <time>2017-04-16T12:00:22Z</time>
      </trkpt>
      <trkpt lat="42.80219" lon="0.4051">
        <ele>947</ele>
        <time>2017-04-16T12:00:25Z</time>
      </trkpt>
      <trkpt lat="42.80219" lon="0.40509">
        <ele>947</ele>
        <time>2017-04-16T12:00:28Z</time>
      </trkpt>
      <trkpt lat="42.80219" lon="0.40509">
        <ele>945</ele>
        <time>2017-04-16T12:00:31Z</time>
      </trkpt>
      <trkpt lat="42.80219" lon="0.40508">
        <ele>946.2</ele>
        <time>2017-04-16T12:00:34Z</time>
      </trkpt>
      <trkpt lat="42.80219" lon="0.40508">
        <ele>945.2</ele>
        <time>2017-04-16T12:00:37Z</time>
      </trkpt>
      <trkpt lat="42.80219" lon="0.40507">
        <ele>946.5</ele>
        <time>2017-04-16T12:00:40Z</time>
      </trkpt>
      <trkpt lat="42.80219" lon="0.40507">
        <ele>946</ele>
        <time>2017-04-16T12:00:43Z</time>
      </trkpt>
      <trkpt lat="42.80219" lon="0.40507">
        <ele>945</ele>
        <time>2017-04-16T12:00:46Z</time>
      </trkpt>
      <trkpt lat="42.80219" lon="0.40507">
        <ele>947.2</ele>
        <time>2017-04-16T12:00:49Z</time>
      </trkpt>
      <trkpt lat="42.80219" lon="0.40507">
        <ele>946.5</ele>
        <time>2017-04-16T12:00:52Z</time>
      </trkpt>
      <trkpt lat="42.80219" lon="0.40507">
        <ele>945.5</ele>
        <time>2017-04-16T12:00:55Z</time>
      </trkpt>
      <trkpt lat="42.80219" lon="0.40507">
        <ele>945</ele>
        <time>2017-04-16T12:00:58Z</time>
      </trkpt>
      <trkpt lat="42.80219" lon="0.40507">
        <ele>945.7</ele>
        <time>2017-04-16T12:01:01Z</time>
      </trkpt>
      <trkpt lat="42.80219" lon="0.40506">
        <ele>946</ele>
        <time>2017-04-16T12:01:04Z</time>
      </trkpt>
      <trkpt lat="42.80219" lon="0.40506">
        <ele>946</ele>
        <time>2017-04-16T12:01:07Z</time>
      </trkpt>
      <trkpt lat="42.80219" lon="0.40506">
        <ele>946.5</ele>
        <time>2017-04-16T12:01:10Z</time>
      </trkpt>
      <trkpt lat="42.8022" lon="0.40505">
        <ele>946</ele>
        <time>2017-04-16T12:01:13Z</time>
      </trkpt>
      <trkpt lat="42.8022" lon="0.40505">
        <ele>946.7</ele>
        <time>2017-04-16T12:01:16Z</time>
      </trkpt>
      <trkpt lat="42.8022" lon="0.40505">
        <ele>946.5</ele>
        <time>2017-04-16T12:01:19Z</time>
      </trkpt>
      <trkpt lat="42.8022" lon="0.40504">
        <ele>946</ele>
        <time>2017-04-16T12:01:22Z</time>
      </trkpt>
      <trkpt lat="42.8022" lon="0.40504">
        <ele>946</ele>
        <time>2017-04-16T12:01:25Z</time>
      </trkpt>
      <trkpt lat="42.8022" lon="0.40504">
        <ele>946</ele>
        <time>2017-04-16T12:01:28Z</time>
      </trkpt>
      <trkpt lat="42.80219" lon="0.40504">
        <ele>946</ele>
        <time>2017-04-16T12:01:31Z</time>
      </trkpt>
      <trkpt lat="42.80219" lon="0.40505">
        <ele>946</ele>
        <time>2017-04-16T12:01:34Z</time>
      </trkpt>
      <trkpt lat="42.80219" lon="0.40506">
        <ele>946</ele>
        <time>2017-04-16T12:01:37Z</time>
      </trkpt>
      <trkpt lat="42.80219" lon="0.40506">
        <ele>946</ele>
        <time>2017-04-16T12:01:40Z</time>
      </trkpt>
      <trkpt lat="42.80219" lon="0.40507">
        <ele>945.7</ele>
        <time>2017-04-16T12:01:43Z</time>
      </trkpt>
      <trkpt lat="42.80219" lon="0.40507">
        <ele>946.7</ele>
        <time>2017-04-16T12:01:46Z</time>
      </trkpt>
      <trkpt lat="42.80219" lon="0.40507">
        <ele>945.5</ele>
        <time>2017-04-16T12:01:49Z</time>
      </trkpt>
      <trkpt lat="42.80219" lon="0.40507">
        <ele>945</ele>
        <time>2017-04-16T12:01:52Z</time>
      </trkpt>
      <trkpt lat="42.80219" lon="0.40506">
        <ele>946</ele>
        <time>2017-04-16T12:01:55Z</time>
      </trkpt>
      <trkpt lat="42.80219" lon="0.40506">
        <ele>945</ele>
        <time>2017-04-16T12:01:58Z</time>
      </trkpt>
      <trkpt lat="42.80219" lon="0.40507">
        <ele>946.5</ele>
        <time>2017-04-16T12:02:01Z</time>
      </trkpt>
      <trkpt lat="42.80218" lon="0.40508">
        <ele>946</ele>
        <time>2017-04-16T12:02:04Z</time>
      </trkpt>
      <trkpt lat="42.80218" lon="0.40509">
        <ele>947</ele>
        <time>2017-04-16T12:02:07Z</time>
      </trkpt>
      <trkpt lat="42.80218" lon="0.4051">
        <ele>946.2</ele>
        <time>2017-04-16T12:02:10Z</time>
      </trkpt>
      <trkpt lat="42.80218" lon="0.40511">
        <ele>944</ele>
        <time>2017-04-16T12:02:13Z</time>
      </trkpt>
      <trkpt lat="42.80218" lon="0.40511">
        <ele>946</ele>
        <time>2017-04-16T12:02:16Z</time>
      </trkpt>
      <trkpt lat="42.80219" lon="0.40513">
        <ele>946</ele>
        <time>2017-04-16T12:02:19Z</time>
      </trkpt>
      <trkpt lat="42.80219" lon="0.40513">
        <ele>945.5</ele>
        <time>2017-04-16T12:02:22Z</time>
      </trkpt>
      <trkpt lat="42.80219" lon="0.40513">
        <ele>945</ele>
        <time>2017-04-16T12:02:25Z</time>
      </trkpt>
      <trkpt lat="42.80219" lon="0.40514">
        <ele>946</ele>
        <time>2017-04-16T12:02:28Z</time>
      </trkpt>
      <trkpt lat="42.80219" lon="0.40514">
        <ele>946.7</ele>
        <time>2017-04-16T12:02:31Z</time>
      </trkpt>
      <trkpt lat="42.80219" lon="0.40513">
        <ele>945.5</ele>
        <time>2017-04-16T12:02:34Z</time>
      </trkpt>
      <trkpt lat="42.8022" lon="0.40512">
        <ele>947</ele>
        <time>2017-04-16T12:02:37Z</time>
      </trkpt>
      <trkpt lat="42.8022" lon="0.40512">
        <ele>946.2</ele>
        <time>2017-04-16T12:02:40Z</time>
      </trkpt>
      <trkpt lat="42.8022" lon="0.40512">
        <ele>946</ele>
        <time>2017-04-16T12:02:43Z</time>
      </trkpt>
      <trkpt lat="42.8022" lon="0.40511">
        <ele>946.7</ele>
        <time>2017-04-16T12:02:46Z</time>
      </trkpt>
      <trkpt lat="42.80221" lon="0.40511">
        <ele>945.5</ele>
        <time>2017-04-16T12:02:49Z</time>
      </trkpt>
      <trkpt lat="42.80221" lon="0.40511">
        <ele>945.5</ele>
        <time>2017-04-16T12:02:52Z</time>
      </trkpt>
      <trkpt lat="42.80221" lon="0.40511">
        <ele>946</ele>
        <time>2017-04-16T12:02:55Z</time>
      </trkpt>
      <trkpt lat="42.80221" lon="0.40511">
        <ele>945</ele>
        <time>2017-04-16T12:02:58Z</time>
      </trkpt>
      <trkpt lat="42.80221" lon="0.40511">
        <ele>946</ele>
        <time>2017-04-16T12:03:01Z</time>
      </trkpt>
      <trkpt lat="42.80221" lon="0.40511">
        <ele>946</ele>
        <time>2017-04-16T12:03:04Z</time>
      </trkpt>
      <trkpt lat="42.80221" lon="0.4051">
        <ele>944.2</ele>
        <time>2017-04-16T12:03:07Z</time>
      </trkpt>
      <trkpt lat="42.80221" lon="0.4051">
        <ele>948</ele>
        <time>2017-04-16T12:03:10Z</time>
      </trkpt>
      <trkpt lat="42.80221" lon="0.4051">
        <ele>945.7</ele>
        <time>2017-04-16T12:03:13Z</time>
      </trkpt>
      <trkpt lat="42.80221" lon="0.4051">
        <ele>945.5</ele>
        <time>2017-04-16T12:03:16Z</time>
      </trkpt>
      <trkpt lat="42.8022" lon="0.4051">
        <ele>945</ele>
        <time>2017-04-16T12:03:19Z</time>
      </trkpt>
      <trkpt lat="42.8022" lon="0.4051">
        <ele>946.5</ele>
        <time>2017-04-16T12:03:22Z</time>
      </trkpt>
      <trkpt lat="42.8022" lon="0.4051">
        <ele>946.5</ele>
        <time>2017-04-16T12:03:25Z</time>
      </trkpt>
      <trkpt lat="42.8022" lon="0.40511">
        <ele>946.7</ele>
        <time>2017-04-16T12:03:28Z</time>
      </trkpt>
      <trkpt lat="42.8022" lon="0.40511">
        <ele>946.2</ele>
        <time>2017-04-16T12:03:31Z</time>
      </trkpt>
      <trkpt lat="42.8022" lon="0.40511">
        <ele>944</ele>
        <time>2017-04-16T12:03:34Z</time>
      </trkpt>
      <trkpt lat="42.8022" lon="0.40511">
        <ele>946.5</ele>
        <time>2017-04-16T12:03:37Z</time>
      </trkpt>
      <trkpt lat="42.8022" lon="0.4051">
        <ele>946.2</ele>
        <time>2017-04-16T12:03:40Z</time>
      </trkpt>
      <trkpt lat="42.8022" lon="0.4051">
        <ele>947</ele>
        <time>2017-04-16T12:03:43Z</time>
      </trkpt>
      <trkpt lat="42.80221" lon="0.4051">
        <ele>946</ele>
        <time>2017-04-16T12:03:46Z</time>
      </trkpt>
      <trkpt lat="42.80221" lon="0.40509">
        <ele>945.5</ele>
        <time>2017-04-16T12:03:49Z</time>
      </trkpt>
      <trkpt lat="42.80221" lon="0.40509">
        <ele>946.5</ele>
        <time>2017-04-16T12:03:52Z</time>
      </trkpt>
      <trkpt lat="42.80223" lon="0.40506">
        <ele>946</ele>
        <time>2017-04-16T12:03:55Z</time>
      </trkpt>
      <trkpt lat="42.80223" lon="0.40506">
        <ele>945.5</ele>
        <time>2017-04-16T12:03:58Z</time>
      </trkpt>
      <trkpt lat="42.80223" lon="0.40507">
        <ele>945.7</ele>
        <time>2017-04-16T12:04:01Z</time>
      </trkpt>
      <trkpt lat="42.80223" lon="0.40507">
        <ele>946</ele>
        <time>2017-04-16T12:04:04Z</time>
      </trkpt>
      <trkpt lat="42.80223" lon="0.40507">
        <ele>945</ele>
        <time>2017-04-16T12:04:07Z</time>
      </trkpt>
      <trkpt lat="42.80223" lon="0.40508">
        <ele>946</ele>
        <time>2017-04-16T12:04:10Z</time>
      </trkpt>
      <trkpt lat="42.80223" lon="0.40508">
        <ele>945</ele>
        <time>2017-04-16T12:04:13Z</time>
      </trkpt>
      <trkpt lat="42.80223" lon="0.40508">
        <ele>945.7</ele>
        <time>2017-04-16T12:04:16Z</time>
      </trkpt>
      <trkpt lat="42.80223" lon="0.40508">
        <ele>945.5</ele>
        <time>2017-04-16T12:04:19Z</time>
      </trkpt>
      <trkpt lat="42.80223" lon="0.40508">
        <ele>945.7</ele>
        <time>2017-04-16T12:04:22Z</time>
      </trkpt>
      <trkpt lat="42.80223" lon="0.40508">
        <ele>946</ele>
        <time>2017-04-16T12:04:25Z</time>
      </trkpt>
      <trkpt lat="42.80223" lon="0.40509">
        <ele>946</ele>
        <time>2017-04-16T12:04:28Z</time>
      </trkpt>
      <trkpt lat="42.80223" lon="0.40509">
        <ele>945.5</ele>
        <time>2017-04-16T12:04:31Z</time>
      </trkpt>
      <trkpt lat="42.80223" lon="0.40509">
        <ele>945.5</ele>
        <time>2017-04-16T12:04:34Z</time>
      </trkpt>
      <trkpt lat="42.80223" lon="0.40509">
        <ele>946.5</ele>
        <time>2017-04-16T12:04:37Z</time>
      </trkpt>
      <trkpt lat="42.80223" lon="0.40509">
        <ele>946.2</ele>
        <time>2017-04-16T12:04:40Z</time>
      </trkpt>
      <trkpt lat="42.80223" lon="0.4051">
        <ele>946.2</ele>
        <time>2017-04-16T12:04:43Z</time>
      </trkpt>
      <trkpt lat="42.80223" lon="0.4051">
        <ele>946.7</ele>
        <time>2017-04-16T12:04:46Z</time>
      </trkpt>
      <trkpt lat="42.80223" lon="0.4051">
        <ele>946.2</ele>
        <time>2017-04-16T12:04:49Z</time>
      </trkpt>
      <trkpt lat="42.80224" lon="0.4051">
        <ele>946</ele>
        <time>2017-04-16T12:04:52Z</time>
      </trkpt>
      <trkpt lat="42.80224" lon="0.40511">
        <ele>946</ele>
        <time>2017-04-16T12:04:55Z</time>
      </trkpt>
      <trkpt lat="42.80224" lon="0.40511">
        <ele>944.5</ele>
        <time>2017-04-16T12:04:58Z</time>
      </trkpt>
      <trkpt lat="42.80224" lon="0.40511">
        <ele>944.7</ele>
        <time>2017-04-16T12:05:01Z</time>
      </trkpt>
      <trkpt lat="42.80224" lon="0.40511">
        <ele>946</ele>
        <time>2017-04-16T12:05:04Z</time>
      </trkpt>
      <trkpt lat="42.80224" lon="0.40511">
        <ele>946</ele>
        <time>2017-04-16T12:05:07Z</time>
      </trkpt>
      <trkpt lat="42.80224" lon="0.40511">
        <ele>946.7</ele>
        <time>2017-04-16T12:05:10Z</time>
      </trkpt>
      <trkpt lat="42.80224" lon="0.40511">
        <ele>946.2</ele>
        <time>2017-04-16T12:05:13Z</time>
      </trkpt>
      <trkpt lat="42.80224" lon="0.40511">
        <ele>947.5</ele>
        <time>2017-04-16T12:05:16Z</time>
      </trkpt>
      <trkpt lat="42.80224" lon="0.40511">
        <ele>947.5</ele>
        <time>2017-04-16T12:05:19Z</time>
      </trkpt>
      <trkpt lat="42.80224" lon="0.40511">
        <ele>945.5</ele>
        <time>2017-04-16T12:05:22Z</time>
      </trkpt>
      <trkpt lat="42.80224" lon="0.40512">
        <ele>946.5</ele>
        <time>2017-04-16T12:05:25Z</time>
      </trkpt>
      <trkpt lat="42.80224" lon="0.40512">
        <ele>946</ele>
        <time>2017-04-16T12:05:28Z</time>
      </trkpt>
      <trkpt lat="42.80224" lon="0.40512">
        <ele>945.2</ele>
        <time>2017-04-16T12:05:31Z</time>
      </trkpt>
      <trkpt lat="42.80224" lon="0.40512">
        <ele>943</ele>
        <time>2017-04-16T12:05:34Z</time>
      </trkpt>
      <trkpt lat="42.80224" lon="0.40512">
        <ele>946</ele>
        <time>2017-04-16T12:05:37Z</time>
      </trkpt>
      <trkpt lat="42.80224" lon="0.40512">
        <ele>946.2</ele>
        <time>2017-04-16T12:05:40Z</time>
      </trkpt>
      <trkpt lat="42.80223" lon="0.40512">
        <ele>946.5</ele>
        <time>2017-04-16T12:05:43Z</time>
      </trkpt>
      <trkpt lat="42.80223" lon="0.40512">
        <ele>947.7</ele>
        <time>2017-04-16T12:05:46Z</time>
      </trkpt>
      <trkpt lat="42.80223" lon="0.40512">
        <ele>947</ele>
        <time>2017-04-16T12:05:49Z</time>
      </trkpt>
      <trkpt lat="42.80223" lon="0.40512">
        <ele>946.5</ele>
        <time>2017-04-16T12:05:52Z</time>
      </trkpt>
      <trkpt lat="42.80223" lon="0.40512">
        <ele>949</ele>
        <time>2017-04-16T12:05:55Z</time>
      </trkpt>
      <trkpt lat="42.80223" lon="0.40512">
        <ele>947</ele>
        <time>2017-04-16T12:05:58Z</time>
      </trkpt>
      <trkpt lat="42.80223" lon="0.40512">
        <ele>947.5</ele>
        <time>2017-04-16T12:06:01Z</time>
      </trkpt>
      <trkpt lat="42.80223" lon="0.40512">
        <ele>948</ele>
        <time>2017-04-16T12:06:04Z</time>
      </trkpt>
      <trkpt lat="42.80223" lon="0.40512">
        <ele>947.2</ele>
        <time>2017-04-16T12:06:07Z</time>
      </trkpt>
      <trkpt lat="42.80223" lon="0.40512">
        <ele>947.7</ele>
        <time>2017-04-16T12:06:10Z</time>
      </trkpt>
      <trkpt lat="42.80223" lon="0.40512">
        <ele>948.5</ele>
        <time>2017-04-16T12:06:13Z</time>
      </trkpt>
      <trkpt lat="42.80223" lon="0.40512">
        <ele>949</ele>
        <time>2017-04-16T12:06:16Z</time>
      </trkpt>
      <trkpt lat="42.80223" lon="0.40512">
        <ele>948.2</ele>
        <time>2017-04-16T12:06:19Z</time>
      </trkpt>
      <trkpt lat="42.80223" lon="0.40512">
        <ele>948</ele>
        <time>2017-04-16T12:06:22Z</time>
      </trkpt>
      <trkpt lat="42.80223" lon="0.40512">
        <ele>947.7</ele>
        <time>2017-04-16T12:06:25Z</time>
      </trkpt>
      <trkpt lat="42.80222" lon="0.40512">
        <ele>948.5</ele>
        <time>2017-04-16T12:06:28Z</time>
      </trkpt>
      <trkpt lat="42.80222" lon="0.40512">
        <ele>948.2</ele>
        <time>2017-04-16T12:06:31Z</time>
      </trkpt>
      <trkpt lat="42.80222" lon="0.40512">
        <ele>947.2</ele>
        <time>2017-04-16T12:06:34Z</time>
      </trkpt>
      <trkpt lat="42.80222" lon="0.40512">
        <ele>948.5</ele>
        <time>2017-04-16T12:06:37Z</time>
      </trkpt>
      <trkpt lat="42.80222" lon="0.40512">
        <ele>949</ele>
        <time>2017-04-16T12:06:40Z</time>
      </trkpt>
      <trkpt lat="42.80222" lon="0.40513">
        <ele>949.2</ele>
        <time>2017-04-16T12:06:43Z</time>
      </trkpt>
      <trkpt lat="42.80222" lon="0.40513">
        <ele>949</ele>
        <time>2017-04-16T12:06:46Z</time>
      </trkpt>
      <trkpt lat="42.80222" lon="0.40512">
        <ele>947.5</ele>
        <time>2017-04-16T12:06:49Z</time>
      </trkpt>
      <trkpt lat="42.80222" lon="0.40512">
        <ele>948.7</ele>
        <time>2017-04-16T12:06:52Z</time>
      </trkpt>
      <trkpt lat="42.80222" lon="0.40512">
        <ele>949</ele>
        <time>2017-04-16T12:06:55Z</time>
      </trkpt>
      <trkpt lat="42.80222" lon="0.40512">
        <ele>949.3</ele>
        <time>2017-04-16T12:06:58Z</time>
      </trkpt>
      <trkpt lat="42.80223" lon="0.40512">
        <ele>950</ele>
        <time>2017-04-16T12:07:01Z</time>
      </trkpt>
      <trkpt lat="42.80223" lon="0.40511">
        <ele>949.2</ele>
        <time>2017-04-16T12:07:04Z</time>
      </trkpt>
      <trkpt lat="42.80223" lon="0.40511">
        <ele>950.5</ele>
        <time>2017-04-16T12:07:07Z</time>
      </trkpt>
      <trkpt lat="42.80223" lon="0.40511">
        <ele>949</ele>
        <time>2017-04-16T12:07:10Z</time>
      </trkpt>
      <trkpt lat="42.80223" lon="0.40511">
        <ele>949</ele>
        <time>2017-04-16T12:07:13Z</time>
      </trkpt>
      <trkpt lat="42.80223" lon="0.4051">
        <ele>950</ele>
        <time>2017-04-16T12:07:16Z</time>
      </trkpt>
      <trkpt lat="42.80223" lon="0.4051">
        <ele>946.5</ele>
        <time>2017-04-16T12:07:19Z</time>
      </trkpt>
      <trkpt lat="42.80223" lon="0.4051">
        <ele>949.5</ele>
        <time>2017-04-16T12:07:22Z</time>
      </trkpt>
      <trkpt lat="42.80224" lon="0.4051">
        <ele>950.5</ele>
        <time>2017-04-16T12:07:25Z</time>
      </trkpt>
      <trkpt lat="42.80224" lon="0.4051">
        <ele>951</ele>
        <time>2017-04-16T12:07:28Z</time>
      </trkpt>
      <trkpt lat="42.80224" lon="0.4051">
        <ele>949</ele>
        <time>2017-04-16T12:07:31Z</time>
      </trkpt>
      <trkpt lat="42.80224" lon="0.4051">
        <ele>950.7</ele>
        <time>2017-04-16T12:07:34Z</time>
      </trkpt>
      <trkpt lat="42.80224" lon="0.40509">
        <ele>949.5</ele>
        <time>2017-04-16T12:07:37Z</time>
      </trkpt>
      <trkpt lat="42.80224" lon="0.40509">
        <ele>949.7</ele>
        <time>2017-04-16T12:07:40Z</time>
      </trkpt>
      <trkpt lat="42.80224" lon="0.40508">
        <ele>949.5</ele>
        <time>2017-04-16T12:07:43Z</time>
      </trkpt>
      <trkpt lat="42.80224" lon="0.40508">
        <ele>950.5</ele>
        <time>2017-04-16T12:07:46Z</time>
      </trkpt>
      <trkpt lat="42.80224" lon="0.40508">
        <ele>950.2</ele>
        <time>2017-04-16T12:07:49Z</time>
      </trkpt>
      <trkpt lat="42.80224" lon="0.40507">
        <ele>950</ele>
        <time>2017-04-16T12:07:52Z</time>
      </trkpt>
      <trkpt lat="42.80224" lon="0.40507">
        <ele>950</ele>
        <time>2017-04-16T12:07:55Z</time>
      </trkpt>
      <trkpt lat="42.80224" lon="0.40507">
        <ele>949</ele>
        <time>2017-04-16T12:07:58Z</time>
      </trkpt>
      <trkpt lat="42.80224" lon="0.40507">
        <ele>950</ele>
        <time>2017-04-16T12:08:01Z</time>
      </trkpt>
      <trkpt lat="42.80224" lon="0.40506">
        <ele>950</ele>
        <time>2017-04-16T12:08:04Z</time>
      </trkpt>
      <trkpt lat="42.80224" lon="0.40506">
        <ele>949.5</ele>
        <time>2017-04-16T12:08:07Z</time>
      </trkpt>
      <trkpt lat="42.80224" lon="0.40506">
        <ele>949</ele>
        <time>2017-04-16T12:08:10Z</time>
      </trkpt>
      <trkpt lat="42.80224" lon="0.40505">
        <ele>950</ele>
        <time>2017-04-16T12:08:13Z</time>
      </trkpt>
      <trkpt lat="42.80225" lon="0.40505">
        <ele>950.7</ele>
        <time>2017-04-16T12:08:16Z</time>
      </trkpt>
      <trkpt lat="42.80225" lon="0.40505">
        <ele>949.5</ele>
        <time>2017-04-16T12:08:19Z</time>
      </trkpt>
      <trkpt lat="42.80225" lon="0.40504">
        <ele>949.2</ele>
        <time>2017-04-16T12:08:22Z</time>
      </trkpt>
      <trkpt lat="42.80225" lon="0.40504">
        <ele>949.7</ele>
        <time>2017-04-16T12:08:25Z</time>
      </trkpt>
      <trkpt lat="42.80225" lon="0.40504">
        <ele>950</ele>
        <time>2017-04-16T12:08:28Z</time>
      </trkpt>
      <trkpt lat="42.80225" lon="0.40503">
        <ele>951</ele>
        <time>2017-04-16T12:08:31Z</time>
      </trkpt>
      <trkpt lat="42.80225" lon="0.40503">
        <ele>949.5</ele>
        <time>2017-04-16T12:08:34Z</time>
      </trkpt>
      <trkpt lat="42.80225" lon="0.40503">
        <ele>950</ele>
        <time>2017-04-16T12:08:37Z</time>
      </trkpt>
      <trkpt lat="42.80225" lon="0.40503">
        <ele>950.5</ele>
        <time>2017-04-16T12:08:40Z</time>
      </trkpt>
      <trkpt lat="42.80225" lon="0.40502">
        <ele>950.5</ele>
        <time>2017-04-16T12:08:43Z</time>
      </trkpt>
      <trkpt lat="42.80225" lon="0.40502">
        <ele>951</ele>
        <time>2017-04-16T12:08:46Z</time>
      </trkpt>
      <trkpt lat="42.80225" lon="0.40502">
        <ele>949.5</ele>
        <time>2017-04-16T12:08:49Z</time>
      </trkpt>
      <trkpt lat="42.80225" lon="0.40502">
        <ele>950</ele>
        <time>2017-04-16T12:08:52Z</time>
      </trkpt>
      <trkpt lat="42.80225" lon="0.40502">
        <ele>950.5</ele>
        <time>2017-04-16T12:08:55Z</time>
      </trkpt>
      <trkpt lat="42.80225" lon="0.40501">
        <ele>951</ele>
        <time>2017-04-16T12:08:58Z</time>
      </trkpt>
      <trkpt lat="42.80225" lon="0.40501">
        <ele>951</ele>
        <time>2017-04-16T12:09:01Z</time>
      </trkpt>
      <trkpt lat="42.80225" lon="0.40501">
        <ele>950</ele>
        <time>2017-04-16T12:09:04Z</time>
      </trkpt>
      <trkpt lat="42.80225" lon="0.40501">
        <ele>949.5</ele>
        <time>2017-04-16T12:09:07Z</time>
      </trkpt>
      <trkpt lat="42.80225" lon="0.40501">
        <ele>950</ele>
        <time>2017-04-16T12:09:10Z</time>
      </trkpt>
      <trkpt lat="42.80225" lon="0.40501">
        <ele>950</ele>
        <time>2017-04-16T12:09:13Z</time>
      </trkpt>
      <trkpt lat="42.80225" lon="0.405">
        <ele>951</ele>
        <time>2017-04-16T12:09:16Z</time>
      </trkpt>
      <trkpt lat="42.80225" lon="0.405">
        <ele>951</ele>
        <time>2017-04-16T12:09:19Z</time>
      </trkpt>
      <trkpt lat="42.80225" lon="0.405">
        <ele>949.5</ele>
        <time>2017-04-16T12:09:22Z</time>
      </trkpt>
      <trkpt lat="42.80225" lon="0.405">
        <ele>949</ele>
        <time>2017-04-16T12:09:25Z</time>
      </trkpt>
      <trkpt lat="42.80225" lon="0.405">
        <ele>948.3</ele>
        <time>2017-04-16T12:09:28Z</time>
      </trkpt>
      <trkpt lat="42.80225" lon="0.40499">
        <ele>948.5</ele>
        <time>2017-04-16T12:09:31Z</time>
      </trkpt>
      <trkpt lat="42.80225" lon="0.40499">
        <ele>950.5</ele>
        <time>2017-04-16T12:09:34Z</time>
      </trkpt>
      <trkpt lat="42.80225" lon="0.40499">
        <ele>949.5</ele>
        <time>2017-04-16T12:09:37Z</time>
      </trkpt>
      <trkpt lat="42.80225" lon="0.40499">
        <ele>949.7</ele>
        <time>2017-04-16T12:09:40Z</time>
      </trkpt>
      <trkpt lat="42.80225" lon="0.40498">
        <ele>950</ele>
        <time>2017-04-16T12:09:43Z</time>
      </trkpt>
      <trkpt lat="42.80225" lon="0.40498">
        <ele>949.2</ele>
        <time>2017-04-16T12:09:46Z</time>
      </trkpt>
      <trkpt lat="42.80225" lon="0.40498">
        <ele>951</ele>
        <time>2017-04-16T12:09:49Z</time>
      </trkpt>
      <trkpt lat="42.80225" lon="0.40498">
        <ele>949</ele>
        <time>2017-04-16T12:09:52Z</time>
      </trkpt>
      <trkpt lat="42.80225" lon="0.40498">
        <ele>949.7</ele>
        <time>2017-04-16T12:09:55Z</time>
      </trkpt>
      <trkpt lat="42.80225" lon="0.40497">
        <ele>950</ele>
        <time>2017-04-16T12:09:58Z</time>
      </trkpt>
      <trkpt lat="42.80225" lon="0.40497">
        <ele>949.7</ele>
        <time>2017-04-16T12:10:01Z</time>
      </trkpt>
      <trkpt lat="42.80225" lon="0.40497">
        <ele>950.5</ele>
        <time>2017-04-16T12:10:04Z</time>
      </trkpt>
      <trkpt lat="42.80225" lon="0.40497">
        <ele>950.2</ele>
        <time>2017-04-16T12:10:07Z</time>
      </trkpt>
      <trkpt lat="42.80225" lon="0.40497">
        <ele>950</ele>
        <time>2017-04-16T12:10:10Z</time>
      </trkpt>
      <trkpt lat="42.80225" lon="0.40497">
        <ele>949.5</ele>
        <time>2017-04-16T12:10:13Z</time>
      </trkpt>
      <trkpt lat="42.80225" lon="0.40497">
        <ele>949</ele>
        <time>2017-04-16T12:10:16Z</time>
      </trkpt>
      <trkpt lat="42.80225" lon="0.40497">
        <ele>949</ele>
        <time>2017-04-16T12:10:19Z</time>
      </trkpt>
      <trkpt lat="42.80225" lon="0.40497">
        <ele>947</ele>
        <time>2017-04-16T12:10:22Z</time>
      </trkpt>
      <trkpt lat="42.80225" lon="0.40497">
        <ele>949</ele>
        <time>2017-04-16T12:10:25Z</time>
      </trkpt>
      <trkpt lat="42.80225" lon="0.40497">
        <ele>949</ele>
        <time>2017-04-16T12:10:28Z</time>
      </trkpt>
      <trkpt lat="42.80225" lon="0.40497">
        <ele>949</ele>
        <time>2017-04-16T12:10:31Z</time>
      </trkpt>
      <trkpt lat="42.80225" lon="0.40497">
        <ele>951</ele>
        <time>2017-04-16T12:10:34Z</time>
      </trkpt>
      <trkpt lat="42.80225" lon="0.40497">
        <ele>949</ele>
        <time>2017-04-16T12:10:37Z</time>
      </trkpt>
      <trkpt lat="42.80225" lon="0.40497">
        <ele>950</ele>
        <time>2017-04-16T12:10:40Z</time>
      </trkpt>
      <trkpt lat="42.80225" lon="0.40497">
        <ele>949.2</ele>
        <time>2017-04-16T12:10:43Z</time>
      </trkpt>
      <trkpt lat="42.80225" lon="0.40497">
        <ele>949.5</ele>
        <time>2017-04-16T12:10:46Z</time>
      </trkpt>
      <trkpt lat="42.80225" lon="0.40497">
        <ele>949.5</ele>
        <time>2017-04-16T12:10:49Z</time>
      </trkpt>
      <trkpt lat="42.80225" lon="0.40497">
        <ele>949.7</ele>
        <time>2017-04-16T12:10:52Z</time>
      </trkpt>
      <trkpt lat="42.80225" lon="0.40497">
        <ele>950</ele>
        <time>2017-04-16T12:10:55Z</time>
      </trkpt>
      <trkpt lat="42.80225" lon="0.40497">
        <ele>950</ele>
        <time>2017-04-16T12:10:58Z</time>
      </trkpt>
      <trkpt lat="42.80225" lon="0.40497">
        <ele>949.5</ele>
        <time>2017-04-16T12:11:01Z</time>
      </trkpt>
      <trkpt lat="42.80225" lon="0.40498">
        <ele>949.7</ele>
        <time>2017-04-16T12:11:04Z</time>
      </trkpt>
      <trkpt lat="42.80225" lon="0.40498">
        <ele>950</ele>
        <time>2017-04-16T12:11:07Z</time>
      </trkpt>
      <trkpt lat="42.80226" lon="0.40498">
        <ele>948.5</ele>
        <time>2017-04-16T12:11:10Z</time>
      </trkpt>
      <trkpt lat="42.80226" lon="0.40498">
        <ele>948.5</ele>
        <time>2017-04-16T12:11:13Z</time>
      </trkpt>
      <trkpt lat="42.80227" lon="0.40498">
        <ele>950</ele>
        <time>2017-04-16T12:11:16Z</time>
      </trkpt>
      <trkpt lat="42.80227" lon="0.40498">
        <ele>950</ele>
        <time>2017-04-16T12:11:19Z</time>
      </trkpt>
      <trkpt lat="42.80227" lon="0.40498">
        <ele>949</ele>
        <time>2017-04-16T12:11:22Z</time>
      </trkpt>
      <trkpt lat="42.80227" lon="0.40497">
        <ele>949</ele>
        <time>2017-04-16T12:11:25Z</time>
      </trkpt>
      <trkpt lat="42.80227" lon="0.40496">
        <ele>949.7</ele>
        <time>2017-04-16T12:11:28Z</time>
      </trkpt>
      <trkpt lat="42.80227" lon="0.40496">
        <ele>949.5</ele>
        <time>2017-04-16T12:11:31Z</time>
      </trkpt>
      <trkpt lat="42.80227" lon="0.40496">
        <ele>950</ele>
        <time>2017-04-16T12:11:34Z</time>
      </trkpt>
      <trkpt lat="42.80226" lon="0.40496">
        <ele>948.5</ele>
        <time>2017-04-16T12:11:37Z</time>
      </trkpt>
      <trkpt lat="42.80226" lon="0.40496">
        <ele>948</ele>
        <time>2017-04-16T12:11:40Z</time>
      </trkpt>
      <trkpt lat="42.80226" lon="0.40496">
        <ele>949</ele>
        <time>2017-04-16T12:11:43Z</time>
      </trkpt>
      <trkpt lat="42.80226" lon="0.40497">
        <ele>950</ele>
        <time>2017-04-16T12:11:46Z</time>
      </trkpt>
      <trkpt lat="42.80225" lon="0.40497">
        <ele>950</ele>
        <time>2017-04-16T12:11:49Z</time>
      </trkpt>
      <trkpt lat="42.80225" lon="0.40497">
        <ele>949</ele>
        <time>2017-04-16T12:11:52Z</time>
      </trkpt>
      <trkpt lat="42.80225" lon="0.40497">
        <ele>950.2</ele>
        <time>2017-04-16T12:11:55Z</time>
      </trkpt>
      <trkpt lat="42.80225" lon="0.40497">
        <ele>950</ele>
        <time>2017-04-16T12:11:58Z</time>
      </trkpt>
      <trkpt lat="42.80225" lon="0.40497">
        <ele>948.5</ele>
        <time>2017-04-16T12:12:01Z</time>
      </trkpt>
      <trkpt lat="42.80225" lon="0.40497">
        <ele>949</ele>
        <time>2017-04-16T12:12:04Z</time>
      </trkpt>
      <trkpt lat="42.80225" lon="0.40497">
        <ele>950</ele>
        <time>2017-04-16T12:12:07Z</time>
      </trkpt>
      <trkpt lat="42.80225" lon="0.40497">
        <ele>948.5</ele>
        <time>2017-04-16T12:12:10Z</time>
      </trkpt>
      <trkpt lat="42.80225" lon="0.40497">
        <ele>949.5</ele>
        <time>2017-04-16T12:12:13Z</time>
      </trkpt>
      <trkpt lat="42.80225" lon="0.40497">
        <ele>950</ele>
        <time>2017-04-16T12:12:16Z</time>
      </trkpt>
      <trkpt lat="42.80225" lon="0.40497">
        <ele>949.7</ele>
        <time>2017-04-16T12:12:19Z</time>
      </trkpt>
      <trkpt lat="42.80225" lon="0.40497">
        <ele>950</ele>
        <time>2017-04-16T12:12:22Z</time>
      </trkpt>
      <trkpt lat="42.80225" lon="0.40497">
        <ele>949.5</ele>
        <time>2017-04-16T12:12:25Z</time>
      </trkpt>
      <trkpt lat="42.80225" lon="0.40497">
        <ele>949.5</ele>
        <time>2017-04-16T12:12:28Z</time>
      </trkpt>
      <trkpt lat="42.80225" lon="0.40497">
        <ele>949.7</ele>
        <time>2017-04-16T12:12:31Z</time>
      </trkpt>
      <trkpt lat="42.80225" lon="0.40497">
        <ele>949</ele>
        <time>2017-04-16T12:12:34Z</time>
      </trkpt>
      <trkpt lat="42.80225" lon="0.40497">
        <ele>950</ele>
        <time>2017-04-16T12:12:37Z</time>
      </trkpt>
      <trkpt lat="42.80225" lon="0.40497">
        <ele>950</ele>
        <time>2017-04-16T12:12:40Z</time>
      </trkpt>
      <trkpt lat="42.80225" lon="0.40497">
        <ele>950</ele>
        <time>2017-04-16T12:12:43Z</time>
      </trkpt>
      <trkpt lat="42.80224" lon="0.40497">
        <ele>949.5</ele>
        <time>2017-04-16T12:12:46Z</time>
      </trkpt>
      <trkpt lat="42.80225" lon="0.40497">
        <ele>950</ele>
        <time>2017-04-16T12:12:49Z</time>
      </trkpt>
      <trkpt lat="42.80225" lon="0.40497">
        <ele>951</ele>
        <time>2017-04-16T12:12:52Z</time>
      </trkpt>
      <trkpt lat="42.80225" lon="0.40496">
        <ele>949.5</ele>
        <time>2017-04-16T12:12:55Z</time>
      </trkpt>
      <trkpt lat="42.80225" lon="0.40495">
        <ele>949.5</ele>
        <time>2017-04-16T12:12:58Z</time>
      </trkpt>
      <trkpt lat="42.80226" lon="0.40494">
        <ele>949</ele>
        <time>2017-04-16T12:13:01Z</time>
      </trkpt>
      <trkpt lat="42.80226" lon="0.40493">
        <ele>950</ele>
        <time>2017-04-16T12:13:04Z</time>
      </trkpt>
      <trkpt lat="42.80226" lon="0.40493">
        <ele>950.5</ele>
        <time>2017-04-16T12:13:07Z</time>
      </trkpt>
      <trkpt lat="42.80226" lon="0.40493">
        <ele>950.2</ele>
        <time>2017-04-16T12:13:10Z</time>
      </trkpt>
      <trkpt lat="42.80226" lon="0.40492">
        <ele>950.5</ele>
        <time>2017-04-16T12:13:13Z</time>
      </trkpt>
      <trkpt lat="42.80227" lon="0.40491">
        <ele>949</ele>
        <time>2017-04-16T12:13:16Z</time>
      </trkpt>
      <trkpt lat="42.80227" lon="0.40491">
        <ele>950.2</ele>
        <time>2017-04-16T12:13:19Z</time>
      </trkpt>
      <trkpt lat="42.80227" lon="0.40491">
        <ele>949</ele>
        <time>2017-04-16T12:13:22Z</time>
      </trkpt>
      <trkpt lat="42.80227" lon="0.40491">
        <ele>949</ele>
        <time>2017-04-16T12:13:25Z</time>
      </trkpt>
      <trkpt lat="42.80227" lon="0.4049">
        <ele>950</ele>
        <time>2017-04-16T12:13:28Z</time>
      </trkpt>
      <trkpt lat="42.80227" lon="0.4049">
        <ele>950</ele>
        <time>2017-04-16T12:13:31Z</time>
      </trkpt>
      <trkpt lat="42.80227" lon="0.4049">
        <ele>949.2</ele>
        <time>2017-04-16T12:13:34Z</time>
      </trkpt>
      <trkpt lat="42.80227" lon="0.4049">
        <ele>949.5</ele>
        <time>2017-04-16T12:13:37Z</time>
      </trkpt>
      <trkpt lat="42.80227" lon="0.4049">
        <ele>949</ele>
        <time>2017-04-16T12:13:40Z</time>
      </trkpt>
      <trkpt lat="42.80228" lon="0.4049">
        <ele>949</ele>
        <time>2017-04-16T12:13:43Z</time>
      </trkpt>
      <trkpt lat="42.80228" lon="0.4049">
        <ele>950</ele>
        <time>2017-04-16T12:13:46Z</time>
      </trkpt>
      <trkpt lat="42.80228" lon="0.4049">
        <ele>950.2</ele>
        <time>2017-04-16T12:13:49Z</time>
      </trkpt>
      <trkpt lat="42.80228" lon="0.4049">
        <ele>948.5</ele>
        <time>2017-04-16T12:13:52Z</time>
      </trkpt>
      <trkpt lat="42.80228" lon="0.40489">
        <ele>949.5</ele>
        <time>2017-04-16T12:13:55Z</time>
      </trkpt>
      <trkpt lat="42.80229" lon="0.40489">
        <ele>950</ele>
        <time>2017-04-16T12:13:58Z</time>
      </trkpt>
      <trkpt lat="42.80229" lon="0.40489">
        <ele>949</ele>
        <time>2017-04-16T12:14:01Z</time>
      </trkpt>
      <trkpt lat="42.80229" lon="0.40489">
        <ele>948.5</ele>
        <time>2017-04-16T12:14:04Z</time>
      </trkpt>
      <trkpt lat="42.80229" lon="0.40489">
        <ele>948</ele>
        <time>2017-04-16T12:14:07Z</time>
      </trkpt>
      <trkpt lat="42.80229" lon="0.40489">
        <ele>947.5</ele>
        <time>2017-04-16T12:14:10Z</time>
      </trkpt>
      <trkpt lat="42.80229" lon="0.40489">
        <ele>947</ele>
        <time>2017-04-16T12:14:13Z</time>
      </trkpt>
      <trkpt lat="42.80229" lon="0.40489">
        <ele>947</ele>
        <time>2017-04-16T12:14:16Z</time>
      </trkpt>
      <trkpt lat="42.80229" lon="0.40489">
        <ele>948.5</ele>
        <time>2017-04-16T12:14:19Z</time>
      </trkpt>
      <trkpt lat="42.80229" lon="0.40489">
        <ele>947</ele>
        <time>2017-04-16T12:14:22Z</time>
      </trkpt>
      <trkpt lat="42.80229" lon="0.40489">
        <ele>946.5</ele>
        <time>2017-04-16T12:14:25Z</time>
      </trkpt>
      <trkpt lat="42.80229" lon="0.40489">
        <ele>948.5</ele>
        <time>2017-04-16T12:14:28Z</time>
      </trkpt>
      <trkpt lat="42.80229" lon="0.40489">
        <ele>948.5</ele>
        <time>2017-04-16T12:14:31Z</time>
      </trkpt>
      <trkpt lat="42.80229" lon="0.40489">
        <ele>948</ele>
        <time>2017-04-16T12:14:34Z</time>
      </trkpt>
      <trkpt lat="42.80229" lon="0.40489">
        <ele>947.5</ele>
        <time>2017-04-16T12:14:37Z</time>
      </trkpt>
      <trkpt lat="42.80229" lon="0.40489">
        <ele>946.5</ele>
        <time>2017-04-16T12:14:40Z</time>
      </trkpt>
      <trkpt lat="42.80229" lon="0.40489">
        <ele>947</ele>
        <time>2017-04-16T12:14:43Z</time>
      </trkpt>
      <trkpt lat="42.80229" lon="0.40489">
        <ele>947</ele>
        <time>2017-04-16T12:14:46Z</time>
      </trkpt>
      <trkpt lat="42.80229" lon="0.40489">
        <ele>947.7</ele>
        <time>2017-04-16T12:14:49Z</time>
      </trkpt>
      <trkpt lat="42.80229" lon="0.40489">
        <ele>947.5</ele>
        <time>2017-04-16T12:14:52Z</time>
      </trkpt>
      <trkpt lat="42.80229" lon="0.40488">
        <ele>948</ele>
        <time>2017-04-16T12:14:55Z</time>
      </trkpt>
      <trkpt lat="42.80229" lon="0.40488">
        <ele>948.5</ele>
        <time>2017-04-16T12:14:58Z</time>
      </trkpt>
      <trkpt lat="42.80229" lon="0.40488">
        <ele>948.5</ele>
        <time>2017-04-16T12:15:01Z</time>
      </trkpt>
      <trkpt lat="42.80229" lon="0.40488">
        <ele>949</ele>
        <time>2017-04-16T12:15:04Z</time>
      </trkpt>
      <trkpt lat="42.80229" lon="0.40488">
        <ele>948</ele>
        <time>2017-04-16T12:15:07Z</time>
      </trkpt>
      <trkpt lat="42.80229" lon="0.40488">
        <ele>948</ele>
        <time>2017-04-16T12:15:10Z</time>
      </trkpt>
      <trkpt lat="42.80229" lon="0.40488">
        <ele>948.2</ele>
        <time>2017-04-16T12:15:13Z</time>
      </trkpt>
      <trkpt lat="42.80229" lon="0.40488">
        <ele>947.2</ele>
        <time>2017-04-16T12:15:16Z</time>
      </trkpt>
      <trkpt lat="42.80229" lon="0.40488">
        <ele>948</ele>
        <time>2017-04-16T12:15:19Z</time>
      </trkpt>
      <trkpt lat="42.80229" lon="0.40488">
        <ele>948.5</ele>
        <time>2017-04-16T12:15:22Z</time>
      </trkpt>
      <trkpt lat="42.80229" lon="0.40488">
        <ele>946.5</ele>
        <time>2017-04-16T12:15:25Z</time>
      </trkpt>
      <trkpt lat="42.80229" lon="0.40488">
        <ele>948.5</ele>
        <time>2017-04-16T12:15:28Z</time>
      </trkpt>
      <trkpt lat="42.80229" lon="0.40488">
        <ele>949</ele>
        <time>2017-04-16T12:15:31Z</time>
      </trkpt>
      <trkpt lat="42.80229" lon="0.40488">
        <ele>948.2</ele>
        <time>2017-04-16T12:15:34Z</time>
      </trkpt>
      <trkpt lat="42.80229" lon="0.40488">
        <ele>948.5</ele>
        <time>2017-04-16T12:15:37Z</time>
      </trkpt>
      <trkpt lat="42.80229" lon="0.40488">
        <ele>948</ele>
        <time>2017-04-16T12:15:40Z</time>
      </trkpt>
      <trkpt lat="42.80229" lon="0.40488">
        <ele>946.5</ele>
        <time>2017-04-16T12:15:43Z</time>
      </trkpt>
      <trkpt lat="42.80229" lon="0.40488">
        <ele>947</ele>
        <time>2017-04-16T12:15:46Z</time>
      </trkpt>
      <trkpt lat="42.80229" lon="0.40488">
        <ele>948.5</ele>
        <time>2017-04-16T12:15:49Z</time>
      </trkpt>
      <trkpt lat="42.80229" lon="0.40488">
        <ele>949</ele>
        <time>2017-04-16T12:15:52Z</time>
      </trkpt>
      <trkpt lat="42.80229" lon="0.40488">
        <ele>947.5</ele>
        <time>2017-04-16T12:15:55Z</time>
      </trkpt>
      <trkpt lat="42.80228" lon="0.40488">
        <ele>948.7</ele>
        <time>2017-04-16T12:15:58Z</time>
      </trkpt>
      <trkpt lat="42.80228" lon="0.40488">
        <ele>947.5</ele>
        <time>2017-04-16T12:16:01Z</time>
      </trkpt>
      <trkpt lat="42.80228" lon="0.40488">
        <ele>948</ele>
        <time>2017-04-16T12:16:04Z</time>
      </trkpt>
      <trkpt lat="42.80228" lon="0.40488">
        <ele>948</ele>
        <time>2017-04-16T12:16:07Z</time>
      </trkpt>
      <trkpt lat="42.80228" lon="0.40488">
        <ele>947.2</ele>
        <time>2017-04-16T12:16:10Z</time>
      </trkpt>
      <trkpt lat="42.80228" lon="0.40488">
        <ele>947</ele>
        <time>2017-04-16T12:16:13Z</time>
      </trkpt>
      <trkpt lat="42.80228" lon="0.40488">
        <ele>948.5</ele>
        <time>2017-04-16T12:16:16Z</time>
      </trkpt>
      <trkpt lat="42.80228" lon="0.40488">
        <ele>948.5</ele>
        <time>2017-04-16T12:16:19Z</time>
      </trkpt>
      <trkpt lat="42.80228" lon="0.40489">
        <ele>948</ele>
        <time>2017-04-16T12:16:22Z</time>
      </trkpt>
      <trkpt lat="42.80228" lon="0.40489">
        <ele>948</ele>
        <time>2017-04-16T12:16:25Z</time>
      </trkpt>
      <trkpt lat="42.80228" lon="0.40489">
        <ele>947.5</ele>
        <time>2017-04-16T12:16:28Z</time>
      </trkpt>
      <trkpt lat="42.80228" lon="0.40489">
        <ele>948.5</ele>
        <time>2017-04-16T12:16:31Z</time>
      </trkpt>
      <trkpt lat="42.80228" lon="0.40489">
        <ele>948.5</ele>
        <time>2017-04-16T12:16:34Z</time>
      </trkpt>
      <trkpt lat="42.80228" lon="0.40489">
        <ele>950</ele>
        <time>2017-04-16T12:16:37Z</time>
      </trkpt>
      <trkpt lat="42.80228" lon="0.40489">
        <ele>948.5</ele>
        <time>2017-04-16T12:16:40Z</time>
      </trkpt>
      <trkpt lat="42.80228" lon="0.40489">
        <ele>947.2</ele>
        <time>2017-04-16T12:16:43Z</time>
      </trkpt>
      <trkpt lat="42.80227" lon="0.4049">
        <ele>948</ele>
        <time>2017-04-16T12:16:46Z</time>
      </trkpt>
      <trkpt lat="42.80227" lon="0.4049">
        <ele>948</ele>
        <time>2017-04-16T12:16:49Z</time>
      </trkpt>
      <trkpt lat="42.80227" lon="0.4049">
        <ele>949.5</ele>
        <time>2017-04-16T12:16:52Z</time>
      </trkpt>
      <trkpt lat="42.80227" lon="0.4049">
        <ele>948.7</ele>
        <time>2017-04-16T12:16:55Z</time>
      </trkpt>
      <trkpt lat="42.80227" lon="0.4049">
        <ele>945.7</ele>
        <time>2017-04-16T12:16:58Z</time>
      </trkpt>
      <trkpt lat="42.80227" lon="0.4049">
        <ele>947</ele>
        <time>2017-04-16T12:17:01Z</time>
      </trkpt>
      <trkpt lat="42.80227" lon="0.4049">
        <ele>947</ele>
        <time>2017-04-16T12:17:04Z</time>
      </trkpt>
      <trkpt lat="42.80227" lon="0.4049">
        <ele>947</ele>
        <time>2017-04-16T12:17:07Z</time>
      </trkpt>
      <trkpt lat="42.80227" lon="0.4049">
        <ele>948.5</ele>
        <time>2017-04-16T12:17:10Z</time>
      </trkpt>
      <trkpt lat="42.80227" lon="0.40489">
        <ele>947</ele>
        <time>2017-04-16T12:17:13Z</time>
      </trkpt>
      <trkpt lat="42.80228" lon="0.40486">
        <ele>948.7</ele>
        <time>2017-04-16T12:17:16Z</time>
      </trkpt>
      <trkpt lat="42.80228" lon="0.40484">
        <ele>947.5</ele>
        <time>2017-04-16T12:17:19Z</time>
      </trkpt>
      <trkpt lat="42.80228" lon="0.40483">
        <ele>949</ele>
        <time>2017-04-16T12:17:22Z</time>
      </trkpt>
      <trkpt lat="42.80229" lon="0.40482">
        <ele>946.2</ele>
        <time>2017-04-16T12:17:25Z</time>
      </trkpt>
      <trkpt lat="42.80229" lon="0.40481">
        <ele>946.5</ele>
        <time>2017-04-16T12:17:28Z</time>
      </trkpt>
      <trkpt lat="42.80229" lon="0.40481">
        <ele>948</ele>
        <time>2017-04-16T12:17:31Z</time>
      </trkpt>
      <trkpt lat="42.80229" lon="0.4048">
        <ele>947.5</ele>
        <time>2017-04-16T12:17:34Z</time>
      </trkpt>
      <trkpt lat="42.80229" lon="0.40482">
        <ele>948</ele>
        <time>2017-04-16T12:17:37Z</time>
      </trkpt>
      <trkpt lat="42.80229" lon="0.40482">
        <ele>947.2</ele>
        <time>2017-04-16T12:17:40Z</time>
      </trkpt>
      <trkpt lat="42.80229" lon="0.40482">
        <ele>947.7</ele>
        <time>2017-04-16T12:17:43Z</time>
      </trkpt>
      <trkpt lat="42.80229" lon="0.40482">
        <ele>948</ele>
        <time>2017-04-16T12:17:46Z</time>
      </trkpt>
      <trkpt lat="42.80229" lon="0.40483">
        <ele>948.5</ele>
        <time>2017-04-16T12:17:49Z</time>
      </trkpt>
      <trkpt lat="42.80229" lon="0.40483">
        <ele>948</ele>
        <time>2017-04-16T12:17:52Z</time>
      </trkpt>
      <trkpt lat="42.80228" lon="0.40485">
        <ele>947.2</ele>
        <time>2017-04-16T12:17:55Z</time>
      </trkpt>
      <trkpt lat="42.80228" lon="0.40486">
        <ele>947</ele>
        <time>2017-04-16T12:17:58Z</time>
      </trkpt>
      <trkpt lat="42.80228" lon="0.40487">
        <ele>948</ele>
        <time>2017-04-16T12:18:01Z</time>
      </trkpt>
      <trkpt lat="42.80228" lon="0.40488">
        <ele>947</ele>
        <time>2017-04-16T12:18:04Z</time>
      </trkpt>
      <trkpt lat="42.80228" lon="0.40489">
        <ele>947</ele>
        <time>2017-04-16T12:18:07Z</time>
      </trkpt>
      <trkpt lat="42.80227" lon="0.4049">
        <ele>947</ele>
        <time>2017-04-16T12:18:10Z</time>
      </trkpt>
      <trkpt lat="42.80227" lon="0.4049">
        <ele>947.5</ele>
        <time>2017-04-16T12:18:13Z</time>
      </trkpt>
      <trkpt lat="42.80227" lon="0.40491">
        <ele>948</ele>
        <time>2017-04-16T12:18:16Z</time>
      </trkpt>
      <trkpt lat="42.80227" lon="0.40492">
        <ele>948</ele>
        <time>2017-04-16T12:18:19Z</time>
      </trkpt>
      <trkpt lat="42.80227" lon="0.40492">
        <ele>948.5</ele>
        <time>2017-04-16T12:18:22Z</time>
      </trkpt>
      <trkpt lat="42.80227" lon="0.40493">
        <ele>948</ele>
        <time>2017-04-16T12:18:25Z</time>
      </trkpt>
      <trkpt lat="42.80227" lon="0.40493">
        <ele>948</ele>
        <time>2017-04-16T12:18:28Z</time>
      </trkpt>
      <trkpt lat="42.80227" lon="0.40493">
        <ele>948</ele>
        <time>2017-04-16T12:18:31Z</time>
      </trkpt>
      <trkpt lat="42.80227" lon="0.40494">
        <ele>948</ele>
        <time>2017-04-16T12:18:34Z</time>
      </trkpt>
      <trkpt lat="42.80227" lon="0.40494">
        <ele>948</ele>
        <time>2017-04-16T12:18:37Z</time>
      </trkpt>
      <trkpt lat="42.80227" lon="0.40494">
        <ele>948</ele>
        <time>2017-04-16T12:18:40Z</time>
      </trkpt>
      <trkpt lat="42.80227" lon="0.40495">
        <ele>948</ele>
        <time>2017-04-16T12:18:43Z</time>
      </trkpt>
      <trkpt lat="42.80227" lon="0.40495">
        <ele>948</ele>
        <time>2017-04-16T12:18:46Z</time>
      </trkpt>
      <trkpt lat="42.80227" lon="0.40495">
        <ele>948</ele>
        <time>2017-04-16T12:18:49Z</time>
      </trkpt>
      <trkpt lat="42.80227" lon="0.40495">
        <ele>948</ele>
        <time>2017-04-16T12:18:52Z</time>
      </trkpt>
      <trkpt lat="42.80227" lon="0.40495">
        <ele>947.5</ele>
        <time>2017-04-16T12:18:55Z</time>
      </trkpt>
      <trkpt lat="42.80227" lon="0.40496">
        <ele>947.7</ele>
        <time>2017-04-16T12:18:58Z</time>
      </trkpt>
      <trkpt lat="42.80227" lon="0.40496">
        <ele>947.2</ele>
        <time>2017-04-16T12:19:01Z</time>
      </trkpt>
      <trkpt lat="42.80227" lon="0.40496">
        <ele>947</ele>
        <time>2017-04-16T12:19:04Z</time>
      </trkpt>
      <trkpt lat="42.80227" lon="0.40496">
        <ele>949.7</ele>
        <time>2017-04-16T12:19:07Z</time>
      </trkpt>
      <trkpt lat="42.80227" lon="0.40496">
        <ele>949</ele>
        <time>2017-04-16T12:19:10Z</time>
      </trkpt>
      <trkpt lat="42.80226" lon="0.40496">
        <ele>947</ele>
        <time>2017-04-16T12:19:13Z</time>
      </trkpt>
      <trkpt lat="42.80226" lon="0.40496">
        <ele>948</ele>
        <time>2017-04-16T12:19:16Z</time>
      </trkpt>
      <trkpt lat="42.80226" lon="0.40496">
        <ele>948</ele>
        <time>2017-04-16T12:19:19Z</time>
      </trkpt>
      <trkpt lat="42.80226" lon="0.40496">
        <ele>948</ele>
        <time>2017-04-16T12:19:22Z</time>
      </trkpt>
      <trkpt lat="42.80226" lon="0.40496">
        <ele>948</ele>
        <time>2017-04-16T12:19:25Z</time>
      </trkpt>
      <trkpt lat="42.80226" lon="0.40496">
        <ele>947.5</ele>
        <time>2017-04-16T12:19:28Z</time>
      </trkpt>
      <trkpt lat="42.80226" lon="0.40496">
        <ele>948</ele>
        <time>2017-04-16T12:19:31Z</time>
      </trkpt>
      <trkpt lat="42.80226" lon="0.40496">
        <ele>948.7</ele>
        <time>2017-04-16T12:19:34Z</time>
      </trkpt>
      <trkpt lat="42.80226" lon="0.40496">
        <ele>949</ele>
        <time>2017-04-16T12:19:37Z</time>
      </trkpt>
      <trkpt lat="42.80226" lon="0.40496">
        <ele>946</ele>
        <time>2017-04-16T12:19:40Z</time>
      </trkpt>
      <trkpt lat="42.80226" lon="0.40495">
        <ele>947.5</ele>
        <time>2017-04-16T12:19:43Z</time>
      </trkpt>
      <trkpt lat="42.80226" lon="0.40495">
        <ele>947.7</ele>
        <time>2017-04-16T12:19:46Z</time>
      </trkpt>
      <trkpt lat="42.80226" lon="0.40495">
        <ele>946</ele>
        <time>2017-04-16T12:19:49Z</time>
      </trkpt>
      <trkpt lat="42.80226" lon="0.40495">
        <ele>949</ele>
        <time>2017-04-16T12:19:52Z</time>
      </trkpt>
      <trkpt lat="42.80226" lon="0.40495">
        <ele>948</ele>
        <time>2017-04-16T12:19:55Z</time>
      </trkpt>
      <trkpt lat="42.80226" lon="0.40495">
        <ele>946.2</ele>
        <time>2017-04-16T12:19:58Z</time>
      </trkpt>
      <trkpt lat="42.80226" lon="0.40495">
        <ele>949</ele>
        <time>2017-04-16T12:20:01Z</time>
      </trkpt>
      <trkpt lat="42.80226" lon="0.40495">
        <ele>948.5</ele>
        <time>2017-04-16T12:20:04Z</time>
      </trkpt>
      <trkpt lat="42.80226" lon="0.40495">
        <ele>948.5</ele>
        <time>2017-04-16T12:20:07Z</time>
      </trkpt>
      <trkpt lat="42.80226" lon="0.40495">
        <ele>948</ele>
        <time>2017-04-16T12:20:10Z</time>
      </trkpt>
      <trkpt lat="42.80226" lon="0.40495">
        <ele>948.7</ele>
        <time>2017-04-16T12:20:13Z</time>
      </trkpt>
      <trkpt lat="42.80226" lon="0.40495">
        <ele>947.5</ele>
        <time>2017-04-16T12:20:16Z</time>
      </trkpt>
      <trkpt lat="42.80226" lon="0.40495">
        <ele>948.5</ele>
        <time>2017-04-16T12:20:19Z</time>
      </trkpt>
      <trkpt lat="42.80226" lon="0.40495">
        <ele>947.5</ele>
        <time>2017-04-16T12:20:22Z</time>
      </trkpt>
      <trkpt lat="42.80226" lon="0.40495">
        <ele>947</ele>
        <time>2017-04-16T12:20:25Z</time>
      </trkpt>
      <trkpt lat="42.80226" lon="0.40495">
        <ele>949.8</ele>
        <time>2017-04-16T12:20:28Z</time>
      </trkpt>
      <trkpt lat="42.80226" lon="0.40495">
        <ele>949</ele>
        <time>2017-04-16T12:20:31Z</time>
      </trkpt>
      <trkpt lat="42.80226" lon="0.40495">
        <ele>948</ele>
        <time>2017-04-16T12:20:34Z</time>
      </trkpt>
      <trkpt lat="42.80226" lon="0.40494">
        <ele>948</ele>
        <time>2017-04-16T12:20:37Z</time>
      </trkpt>
      <trkpt lat="42.80226" lon="0.40494">
        <ele>948.7</ele>
        <time>2017-04-16T12:20:40Z</time>
      </trkpt>
      <trkpt lat="42.80226" lon="0.40494">
        <ele>949</ele>
        <time>2017-04-16T12:20:43Z</time>
      </trkpt>
      <trkpt lat="42.80226" lon="0.40494">
        <ele>948.5</ele>
        <time>2017-04-16T12:20:46Z</time>
      </trkpt>
      <trkpt lat="42.80226" lon="0.40494">
        <ele>948.3</ele>
        <time>2017-04-16T12:20:49Z</time>
      </trkpt>
      <trkpt lat="42.80226" lon="0.40494">
        <ele>949.5</ele>
        <time>2017-04-16T12:20:52Z</time>
      </trkpt>
      <trkpt lat="42.80226" lon="0.40493">
        <ele>950</ele>
        <time>2017-04-16T12:20:55Z</time>
      </trkpt>
      <trkpt lat="42.80226" lon="0.40493">
        <ele>950.7</ele>
        <time>2017-04-16T12:20:58Z</time>
      </trkpt>
      <trkpt lat="42.80226" lon="0.40493">
        <ele>949</ele>
        <time>2017-04-16T12:21:01Z</time>
      </trkpt>
      <trkpt lat="42.80226" lon="0.40493">
        <ele>949.7</ele>
        <time>2017-04-16T12:21:04Z</time>
      </trkpt>
      <trkpt lat="42.80226" lon="0.40493">
        <ele>950</ele>
        <time>2017-04-16T12:21:07Z</time>
      </trkpt>
      <trkpt lat="42.80226" lon="0.40493">
        <ele>949.5</ele>
        <time>2017-04-16T12:21:10Z</time>
      </trkpt>
      <trkpt lat="42.80226" lon="0.40493">
        <ele>950</ele>
        <time>2017-04-16T12:21:13Z</time>
      </trkpt>
      <trkpt lat="42.80226" lon="0.40493">
        <ele>949</ele>
        <time>2017-04-16T12:21:16Z</time>
      </trkpt>
      <trkpt lat="42.80226" lon="0.40493">
        <ele>949</ele>
        <time>2017-04-16T12:21:19Z</time>
      </trkpt>
      <trkpt lat="42.80226" lon="0.40493">
        <ele>949.7</ele>
        <time>2017-04-16T12:21:22Z</time>
      </trkpt>
      <trkpt lat="42.80226" lon="0.40493">
        <ele>949</ele>
        <time>2017-04-16T12:21:25Z</time>
      </trkpt>
      <trkpt lat="42.80226" lon="0.40493">
        <ele>950</ele>
        <time>2017-04-16T12:21:28Z</time>
      </trkpt>
      <trkpt lat="42.80226" lon="0.40494">
        <ele>950</ele>
        <time>2017-04-16T12:21:31Z</time>
      </trkpt>
      <trkpt lat="42.80226" lon="0.40494">
        <ele>949</ele>
        <time>2017-04-16T12:21:34Z</time>
      </trkpt>
      <trkpt lat="42.80226" lon="0.40494">
        <ele>949.7</ele>
        <time>2017-04-16T12:21:37Z</time>
      </trkpt>
      <trkpt lat="42.80226" lon="0.40494">
        <ele>950</ele>
        <time>2017-04-16T12:21:40Z</time>
      </trkpt>
      <trkpt lat="42.80226" lon="0.40494">
        <ele>951</ele>
        <time>2017-04-16T12:21:43Z</time>
      </trkpt>
      <trkpt lat="42.80226" lon="0.40494">
        <ele>950</ele>
        <time>2017-04-16T12:21:46Z</time>
      </trkpt>
      <trkpt lat="42.80226" lon="0.40494">
        <ele>949</ele>
        <time>2017-04-16T12:21:49Z</time>
      </trkpt>
      <trkpt lat="42.80226" lon="0.40494">
        <ele>950</ele>
        <time>2017-04-16T12:21:52Z</time>
      </trkpt>
      <trkpt lat="42.80226" lon="0.40494">
        <ele>950.5</ele>
        <time>2017-04-16T12:21:55Z</time>
      </trkpt>
      <trkpt lat="42.80226" lon="0.40494">
        <ele>951</ele>
        <time>2017-04-16T12:21:58Z</time>
      </trkpt>
      <trkpt lat="42.80226" lon="0.40494">
        <ele>950.5</ele>
        <time>2017-04-16T12:22:01Z</time>
      </trkpt>
      <trkpt lat="42.80226" lon="0.40494">
        <ele>949.2</ele>
        <time>2017-04-16T12:22:04Z</time>
      </trkpt>
      <trkpt lat="42.80226" lon="0.40494">
        <ele>948.2</ele>
        <time>2017-04-16T12:22:07Z</time>
      </trkpt>
      <trkpt lat="42.80226" lon="0.40494">
        <ele>950</ele>
        <time>2017-04-16T12:22:10Z</time>
      </trkpt>
      <trkpt lat="42.80226" lon="0.40494">
        <ele>950.8</ele>
        <time>2017-04-16T12:22:13Z</time>
      </trkpt>
      <trkpt lat="42.80226" lon="0.40494">
        <ele>951</ele>
        <time>2017-04-16T12:22:16Z</time>
      </trkpt>
      <trkpt lat="42.80226" lon="0.40494">
        <ele>952.5</ele>
        <time>2017-04-16T12:22:19Z</time>
      </trkpt>
      <trkpt lat="42.80226" lon="0.40495">
        <ele>951</ele>
        <time>2017-04-16T12:22:22Z</time>
      </trkpt>
      <trkpt lat="42.80226" lon="0.40495">
        <ele>951</ele>
        <time>2017-04-16T12:22:25Z</time>
      </trkpt>
      <trkpt lat="42.80226" lon="0.40495">
        <ele>951</ele>
        <time>2017-04-16T12:22:28Z</time>
      </trkpt>
      <trkpt lat="42.80226" lon="0.40495">
        <ele>951</ele>
        <time>2017-04-16T12:22:31Z</time>
      </trkpt>
      <trkpt lat="42.80226" lon="0.40495">
        <ele>950.5</ele>
        <time>2017-04-16T12:22:34Z</time>
      </trkpt>
      <trkpt lat="42.80226" lon="0.40495">
        <ele>950</ele>
        <time>2017-04-16T12:22:37Z</time>
      </trkpt>
      <trkpt lat="42.80226" lon="0.40495">
        <ele>950</ele>
        <time>2017-04-16T12:22:40Z</time>
      </trkpt>
      <trkpt lat="42.80226" lon="0.40495">
        <ele>950.7</ele>
        <time>2017-04-16T12:22:43Z</time>
      </trkpt>
      <trkpt lat="42.80226" lon="0.40495">
        <ele>950.5</ele>
        <time>2017-04-16T12:22:46Z</time>
      </trkpt>
      <trkpt lat="42.80226" lon="0.40495">
        <ele>950.7</ele>
        <time>2017-04-16T12:22:49Z</time>
      </trkpt>
      <trkpt lat="42.80226" lon="0.40495">
        <ele>951</ele>
        <time>2017-04-16T12:22:52Z</time>
      </trkpt>
      <trkpt lat="42.80226" lon="0.40495">
        <ele>952</ele>
        <time>2017-04-16T12:22:55Z</time>
      </trkpt>
      <trkpt lat="42.80226" lon="0.40495">
        <ele>950.5</ele>
        <time>2017-04-16T12:22:58Z</time>
      </trkpt>
      <trkpt lat="42.80226" lon="0.40495">
        <ele>950</ele>
        <time>2017-04-16T12:23:01Z</time>
      </trkpt>
      <trkpt lat="42.80227" lon="0.40494">
        <ele>951</ele>
        <time>2017-04-16T12:23:04Z</time>
      </trkpt>
      <trkpt lat="42.80227" lon="0.40494">
        <ele>951.7</ele>
        <time>2017-04-16T12:23:07Z</time>
      </trkpt>
      <trkpt lat="42.80227" lon="0.40494">
        <ele>953</ele>
        <time>2017-04-16T12:23:10Z</time>
      </trkpt>
      <trkpt lat="42.80227" lon="0.40494">
        <ele>951.5</ele>
        <time>2017-04-16T12:23:13Z</time>
      </trkpt>
      <trkpt lat="42.80227" lon="0.40494">
        <ele>950</ele>
        <time>2017-04-16T12:23:16Z</time>
      </trkpt>
      <trkpt lat="42.80227" lon="0.40494">
        <ele>951</ele>
        <time>2017-04-16T12:23:19Z</time>
      </trkpt>
      <trkpt lat="42.80227" lon="0.40494">
        <ele>951</ele>
        <time>2017-04-16T12:23:22Z</time>
      </trkpt>
      <trkpt lat="42.80227" lon="0.40493">
        <ele>951.7</ele>
        <time>2017-04-16T12:23:25Z</time>
      </trkpt>
      <trkpt lat="42.80227" lon="0.40493">
        <ele>950.5</ele>
        <time>2017-04-16T12:23:28Z</time>
      </trkpt>
      <trkpt lat="42.80227" lon="0.40493">
        <ele>950</ele>
        <time>2017-04-16T12:23:31Z</time>
      </trkpt>
      <trkpt lat="42.80227" lon="0.40493">
        <ele>950</ele>
        <time>2017-04-16T12:23:34Z</time>
      </trkpt>
      <trkpt lat="42.80227" lon="0.40493">
        <ele>951</ele>
        <time>2017-04-16T12:23:37Z</time>
      </trkpt>
      <trkpt lat="42.80227" lon="0.40493">
        <ele>951.7</ele>
        <time>2017-04-16T12:23:40Z</time>
      </trkpt>
      <trkpt lat="42.80227" lon="0.40493">
        <ele>950</ele>
        <time>2017-04-16T12:23:43Z</time>
      </trkpt>
      <trkpt lat="42.80227" lon="0.40493">
        <ele>950.5</ele>
        <time>2017-04-16T12:23:46Z</time>
      </trkpt>
      <trkpt lat="42.80227" lon="0.40493">
        <ele>950.2</ele>
        <time>2017-04-16T12:23:49Z</time>
      </trkpt>
      <trkpt lat="42.80227" lon="0.40493">
        <ele>951.5</ele>
        <time>2017-04-16T12:23:52Z</time>
      </trkpt>
      <trkpt lat="42.80227" lon="0.40493">
        <ele>951</ele>
        <time>2017-04-16T12:23:55Z</time>
      </trkpt>
      <trkpt lat="42.80227" lon="0.40492">
        <ele>950.5</ele>
        <time>2017-04-16T12:23:58Z</time>
      </trkpt>
      <trkpt lat="42.80227" lon="0.40492">
        <ele>949.2</ele>
        <time>2017-04-16T12:24:01Z</time>
      </trkpt>
      <trkpt lat="42.80227" lon="0.40492">
        <ele>949</ele>
        <time>2017-04-16T12:24:04Z</time>
      </trkpt>
      <trkpt lat="42.80227" lon="0.40492">
        <ele>949.5</ele>
        <time>2017-04-16T12:24:07Z</time>
      </trkpt>
      <trkpt lat="42.80227" lon="0.40493">
        <ele>949.5</ele>
        <time>2017-04-16T12:24:10Z</time>
      </trkpt>
      <trkpt lat="42.80227" lon="0.40493">
        <ele>949.2</ele>
        <time>2017-04-16T12:24:13Z</time>
      </trkpt>
      <trkpt lat="42.80227" lon="0.40493">
        <ele>949.5</ele>
        <time>2017-04-16T12:24:16Z</time>
      </trkpt>
      <trkpt lat="42.80227" lon="0.40493">
        <ele>948.5</ele>
        <time>2017-04-16T12:24:19Z</time>
      </trkpt>
      <trkpt lat="42.80226" lon="0.40493">
        <ele>949</ele>
        <time>2017-04-16T12:24:22Z</time>
      </trkpt>
      <trkpt lat="42.80226" lon="0.40493">
        <ele>950</ele>
        <time>2017-04-16T12:24:25Z</time>
      </trkpt>
      <trkpt lat="42.80226" lon="0.40493">
        <ele>950</ele>
        <time>2017-04-16T12:24:28Z</time>
      </trkpt>
      <trkpt lat="42.80226" lon="0.40493">
        <ele>948.5</ele>
        <time>2017-04-16T12:24:31Z</time>
      </trkpt>
      <trkpt lat="42.80226" lon="0.40494">
        <ele>949.5</ele>
        <time>2017-04-16T12:24:34Z</time>
      </trkpt>
      <trkpt lat="42.80226" lon="0.40494">
        <ele>950</ele>
        <time>2017-04-16T12:24:37Z</time>
      </trkpt>
      <trkpt lat="42.80226" lon="0.40494">
        <ele>950</ele>
        <time>2017-04-16T12:24:40Z</time>
      </trkpt>
      <trkpt lat="42.80226" lon="0.40494">
        <ele>950</ele>
        <time>2017-04-16T12:24:43Z</time>
      </trkpt>
      <trkpt lat="42.80226" lon="0.40494">
        <ele>950</ele>
        <time>2017-04-16T12:24:46Z</time>
      </trkpt>
      <trkpt lat="42.80226" lon="0.40494">
        <ele>950</ele>
        <time>2017-04-16T12:24:49Z</time>
      </trkpt>
      <trkpt lat="42.80226" lon="0.40494">
        <ele>949.5</ele>
        <time>2017-04-16T12:24:52Z</time>
      </trkpt>
      <trkpt lat="42.80226" lon="0.40494">
        <ele>950.3</ele>
        <time>2017-04-16T12:24:55Z</time>
      </trkpt>
      <trkpt lat="42.80226" lon="0.40494">
        <ele>949.5</ele>
        <time>2017-04-16T12:24:58Z</time>
      </trkpt>
      <trkpt lat="42.80226" lon="0.40494">
        <ele>949</ele>
        <time>2017-04-16T12:25:01Z</time>
      </trkpt>
      <trkpt lat="42.80226" lon="0.40494">
        <ele>949</ele>
        <time>2017-04-16T12:25:04Z</time>
      </trkpt>
      <trkpt lat="42.80226" lon="0.40495">
        <ele>951.5</ele>
        <time>2017-04-16T12:25:07Z</time>
      </trkpt>
      <trkpt lat="42.80226" lon="0.40495">
        <ele>950</ele>
        <time>2017-04-16T12:25:10Z</time>
      </trkpt>
      <trkpt lat="42.80226" lon="0.40494">
        <ele>949.2</ele>
        <time>2017-04-16T12:25:13Z</time>
      </trkpt>
      <trkpt lat="42.80226" lon="0.40495">
        <ele>952</ele>
        <time>2017-04-16T12:25:16Z</time>
      </trkpt>
      <trkpt lat="42.80226" lon="0.40495">
        <ele>949.5</ele>
        <time>2017-04-16T12:25:19Z</time>
      </trkpt>
      <trkpt lat="42.80226" lon="0.40495">
        <ele>950.7</ele>
        <time>2017-04-16T12:25:22Z</time>
      </trkpt>
      <trkpt lat="42.80226" lon="0.40495">
        <ele>950.5</ele>
        <time>2017-04-16T12:25:25Z</time>
      </trkpt>
      <trkpt lat="42.80226" lon="0.40495">
        <ele>950.5</ele>
        <time>2017-04-16T12:25:28Z</time>
      </trkpt>
      <trkpt lat="42.80226" lon="0.40494">
        <ele>950.2</ele>
        <time>2017-04-16T12:25:31Z</time>
      </trkpt>
      <trkpt lat="42.80226" lon="0.40494">
        <ele>952</ele>
        <time>2017-04-16T12:25:34Z</time>
      </trkpt>
      <trkpt lat="42.80226" lon="0.40494">
        <ele>949.5</ele>
        <time>2017-04-16T12:25:37Z</time>
      </trkpt>
      <trkpt lat="42.80226" lon="0.40494">
        <ele>949</ele>
        <time>2017-04-16T12:25:40Z</time>
      </trkpt>
      <trkpt lat="42.80226" lon="0.40494">
        <ele>948.5</ele>
        <time>2017-04-16T12:25:43Z</time>
      </trkpt>
      <trkpt lat="42.80226" lon="0.40494">
        <ele>951.2</ele>
        <time>2017-04-16T12:25:46Z</time>
      </trkpt>
      <trkpt lat="42.80226" lon="0.40494">
        <ele>950</ele>
        <time>2017-04-16T12:25:49Z</time>
      </trkpt>
      <trkpt lat="42.80226" lon="0.40494">
        <ele>949</ele>
        <time>2017-04-16T12:25:52Z</time>
      </trkpt>
      <trkpt lat="42.80226" lon="0.40494">
        <ele>950.6</ele>
        <time>2017-04-16T12:25:55Z</time>
      </trkpt>
      <trkpt lat="42.80226" lon="0.40494">
        <ele>949</ele>
        <time>2017-04-16T12:25:58Z</time>
      </trkpt>
      <trkpt lat="42.80226" lon="0.40494">
        <ele>949.7</ele>
        <time>2017-04-16T12:26:01Z</time>
      </trkpt>
      <trkpt lat="42.80226" lon="0.40494">
        <ele>949.5</ele>
        <time>2017-04-16T12:26:04Z</time>
      </trkpt>
      <trkpt lat="42.80226" lon="0.40494">
        <ele>950</ele>
        <time>2017-04-16T12:26:07Z</time>
      </trkpt>
      <trkpt lat="42.80226" lon="0.40494">
        <ele>951</ele>
        <time>2017-04-16T12:26:10Z</time>
      </trkpt>
      <trkpt lat="42.80226" lon="0.40494">
        <ele>951</ele>
        <time>2017-04-16T12:26:13Z</time>
      </trkpt>
      <trkpt lat="42.80226" lon="0.40494">
        <ele>951</ele>
        <time>2017-04-16T12:26:16Z</time>
      </trkpt>
      <trkpt lat="42.80226" lon="0.40494">
        <ele>951.5</ele>
        <time>2017-04-16T12:26:19Z</time>
      </trkpt>
      <trkpt lat="42.80226" lon="0.40494">
        <ele>951.7</ele>
        <time>2017-04-16T12:26:22Z</time>
      </trkpt>
      <trkpt lat="42.80226" lon="0.40494">
        <ele>951</ele>
        <time>2017-04-16T12:26:25Z</time>
      </trkpt>
      <trkpt lat="42.80226" lon="0.40493">
        <ele>951</ele>
        <time>2017-04-16T12:26:28Z</time>
      </trkpt>
      <trkpt lat="42.80226" lon="0.40493">
        <ele>951</ele>
        <time>2017-04-16T12:26:31Z</time>
      </trkpt>
      <trkpt lat="42.80226" lon="0.40493">
        <ele>949.5</ele>
        <time>2017-04-16T12:26:34Z</time>
      </trkpt>
      <trkpt lat="42.80226" lon="0.40493">
        <ele>951</ele>
        <time>2017-04-16T12:26:37Z</time>
      </trkpt>
      <trkpt lat="42.80226" lon="0.40493">
        <ele>951.5</ele>
        <time>2017-04-16T12:26:40Z</time>
      </trkpt>
      <trkpt lat="42.80226" lon="0.40493">
        <ele>950.7</ele>
        <time>2017-04-16T12:26:43Z</time>
      </trkpt>
      <trkpt lat="42.80226" lon="0.40493">
        <ele>951.5</ele>
        <time>2017-04-16T12:26:46Z</time>
      </trkpt>
      <trkpt lat="42.80226" lon="0.40493">
        <ele>952</ele>
        <time>2017-04-16T12:26:49Z</time>
      </trkpt>
      <trkpt lat="42.80226" lon="0.40493">
        <ele>951</ele>
        <time>2017-04-16T12:26:52Z</time>
      </trkpt>
      <trkpt lat="42.80226" lon="0.40493">
        <ele>951</ele>
        <time>2017-04-16T12:26:55Z</time>
      </trkpt>
      <trkpt lat="42.80226" lon="0.40493">
        <ele>952.5</ele>
        <time>2017-04-16T12:26:58Z</time>
      </trkpt>
      <trkpt lat="42.80226" lon="0.40493">
        <ele>952</ele>
        <time>2017-04-16T12:27:01Z</time>
      </trkpt>
      <trkpt lat="42.80226" lon="0.40493">
        <ele>952</ele>
        <time>2017-04-16T12:27:04Z</time>
      </trkpt>
      <trkpt lat="42.80226" lon="0.40493">
        <ele>951</ele>
        <time>2017-04-16T12:27:07Z</time>
      </trkpt>
      <trkpt lat="42.80226" lon="0.40493">
        <ele>953.2</ele>
        <time>2017-04-16T12:27:10Z</time>
      </trkpt>
      <trkpt lat="42.80226" lon="0.40493">
        <ele>950.7</ele>
        <time>2017-04-16T12:27:13Z</time>
      </trkpt>
      <trkpt lat="42.80226" lon="0.40493">
        <ele>950.5</ele>
        <time>2017-04-16T12:27:16Z</time>
      </trkpt>
      <trkpt lat="42.80226" lon="0.40493">
        <ele>951</ele>
        <time>2017-04-16T12:27:19Z</time>
      </trkpt>
      <trkpt lat="42.80226" lon="0.40493">
        <ele>951.7</ele>
        <time>2017-04-16T12:27:22Z</time>
      </trkpt>
      <trkpt lat="42.80226" lon="0.40493">
        <ele>951.7</ele>
        <time>2017-04-16T12:27:25Z</time>
      </trkpt>
      <trkpt lat="42.80226" lon="0.40493">
        <ele>952.5</ele>
        <time>2017-04-16T12:27:28Z</time>
      </trkpt>
      <trkpt lat="42.80226" lon="0.40493">
        <ele>953</ele>
        <time>2017-04-16T12:27:31Z</time>
      </trkpt>
      <trkpt lat="42.80226" lon="0.40494">
        <ele>951</ele>
        <time>2017-04-16T12:27:34Z</time>
      </trkpt>
      <trkpt lat="42.80226" lon="0.40494">
        <ele>951</ele>
        <time>2017-04-16T12:27:37Z</time>
      </trkpt>
      <trkpt lat="42.80226" lon="0.40494">
        <ele>951.5</ele>
        <time>2017-04-16T12:27:40Z</time>
      </trkpt>
      <trkpt lat="42.80226" lon="0.40494">
        <ele>951.5</ele>
        <time>2017-04-16T12:27:43Z</time>
      </trkpt>
      <trkpt lat="42.80225" lon="0.40494">
        <ele>951</ele>
        <time>2017-04-16T12:27:46Z</time>
      </trkpt>
      <trkpt lat="42.80225" lon="0.40494">
        <ele>951.7</ele>
        <time>2017-04-16T12:27:49Z</time>
      </trkpt>
      <trkpt lat="42.80225" lon="0.40494">
        <ele>952</ele>
        <time>2017-04-16T12:27:52Z</time>
      </trkpt>
      <trkpt lat="42.80225" lon="0.40495">
        <ele>951</ele>
        <time>2017-04-16T12:27:55Z</time>
      </trkpt>
      <trkpt lat="42.80225" lon="0.40495">
        <ele>950</ele>
        <time>2017-04-16T12:27:58Z</time>
      </trkpt>
      <trkpt lat="42.80225" lon="0.40495">
        <ele>951.5</ele>
        <time>2017-04-16T12:28:01Z</time>
      </trkpt>
      <trkpt lat="42.80225" lon="0.40495">
        <ele>952.2</ele>
        <time>2017-04-16T12:28:04Z</time>
      </trkpt>
      <trkpt lat="42.80225" lon="0.40495">
        <ele>951.2</ele>
        <time>2017-04-16T12:28:07Z</time>
      </trkpt>
      <trkpt lat="42.80225" lon="0.40495">
        <ele>951</ele>
        <time>2017-04-16T12:28:10Z</time>
      </trkpt>
      <trkpt lat="42.80225" lon="0.40495">
        <ele>951</ele>
        <time>2017-04-16T12:28:13Z</time>
      </trkpt>
      <trkpt lat="42.80225" lon="0.40496">
        <ele>951</ele>
        <time>2017-04-16T12:28:16Z</time>
      </trkpt>
      <trkpt lat="42.80225" lon="0.40496">
        <ele>950.2</ele>
        <time>2017-04-16T12:28:19Z</time>
      </trkpt>
      <trkpt lat="42.80225" lon="0.40496">
        <ele>951</ele>
        <time>2017-04-16T12:28:22Z</time>
      </trkpt>
      <trkpt lat="42.80225" lon="0.40496">
        <ele>951.5</ele>
        <time>2017-04-16T12:28:25Z</time>
      </trkpt>
      <trkpt lat="42.80225" lon="0.40496">
        <ele>951</ele>
        <time>2017-04-16T12:28:28Z</time>
      </trkpt>
      <trkpt lat="42.80225" lon="0.40496">
        <ele>951</ele>
        <time>2017-04-16T12:28:31Z</time>
      </trkpt>
      <trkpt lat="42.80225" lon="0.40496">
        <ele>950.5</ele>
        <time>2017-04-16T12:28:34Z</time>
      </trkpt>
      <trkpt lat="42.80225" lon="0.40496">
        <ele>950.7</ele>
        <time>2017-04-16T12:28:37Z</time>
      </trkpt>
      <trkpt lat="42.80225" lon="0.40496">
        <ele>951</ele>
        <time>2017-04-16T12:28:40Z</time>
      </trkpt>
      <trkpt lat="42.80225" lon="0.40496">
        <ele>951</ele>
        <time>2017-04-16T12:28:43Z</time>
      </trkpt>
      <trkpt lat="42.80225" lon="0.40496">
        <ele>951.5</ele>
        <time>2017-04-16T12:28:46Z</time>
      </trkpt>
      <trkpt lat="42.80225" lon="0.40496">
        <ele>951.5</ele>
        <time>2017-04-16T12:28:49Z</time>
      </trkpt>
      <trkpt lat="42.80225" lon="0.40496">
        <ele>950.2</ele>
        <time>2017-04-16T12:28:52Z</time>
      </trkpt>
      <trkpt lat="42.80225" lon="0.40496">
        <ele>950</ele>
        <time>2017-04-16T12:28:55Z</time>
      </trkpt>
      <trkpt lat="42.80225" lon="0.40496">
        <ele>950</ele>
        <time>2017-04-16T12:28:58Z</time>
      </trkpt>
      <trkpt lat="42.80225" lon="0.40496">
        <ele>951</ele>
        <time>2017-04-16T12:29:01Z</time>
      </trkpt>
      <trkpt lat="42.80225" lon="0.40496">
        <ele>951.5</ele>
        <time>2017-04-16T12:29:04Z</time>
      </trkpt>
      <trkpt lat="42.80225" lon="0.40496">
        <ele>951</ele>
        <time>2017-04-16T12:29:07Z</time>
      </trkpt>
      <trkpt lat="42.80225" lon="0.40496">
        <ele>951</ele>
        <time>2017-04-16T12:29:10Z</time>
      </trkpt>
      <trkpt lat="42.80225" lon="0.40495">
        <ele>951</ele>
        <time>2017-04-16T12:29:13Z</time>
      </trkpt>
      <trkpt lat="42.80225" lon="0.40495">
        <ele>951</ele>
        <time>2017-04-16T12:29:16Z</time>
      </trkpt>
      <trkpt lat="42.80225" lon="0.40495">
        <ele>951</ele>
        <time>2017-04-16T12:29:19Z</time>
      </trkpt>
      <trkpt lat="42.80225" lon="0.40495">
        <ele>952</ele>
        <time>2017-04-16T12:29:22Z</time>
      </trkpt>
      <trkpt lat="42.80225" lon="0.40495">
        <ele>951</ele>
        <time>2017-04-16T12:29:25Z</time>
      </trkpt>
      <trkpt lat="42.80225" lon="0.40495">
        <ele>951.5</ele>
        <time>2017-04-16T12:29:28Z</time>
      </trkpt>
      <trkpt lat="42.80225" lon="0.40495">
        <ele>952</ele>
        <time>2017-04-16T12:29:31Z</time>
      </trkpt>
      <trkpt lat="42.80225" lon="0.40495">
        <ele>950</ele>
        <time>2017-04-16T12:29:34Z</time>
      </trkpt>
      <trkpt lat="42.80225" lon="0.40494">
        <ele>951.5</ele>
        <time>2017-04-16T12:29:37Z</time>
      </trkpt>
      <trkpt lat="42.80225" lon="0.40495">
        <ele>950</ele>
        <time>2017-04-16T12:29:40Z</time>
      </trkpt>
      <trkpt lat="42.80225" lon="0.40496">
        <ele>950</ele>
        <time>2017-04-16T12:29:43Z</time>
      </trkpt>
      <trkpt lat="42.80225" lon="0.40495">
        <ele>950.7</ele>
        <time>2017-04-16T12:29:46Z</time>
      </trkpt>
      <trkpt lat="42.80225" lon="0.40495">
        <ele>950.2</ele>
        <time>2017-04-16T12:29:49Z</time>
      </trkpt>
      <trkpt lat="42.80225" lon="0.40494">
        <ele>950</ele>
        <time>2017-04-16T12:29:52Z</time>
      </trkpt>
      <trkpt lat="42.80225" lon="0.40492">
        <ele>949.7</ele>
        <time>2017-04-16T12:29:55Z</time>
      </trkpt>
      <trkpt lat="42.80225" lon="0.40491">
        <ele>950</ele>
        <time>2017-04-16T12:29:58Z</time>
      </trkpt>
      <trkpt lat="42.80225" lon="0.40492">
        <ele>950</ele>
        <time>2017-04-16T12:30:01Z</time>
      </trkpt>
      <trkpt lat="42.80225" lon="0.40493">
        <ele>950.5</ele>
        <time>2017-04-16T12:30:04Z</time>
      </trkpt>
      <trkpt lat="42.80225" lon="0.40493">
        <ele>951</ele>
        <time>2017-04-16T12:30:07Z</time>
      </trkpt>
      <trkpt lat="42.80225" lon="0.40494">
        <ele>949.5</ele>
        <time>2017-04-16T12:30:10Z</time>
      </trkpt>
      <trkpt lat="42.80225" lon="0.40495">
        <ele>945.8</ele>
        <time>2017-04-16T12:30:13Z</time>
      </trkpt>
      <trkpt lat="42.80225" lon="0.40494">
        <ele>950</ele>
        <time>2017-04-16T12:30:16Z</time>
      </trkpt>
      <trkpt lat="42.80225" lon="0.40494">
        <ele>948.5</ele>
        <time>2017-04-16T12:30:19Z</time>
      </trkpt>
      <trkpt lat="42.80225" lon="0.40494">
        <ele>948</ele>
        <time>2017-04-16T12:30:22Z</time>
      </trkpt>
      <trkpt lat="42.80225" lon="0.40494">
        <ele>949.5</ele>
        <time>2017-04-16T12:30:25Z</time>
      </trkpt>
      <trkpt lat="42.80225" lon="0.40494">
        <ele>950</ele>
        <time>2017-04-16T12:30:28Z</time>
      </trkpt>
      <trkpt lat="42.80225" lon="0.40494">
        <ele>949.5</ele>
        <time>2017-04-16T12:30:31Z</time>
      </trkpt>
      <trkpt lat="42.80225" lon="0.40494">
        <ele>950</ele>
        <time>2017-04-16T12:30:34Z</time>
      </trkpt>
      <trkpt lat="42.80225" lon="0.40494">
        <ele>949</ele>
        <time>2017-04-16T12:30:37Z</time>
      </trkpt>
      <trkpt lat="42.80225" lon="0.40495">
        <ele>949</ele>
        <time>2017-04-16T12:30:40Z</time>
      </trkpt>
      <trkpt lat="42.80225" lon="0.40495">
        <ele>950</ele>
        <time>2017-04-16T12:30:43Z</time>
      </trkpt>
      <trkpt lat="42.80225" lon="0.40495">
        <ele>950</ele>
        <time>2017-04-16T12:30:46Z</time>
      </trkpt>
      <trkpt lat="42.80225" lon="0.40495">
        <ele>949.5</ele>
        <time>2017-04-16T12:30:49Z</time>
      </trkpt>
      <trkpt lat="42.80225" lon="0.40496">
        <ele>950</ele>
        <time>2017-04-16T12:30:52Z</time>
      </trkpt>
      <trkpt lat="42.80225" lon="0.40496">
        <ele>948</ele>
        <time>2017-04-16T12:30:55Z</time>
      </trkpt>
      <trkpt lat="42.80225" lon="0.40496">
        <ele>949</ele>
        <time>2017-04-16T12:30:58Z</time>
      </trkpt>
      <trkpt lat="42.80224" lon="0.40497">
        <ele>949</ele>
        <time>2017-04-16T12:31:01Z</time>
      </trkpt>
      <trkpt lat="42.80224" lon="0.40497">
        <ele>949</ele>
        <time>2017-04-16T12:31:04Z</time>
      </trkpt>
      <trkpt lat="42.80224" lon="0.40497">
        <ele>948.5</ele>
        <time>2017-04-16T12:31:07Z</time>
      </trkpt>
      <trkpt lat="42.80224" lon="0.40498">
        <ele>949</ele>
        <time>2017-04-16T12:31:10Z</time>
      </trkpt>
      <trkpt lat="42.80224" lon="0.40498">
        <ele>948.2</ele>
        <time>2017-04-16T12:31:13Z</time>
      </trkpt>
      <trkpt lat="42.80224" lon="0.40498">
        <ele>950.5</ele>
        <time>2017-04-16T12:31:16Z</time>
      </trkpt>
      <trkpt lat="42.80223" lon="0.40498">
        <ele>950.5</ele>
        <time>2017-04-16T12:31:19Z</time>
      </trkpt>
      <trkpt lat="42.80223" lon="0.40498">
        <ele>948.5</ele>
        <time>2017-04-16T12:31:22Z</time>
      </trkpt>
      <trkpt lat="42.80223" lon="0.40499">
        <ele>950.2</ele>
        <time>2017-04-16T12:31:25Z</time>
      </trkpt>
      <trkpt lat="42.80223" lon="0.40499">
        <ele>949.5</ele>
        <time>2017-04-16T12:31:28Z</time>
      </trkpt>
      <trkpt lat="42.80223" lon="0.40499">
        <ele>950</ele>
        <time>2017-04-16T12:31:31Z</time>
      </trkpt>
      <trkpt lat="42.80223" lon="0.40499">
        <ele>950</ele>
        <time>2017-04-16T12:31:34Z</time>
      </trkpt>
      <trkpt lat="42.80223" lon="0.40499">
        <ele>950</ele>
        <time>2017-04-16T12:31:37Z</time>
      </trkpt>
      <trkpt lat="42.80223" lon="0.40499">
        <ele>950.5</ele>
        <time>2017-04-16T12:31:40Z</time>
      </trkpt>
      <trkpt lat="42.80223" lon="0.40499">
        <ele>949.5</ele>
        <time>2017-04-16T12:31:43Z</time>
      </trkpt>
      <trkpt lat="42.80223" lon="0.40499">
        <ele>949</ele>
        <time>2017-04-16T12:31:46Z</time>
      </trkpt>
      <trkpt lat="42.80223" lon="0.40499">
        <ele>949.5</ele>
        <time>2017-04-16T12:31:49Z</time>
      </trkpt>
      <trkpt lat="42.80223" lon="0.40499">
        <ele>950</ele>
        <time>2017-04-16T12:31:52Z</time>
      </trkpt>
      <trkpt lat="42.80223" lon="0.40499">
        <ele>950.2</ele>
        <time>2017-04-16T12:31:55Z</time>
      </trkpt>
      <trkpt lat="42.80223" lon="0.40499">
        <ele>949.7</ele>
        <time>2017-04-16T12:31:58Z</time>
      </trkpt>
      <trkpt lat="42.80223" lon="0.40499">
        <ele>950.5</ele>
        <time>2017-04-16T12:32:01Z</time>
      </trkpt>
      <trkpt lat="42.80223" lon="0.40499">
        <ele>949.5</ele>
        <time>2017-04-16T12:32:04Z</time>
      </trkpt>
      <trkpt lat="42.80223" lon="0.40499">
        <ele>949.7</ele>
        <time>2017-04-16T12:32:07Z</time>
      </trkpt>
      <trkpt lat="42.80223" lon="0.40499">
        <ele>950.7</ele>
        <time>2017-04-16T12:32:10Z</time>
      </trkpt>
      <trkpt lat="42.80223" lon="0.40499">
        <ele>951</ele>
        <time>2017-04-16T12:32:13Z</time>
      </trkpt>
      <trkpt lat="42.80223" lon="0.40499">
        <ele>950.5</ele>
        <time>2017-04-16T12:32:16Z</time>
      </trkpt>
      <trkpt lat="42.80223" lon="0.40499">
        <ele>950.7</ele>
        <time>2017-04-16T12:32:19Z</time>
      </trkpt>
      <trkpt lat="42.80223" lon="0.40499">
        <ele>950.2</ele>
        <time>2017-04-16T12:32:22Z</time>
      </trkpt>
      <trkpt lat="42.80223" lon="0.40499">
        <ele>952</ele>
        <time>2017-04-16T12:32:25Z</time>
      </trkpt>
      <trkpt lat="42.80223" lon="0.40499">
        <ele>950</ele>
        <time>2017-04-16T12:32:28Z</time>
      </trkpt>
      <trkpt lat="42.80223" lon="0.40499">
        <ele>950.7</ele>
        <time>2017-04-16T12:32:31Z</time>
      </trkpt>
      <trkpt lat="42.80223" lon="0.40499">
        <ele>951</ele>
        <time>2017-04-16T12:32:34Z</time>
      </trkpt>
      <trkpt lat="42.80223" lon="0.40499">
        <ele>950.7</ele>
        <time>2017-04-16T12:32:37Z</time>
      </trkpt>
      <trkpt lat="42.80223" lon="0.40499">
        <ele>950.5</ele>
        <time>2017-04-16T12:32:40Z</time>
      </trkpt>
      <trkpt lat="42.80223" lon="0.40499">
        <ele>951.5</ele>
        <time>2017-04-16T12:32:43Z</time>
      </trkpt>
      <trkpt lat="42.80223" lon="0.40499">
        <ele>954</ele>
        <time>2017-04-16T12:32:46Z</time>
      </trkpt>
      <trkpt lat="42.80223" lon="0.40499">
        <ele>951.5</ele>
        <time>2017-04-16T12:32:49Z</time>
      </trkpt>
      <trkpt lat="42.80223" lon="0.40499">
        <ele>951.2</ele>
        <time>2017-04-16T12:32:52Z</time>
      </trkpt>
      <trkpt lat="42.80223" lon="0.40499">
        <ele>953</ele>
        <time>2017-04-16T12:32:55Z</time>
      </trkpt>
      <trkpt lat="42.80223" lon="0.40499">
        <ele>953</ele>
        <time>2017-04-16T12:32:58Z</time>
      </trkpt>
      <trkpt lat="42.80223" lon="0.40499">
        <ele>953</ele>
        <time>2017-04-16T12:33:01Z</time>
      </trkpt>
      <trkpt lat="42.80223" lon="0.40499">
        <ele>953</ele>
        <time>2017-04-16T12:33:04Z</time>
      </trkpt>
      <trkpt lat="42.80223" lon="0.40499">
        <ele>954.5</ele>
        <time>2017-04-16T12:33:07Z</time>
      </trkpt>
      <trkpt lat="42.80223" lon="0.40499">
        <ele>953</ele>
        <time>2017-04-16T12:33:10Z</time>
      </trkpt>
      <trkpt lat="42.80223" lon="0.40499">
        <ele>951.5</ele>
        <time>2017-04-16T12:33:13Z</time>
      </trkpt>
      <trkpt lat="42.80223" lon="0.40499">
        <ele>952</ele>
        <time>2017-04-16T12:33:16Z</time>
      </trkpt>
      <trkpt lat="42.80223" lon="0.40499">
        <ele>953.7</ele>
        <time>2017-04-16T12:33:19Z</time>
      </trkpt>
      <trkpt lat="42.80223" lon="0.40499">
        <ele>952</ele>
        <time>2017-04-16T12:33:22Z</time>
      </trkpt>
      <trkpt lat="42.80223" lon="0.40499">
        <ele>952</ele>
        <time>2017-04-16T12:33:25Z</time>
      </trkpt>
      <trkpt lat="42.80223" lon="0.40499">
        <ele>952.5</ele>
        <time>2017-04-16T12:33:28Z</time>
      </trkpt>
      <trkpt lat="42.80223" lon="0.40499">
        <ele>952.2</ele>
        <time>2017-04-16T12:33:31Z</time>
      </trkpt>
      <trkpt lat="42.80223" lon="0.40499">
        <ele>952.5</ele>
        <time>2017-04-16T12:33:34Z</time>
      </trkpt>
      <trkpt lat="42.80223" lon="0.40499">
        <ele>952.5</ele>
        <time>2017-04-16T12:33:37Z</time>
      </trkpt>
      <trkpt lat="42.80223" lon="0.40499">
        <ele>952</ele>
        <time>2017-04-16T12:33:40Z</time>
      </trkpt>
      <trkpt lat="42.80223" lon="0.40499">
        <ele>952</ele>
        <time>2017-04-16T12:33:43Z</time>
      </trkpt>
      <trkpt lat="42.80223" lon="0.40499">
        <ele>952</ele>
        <time>2017-04-16T12:33:46Z</time>
      </trkpt>
      <trkpt lat="42.80223" lon="0.40499">
        <ele>953</ele>
        <time>2017-04-16T12:33:49Z</time>
      </trkpt>
      <trkpt lat="42.80223" lon="0.40499">
        <ele>952.2</ele>
        <time>2017-04-16T12:33:52Z</time>
      </trkpt>
      <trkpt lat="42.80223" lon="0.40499">
        <ele>952</ele>
        <time>2017-04-16T12:33:55Z</time>
      </trkpt>
      <trkpt lat="42.80223" lon="0.40499">
        <ele>951.5</ele>
        <time>2017-04-16T12:33:58Z</time>
      </trkpt>
      <trkpt lat="42.80223" lon="0.40499">
        <ele>952.5</ele>
        <time>2017-04-16T12:34:01Z</time>
      </trkpt>
      <trkpt lat="42.80223" lon="0.40499">
        <ele>952</ele>
        <time>2017-04-16T12:34:04Z</time>
      </trkpt>
      <trkpt lat="42.80223" lon="0.40499">
        <ele>952.7</ele>
        <time>2017-04-16T12:34:07Z</time>
      </trkpt>
      <trkpt lat="42.80223" lon="0.40499">
        <ele>952.5</ele>
        <time>2017-04-16T12:34:10Z</time>
      </trkpt>
      <trkpt lat="42.80223" lon="0.40499">
        <ele>952.5</ele>
        <time>2017-04-16T12:34:13Z</time>
      </trkpt>
      <trkpt lat="42.80223" lon="0.40499">
        <ele>952</ele>
        <time>2017-04-16T12:34:16Z</time>
      </trkpt>
      <trkpt lat="42.80223" lon="0.40499">
        <ele>952</ele>
        <time>2017-04-16T12:34:19Z</time>
      </trkpt>
      <trkpt lat="42.80223" lon="0.40499">
        <ele>951.5</ele>
        <time>2017-04-16T12:34:22Z</time>
      </trkpt>
      <trkpt lat="42.80223" lon="0.40499">
        <ele>953</ele>
        <time>2017-04-16T12:34:25Z</time>
      </trkpt>
      <trkpt lat="42.80223" lon="0.40499">
        <ele>952.2</ele>
        <time>2017-04-16T12:34:28Z</time>
      </trkpt>
      <trkpt lat="42.80223" lon="0.40499">
        <ele>952</ele>
        <time>2017-04-16T12:34:31Z</time>
      </trkpt>
      <trkpt lat="42.80223" lon="0.40499">
        <ele>951.5</ele>
        <time>2017-04-16T12:34:34Z</time>
      </trkpt>
      <trkpt lat="42.80223" lon="0.40499">
        <ele>952.5</ele>
        <time>2017-04-16T12:34:37Z</time>
      </trkpt>
      <trkpt lat="42.80223" lon="0.40499">
        <ele>951.5</ele>
        <time>2017-04-16T12:34:40Z</time>
      </trkpt>
      <trkpt lat="42.80223" lon="0.40499">
        <ele>952</ele>
        <time>2017-04-16T12:34:43Z</time>
      </trkpt>
      <trkpt lat="42.80223" lon="0.40499">
        <ele>951.5</ele>
        <time>2017-04-16T12:34:46Z</time>
      </trkpt>
      <trkpt lat="42.80223" lon="0.40499">
        <ele>952</ele>
        <time>2017-04-16T12:34:49Z</time>
      </trkpt>
      <trkpt lat="42.80223" lon="0.40499">
        <ele>952</ele>
        <time>2017-04-16T12:34:52Z</time>
      </trkpt>
      <trkpt lat="42.80223" lon="0.40499">
        <ele>952</ele>
        <time>2017-04-16T12:34:55Z</time>
      </trkpt>
      <trkpt lat="42.80223" lon="0.40499">
        <ele>952.5</ele>
        <time>2017-04-16T12:34:58Z</time>
      </trkpt>
      <trkpt lat="42.80223" lon="0.40499">
        <ele>953</ele>
        <time>2017-04-16T12:35:01Z</time>
      </trkpt>
      <trkpt lat="42.80223" lon="0.40499">
        <ele>953</ele>
        <time>2017-04-16T12:35:04Z</time>
      </trkpt>
      <trkpt lat="42.80223" lon="0.40498">
        <ele>951</ele>
        <time>2017-04-16T12:35:07Z</time>
      </trkpt>
      <trkpt lat="42.80223" lon="0.40498">
        <ele>950.7</ele>
        <time>2017-04-16T12:35:10Z</time>
      </trkpt>
      <trkpt lat="42.80223" lon="0.40498">
        <ele>951.7</ele>
        <time>2017-04-16T12:35:13Z</time>
      </trkpt>
      <trkpt lat="42.80223" lon="0.40498">
        <ele>952.7</ele>
        <time>2017-04-16T12:35:16Z</time>
      </trkpt>
      <trkpt lat="42.80223" lon="0.40498">
        <ele>951</ele>
        <time>2017-04-16T12:35:19Z</time>
      </trkpt>
      <trkpt lat="42.80223" lon="0.40498">
        <ele>953.5</ele>
        <time>2017-04-16T12:35:22Z</time>
      </trkpt>
      <trkpt lat="42.80223" lon="0.40498">
        <ele>951</ele>
        <time>2017-04-16T12:35:25Z</time>
      </trkpt>
      <trkpt lat="42.80223" lon="0.40498">
        <ele>952.5</ele>
        <time>2017-04-16T12:35:28Z</time>
      </trkpt>
      <trkpt lat="42.80223" lon="0.40498">
        <ele>952.5</ele>
        <time>2017-04-16T12:35:31Z</time>
      </trkpt>
      <trkpt lat="42.80223" lon="0.40498">
        <ele>952</ele>
        <time>2017-04-16T12:35:34Z</time>
      </trkpt>
      <trkpt lat="42.80223" lon="0.40497">
        <ele>952</ele>
        <time>2017-04-16T12:35:37Z</time>
      </trkpt>
      <trkpt lat="42.80223" lon="0.40497">
        <ele>951.5</ele>
        <time>2017-04-16T12:35:40Z</time>
      </trkpt>
      <trkpt lat="42.80223" lon="0.40497">
        <ele>951</ele>
        <time>2017-04-16T12:35:43Z</time>
      </trkpt>
      <trkpt lat="42.80223" lon="0.40497">
        <ele>952.5</ele>
        <time>2017-04-16T12:35:46Z</time>
      </trkpt>
      <trkpt lat="42.80223" lon="0.40497">
        <ele>952.2</ele>
        <time>2017-04-16T12:35:49Z</time>
      </trkpt>
      <trkpt lat="42.80223" lon="0.40497">
        <ele>950</ele>
        <time>2017-04-16T12:35:52Z</time>
      </trkpt>
      <trkpt lat="42.80223" lon="0.40497">
        <ele>952.5</ele>
        <time>2017-04-16T12:35:55Z</time>
      </trkpt>
      <trkpt lat="42.80223" lon="0.40497">
        <ele>952.2</ele>
        <time>2017-04-16T12:35:58Z</time>
      </trkpt>
      <trkpt lat="42.80223" lon="0.40497">
        <ele>952</ele>
        <time>2017-04-16T12:36:01Z</time>
      </trkpt>
      <trkpt lat="42.80223" lon="0.40497">
        <ele>952</ele>
        <time>2017-04-16T12:36:04Z</time>
      </trkpt>
      <trkpt lat="42.80223" lon="0.40497">
        <ele>952</ele>
        <time>2017-04-16T12:36:07Z</time>
      </trkpt>
      <trkpt lat="42.80223" lon="0.40497">
        <ele>951</ele>
        <time>2017-04-16T12:36:10Z</time>
      </trkpt>
      <trkpt lat="42.80223" lon="0.40497">
        <ele>952.5</ele>
        <time>2017-04-16T12:36:13Z</time>
      </trkpt>
      <trkpt lat="42.80223" lon="0.40497">
        <ele>951</ele>
        <time>2017-04-16T12:36:16Z</time>
      </trkpt>
      <trkpt lat="42.80223" lon="0.40497">
        <ele>952</ele>
        <time>2017-04-16T12:36:19Z</time>
      </trkpt>
      <trkpt lat="42.80223" lon="0.40497">
        <ele>951</ele>
        <time>2017-04-16T12:36:22Z</time>
      </trkpt>
      <trkpt lat="42.80223" lon="0.40497">
        <ele>952.5</ele>
        <time>2017-04-16T12:36:25Z</time>
      </trkpt>
      <trkpt lat="42.80223" lon="0.40497">
        <ele>953</ele>
        <time>2017-04-16T12:36:28Z</time>
      </trkpt>
      <trkpt lat="42.80223" lon="0.40497">
        <ele>952.2</ele>
        <time>2017-04-16T12:36:31Z</time>
      </trkpt>
      <trkpt lat="42.80223" lon="0.40497">
        <ele>952.7</ele>
        <time>2017-04-16T12:36:34Z</time>
      </trkpt>
      <trkpt lat="42.80223" lon="0.40497">
        <ele>951.5</ele>
        <time>2017-04-16T12:36:37Z</time>
      </trkpt>
      <trkpt lat="42.80223" lon="0.40497">
        <ele>952.5</ele>
        <time>2017-04-16T12:36:40Z</time>
      </trkpt>
      <trkpt lat="42.80223" lon="0.40497">
        <ele>951</ele>
        <time>2017-04-16T12:36:43Z</time>
      </trkpt>
      <trkpt lat="42.80223" lon="0.40497">
        <ele>951.5</ele>
        <time>2017-04-16T12:36:46Z</time>
      </trkpt>
      <trkpt lat="42.80223" lon="0.40497">
        <ele>952.7</ele>
        <time>2017-04-16T12:36:49Z</time>
      </trkpt>
      <trkpt lat="42.80223" lon="0.40497">
        <ele>952.7</ele>
        <time>2017-04-16T12:36:52Z</time>
      </trkpt>
      <trkpt lat="42.80223" lon="0.40497">
        <ele>952.5</ele>
        <time>2017-04-16T12:36:55Z</time>
      </trkpt>
      <trkpt lat="42.80223" lon="0.40497">
        <ele>953</ele>
        <time>2017-04-16T12:36:58Z</time>
      </trkpt>
      <trkpt lat="42.80223" lon="0.40497">
        <ele>951.5</ele>
        <time>2017-04-16T12:37:01Z</time>
      </trkpt>
      <trkpt lat="42.80223" lon="0.40497">
        <ele>951</ele>
        <time>2017-04-16T12:37:04Z</time>
      </trkpt>
      <trkpt lat="42.80223" lon="0.40497">
        <ele>951.7</ele>
        <time>2017-04-16T12:37:07Z</time>
      </trkpt>
      <trkpt lat="42.80223" lon="0.40497">
        <ele>952</ele>
        <time>2017-04-16T12:37:10Z</time>
      </trkpt>
      <trkpt lat="42.80223" lon="0.40497">
        <ele>953</ele>
        <time>2017-04-16T12:37:13Z</time>
      </trkpt>
      <trkpt lat="42.80223" lon="0.40497">
        <ele>952</ele>
        <time>2017-04-16T12:37:16Z</time>
      </trkpt>
      <trkpt lat="42.80223" lon="0.40497">
        <ele>952.5</ele>
        <time>2017-04-16T12:37:19Z</time>
      </trkpt>
      <trkpt lat="42.80223" lon="0.40497">
        <ele>952.2</ele>
        <time>2017-04-16T12:37:22Z</time>
      </trkpt>
      <trkpt lat="42.80223" lon="0.40497">
        <ele>952</ele>
        <time>2017-04-16T12:37:25Z</time>
      </trkpt>
      <trkpt lat="42.80223" lon="0.40497">
        <ele>952.5</ele>
        <time>2017-04-16T12:37:28Z</time>
      </trkpt>
      <trkpt lat="42.80223" lon="0.40497">
        <ele>952.2</ele>
        <time>2017-04-16T12:37:31Z</time>
      </trkpt>
      <trkpt lat="42.80223" lon="0.40497">
        <ele>951.5</ele>
        <time>2017-04-16T12:37:34Z</time>
      </trkpt>
      <trkpt lat="42.80223" lon="0.40497">
        <ele>952</ele>
        <time>2017-04-16T12:37:37Z</time>
      </trkpt>
      <trkpt lat="42.80223" lon="0.40497">
        <ele>952</ele>
        <time>2017-04-16T12:37:40Z</time>
      </trkpt>
      <trkpt lat="42.80223" lon="0.40497">
        <ele>950</ele>
        <time>2017-04-16T12:37:43Z</time>
      </trkpt>
      <trkpt lat="42.80223" lon="0.40497">
        <ele>951.5</ele>
        <time>2017-04-16T12:37:46Z</time>
      </trkpt>
      <trkpt lat="42.80223" lon="0.40497">
        <ele>952</ele>
        <time>2017-04-16T12:37:49Z</time>
      </trkpt>
      <trkpt lat="42.80223" lon="0.40497">
        <ele>951.7</ele>
        <time>2017-04-16T12:37:52Z</time>
      </trkpt>
      <trkpt lat="42.80223" lon="0.40497">
        <ele>951.2</ele>
        <time>2017-04-16T12:37:55Z</time>
      </trkpt>
      <trkpt lat="42.80223" lon="0.40497">
        <ele>951</ele>
        <time>2017-04-16T12:37:58Z</time>
      </trkpt>
      <trkpt lat="42.80223" lon="0.40497">
        <ele>953</ele>
        <time>2017-04-16T12:38:01Z</time>
      </trkpt>
      <trkpt lat="42.80223" lon="0.40497">
        <ele>952.5</ele>
        <time>2017-04-16T12:38:04Z</time>
      </trkpt>
      <trkpt lat="42.80223" lon="0.40497">
        <ele>951</ele>
        <time>2017-04-16T12:38:07Z</time>
      </trkpt>
      <trkpt lat="42.80223" lon="0.40497">
        <ele>951.5</ele>
        <time>2017-04-16T12:38:10Z</time>
      </trkpt>
      <trkpt lat="42.80223" lon="0.40497">
        <ele>951</ele>
        <time>2017-04-16T12:38:13Z</time>
      </trkpt>
      <trkpt lat="42.80223" lon="0.40497">
        <ele>951.7</ele>
        <time>2017-04-16T12:38:16Z</time>
      </trkpt>
      <trkpt lat="42.80223" lon="0.40497">
        <ele>952</ele>
        <time>2017-04-16T12:38:19Z</time>
      </trkpt>
      <trkpt lat="42.80223" lon="0.40497">
        <ele>951.5</ele>
        <time>2017-04-16T12:38:22Z</time>
      </trkpt>
      <trkpt lat="42.80223" lon="0.40497">
        <ele>951</ele>
        <time>2017-04-16T12:38:25Z</time>
      </trkpt>
      <trkpt lat="42.80223" lon="0.40497">
        <ele>951.7</ele>
        <time>2017-04-16T12:38:28Z</time>
      </trkpt>
      <trkpt lat="42.80223" lon="0.40496">
        <ele>952</ele>
        <time>2017-04-16T12:38:31Z</time>
      </trkpt>
      <trkpt lat="42.80223" lon="0.40496">
        <ele>952</ele>
        <time>2017-04-16T12:38:34Z</time>
      </trkpt>
      <trkpt lat="42.80223" lon="0.40496">
        <ele>951.2</ele>
        <time>2017-04-16T12:38:37Z</time>
      </trkpt>
      <trkpt lat="42.80223" lon="0.40496">
        <ele>951</ele>
        <time>2017-04-16T12:38:40Z</time>
      </trkpt>
      <trkpt lat="42.80223" lon="0.40496">
        <ele>951.5</ele>
        <time>2017-04-16T12:38:43Z</time>
      </trkpt>
      <trkpt lat="42.80223" lon="0.40496">
        <ele>952</ele>
        <time>2017-04-16T12:38:46Z</time>
      </trkpt>
      <trkpt lat="42.80223" lon="0.40496">
        <ele>953</ele>
        <time>2017-04-16T12:38:49Z</time>
      </trkpt>
      <trkpt lat="42.80223" lon="0.40496">
        <ele>952.5</ele>
        <time>2017-04-16T12:38:52Z</time>
      </trkpt>
      <trkpt lat="42.80223" lon="0.40496">
        <ele>952</ele>
        <time>2017-04-16T12:38:55Z</time>
      </trkpt>
      <trkpt lat="42.80223" lon="0.40496">
        <ele>952</ele>
        <time>2017-04-16T12:38:58Z</time>
      </trkpt>
      <trkpt lat="42.80223" lon="0.40496">
        <ele>951.5</ele>
        <time>2017-04-16T12:39:01Z</time>
      </trkpt>
      <trkpt lat="42.80223" lon="0.40496">
        <ele>951</ele>
        <time>2017-04-16T12:39:04Z</time>
      </trkpt>
      <trkpt lat="42.80223" lon="0.40496">
        <ele>952</ele>
        <time>2017-04-16T12:39:07Z</time>
      </trkpt>
      <trkpt lat="42.80223" lon="0.40496">
        <ele>952</ele>
        <time>2017-04-16T12:39:10Z</time>
      </trkpt>
      <trkpt lat="42.80223" lon="0.40496">
        <ele>952</ele>
        <time>2017-04-16T12:39:13Z</time>
      </trkpt>
      <trkpt lat="42.80223" lon="0.40496">
        <ele>952</ele>
        <time>2017-04-16T12:39:16Z</time>
      </trkpt>
      <trkpt lat="42.80223" lon="0.40496">
        <ele>952</ele>
        <time>2017-04-16T12:39:19Z</time>
      </trkpt>
      <trkpt lat="42.80223" lon="0.40496">
        <ele>952</ele>
        <time>2017-04-16T12:39:22Z</time>
      </trkpt>
      <trkpt lat="42.80223" lon="0.40496">
        <ele>952.5</ele>
        <time>2017-04-16T12:39:25Z</time>
      </trkpt>
      <trkpt lat="42.80223" lon="0.40496">
        <ele>951.2</ele>
        <time>2017-04-16T12:39:28Z</time>
      </trkpt>
      <trkpt lat="42.80223" lon="0.40496">
        <ele>951.7</ele>
        <time>2017-04-16T12:39:31Z</time>
      </trkpt>
      <trkpt lat="42.80223" lon="0.40496">
        <ele>951.2</ele>
        <time>2017-04-16T12:39:34Z</time>
      </trkpt>
      <trkpt lat="42.80223" lon="0.40496">
        <ele>951.5</ele>
        <time>2017-04-16T12:39:37Z</time>
      </trkpt>
      <trkpt lat="42.80223" lon="0.40496">
        <ele>951</ele>
        <time>2017-04-16T12:39:40Z</time>
      </trkpt>
      <trkpt lat="42.80223" lon="0.40496">
        <ele>951.7</ele>
        <time>2017-04-16T12:39:43Z</time>
      </trkpt>
      <trkpt lat="42.80223" lon="0.40496">
        <ele>952.5</ele>
        <time>2017-04-16T12:39:46Z</time>
      </trkpt>
      <trkpt lat="42.80223" lon="0.40496">
        <ele>953</ele>
        <time>2017-04-16T12:39:49Z</time>
      </trkpt>
      <trkpt lat="42.80223" lon="0.40496">
        <ele>953</ele>
        <time>2017-04-16T12:39:52Z</time>
      </trkpt>
      <trkpt lat="42.80223" lon="0.40496">
        <ele>953</ele>
        <time>2017-04-16T12:39:55Z</time>
      </trkpt>
      <trkpt lat="42.80223" lon="0.40496">
        <ele>952.7</ele>
        <time>2017-04-16T12:39:58Z</time>
      </trkpt>
      <trkpt lat="42.80223" lon="0.40496">
        <ele>952</ele>
        <time>2017-04-16T12:40:01Z</time>
      </trkpt>
      <trkpt lat="42.80223" lon="0.40496">
        <ele>951.7</ele>
        <time>2017-04-16T12:40:04Z</time>
      </trkpt>
      <trkpt lat="42.80223" lon="0.40496">
        <ele>951</ele>
        <time>2017-04-16T12:40:07Z</time>
      </trkpt>
      <trkpt lat="42.80223" lon="0.40496">
        <ele>951.5</ele>
        <time>2017-04-16T12:40:10Z</time>
      </trkpt>
      <trkpt lat="42.80223" lon="0.40496">
        <ele>951</ele>
        <time>2017-04-16T12:40:13Z</time>
      </trkpt>
      <trkpt lat="42.80223" lon="0.40496">
        <ele>951.7</ele>
        <time>2017-04-16T12:40:16Z</time>
      </trkpt>
      <trkpt lat="42.80223" lon="0.40496">
        <ele>952</ele>
        <time>2017-04-16T12:40:19Z</time>
      </trkpt>
      <trkpt lat="42.80223" lon="0.40496">
        <ele>952.5</ele>
        <time>2017-04-16T12:40:22Z</time>
      </trkpt>
      <trkpt lat="42.80223" lon="0.40496">
        <ele>951.5</ele>
        <time>2017-04-16T12:40:25Z</time>
      </trkpt>
      <trkpt lat="42.80223" lon="0.40496">
        <ele>951.5</ele>
        <time>2017-04-16T12:40:28Z</time>
      </trkpt>
      <trkpt lat="42.80223" lon="0.40496">
        <ele>951</ele>
        <time>2017-04-16T12:40:31Z</time>
      </trkpt>
      <trkpt lat="42.80223" lon="0.40496">
        <ele>951</ele>
        <time>2017-04-16T12:40:34Z</time>
      </trkpt>
      <trkpt lat="42.80223" lon="0.40496">
        <ele>952.5</ele>
        <time>2017-04-16T12:40:37Z</time>
      </trkpt>
      <trkpt lat="42.80223" lon="0.40496">
        <ele>952</ele>
        <time>2017-04-16T12:40:40Z</time>
      </trkpt>
      <trkpt lat="42.80223" lon="0.40496">
        <ele>952</ele>
        <time>2017-04-16T12:40:43Z</time>
      </trkpt>
      <trkpt lat="42.80223" lon="0.40496">
        <ele>952.5</ele>
        <time>2017-04-16T12:40:46Z</time>
      </trkpt>
      <trkpt lat="42.80223" lon="0.40496">
        <ele>951</ele>
        <time>2017-04-16T12:40:49Z</time>
      </trkpt>
      <trkpt lat="42.80223" lon="0.40496">
        <ele>951.7</ele>
        <time>2017-04-16T12:40:52Z</time>
      </trkpt>
      <trkpt lat="42.80223" lon="0.40496">
        <ele>951.5</ele>
        <time>2017-04-16T12:40:55Z</time>
      </trkpt>
      <trkpt lat="42.80223" lon="0.40496">
        <ele>952.7</ele>
        <time>2017-04-16T12:40:58Z</time>
      </trkpt>
      <trkpt lat="42.80223" lon="0.40496">
        <ele>951.5</ele>
        <time>2017-04-16T12:41:01Z</time>
      </trkpt>
      <trkpt lat="42.80223" lon="0.40496">
        <ele>952</ele>
        <time>2017-04-16T12:41:04Z</time>
      </trkpt>
      <trkpt lat="42.80223" lon="0.40496">
        <ele>951</ele>
        <time>2017-04-16T12:41:07Z</time>
      </trkpt>
      <trkpt lat="42.80223" lon="0.40496">
        <ele>950.7</ele>
        <time>2017-04-16T12:41:10Z</time>
      </trkpt>
      <trkpt lat="42.80223" lon="0.40496">
        <ele>950.5</ele>
        <time>2017-04-16T12:41:13Z</time>
      </trkpt>
      <trkpt lat="42.80223" lon="0.40496">
        <ele>951</ele>
        <time>2017-04-16T12:41:16Z</time>
      </trkpt>
      <trkpt lat="42.80223" lon="0.40496">
        <ele>952</ele>
        <time>2017-04-16T12:41:19Z</time>
      </trkpt>
      <trkpt lat="42.80223" lon="0.40496">
        <ele>950</ele>
        <time>2017-04-16T12:41:22Z</time>
      </trkpt>
      <trkpt lat="42.80223" lon="0.40496">
        <ele>949.7</ele>
        <time>2017-04-16T12:41:25Z</time>
      </trkpt>
      <trkpt lat="42.80223" lon="0.40496">
        <ele>952</ele>
        <time>2017-04-16T12:41:28Z</time>
      </trkpt>
      <trkpt lat="42.80222" lon="0.40496">
        <ele>952.5</ele>
        <time>2017-04-16T12:41:31Z</time>
      </trkpt>
      <trkpt lat="42.80222" lon="0.40496">
        <ele>951.5</ele>
        <time>2017-04-16T12:41:34Z</time>
      </trkpt>
      <trkpt lat="42.80222" lon="0.40496">
        <ele>951</ele>
        <time>2017-04-16T12:41:37Z</time>
      </trkpt>
      <trkpt lat="42.80222" lon="0.40496">
        <ele>951</ele>
        <time>2017-04-16T12:41:40Z</time>
      </trkpt>
      <trkpt lat="42.80222" lon="0.40497">
        <ele>953</ele>
        <time>2017-04-16T12:41:43Z</time>
      </trkpt>
      <trkpt lat="42.80222" lon="0.40497">
        <ele>953</ele>
        <time>2017-04-16T12:41:46Z</time>
      </trkpt>
      <trkpt lat="42.80222" lon="0.40497">
        <ele>952.2</ele>
        <time>2017-04-16T12:41:49Z</time>
      </trkpt>
      <trkpt lat="42.80222" lon="0.40497">
        <ele>951</ele>
        <time>2017-04-16T12:41:52Z</time>
      </trkpt>
      <trkpt lat="42.80222" lon="0.40497">
        <ele>951</ele>
        <time>2017-04-16T12:41:55Z</time>
      </trkpt>
      <trkpt lat="42.80222" lon="0.40497">
        <ele>952</ele>
        <time>2017-04-16T12:41:58Z</time>
      </trkpt>
      <trkpt lat="42.80222" lon="0.40497">
        <ele>952</ele>
        <time>2017-04-16T12:42:01Z</time>
      </trkpt>
      <trkpt lat="42.80222" lon="0.40496">
        <ele>952</ele>
        <time>2017-04-16T12:42:04Z</time>
      </trkpt>
      <trkpt lat="42.80222" lon="0.40496">
        <ele>953</ele>
        <time>2017-04-16T12:42:07Z</time>
      </trkpt>
      <trkpt lat="42.80222" lon="0.40495">
        <ele>951</ele>
        <time>2017-04-16T12:42:10Z</time>
      </trkpt>
      <trkpt lat="42.80222" lon="0.40495">
        <ele>951</ele>
        <time>2017-04-16T12:42:13Z</time>
      </trkpt>
      <trkpt lat="42.80222" lon="0.40494">
        <ele>952.7</ele>
        <time>2017-04-16T12:42:16Z</time>
      </trkpt>
      <trkpt lat="42.80222" lon="0.40494">
        <ele>952</ele>
        <time>2017-04-16T12:42:19Z</time>
      </trkpt>
      <trkpt lat="42.80222" lon="0.40494">
        <ele>951.7</ele>
        <time>2017-04-16T12:42:22Z</time>
      </trkpt>
      <trkpt lat="42.80222" lon="0.40494">
        <ele>951</ele>
        <time>2017-04-16T12:42:25Z</time>
      </trkpt>
      <trkpt lat="42.80222" lon="0.40493">
        <ele>951.5</ele>
        <time>2017-04-16T12:42:28Z</time>
      </trkpt>
      <trkpt lat="42.80222" lon="0.40493">
        <ele>952.2</ele>
        <time>2017-04-16T12:42:31Z</time>
      </trkpt>
      <trkpt lat="42.80222" lon="0.40493">
        <ele>952</ele>
        <time>2017-04-16T12:42:34Z</time>
      </trkpt>
      <trkpt lat="42.80222" lon="0.40493">
        <ele>950.5</ele>
        <time>2017-04-16T12:42:37Z</time>
      </trkpt>
      <trkpt lat="42.80222" lon="0.40493">
        <ele>952</ele>
        <time>2017-04-16T12:42:40Z</time>
      </trkpt>
      <trkpt lat="42.80222" lon="0.40493">
        <ele>953</ele>
        <time>2017-04-16T12:42:43Z</time>
      </trkpt>
      <trkpt lat="42.80222" lon="0.40493">
        <ele>951</ele>
        <time>2017-04-16T12:42:46Z</time>
      </trkpt>
      <trkpt lat="42.80222" lon="0.40494">
        <ele>950.5</ele>
        <time>2017-04-16T12:42:49Z</time>
      </trkpt>
      <trkpt lat="42.80222" lon="0.40494">
        <ele>951</ele>
        <time>2017-04-16T12:42:52Z</time>
      </trkpt>
      <trkpt lat="42.80222" lon="0.40494">
        <ele>951.5</ele>
        <time>2017-04-16T12:42:55Z</time>
      </trkpt>
      <trkpt lat="42.80222" lon="0.40494">
        <ele>950.5</ele>
        <time>2017-04-16T12:42:58Z</time>
      </trkpt>
      <trkpt lat="42.80222" lon="0.40494">
        <ele>950</ele>
        <time>2017-04-16T12:43:01Z</time>
      </trkpt>
      <trkpt lat="42.80222" lon="0.40494">
        <ele>950.7</ele>
        <time>2017-04-16T12:43:04Z</time>
      </trkpt>
      <trkpt lat="42.80222" lon="0.40494">
        <ele>951</ele>
        <time>2017-04-16T12:43:07Z</time>
      </trkpt>
      <trkpt lat="42.80222" lon="0.40494">
        <ele>951</ele>
        <time>2017-04-16T12:43:10Z</time>
      </trkpt>
      <trkpt lat="42.80222" lon="0.40494">
        <ele>951</ele>
        <time>2017-04-16T12:43:13Z</time>
      </trkpt>
      <trkpt lat="42.80222" lon="0.40494">
        <ele>951.7</ele>
        <time>2017-04-16T12:43:16Z</time>
      </trkpt>
      <trkpt lat="42.80222" lon="0.40494">
        <ele>951</ele>
        <time>2017-04-16T12:43:19Z</time>
      </trkpt>
      <trkpt lat="42.80222" lon="0.40494">
        <ele>951.7</ele>
        <time>2017-04-16T12:43:22Z</time>
      </trkpt>
      <trkpt lat="42.80222" lon="0.40494">
        <ele>951</ele>
        <time>2017-04-16T12:43:25Z</time>
      </trkpt>
      <trkpt lat="42.80222" lon="0.40494">
        <ele>951</ele>
        <time>2017-04-16T12:43:28Z</time>
      </trkpt>
      <trkpt lat="42.80222" lon="0.40495">
        <ele>950.2</ele>
        <time>2017-04-16T12:43:31Z</time>
      </trkpt>
      <trkpt lat="42.80222" lon="0.40495">
        <ele>950</ele>
        <time>2017-04-16T12:43:34Z</time>
      </trkpt>
      <trkpt lat="42.80222" lon="0.40495">
        <ele>951</ele>
        <time>2017-04-16T12:43:37Z</time>
      </trkpt>
      <trkpt lat="42.80222" lon="0.40495">
        <ele>950.2</ele>
        <time>2017-04-16T12:43:40Z</time>
      </trkpt>
      <trkpt lat="42.80222" lon="0.40495">
        <ele>950.7</ele>
        <time>2017-04-16T12:43:43Z</time>
      </trkpt>
      <trkpt lat="42.80222" lon="0.40495">
        <ele>951</ele>
        <time>2017-04-16T12:43:46Z</time>
      </trkpt>
      <trkpt lat="42.80222" lon="0.40495">
        <ele>950.5</ele>
        <time>2017-04-16T12:43:49Z</time>
      </trkpt>
      <trkpt lat="42.80222" lon="0.40495">
        <ele>950.7</ele>
        <time>2017-04-16T12:43:52Z</time>
      </trkpt>
      <trkpt lat="42.80222" lon="0.40495">
        <ele>951</ele>
        <time>2017-04-16T12:43:55Z</time>
      </trkpt>
      <trkpt lat="42.80222" lon="0.40495">
        <ele>951</ele>
        <time>2017-04-16T12:43:58Z</time>
      </trkpt>
      <trkpt lat="42.80222" lon="0.40495">
        <ele>951</ele>
        <time>2017-04-16T12:44:01Z</time>
      </trkpt>
      <trkpt lat="42.80222" lon="0.40495">
        <ele>950.5</ele>
        <time>2017-04-16T12:44:04Z</time>
      </trkpt>
      <trkpt lat="42.80222" lon="0.40495">
        <ele>950.7</ele>
        <time>2017-04-16T12:44:07Z</time>
      </trkpt>
      <trkpt lat="42.80222" lon="0.40496">
        <ele>950</ele>
        <time>2017-04-16T12:44:10Z</time>
      </trkpt>
      <trkpt lat="42.80222" lon="0.40496">
        <ele>950.5</ele>
        <time>2017-04-16T12:44:13Z</time>
      </trkpt>
      <trkpt lat="42.80222" lon="0.40496">
        <ele>955.7</ele>
        <time>2017-04-16T12:44:16Z</time>
      </trkpt>
      <trkpt lat="42.80223" lon="0.40496">
        <ele>950</ele>
        <time>2017-04-16T12:44:19Z</time>
      </trkpt>
      <trkpt lat="42.80223" lon="0.40496">
        <ele>950.5</ele>
        <time>2017-04-16T12:44:22Z</time>
      </trkpt>
      <trkpt lat="42.80223" lon="0.40496">
        <ele>951</ele>
        <time>2017-04-16T12:44:25Z</time>
      </trkpt>
      <trkpt lat="42.80223" lon="0.40496">
        <ele>951.7</ele>
        <time>2017-04-16T12:44:28Z</time>
      </trkpt>
      <trkpt lat="42.80222" lon="0.40496">
        <ele>952</ele>
        <time>2017-04-16T12:44:31Z</time>
      </trkpt>
      <trkpt lat="42.80222" lon="0.40497">
        <ele>950.5</ele>
        <time>2017-04-16T12:44:34Z</time>
      </trkpt>
      <trkpt lat="42.80222" lon="0.40497">
        <ele>950.6</ele>
        <time>2017-04-16T12:44:37Z</time>
      </trkpt>
      <trkpt lat="42.80222" lon="0.40497">
        <ele>951.5</ele>
        <time>2017-04-16T12:44:40Z</time>
      </trkpt>
      <trkpt lat="42.80222" lon="0.40497">
        <ele>951.5</ele>
        <time>2017-04-16T12:44:43Z</time>
      </trkpt>
      <trkpt lat="42.80222" lon="0.40496">
        <ele>952.5</ele>
        <time>2017-04-16T12:44:46Z</time>
      </trkpt>
      <trkpt lat="42.80222" lon="0.40496">
        <ele>952.5</ele>
        <time>2017-04-16T12:44:49Z</time>
      </trkpt>
      <trkpt lat="42.80222" lon="0.40496">
        <ele>952</ele>
        <time>2017-04-16T12:44:52Z</time>
      </trkpt>
      <trkpt lat="42.80222" lon="0.40495">
        <ele>952</ele>
        <time>2017-04-16T12:44:55Z</time>
      </trkpt>
      <trkpt lat="42.80222" lon="0.40495">
        <ele>951</ele>
        <time>2017-04-16T12:44:58Z</time>
      </trkpt>
      <trkpt lat="42.80222" lon="0.40495">
        <ele>950.5</ele>
        <time>2017-04-16T12:45:01Z</time>
      </trkpt>
      <trkpt lat="42.80222" lon="0.40495">
        <ele>952.5</ele>
        <time>2017-04-16T12:45:04Z</time>
      </trkpt>
      <trkpt lat="42.80222" lon="0.40495">
        <ele>951.5</ele>
        <time>2017-04-16T12:45:07Z</time>
      </trkpt>
      <trkpt lat="42.80222" lon="0.40496">
        <ele>951.7</ele>
        <time>2017-04-16T12:45:10Z</time>
      </trkpt>
      <trkpt lat="42.80222" lon="0.40496">
        <ele>951</ele>
        <time>2017-04-16T12:45:13Z</time>
      </trkpt>
      <trkpt lat="42.80222" lon="0.40497">
        <ele>952.2</ele>
        <time>2017-04-16T12:45:16Z</time>
      </trkpt>
      <trkpt lat="42.80222" lon="0.40497">
        <ele>952</ele>
        <time>2017-04-16T12:45:19Z</time>
      </trkpt>
      <trkpt lat="42.80222" lon="0.40497">
        <ele>952</ele>
        <time>2017-04-16T12:45:22Z</time>
      </trkpt>
      <trkpt lat="42.80222" lon="0.40497">
        <ele>952</ele>
        <time>2017-04-16T12:45:25Z</time>
      </trkpt>
      <trkpt lat="42.80222" lon="0.40498">
        <ele>951.7</ele>
        <time>2017-04-16T12:45:28Z</time>
      </trkpt>
      <trkpt lat="42.80222" lon="0.40498">
        <ele>952</ele>
        <time>2017-04-16T12:45:31Z</time>
      </trkpt>
      <trkpt lat="42.80223" lon="0.40498">
        <ele>952</ele>
        <time>2017-04-16T12:45:34Z</time>
      </trkpt>
      <trkpt lat="42.80222" lon="0.40498">
        <ele>951</ele>
        <time>2017-04-16T12:45:37Z</time>
      </trkpt>
      <trkpt lat="42.80223" lon="0.40499">
        <ele>950.7</ele>
        <time>2017-04-16T12:45:40Z</time>
      </trkpt>
      <trkpt lat="42.80223" lon="0.40499">
        <ele>951.5</ele>
        <time>2017-04-16T12:45:43Z</time>
      </trkpt>
      <trkpt lat="42.80223" lon="0.40499">
        <ele>952.5</ele>
        <time>2017-04-16T12:45:46Z</time>
      </trkpt>
      <trkpt lat="42.80223" lon="0.40499">
        <ele>952</ele>
        <time>2017-04-16T12:45:49Z</time>
      </trkpt>
      <trkpt lat="42.80223" lon="0.40499">
        <ele>953</ele>
        <time>2017-04-16T12:45:52Z</time>
      </trkpt>
      <trkpt lat="42.80223" lon="0.40499">
        <ele>952.5</ele>
        <time>2017-04-16T12:45:55Z</time>
      </trkpt>
      <trkpt lat="42.80223" lon="0.405">
        <ele>952</ele>
        <time>2017-04-16T12:45:58Z</time>
      </trkpt>
      <trkpt lat="42.80223" lon="0.405">
        <ele>951.2</ele>
        <time>2017-04-16T12:46:01Z</time>
      </trkpt>
      <trkpt lat="42.80223" lon="0.405">
        <ele>951.5</ele>
        <time>2017-04-16T12:46:04Z</time>
      </trkpt>
      <trkpt lat="42.80223" lon="0.405">
        <ele>951</ele>
        <time>2017-04-16T12:46:07Z</time>
      </trkpt>
      <trkpt lat="42.80223" lon="0.405">
        <ele>951</ele>
        <time>2017-04-16T12:46:10Z</time>
      </trkpt>
      <trkpt lat="42.80223" lon="0.405">
        <ele>951.1</ele>
        <time>2017-04-16T12:46:13Z</time>
      </trkpt>
      <trkpt lat="42.80223" lon="0.405">
        <ele>951</ele>
        <time>2017-04-16T12:46:16Z</time>
      </trkpt>
      <trkpt lat="42.80223" lon="0.405">
        <ele>952.5</ele>
        <time>2017-04-16T12:46:19Z</time>
      </trkpt>
      <trkpt lat="42.80223" lon="0.405">
        <ele>953</ele>
        <time>2017-04-16T12:46:22Z</time>
      </trkpt>
      <trkpt lat="42.80223" lon="0.405">
        <ele>951.5</ele>
        <time>2017-04-16T12:46:25Z</time>
      </trkpt>
      <trkpt lat="42.80223" lon="0.405">
        <ele>952.5</ele>
        <time>2017-04-16T12:46:28Z</time>
      </trkpt>
      <trkpt lat="42.80223" lon="0.405">
        <ele>952</ele>
        <time>2017-04-16T12:46:31Z</time>
      </trkpt>
      <trkpt lat="42.80223" lon="0.405">
        <ele>952.2</ele>
        <time>2017-04-16T12:46:34Z</time>
      </trkpt>
      <trkpt lat="42.80223" lon="0.405">
        <ele>951</ele>
        <time>2017-04-16T12:46:37Z</time>
      </trkpt>
      <trkpt lat="42.80223" lon="0.405">
        <ele>952.5</ele>
        <time>2017-04-16T12:46:40Z</time>
      </trkpt>
      <trkpt lat="42.80223" lon="0.405">
        <ele>952.5</ele>
        <time>2017-04-16T12:46:43Z</time>
      </trkpt>
      <trkpt lat="42.80223" lon="0.405">
        <ele>952.7</ele>
        <time>2017-04-16T12:46:46Z</time>
      </trkpt>
      <trkpt lat="42.80223" lon="0.405">
        <ele>953.7</ele>
        <time>2017-04-16T12:46:49Z</time>
      </trkpt>
      <trkpt lat="42.80223" lon="0.405">
        <ele>954</ele>
        <time>2017-04-16T12:46:52Z</time>
      </trkpt>
      <trkpt lat="42.80223" lon="0.405">
        <ele>952.5</ele>
        <time>2017-04-16T12:46:55Z</time>
      </trkpt>
      <trkpt lat="42.80223" lon="0.405">
        <ele>952.2</ele>
        <time>2017-04-16T12:46:58Z</time>
      </trkpt>
      <trkpt lat="42.80223" lon="0.405">
        <ele>953</ele>
        <time>2017-04-16T12:47:01Z</time>
      </trkpt>
      <trkpt lat="42.80223" lon="0.405">
        <ele>953</ele>
        <time>2017-04-16T12:47:04Z</time>
      </trkpt>
      <trkpt lat="42.80223" lon="0.405">
        <ele>952.5</ele>
        <time>2017-04-16T12:47:07Z</time>
      </trkpt>
      <trkpt lat="42.80223" lon="0.405">
        <ele>953</ele>
        <time>2017-04-16T12:47:10Z</time>
      </trkpt>
      <trkpt lat="42.80223" lon="0.405">
        <ele>952.7</ele>
        <time>2017-04-16T12:47:13Z</time>
      </trkpt>
      <trkpt lat="42.80223" lon="0.405">
        <ele>955.7</ele>
        <time>2017-04-16T12:47:16Z</time>
      </trkpt>
      <trkpt lat="42.80222" lon="0.405">
        <ele>953</ele>
        <time>2017-04-16T12:47:19Z</time>
      </trkpt>
      <trkpt lat="42.80222" lon="0.405">
        <ele>953.2</ele>
        <time>2017-04-16T12:47:22Z</time>
      </trkpt>
      <trkpt lat="42.80222" lon="0.405">
        <ele>953.5</ele>
        <time>2017-04-16T12:47:25Z</time>
      </trkpt>
      <trkpt lat="42.80222" lon="0.405">
        <ele>954</ele>
        <time>2017-04-16T12:47:28Z</time>
      </trkpt>
      <trkpt lat="42.80222" lon="0.405">
        <ele>951.7</ele>
        <time>2017-04-16T12:47:31Z</time>
      </trkpt>
      <trkpt lat="42.80222" lon="0.405">
        <ele>952.5</ele>
        <time>2017-04-16T12:47:34Z</time>
      </trkpt>
      <trkpt lat="42.80222" lon="0.405">
        <ele>953.7</ele>
        <time>2017-04-16T12:47:37Z</time>
      </trkpt>
      <trkpt lat="42.80222" lon="0.405">
        <ele>954</ele>
        <time>2017-04-16T12:47:40Z</time>
      </trkpt>
      <trkpt lat="42.80222" lon="0.405">
        <ele>952</ele>
        <time>2017-04-16T12:47:43Z</time>
      </trkpt>
      <trkpt lat="42.80222" lon="0.405">
        <ele>953.7</ele>
        <time>2017-04-16T12:47:46Z</time>
      </trkpt>
      <trkpt lat="42.80222" lon="0.405">
        <ele>954.5</ele>
        <time>2017-04-16T12:47:49Z</time>
      </trkpt>
      <trkpt lat="42.80222" lon="0.405">
        <ele>954</ele>
        <time>2017-04-16T12:47:52Z</time>
      </trkpt>
      <trkpt lat="42.80222" lon="0.405">
        <ele>953.5</ele>
        <time>2017-04-16T12:47:55Z</time>
      </trkpt>
      <trkpt lat="42.80222" lon="0.405">
        <ele>954</ele>
        <time>2017-04-16T12:47:58Z</time>
      </trkpt>
      <trkpt lat="42.80222" lon="0.405">
        <ele>954</ele>
        <time>2017-04-16T12:48:01Z</time>
      </trkpt>
      <trkpt lat="42.80222" lon="0.405">
        <ele>955</ele>
        <time>2017-04-16T12:48:04Z</time>
      </trkpt>
      <trkpt lat="42.80222" lon="0.405">
        <ele>953</ele>
        <time>2017-04-16T12:48:07Z</time>
      </trkpt>
      <trkpt lat="42.80222" lon="0.40499">
        <ele>953</ele>
        <time>2017-04-16T12:48:10Z</time>
      </trkpt>
      <trkpt lat="42.80222" lon="0.40499">
        <ele>953</ele>
        <time>2017-04-16T12:48:13Z</time>
      </trkpt>
      <trkpt lat="42.80222" lon="0.40499">
        <ele>953.5</ele>
        <time>2017-04-16T12:48:16Z</time>
      </trkpt>
      <trkpt lat="42.80222" lon="0.40499">
        <ele>953</ele>
        <time>2017-04-16T12:48:19Z</time>
      </trkpt>
      <trkpt lat="42.80222" lon="0.40499">
        <ele>953.7</ele>
        <time>2017-04-16T12:48:22Z</time>
      </trkpt>
      <trkpt lat="42.80222" lon="0.40499">
        <ele>953</ele>
        <time>2017-04-16T12:48:25Z</time>
      </trkpt>
      <trkpt lat="42.80222" lon="0.40499">
        <ele>952.2</ele>
        <time>2017-04-16T12:48:28Z</time>
      </trkpt>
      <trkpt lat="42.80221" lon="0.40499">
        <ele>953</ele>
        <time>2017-04-16T12:48:31Z</time>
      </trkpt>
      <trkpt lat="42.80221" lon="0.40498">
        <ele>954</ele>
        <time>2017-04-16T12:48:34Z</time>
      </trkpt>
      <trkpt lat="42.80221" lon="0.40498">
        <ele>953</ele>
        <time>2017-04-16T12:48:37Z</time>
      </trkpt>
      <trkpt lat="42.80221" lon="0.40497">
        <ele>953.5</ele>
        <time>2017-04-16T12:48:40Z</time>
      </trkpt>
      <trkpt lat="42.80221" lon="0.40497">
        <ele>953</ele>
        <time>2017-04-16T12:48:43Z</time>
      </trkpt>
      <trkpt lat="42.80221" lon="0.40497">
        <ele>953</ele>
        <time>2017-04-16T12:48:46Z</time>
      </trkpt>
      <trkpt lat="42.80221" lon="0.40497">
        <ele>952</ele>
        <time>2017-04-16T12:48:49Z</time>
      </trkpt>
      <trkpt lat="42.80221" lon="0.40497">
        <ele>953</ele>
        <time>2017-04-16T12:48:52Z</time>
      </trkpt>
      <trkpt lat="42.80221" lon="0.40496">
        <ele>954.2</ele>
        <time>2017-04-16T12:48:55Z</time>
      </trkpt>
      <trkpt lat="42.80221" lon="0.40497">
        <ele>953.5</ele>
        <time>2017-04-16T12:48:58Z</time>
      </trkpt>
      <trkpt lat="42.80221" lon="0.40497">
        <ele>953</ele>
        <time>2017-04-16T12:49:01Z</time>
      </trkpt>
      <trkpt lat="42.80221" lon="0.40497">
        <ele>954.2</ele>
        <time>2017-04-16T12:49:04Z</time>
      </trkpt>
      <trkpt lat="42.80221" lon="0.40497">
        <ele>954.2</ele>
        <time>2017-04-16T12:49:07Z</time>
      </trkpt>
      <trkpt lat="42.80221" lon="0.40497">
        <ele>953</ele>
        <time>2017-04-16T12:49:10Z</time>
      </trkpt>
      <trkpt lat="42.80221" lon="0.40497">
        <ele>953</ele>
        <time>2017-04-16T12:49:13Z</time>
      </trkpt>
      <trkpt lat="42.80221" lon="0.40497">
        <ele>954</ele>
        <time>2017-04-16T12:49:16Z</time>
      </trkpt>
      <trkpt lat="42.80221" lon="0.40497">
        <ele>953.7</ele>
        <time>2017-04-16T12:49:19Z</time>
      </trkpt>
      <trkpt lat="42.80221" lon="0.40497">
        <ele>954</ele>
        <time>2017-04-16T12:49:22Z</time>
      </trkpt>
      <trkpt lat="42.80221" lon="0.40498">
        <ele>952.7</ele>
        <time>2017-04-16T12:49:25Z</time>
      </trkpt>
      <trkpt lat="42.80221" lon="0.40498">
        <ele>953</ele>
        <time>2017-04-16T12:49:28Z</time>
      </trkpt>
      <trkpt lat="42.80221" lon="0.40498">
        <ele>954.7</ele>
        <time>2017-04-16T12:49:31Z</time>
      </trkpt>
      <trkpt lat="42.80221" lon="0.40498">
        <ele>952</ele>
        <time>2017-04-16T12:49:34Z</time>
      </trkpt>
      <trkpt lat="42.80221" lon="0.40498">
        <ele>954.5</ele>
        <time>2017-04-16T12:49:37Z</time>
      </trkpt>
      <trkpt lat="42.80221" lon="0.40498">
        <ele>952.5</ele>
        <time>2017-04-16T12:49:40Z</time>
      </trkpt>
      <trkpt lat="42.80221" lon="0.40498">
        <ele>953.5</ele>
        <time>2017-04-16T12:49:43Z</time>
      </trkpt>
      <trkpt lat="42.80221" lon="0.40498">
        <ele>954</ele>
        <time>2017-04-16T12:49:46Z</time>
      </trkpt>
      <trkpt lat="42.80221" lon="0.40499">
        <ele>953</ele>
        <time>2017-04-16T12:49:49Z</time>
      </trkpt>
      <trkpt lat="42.80221" lon="0.40499">
        <ele>953.5</ele>
        <time>2017-04-16T12:49:52Z</time>
      </trkpt>
      <trkpt lat="42.80221" lon="0.40499">
        <ele>952.2</ele>
        <time>2017-04-16T12:49:55Z</time>
      </trkpt>
      <trkpt lat="42.80221" lon="0.40499">
        <ele>954</ele>
        <time>2017-04-16T12:49:58Z</time>
      </trkpt>
      <trkpt lat="42.80221" lon="0.40499">
        <ele>953</ele>
        <time>2017-04-16T12:50:01Z</time>
      </trkpt>
      <trkpt lat="42.80221" lon="0.40499">
        <ele>953</ele>
        <time>2017-04-16T12:50:04Z</time>
      </trkpt>
      <trkpt lat="42.80221" lon="0.40499">
        <ele>952.7</ele>
        <time>2017-04-16T12:50:07Z</time>
      </trkpt>
      <trkpt lat="42.80221" lon="0.40499">
        <ele>952</ele>
        <time>2017-04-16T12:50:10Z</time>
      </trkpt>
      <trkpt lat="42.80221" lon="0.40499">
        <ele>953.5</ele>
        <time>2017-04-16T12:50:13Z</time>
      </trkpt>
      <trkpt lat="42.80221" lon="0.40499">
        <ele>953.7</ele>
        <time>2017-04-16T12:50:16Z</time>
      </trkpt>
      <trkpt lat="42.80221" lon="0.40499">
        <ele>954</ele>
        <time>2017-04-16T12:50:19Z</time>
      </trkpt>
      <trkpt lat="42.80221" lon="0.40499">
        <ele>953.3</ele>
        <time>2017-04-16T12:50:22Z</time>
      </trkpt>
      <trkpt lat="42.80221" lon="0.40499">
        <ele>953.5</ele>
        <time>2017-04-16T12:50:25Z</time>
      </trkpt>
      <trkpt lat="42.80221" lon="0.40499">
        <ele>952.5</ele>
        <time>2017-04-16T12:50:28Z</time>
      </trkpt>
      <trkpt lat="42.80221" lon="0.40499">
        <ele>952.7</ele>
        <time>2017-04-16T12:50:31Z</time>
      </trkpt>
      <trkpt lat="42.80221" lon="0.40499">
        <ele>955</ele>
        <time>2017-04-16T12:50:34Z</time>
      </trkpt>
      <trkpt lat="42.80221" lon="0.40499">
        <ele>954.7</ele>
        <time>2017-04-16T12:50:37Z</time>
      </trkpt>
      <trkpt lat="42.80222" lon="0.40499">
        <ele>955</ele>
        <time>2017-04-16T12:50:40Z</time>
      </trkpt>
      <trkpt lat="42.80222" lon="0.40499">
        <ele>953.5</ele>
        <time>2017-04-16T12:50:43Z</time>
      </trkpt>
      <trkpt lat="42.80222" lon="0.40499">
        <ele>955</ele>
        <time>2017-04-16T12:50:46Z</time>
      </trkpt>
      <trkpt lat="42.80222" lon="0.40499">
        <ele>954.2</ele>
        <time>2017-04-16T12:50:49Z</time>
      </trkpt>
      <trkpt lat="42.80222" lon="0.40499">
        <ele>954.7</ele>
        <time>2017-04-16T12:50:52Z</time>
      </trkpt>
      <trkpt lat="42.80222" lon="0.40499">
        <ele>955</ele>
        <time>2017-04-16T12:50:55Z</time>
      </trkpt>
      <trkpt lat="42.80222" lon="0.40499">
        <ele>954.5</ele>
        <time>2017-04-16T12:50:58Z</time>
      </trkpt>
      <trkpt lat="42.80222" lon="0.40499">
        <ele>954</ele>
        <time>2017-04-16T12:51:01Z</time>
      </trkpt>
      <trkpt lat="42.80222" lon="0.40498">
        <ele>955</ele>
        <time>2017-04-16T12:51:04Z</time>
      </trkpt>
      <trkpt lat="42.80222" lon="0.40498">
        <ele>955</ele>
        <time>2017-04-16T12:51:07Z</time>
      </trkpt>
      <trkpt lat="42.80222" lon="0.40498">
        <ele>955</ele>
        <time>2017-04-16T12:51:10Z</time>
      </trkpt>
      <trkpt lat="42.80222" lon="0.40498">
        <ele>954</ele>
        <time>2017-04-16T12:51:13Z</time>
      </trkpt>
      <trkpt lat="42.80222" lon="0.40498">
        <ele>953.7</ele>
        <time>2017-04-16T12:51:16Z</time>
      </trkpt>
      <trkpt lat="42.80222" lon="0.40498">
        <ele>954</ele>
        <time>2017-04-16T12:51:19Z</time>
      </trkpt>
      <trkpt lat="42.80222" lon="0.40498">
        <ele>953.2</ele>
        <time>2017-04-16T12:51:22Z</time>
      </trkpt>
      <trkpt lat="42.80222" lon="0.40498">
        <ele>953.5</ele>
        <time>2017-04-16T12:51:25Z</time>
      </trkpt>
      <trkpt lat="42.80222" lon="0.40498">
        <ele>956.8</ele>
        <time>2017-04-16T12:51:28Z</time>
      </trkpt>
      <trkpt lat="42.80222" lon="0.40498">
        <ele>958</ele>
        <time>2017-04-16T12:51:31Z</time>
      </trkpt>
      <trkpt lat="42.80222" lon="0.40498">
        <ele>956.5</ele>
        <time>2017-04-16T12:51:34Z</time>
      </trkpt>
      <trkpt lat="42.80222" lon="0.40498">
        <ele>956.7</ele>
        <time>2017-04-16T12:51:37Z</time>
      </trkpt>
      <trkpt lat="42.80222" lon="0.40498">
        <ele>956.5</ele>
        <time>2017-04-16T12:51:40Z</time>
      </trkpt>
      <trkpt lat="42.80222" lon="0.40498">
        <ele>957</ele>
        <time>2017-04-16T12:51:43Z</time>
      </trkpt>
      <trkpt lat="42.80222" lon="0.40498">
        <ele>955.5</ele>
        <time>2017-04-16T12:51:46Z</time>
      </trkpt>
      <trkpt lat="42.80222" lon="0.40498">
        <ele>955.2</ele>
        <time>2017-04-16T12:51:49Z</time>
      </trkpt>
      <trkpt lat="42.80222" lon="0.40498">
        <ele>955.5</ele>
        <time>2017-04-16T12:51:52Z</time>
      </trkpt>
      <trkpt lat="42.80222" lon="0.40498">
        <ele>954.5</ele>
        <time>2017-04-16T12:51:55Z</time>
      </trkpt>
      <trkpt lat="42.80222" lon="0.40498">
        <ele>954</ele>
        <time>2017-04-16T12:51:58Z</time>
      </trkpt>
      <trkpt lat="42.80221" lon="0.40498">
        <ele>954.7</ele>
        <time>2017-04-16T12:52:01Z</time>
      </trkpt>
      <trkpt lat="42.80221" lon="0.40498">
        <ele>955</ele>
        <time>2017-04-16T12:52:04Z</time>
      </trkpt>
      <trkpt lat="42.80221" lon="0.40498">
        <ele>955</ele>
        <time>2017-04-16T12:52:07Z</time>
      </trkpt>
      <trkpt lat="42.80221" lon="0.40498">
        <ele>954.5</ele>
        <time>2017-04-16T12:52:10Z</time>
      </trkpt>
      <trkpt lat="42.80222" lon="0.40498">
        <ele>953.5</ele>
        <time>2017-04-16T12:52:13Z</time>
      </trkpt>
      <trkpt lat="42.80222" lon="0.40498">
        <ele>954</ele>
        <time>2017-04-16T12:52:16Z</time>
      </trkpt>
      <trkpt lat="42.80222" lon="0.40498">
        <ele>955</ele>
        <time>2017-04-16T12:52:19Z</time>
      </trkpt>
      <trkpt lat="42.80222" lon="0.40498">
        <ele>955.5</ele>
        <time>2017-04-16T12:52:22Z</time>
      </trkpt>
      <trkpt lat="42.80222" lon="0.40498">
        <ele>955.2</ele>
        <time>2017-04-16T12:52:25Z</time>
      </trkpt>
      <trkpt lat="42.80222" lon="0.40498">
        <ele>955.7</ele>
        <time>2017-04-16T12:52:28Z</time>
      </trkpt>
      <trkpt lat="42.80222" lon="0.40498">
        <ele>956</ele>
        <time>2017-04-16T12:52:31Z</time>
      </trkpt>
      <trkpt lat="42.80222" lon="0.40498">
        <ele>955.5</ele>
        <time>2017-04-16T12:52:34Z</time>
      </trkpt>
      <trkpt lat="42.80222" lon="0.40498">
        <ele>957</ele>
        <time>2017-04-16T12:52:37Z</time>
      </trkpt>
      <trkpt lat="42.80222" lon="0.40498">
        <ele>956</ele>
        <time>2017-04-16T12:52:40Z</time>
      </trkpt>
      <trkpt lat="42.80223" lon="0.40498">
        <ele>955</ele>
        <time>2017-04-16T12:52:43Z</time>
      </trkpt>
      <trkpt lat="42.80223" lon="0.40498">
        <ele>954.5</ele>
        <time>2017-04-16T12:52:46Z</time>
      </trkpt>
      <trkpt lat="42.80223" lon="0.40498">
        <ele>954.7</ele>
        <time>2017-04-16T12:52:49Z</time>
      </trkpt>
      <trkpt lat="42.80223" lon="0.40498">
        <ele>956</ele>
        <time>2017-04-16T12:52:52Z</time>
      </trkpt>
      <trkpt lat="42.80222" lon="0.40497">
        <ele>957.2</ele>
        <time>2017-04-16T12:52:55Z</time>
      </trkpt>
      <trkpt lat="42.80222" lon="0.40497">
        <ele>957.7</ele>
        <time>2017-04-16T12:52:58Z</time>
      </trkpt>
      <trkpt lat="42.80222" lon="0.40497">
        <ele>955.5</ele>
        <time>2017-04-16T12:53:01Z</time>
      </trkpt>
      <trkpt lat="42.80222" lon="0.40498">
        <ele>954</ele>
        <time>2017-04-16T12:53:04Z</time>
      </trkpt>
      <trkpt lat="42.80222" lon="0.40498">
        <ele>956</ele>
        <time>2017-04-16T12:53:07Z</time>
      </trkpt>
      <trkpt lat="42.80222" lon="0.40498">
        <ele>958</ele>
        <time>2017-04-16T12:53:10Z</time>
      </trkpt>
      <trkpt lat="42.80222" lon="0.40498">
        <ele>957.2</ele>
        <time>2017-04-16T12:53:13Z</time>
      </trkpt>
      <trkpt lat="42.80222" lon="0.40498">
        <ele>957</ele>
        <time>2017-04-16T12:53:16Z</time>
      </trkpt>
      <trkpt lat="42.80222" lon="0.40498">
        <ele>957</ele>
        <time>2017-04-16T12:53:19Z</time>
      </trkpt>
      <trkpt lat="42.80222" lon="0.40498">
        <ele>957</ele>
        <time>2017-04-16T12:53:22Z</time>
      </trkpt>
      <trkpt lat="42.80222" lon="0.40498">
        <ele>957</ele>
        <time>2017-04-16T12:53:25Z</time>
      </trkpt>
      <trkpt lat="42.80222" lon="0.40498">
        <ele>958</ele>
        <time>2017-04-16T12:53:28Z</time>
      </trkpt>
      <trkpt lat="42.80222" lon="0.40498">
        <ele>956.5</ele>
        <time>2017-04-16T12:53:31Z</time>
      </trkpt>
      <trkpt lat="42.80222" lon="0.40498">
        <ele>956.7</ele>
        <time>2017-04-16T12:53:34Z</time>
      </trkpt>
      <trkpt lat="42.80222" lon="0.40498">
        <ele>958</ele>
        <time>2017-04-16T12:53:37Z</time>
      </trkpt>
      <trkpt lat="42.80222" lon="0.40498">
        <ele>957.5</ele>
        <time>2017-04-16T12:53:40Z</time>
      </trkpt>
      <trkpt lat="42.80222" lon="0.40498">
        <ele>956.5</ele>
        <time>2017-04-16T12:53:43Z</time>
      </trkpt>
      <trkpt lat="42.80222" lon="0.40498">
        <ele>956.7</ele>
        <time>2017-04-16T12:53:46Z</time>
      </trkpt>
      <trkpt lat="42.80222" lon="0.40498">
        <ele>958</ele>
        <time>2017-04-16T12:53:49Z</time>
      </trkpt>
      <trkpt lat="42.80222" lon="0.40498">
        <ele>956</ele>
        <time>2017-04-16T12:53:52Z</time>
      </trkpt>
      <trkpt lat="42.80222" lon="0.40498">
        <ele>956.7</ele>
        <time>2017-04-16T12:53:55Z</time>
      </trkpt>
      <trkpt lat="42.80222" lon="0.40498">
        <ele>956.5</ele>
        <time>2017-04-16T12:53:58Z</time>
      </trkpt>
      <trkpt lat="42.80222" lon="0.40498">
        <ele>956</ele>
        <time>2017-04-16T12:54:01Z</time>
      </trkpt>
      <trkpt lat="42.80222" lon="0.40498">
        <ele>955.5</ele>
        <time>2017-04-16T12:54:04Z</time>
      </trkpt>
      <trkpt lat="42.80222" lon="0.40498">
        <ele>953.5</ele>
        <time>2017-04-16T12:54:07Z</time>
      </trkpt>
      <trkpt lat="42.80222" lon="0.40498">
        <ele>954.5</ele>
        <time>2017-04-16T12:54:10Z</time>
      </trkpt>
      <trkpt lat="42.80223" lon="0.40498">
        <ele>956.5</ele>
        <time>2017-04-16T12:54:13Z</time>
      </trkpt>
      <trkpt lat="42.80223" lon="0.40498">
        <ele>956</ele>
        <time>2017-04-16T12:54:16Z</time>
      </trkpt>
      <trkpt lat="42.80223" lon="0.40498">
        <ele>956</ele>
        <time>2017-04-16T12:54:19Z</time>
      </trkpt>
      <trkpt lat="42.80223" lon="0.40498">
        <ele>955</ele>
        <time>2017-04-16T12:54:22Z</time>
      </trkpt>
      <trkpt lat="42.80223" lon="0.40498">
        <ele>954</ele>
        <time>2017-04-16T12:54:25Z</time>
      </trkpt>
      <trkpt lat="42.80223" lon="0.40498">
        <ele>953.7</ele>
        <time>2017-04-16T12:54:28Z</time>
      </trkpt>
      <trkpt lat="42.80223" lon="0.40498">
        <ele>954.7</ele>
        <time>2017-04-16T12:54:31Z</time>
      </trkpt>
      <trkpt lat="42.80223" lon="0.40498">
        <ele>956</ele>
        <time>2017-04-16T12:54:34Z</time>
      </trkpt>
      <trkpt lat="42.80223" lon="0.40497">
        <ele>956</ele>
        <time>2017-04-16T12:54:37Z</time>
      </trkpt>
      <trkpt lat="42.80223" lon="0.40497">
        <ele>955</ele>
        <time>2017-04-16T12:54:40Z</time>
      </trkpt>
      <trkpt lat="42.80223" lon="0.40497">
        <ele>955.5</ele>
        <time>2017-04-16T12:54:43Z</time>
      </trkpt>
      <trkpt lat="42.80223" lon="0.40497">
        <ele>955</ele>
        <time>2017-04-16T12:54:46Z</time>
      </trkpt>
      <trkpt lat="42.80223" lon="0.40497">
        <ele>954</ele>
        <time>2017-04-16T12:54:49Z</time>
      </trkpt>
      <trkpt lat="42.80223" lon="0.40497">
        <ele>954</ele>
        <time>2017-04-16T12:54:52Z</time>
      </trkpt>
      <trkpt lat="42.80223" lon="0.40497">
        <ele>956.2</ele>
        <time>2017-04-16T12:54:55Z</time>
      </trkpt>
      <trkpt lat="42.80223" lon="0.40497">
        <ele>954</ele>
        <time>2017-04-16T12:54:58Z</time>
      </trkpt>
      <trkpt lat="42.80223" lon="0.40497">
        <ele>954.5</ele>
        <time>2017-04-16T12:55:01Z</time>
      </trkpt>
      <trkpt lat="42.80223" lon="0.40496">
        <ele>954.7</ele>
        <time>2017-04-16T12:55:04Z</time>
      </trkpt>
      <trkpt lat="42.80223" lon="0.40496">
        <ele>954.2</ele>
        <time>2017-04-16T12:55:07Z</time>
      </trkpt>
      <trkpt lat="42.80223" lon="0.40496">
        <ele>954</ele>
        <time>2017-04-16T12:55:10Z</time>
      </trkpt>
      <trkpt lat="42.80223" lon="0.40496">
        <ele>955.5</ele>
        <time>2017-04-16T12:55:13Z</time>
      </trkpt>
      <trkpt lat="42.80223" lon="0.40496">
        <ele>955</ele>
        <time>2017-04-16T12:55:16Z</time>
      </trkpt>
      <trkpt lat="42.80223" lon="0.40496">
        <ele>953.5</ele>
        <time>2017-04-16T12:55:19Z</time>
      </trkpt>
      <trkpt lat="42.80223" lon="0.40496">
        <ele>954.5</ele>
        <time>2017-04-16T12:55:22Z</time>
      </trkpt>
      <trkpt lat="42.80223" lon="0.40496">
        <ele>956</ele>
        <time>2017-04-16T12:55:25Z</time>
      </trkpt>
      <trkpt lat="42.80223" lon="0.40496">
        <ele>955.5</ele>
        <time>2017-04-16T12:55:28Z</time>
      </trkpt>
      <trkpt lat="42.80223" lon="0.40496">
        <ele>956</ele>
        <time>2017-04-16T12:55:31Z</time>
      </trkpt>
      <trkpt lat="42.80223" lon="0.40495">
        <ele>955.2</ele>
        <time>2017-04-16T12:55:34Z</time>
      </trkpt>
      <trkpt lat="42.80223" lon="0.40495">
        <ele>954.2</ele>
        <time>2017-04-16T12:55:37Z</time>
      </trkpt>
      <trkpt lat="42.80223" lon="0.40495">
        <ele>956.5</ele>
        <time>2017-04-16T12:55:40Z</time>
      </trkpt>
      <trkpt lat="42.80223" lon="0.40495">
        <ele>957</ele>
        <time>2017-04-16T12:55:43Z</time>
      </trkpt>
      <trkpt lat="42.80223" lon="0.40495">
        <ele>956.5</ele>
        <time>2017-04-16T12:55:46Z</time>
      </trkpt>
      <trkpt lat="42.80223" lon="0.40495">
        <ele>955.5</ele>
        <time>2017-04-16T12:55:49Z</time>
      </trkpt>
      <trkpt lat="42.80223" lon="0.40495">
        <ele>955</ele>
        <time>2017-04-16T12:55:52Z</time>
      </trkpt>
      <trkpt lat="42.80223" lon="0.40495">
        <ele>955</ele>
        <time>2017-04-16T12:55:55Z</time>
      </trkpt>
      <trkpt lat="42.80223" lon="0.40495">
        <ele>955</ele>
        <time>2017-04-16T12:55:58Z</time>
      </trkpt>
      <trkpt lat="42.80223" lon="0.40495">
        <ele>955.5</ele>
        <time>2017-04-16T12:56:01Z</time>
      </trkpt>
      <trkpt lat="42.80223" lon="0.40495">
        <ele>955.2</ele>
        <time>2017-04-16T12:56:04Z</time>
      </trkpt>
      <trkpt lat="42.80223" lon="0.40495">
        <ele>955.5</ele>
        <time>2017-04-16T12:56:07Z</time>
      </trkpt>
      <trkpt lat="42.80223" lon="0.40495">
        <ele>953.5</ele>
        <time>2017-04-16T12:56:10Z</time>
      </trkpt>
      <trkpt lat="42.80223" lon="0.40495">
        <ele>952.2</ele>
        <time>2017-04-16T12:56:13Z</time>
      </trkpt>
      <trkpt lat="42.80223" lon="0.40495">
        <ele>953</ele>
        <time>2017-04-16T12:56:16Z</time>
      </trkpt>
      <trkpt lat="42.80223" lon="0.40495">
        <ele>953.5</ele>
        <time>2017-04-16T12:56:19Z</time>
      </trkpt>
      <trkpt lat="42.80223" lon="0.40496">
        <ele>953.5</ele>
        <time>2017-04-16T12:56:22Z</time>
      </trkpt>
      <trkpt lat="42.80223" lon="0.40496">
        <ele>954.5</ele>
        <time>2017-04-16T12:56:25Z</time>
      </trkpt>
      <trkpt lat="42.80223" lon="0.40496">
        <ele>952.5</ele>
        <time>2017-04-16T12:56:28Z</time>
      </trkpt>
      <trkpt lat="42.80223" lon="0.40496">
        <ele>953</ele>
        <time>2017-04-16T12:56:31Z</time>
      </trkpt>
      <trkpt lat="42.80223" lon="0.40496">
        <ele>952.2</ele>
        <time>2017-04-16T12:56:34Z</time>
      </trkpt>
      <trkpt lat="42.80223" lon="0.40496">
        <ele>952.7</ele>
        <time>2017-04-16T12:56:37Z</time>
      </trkpt>
      <trkpt lat="42.80223" lon="0.40496">
        <ele>955</ele>
        <time>2017-04-16T12:56:40Z</time>
      </trkpt>
      <trkpt lat="42.80223" lon="0.40496">
        <ele>953.2</ele>
        <time>2017-04-16T12:56:43Z</time>
      </trkpt>
      <trkpt lat="42.80223" lon="0.40496">
        <ele>953.7</ele>
        <time>2017-04-16T12:56:46Z</time>
      </trkpt>
      <trkpt lat="42.80223" lon="0.40496">
        <ele>953.2</ele>
        <time>2017-04-16T12:56:49Z</time>
      </trkpt>
      <trkpt lat="42.80223" lon="0.40496">
        <ele>953</ele>
        <time>2017-04-16T12:56:52Z</time>
      </trkpt>
      <trkpt lat="42.80223" lon="0.40496">
        <ele>953</ele>
        <time>2017-04-16T12:56:55Z</time>
      </trkpt>
      <trkpt lat="42.80223" lon="0.40497">
        <ele>954.5</ele>
        <time>2017-04-16T12:56:58Z</time>
      </trkpt>
      <trkpt lat="42.80223" lon="0.40497">
        <ele>953.7</ele>
        <time>2017-04-16T12:57:01Z</time>
      </trkpt>
      <trkpt lat="42.80223" lon="0.40497">
        <ele>953</ele>
        <time>2017-04-16T12:57:04Z</time>
      </trkpt>
      <trkpt lat="42.80223" lon="0.40497">
        <ele>953</ele>
        <time>2017-04-16T12:57:07Z</time>
      </trkpt>
      <trkpt lat="42.80223" lon="0.40497">
        <ele>952.2</ele>
        <time>2017-04-16T12:57:10Z</time>
      </trkpt>
      <trkpt lat="42.80223" lon="0.40497">
        <ele>952</ele>
        <time>2017-04-16T12:57:13Z</time>
      </trkpt>
      <trkpt lat="42.80223" lon="0.40497">
        <ele>952</ele>
        <time>2017-04-16T12:57:16Z</time>
      </trkpt>
      <trkpt lat="42.80223" lon="0.40497">
        <ele>952</ele>
        <time>2017-04-16T12:57:19Z</time>
      </trkpt>
      <trkpt lat="42.80223" lon="0.40497">
        <ele>952</ele>
        <time>2017-04-16T12:57:22Z</time>
      </trkpt>
      <trkpt lat="42.80223" lon="0.40497">
        <ele>953</ele>
        <time>2017-04-16T12:57:25Z</time>
      </trkpt>
      <trkpt lat="42.80223" lon="0.40497">
        <ele>952.1</ele>
        <time>2017-04-16T12:57:28Z</time>
      </trkpt>
      <trkpt lat="42.80223" lon="0.40497">
        <ele>952</ele>
        <time>2017-04-16T12:57:31Z</time>
      </trkpt>
      <trkpt lat="42.80223" lon="0.40497">
        <ele>949.5</ele>
        <time>2017-04-16T12:57:34Z</time>
      </trkpt>
      <trkpt lat="42.80223" lon="0.40497">
        <ele>950</ele>
        <time>2017-04-16T12:57:37Z</time>
      </trkpt>
      <trkpt lat="42.80223" lon="0.40497">
        <ele>951</ele>
        <time>2017-04-16T12:57:40Z</time>
      </trkpt>
      <trkpt lat="42.80223" lon="0.40497">
        <ele>952.5</ele>
        <time>2017-04-16T12:57:43Z</time>
      </trkpt>
      <trkpt lat="42.80223" lon="0.40497">
        <ele>950.7</ele>
        <time>2017-04-16T12:57:46Z</time>
      </trkpt>
      <trkpt lat="42.80223" lon="0.40497">
        <ele>951</ele>
        <time>2017-04-16T12:57:49Z</time>
      </trkpt>
      <trkpt lat="42.80223" lon="0.40497">
        <ele>950.2</ele>
        <time>2017-04-16T12:57:52Z</time>
      </trkpt>
      <trkpt lat="42.80223" lon="0.40497">
        <ele>950</ele>
        <time>2017-04-16T12:57:55Z</time>
      </trkpt>
      <trkpt lat="42.80223" lon="0.40497">
        <ele>950.7</ele>
        <time>2017-04-16T12:57:58Z</time>
      </trkpt>
      <trkpt lat="42.80223" lon="0.40497">
        <ele>951.5</ele>
        <time>2017-04-16T12:58:01Z</time>
      </trkpt>
      <trkpt lat="42.80223" lon="0.40497">
        <ele>949.2</ele>
        <time>2017-04-16T12:58:04Z</time>
      </trkpt>
      <trkpt lat="42.80223" lon="0.40497">
        <ele>949.5</ele>
        <time>2017-04-16T12:58:07Z</time>
      </trkpt>
      <trkpt lat="42.80223" lon="0.40498">
        <ele>949</ele>
        <time>2017-04-16T12:58:10Z</time>
      </trkpt>
      <trkpt lat="42.80223" lon="0.40498">
        <ele>948.5</ele>
        <time>2017-04-16T12:58:13Z</time>
      </trkpt>
      <trkpt lat="42.80223" lon="0.40498">
        <ele>948.5</ele>
        <time>2017-04-16T12:58:16Z</time>
      </trkpt>
      <trkpt lat="42.80223" lon="0.40498">
        <ele>949.7</ele>
        <time>2017-04-16T12:58:19Z</time>
      </trkpt>
      <trkpt lat="42.80223" lon="0.40498">
        <ele>946.8</ele>
        <time>2017-04-16T12:58:22Z</time>
      </trkpt>
      <trkpt lat="42.80223" lon="0.40498">
        <ele>948.5</ele>
        <time>2017-04-16T12:58:25Z</time>
      </trkpt>
      <trkpt lat="42.80223" lon="0.40498">
        <ele>948.5</ele>
        <time>2017-04-16T12:58:28Z</time>
      </trkpt>
      <trkpt lat="42.80223" lon="0.40498">
        <ele>948.7</ele>
        <time>2017-04-16T12:58:31Z</time>
      </trkpt>
      <trkpt lat="42.80223" lon="0.40498">
        <ele>948</ele>
        <time>2017-04-16T12:58:34Z</time>
      </trkpt>
      <trkpt lat="42.80223" lon="0.40498">
        <ele>948.5</ele>
        <time>2017-04-16T12:58:37Z</time>
      </trkpt>
      <trkpt lat="42.80223" lon="0.40498">
        <ele>948.7</ele>
        <time>2017-04-16T12:58:40Z</time>
      </trkpt>
      <trkpt lat="42.80223" lon="0.40498">
        <ele>946.5</ele>
        <time>2017-04-16T12:58:43Z</time>
      </trkpt>
      <trkpt lat="42.80223" lon="0.40498">
        <ele>947</ele>
        <time>2017-04-16T12:58:46Z</time>
      </trkpt>
      <trkpt lat="42.80223" lon="0.40498">
        <ele>947</ele>
        <time>2017-04-16T12:58:49Z</time>
      </trkpt>
      <trkpt lat="42.80223" lon="0.40498">
        <ele>946</ele>
        <time>2017-04-16T12:58:52Z</time>
      </trkpt>
      <trkpt lat="42.80223" lon="0.40497">
        <ele>946</ele>
        <time>2017-04-16T12:58:55Z</time>
      </trkpt>
      <trkpt lat="42.80223" lon="0.40498">
        <ele>946</ele>
        <time>2017-04-16T12:58:58Z</time>
      </trkpt>
      <trkpt lat="42.80223" lon="0.40498">
        <ele>946</ele>
        <time>2017-04-16T12:59:01Z</time>
      </trkpt>
      <trkpt lat="42.80223" lon="0.40498">
        <ele>946</ele>
        <time>2017-04-16T12:59:04Z</time>
      </trkpt>
      <trkpt lat="42.80223" lon="0.40497">
        <ele>946.5</ele>
        <time>2017-04-16T12:59:07Z</time>
      </trkpt>
      <trkpt lat="42.80223" lon="0.40498">
        <ele>947.5</ele>
        <time>2017-04-16T12:59:10Z</time>
      </trkpt>
      <trkpt lat="42.80223" lon="0.40497">
        <ele>948</ele>
        <time>2017-04-16T12:59:13Z</time>
      </trkpt>
      <trkpt lat="42.80223" lon="0.40497">
        <ele>947</ele>
        <time>2017-04-16T12:59:16Z</time>
      </trkpt>
      <trkpt lat="42.80223" lon="0.40497">
        <ele>947</ele>
        <time>2017-04-16T12:59:19Z</time>
      </trkpt>
      <trkpt lat="42.80223" lon="0.40497">
        <ele>946.5</ele>
        <time>2017-04-16T12:59:22Z</time>
      </trkpt>
      <trkpt lat="42.80223" lon="0.40497">
        <ele>946.2</ele>
        <time>2017-04-16T12:59:25Z</time>
      </trkpt>
      <trkpt lat="42.80223" lon="0.40497">
        <ele>945.2</ele>
        <time>2017-04-16T12:59:28Z</time>
      </trkpt>
      <trkpt lat="42.80223" lon="0.40497">
        <ele>945.5</ele>
        <time>2017-04-16T12:59:31Z</time>
      </trkpt>
      <trkpt lat="42.80223" lon="0.40498">
        <ele>945</ele>
        <time>2017-04-16T12:59:34Z</time>
      </trkpt>
      <trkpt lat="42.80223" lon="0.40498">
        <ele>945</ele>
        <time>2017-04-16T12:59:37Z</time>
      </trkpt>
      <trkpt lat="42.80223" lon="0.40498">
        <ele>944.2</ele>
        <time>2017-04-16T12:59:40Z</time>
      </trkpt>
      <trkpt lat="42.80223" lon="0.40498">
        <ele>945</ele>
        <time>2017-04-16T12:59:43Z</time>
      </trkpt>
      <trkpt lat="42.80223" lon="0.40498">
        <ele>944.2</ele>
        <time>2017-04-16T12:59:46Z</time>
      </trkpt>
      <trkpt lat="42.80223" lon="0.40498">
        <ele>945</ele>
        <time>2017-04-16T12:59:49Z</time>
      </trkpt>
      <trkpt lat="42.80223" lon="0.40498">
        <ele>945.7</ele>
        <time>2017-04-16T12:59:52Z</time>
      </trkpt>
      <trkpt lat="42.80223" lon="0.40498">
        <ele>945.2</ele>
        <time>2017-04-16T12:59:55Z</time>
      </trkpt>
      <trkpt lat="42.80224" lon="0.40498">
        <ele>946</ele>
        <time>2017-04-16T12:59:58Z</time>
      </trkpt>
      <trkpt lat="42.80224" lon="0.40499">
        <ele>945.5</ele>
        <time>2017-04-16T13:00:01Z</time>
      </trkpt>
      <trkpt lat="42.80224" lon="0.405">
        <ele>946</ele>
        <time>2017-04-16T13:00:04Z</time>
      </trkpt>
      <trkpt lat="42.80225" lon="0.40501">
        <ele>946.5</ele>
        <time>2017-04-16T13:00:07Z</time>
      </trkpt>
      <trkpt lat="42.80225" lon="0.40503">
        <ele>946</ele>
        <time>2017-04-16T13:00:10Z</time>
      </trkpt>
      <trkpt lat="42.80225" lon="0.40503">
        <ele>946.5</ele>
        <time>2017-04-16T13:00:13Z</time>
      </trkpt>
      <trkpt lat="42.80225" lon="0.40503">
        <ele>946</ele>
        <time>2017-04-16T13:00:16Z</time>
      </trkpt>
      <trkpt lat="42.80225" lon="0.40504">
        <ele>946.7</ele>
        <time>2017-04-16T13:00:19Z</time>
      </trkpt>
      <trkpt lat="42.80225" lon="0.40504">
        <ele>947.5</ele>
        <time>2017-04-16T13:00:22Z</time>
      </trkpt>
      <trkpt lat="42.80225" lon="0.40504">
        <ele>946.5</ele>
        <time>2017-04-16T13:00:25Z</time>
      </trkpt>
      <trkpt lat="42.80226" lon="0.40503">
        <ele>947</ele>
        <time>2017-04-16T13:00:28Z</time>
      </trkpt>
      <trkpt lat="42.80225" lon="0.40502">
        <ele>946.5</ele>
        <time>2017-04-16T13:00:31Z</time>
      </trkpt>
      <trkpt lat="42.80225" lon="0.40502">
        <ele>948</ele>
        <time>2017-04-16T13:00:34Z</time>
      </trkpt>
      <trkpt lat="42.80225" lon="0.40502">
        <ele>948</ele>
        <time>2017-04-16T13:00:36Z</time>
      </trkpt>
    </trkseg>
  </trk>
</gpx>